# Wetter Temperatur Luftdruck Luftfeuchtigkeit Sichtweite Windgeschwindigkeit Windrichtung Zeit
1 Clouds 3 1010 55 10000 3.1 190 19:56 17.10.2019
2 Clouds 4 1010 55 10000 3.1 190 19:38 17.10.2019
3 Clouds 4 1010 55 10000 3.1 190 19:19 17.10.2019
4 Clouds 4 1010 48 10000 4.1 60 18:43 17.10.2019
5 Clouds 4 1010 48 10000 4.1 60 18:21 17.10.2019
6 Clouds 4 1010 48 10000 2.1 0 17:58 17.10.2019
7 Clouds 4 1010 48 10000 2.1 0 17:40 17.10.2019
8 Clouds 4 1010 48 10000 2.1 0 17:22 17.10.2019
9 Clouds 5 1010 41 10000 5.7 70 16:56 17.10.2019
10 Clouds 5 1010 41 10000 5.7 70 16:37 17.10.2019
11 Clouds 5 1010 41 10000 5.7 70 16:37 17.10.2019
12 Clouds 5 1010 41 10000 5.7 70 16:18 17.10.2019
13 Clouds 4 1010 44 10000 3.1 0 15:55 17.10.2019
14 Clouds 4 1010 44 10000 3.1 0 15:37 17.10.2019
15 Clouds 4 1010 44 10000 3.1 0 15:19 17.10.2019
16 Clouds 2 1010 55 10000 7.7 40 14:42 17.10.2019
17 Clouds 2 1010 55 10000 7.7 40 14:23 17.10.2019
18 Clouds 1 1011 69 10000 4.6 20 13:56 17.10.2019
19 Clouds 1 1011 69 10000 4.6 20 13:38 17.10.2019
20 Clouds 1 1011 69 10000 4.6 20 13:18 17.10.2019
21 Clouds 1 1011 69 10000 4.6 20 13:18 17.10.2019
22 Clouds 0 1011 58 10000 7.2 50 12:41 17.10.2019
23 Clouds 0 1011 73 10000 7.2 50 12:21 17.10.2019
24 Clouds 1 1011 64 10000 3.6 70 11:59 17.10.2019
25 Clouds 1 1011 64 10000 3.6 70 11:40 17.10.2019
26 Clouds 1 1011 64 10000 3.6 70 11:19 17.10.2019
27 Clouds 1 1012 59 0 3.1 60 10:55 17.10.2019
28 Clouds 1 1012 59 0 3.1 60 10:36 17.10.2019
29 Clouds 1 1012 59 0 3.1 60 10:18 17.10.2019
30 Clouds 1 1012 59 0 3.1 60 10:18 17.10.2019
31 Clouds 0 1012 73 0 4.1 60 09:42 17.10.2019
32 Clouds 0 1012 59 0 4.1 60 09:22 17.10.2019
33 Clouds 2 1012 55 0 1.5 100 08:59 17.10.2019
34 Clouds 2 1012 55 0 1.5 100 08:41 17.10.2019
35 Clouds 2 1012 55 0 1.5 100 08:21 17.10.2019
36 Clouds 2 1012 64 0 3.6 160 07:56 17.10.2019
37 Clouds 2 1012 64 0 3.6 160 07:37 17.10.2019
38 Clouds 2 1012 64 0 3.6 160 07:18 17.10.2019
39 Clouds 2 1012 64 0 3.6 160 07:18 17.10.2019
40 Clouds 2 1011 55 0 3.1 70 06:40 17.10.2019
41 Clouds 2 1011 55 0 3.1 70 06:21 17.10.2019
42 Clouds 2 1012 51 0 2.1 0 05:54 17.10.2019
43 Clouds 2 1012 51 0 2.1 0 05:32 17.10.2019
44 Clouds 0 1013 54 0 6.2 50 04:55 17.10.2019
45 Clouds 0 1013 54 0 2.1 90 03:55 17.10.2019
46 Clouds 0 1013 55 0 1.5 100 02:37 17.10.2019
47 Clouds 0 1013 55 0 3.1 60 01:31 17.10.2019
48 Clouds -1 1014 80 0 1.5 170 00:40 17.10.2019
49 Clouds -1 1014 80 0 1.5 170 00:19 17.10.2019
50 Clouds 0 1014 57 10000 1.5 110 23:42 16.10.2019
51 Clouds 0 1014 57 10000 1.5 110 23:21 16.10.2019
52 Clouds 1 1013 50 10000 2.1 60 22:56 16.10.2019
53 Clouds 1 1013 50 10000 2.1 60 22:56 16.10.2019
54 Clouds 1 1013 50 10000 2.1 60 22:37 16.10.2019
55 Clouds 1 1013 50 10000 2.1 60 22:37 16.10.2019
56 Clouds 1 1013 50 10000 2.1 60 22:19 16.10.2019
57 Clouds 1 1013 50 10000 2.1 60 22:19 16.10.2019
58 Clouds 1 1013 50 10000 2.1 60 22:19 16.10.2019
59 Clouds 1 1013 55 10000 0.5 0 21:57 16.10.2019
60 Clouds 1 1013 55 10000 0.5 0 21:37 16.10.2019
61 Clouds 1 1013 55 10000 0.5 0 21:19 16.10.2019
62 Clouds 3 1013 47 10000 1 0 20:58 16.10.2019
63 Clouds 3 1013 47 10000 1 0 20:58 16.10.2019
64 Clouds 3 1013 47 10000 1 0 20:39 16.10.2019
65 Clouds 3 1013 47 10000 1 0 20:21 16.10.2019
66 Clouds 3 1013 47 10000 4.6 200 19:59 16.10.2019
67 Clouds 3 1013 47 10000 4.6 200 19:39 16.10.2019
68 Clouds 3 1013 47 10000 4.6 200 19:39 16.10.2019
69 Clouds 3 1013 47 10000 4.6 200 19:20 16.10.2019
70 Clouds 5 1013 44 10000 0.5 0 18:54 16.10.2019
71 Clouds 5 1013 44 10000 0.5 0 18:54 16.10.2019
72 Clouds 5 1013 44 10000 0.5 0 18:36 16.10.2019
73 Clouds 5 1013 44 10000 0.5 0 18:18 16.10.2019
74 Clouds 4 1013 48 10000 2.1 180 17:54 16.10.2019
75 -273 0 0 0 0 0 17:36 16.10.2019
76 Clouds 4 1013 48 10000 2.1 180 17:18 16.10.2019
77 Clouds 2 1013 40 10000 1.5 210 16:42 16.10.2019
78 Clouds 2 1013 40 10000 1.5 210 16:21 16.10.2019
79 Clouds 1 1013 61 10000 1 0 15:58 16.10.2019
80 Clouds 0 1013 61 10000 1 0 15:39 16.10.2019
81 Clouds 0 1013 61 10000 1 0 15:39 16.10.2019
82 Clouds 0 1013 61 10000 1 0 15:39 16.10.2019
83 Clouds 0 1013 55 10000 1 0 15:19 16.10.2019
84 -273 0 0 0 0 0 14:58 16.10.2019
85 Clouds 0 1013 56 10000 3.6 60 14:39 16.10.2019
86 Clouds 0 1013 56 10000 3.6 60 14:19 16.10.2019
87 Clouds -1 1013 54 10000 2.1 90 13:57 16.10.2019
88 Clouds -1 1013 54 10000 2.1 90 13:56 16.10.2019
89 Clouds -1 1013 54 10000 2.1 90 13:38 16.10.2019
90 Clouds -1 1013 54 10000 2.1 90 13:38 16.10.2019
91 Clouds -1 1013 54 10000 2.1 90 13:19 16.10.2019
92 Clouds 0 1013 56 10000 2.1 90 12:42 16.10.2019
93 Clouds 0 1013 48 10000 2.1 90 12:19 16.10.2019
94 Clouds -1 1013 54 0 3.6 60 11:45 16.10.2019
95 Clouds -1 1013 54 0 3.6 60 11:45 16.10.2019
96 Clouds -1 1013 54 0 3.6 60 11:19 16.10.2019
97 Clouds 0 1012 48 0 1.5 0 10:55 16.10.2019
98 Clouds 0 1012 48 0 1.5 0 10:36 16.10.2019
99 Clouds 0 1012 48 0 1.5 0 10:18 16.10.2019
100 Clouds -1 1012 58 0 0.5 70 09:40 16.10.2019
101 Clouds -1 1012 58 0 0.5 70 09:21 16.10.2019
102 Clouds 0 1012 57 0 0.5 0 08:46 16.10.2019
103 Clouds 0 1012 57 0 0.5 0 08:26 16.10.2019
104 Clouds 0 1012 57 0 1 0 07:59 16.10.2019
105 Clouds 0 1012 57 0 1 0 07:41 16.10.2019
106 Clouds 0 1012 57 0 1 0 07:22 16.10.2019
107 Clouds 0 1012 57 0 1 180 06:47 16.10.2019
108 Clouds 0 1012 57 0 1 180 06:28 16.10.2019
109 Clouds 0 1010 47 0 6.7 50 04:25 16.10.2019
110 Clouds 0 1011 46 10000 9.3 70 02:51 16.10.2019
111 Clouds -1 1012 50 10000 8.7 50 01:20 16.10.2019
112 Clouds -1 1013 54 10000 8.7 50 00:59 16.10.2019
113 Clouds -1 1013 54 10000 8.7 50 00:39 16.10.2019
114 Clouds -2 1013 54 10000 9.8 50 23:58 15.10.2019
115 Clouds -2 1013 54 10000 9.8 50 23:38 15.10.2019
116 Clouds -2 1013 54 10000 9.8 50 23:19 15.10.2019
117 Clouds -1 1014 50 10000 6.2 50 22:55 15.10.2019
118 Clouds -1 1014 50 10000 6.2 50 22:55 15.10.2019
119 Clouds -1 1014 50 10000 6.2 50 22:37 15.10.2019
120 Clouds -1 1014 50 10000 6.2 50 22:18 15.10.2019
121 Clear 0 1014 43 10000 7.2 60 21:54 15.10.2019
122 Clear 0 1014 43 10000 7.2 60 21:36 15.10.2019
123 Clear 0 1014 43 10000 7.2 60 21:36 15.10.2019
124 Clear 0 1014 44 10000 7.2 60 21:18 15.10.2019
125 Clear 0 1014 44 10000 8.2 60 20:54 15.10.2019
126 Clear 0 1014 44 10000 8.2 60 20:36 15.10.2019
127 Clear 0 1014 44 10000 8.2 60 20:18 15.10.2019
128 Clear -1 1014 46 10000 9.8 70 19:55 15.10.2019
129 Clear -1 1014 46 10000 9.8 70 19:36 15.10.2019
130 Clear -1 1014 46 10000 9.8 70 19:18 15.10.2019
131 Clear -1 1015 46 10000 9.3 60 18:41 15.10.2019
132 Clear -1 1015 46 10000 9.3 60 18:23 15.10.2019
133 Clear -1 1015 50 10000 8.2 60 17:54 15.10.2019
134 Clear -1 1015 50 10000 8.2 60 17:36 15.10.2019
135 Clear -1 1015 50 10000 8.2 60 17:18 15.10.2019
136 Clear -2 1016 50 10000 9.3 60 16:43 15.10.2019
137 Clear -2 1016 50 10000 9.3 60 16:22 15.10.2019
138 Clear -2 1016 50 10000 7.7 60 15:57 15.10.2019
139 Clear -2 1016 50 10000 7.7 60 15:57 15.10.2019
140 Clear -2 1016 50 10000 7.7 60 15:39 15.10.2019
141 Clear -2 1016 50 10000 7.7 60 15:39 15.10.2019
142 Clear -2 1016 50 10000 7.7 60 15:19 15.10.2019
143 Clear -3 1016 63 10000 8.2 60 14:56 15.10.2019
144 Clear -3 1016 63 10000 8.2 60 14:37 15.10.2019
145 Clear -3 1016 63 10000 8.2 60 14:37 15.10.2019
146 Clear -3 1016 63 10000 8.2 60 14:18 15.10.2019
147 Clear -4 1016 68 10000 8.7 60 13:43 15.10.2019
148 Clear -4 1016 68 10000 8.7 60 13:20 15.10.2019
149 Clear -4 1017 68 10000 8.2 60 12:56 15.10.2019
150 Clear -4 1017 68 10000 8.2 60 12:56 15.10.2019
151 Clear -4 1017 68 10000 8.2 60 12:38 15.10.2019
152 Clear -4 1017 68 10000 8.2 60 12:19 15.10.2019
153 Clear -4 1017 68 10000 8.2 60 12:19 15.10.2019
154 Clouds -4 1017 73 10000 7.7 60 11:43 15.10.2019
155 Clouds -4 1017 73 10000 7.7 60 11:20 15.10.2019
156 Clear -4 1017 73 0 5.7 60 10:56 15.10.2019
157 Clear -4 1017 73 0 5.7 60 10:38 15.10.2019
158 Clear -4 1017 73 0 5.7 60 10:18 15.10.2019
159 Clear -4 1017 73 0 5.7 60 09:55 15.10.2019
160 Clear -4 1017 73 0 5.7 60 09:55 15.10.2019
161 Clear -4 1017 73 0 5.7 60 09:36 15.10.2019
162 Clear -4 1017 73 0 5.7 60 09:36 15.10.2019
163 Clear -4 1017 73 0 5.7 60 09:18 15.10.2019
164 Clear -4 1017 68 0 6.2 60 08:41 15.10.2019
165 Clear -4 1017 68 0 6.2 60 08:21 15.10.2019
166 -273 0 0 0 0 0 07:55 15.10.2019
167 Clear -4 1017 73 0 6.7 60 07:36 15.10.2019
168 Clear -4 1017 73 0 6.7 60 07:36 15.10.2019
169 Clear -4 1017 73 0 6.7 60 07:18 15.10.2019
170 Clear -3 1017 63 0 6.2 60 06:43 15.10.2019
171 Clear -3 1017 63 0 6.2 60 06:22 15.10.2019
172 Clear -4 1017 68 0 6.2 70 05:37 15.10.2019
173 Clear -4 1017 68 0 6.2 70 05:19 15.10.2019
174 Clear -3 1017 68 0 6.2 70 04:23 15.10.2019
175 Clear -4 1017 68 0 5.1 50 03:36 15.10.2019
176 Clear -4 1017 68 0 5.1 50 03:36 15.10.2019
177 Clouds -3 1017 68 10000 5.7 50 02:23 15.10.2019
178 Clouds -3 1016 63 10000 5.1 60 01:47 15.10.2019
179 Clouds -3 1016 63 10000 5.1 60 01:19 15.10.2019
180 Clouds -3 1016 68 10000 5.7 60 00:48 15.10.2019
181 Clouds -3 1016 68 10000 5.7 60 00:21 15.10.2019
182 Clouds -3 1016 68 10000 4.6 50 23:43 14.10.2019
183 Clouds -3 1016 68 10000 4.6 50 23:20 14.10.2019
184 Clouds -3 1016 63 10000 5.1 60 22:55 14.10.2019
185 Clouds -3 1016 63 10000 5.1 60 22:37 14.10.2019
186 Clouds -3 1016 63 10000 5.1 60 22:37 14.10.2019
187 Clouds -3 1016 63 10000 5.1 60 22:18 14.10.2019
188 Clouds -2 1016 58 10000 4.6 60 21:41 14.10.2019
189 Clouds -2 1016 58 10000 4.6 60 21:22 14.10.2019
190 Clouds -2 1015 58 10000 4.6 60 20:59 14.10.2019
191 Clouds -1 1015 58 10000 4.6 60 20:40 14.10.2019
192 Clouds -1 1015 58 10000 4.6 60 20:22 14.10.2019
193 Clouds -1 1015 43 10000 6.7 30 19:59 14.10.2019
194 Clouds 0 1015 45 10000 6.7 30 19:41 14.10.2019
195 Clouds 0 1015 45 10000 6.7 30 19:23 14.10.2019
196 Clouds 0 1014 43 10000 6.2 30 18:58 14.10.2019
197 Clouds 0 1014 43 10000 6.2 30 18:58 14.10.2019
198 Clouds 0 1014 43 10000 6.2 30 18:38 14.10.2019
199 Clouds 0 1014 39 10000 6.2 30 18:19 14.10.2019
200 Clear 0 1015 39 10000 3.6 60 17:56 14.10.2019
201 Clear 0 1015 39 10000 3.6 60 17:37 14.10.2019
202 Clear 0 1015 39 10000 3.6 60 17:19 14.10.2019
203 Clear -1 1014 58 10000 6.2 30 16:40 14.10.2019
204 Clear -1 1014 58 10000 6.2 30 16:21 14.10.2019
205 Clear -2 1014 63 10000 7.2 30 15:42 14.10.2019
206 Clear -2 1014 63 10000 7.2 30 15:22 14.10.2019
207 Clouds -2 1013 63 10000 8.2 20 14:56 14.10.2019
208 Clouds -2 1013 63 10000 8.2 20 14:56 14.10.2019
209 Clouds -2 1013 63 10000 8.2 20 14:38 14.10.2019
210 Clouds -2 1013 63 10000 8.2 20 14:19 14.10.2019
211 Clouds -3 1013 73 10000 4.6 60 13:44 14.10.2019
212 Clouds -3 1013 73 10000 4.6 60 13:21 14.10.2019
213 Clouds -3 1012 73 10000 8.2 30 12:55 14.10.2019
214 Clouds -3 1012 73 10000 8.2 30 12:37 14.10.2019
215 Clouds -3 1012 73 10000 8.2 30 12:18 14.10.2019
216 Clouds -3 1012 73 10000 8.2 30 12:18 14.10.2019
217 Clouds -3 1012 73 10000 8.2 30 12:18 14.10.2019
218 Clouds -2 1012 63 10000 8.7 30 11:44 14.10.2019
219 Clouds -2 1012 63 10000 8.7 30 11:26 14.10.2019
220 Clouds -3 1011 63 10000 7.2 40 10:57 14.10.2019
221 Clouds -3 1011 63 10000 7.2 40 10:38 14.10.2019
222 Clouds -3 1011 63 10000 7.2 40 10:19 14.10.2019
223 Clear -2 1010 58 0 7.2 30 09:42 14.10.2019
224 Clear -2 1010 58 0 7.2 30 09:21 14.10.2019
225 Clear -2 1009 58 0 9.3 20 08:51 14.10.2019
226 Clear -2 1009 58 0 9.3 20 08:23 14.10.2019
227 Clear -2 1008 58 0 8.7 30 07:47 14.10.2019
228 Clear -2 1008 58 0 8.7 30 07:26 14.10.2019
229 Clear -2 1008 58 0 7.7 30 06:59 14.10.2019
230 Clear -2 1008 58 0 7.7 30 06:29 14.10.2019
231 Clear -2 1007 63 0 9.3 10 05:57 14.10.2019
232 Clear -2 1007 63 0 9.3 10 05:29 14.10.2019
233 Clear -1 1006 58 0 8.2 360 04:42 14.10.2019
234 Clear -2 1006 63 0 10.3 10 03:27 14.10.2019
235 Clear -1 1005 63 0 8.7 10 02:36 14.10.2019
236 Clear -1 1004 63 0 8.2 20 01:22 14.10.2019
237 Clear -1 1004 63 0 7.2 20 00:53 14.10.2019
238 Clear -1 1004 63 0 7.2 20 00:19 14.10.2019
239 Clear -1 1003 68 0 7.2 30 23:44 13.10.2019
240 Clear -1 1003 68 0 7.2 30 23:20 13.10.2019
241 Clouds 0 1002 72 10000 7.2 10 22:58 13.10.2019
242 Clouds 0 1002 72 10000 7.2 10 22:40 13.10.2019
243 Clouds 0 1002 72 10000 7.2 10 22:21 13.10.2019
244 Clouds 0 1002 72 10000 7.2 10 22:21 13.10.2019
245 Clouds 1 1002 69 10000 5.1 360 21:58 13.10.2019
246 Clouds 1 1002 69 10000 5.1 360 21:37 13.10.2019
247 Clouds 1 1002 69 10000 5.1 360 21:19 13.10.2019
248 Clouds 1 1002 69 10000 5.1 360 21:19 13.10.2019
249 Clouds 1 1001 74 10000 4.6 30 20:57 13.10.2019
250 Clouds 1 1001 74 10000 4.6 30 20:38 13.10.2019
251 Clouds 1 1001 74 10000 4.6 30 20:20 13.10.2019
252 Clouds 2 1001 69 10000 4.1 10 19:58 13.10.2019
253 Clouds 2 1001 69 10000 4.1 10 19:39 13.10.2019
254 Clouds 2 1001 69 10000 4.1 10 19:39 13.10.2019
255 Clouds 2 1001 69 10000 4.1 10 19:39 13.10.2019
256 Clouds 2 1001 69 10000 4.1 10 19:21 13.10.2019
257 Clouds 2 1000 74 10000 4.6 350 18:56 13.10.2019
258 Clouds 2 1000 74 10000 4.6 350 18:56 13.10.2019
259 Clouds 2 1000 74 10000 4.6 350 18:37 13.10.2019
260 Clouds 2 1000 74 10000 4.6 350 18:19 13.10.2019
261 Clear 0 1000 79 0 4.47 20 17:57 13.10.2019
262 Clear 0 1000 79 0 4.47 20 17:38 13.10.2019
263 Clouds 0 1000 79 10000 4.6 20 17:20 13.10.2019
264 Clouds 0 1000 79 10000 4.6 20 16:41 13.10.2019
265 Clouds 0 1000 79 10000 4.6 20 16:18 13.10.2019
266 Rain 0 1000 79 10000 5.1 350 15:57 13.10.2019
267 Rain 0 1000 79 10000 5.1 350 15:38 13.10.2019
268 Rain 0 1000 88 10000 5.1 350 15:19 13.10.2019
269 -273 0 0 0 0 0 14:57 13.10.2019
270 Clouds 0 1000 88 10000 4.1 360 14:56 13.10.2019
271 Clouds 0 1000 88 10000 4.1 360 14:38 13.10.2019
272 Clouds 0 1000 88 10000 4.1 360 14:18 13.10.2019
273 Rain 0 1000 88 10000 5.1 20 13:41 13.10.2019
274 Rain 0 1000 89 10000 5.1 20 13:22 13.10.2019
275 Snow 0 1000 89 10000 5.1 40 12:59 13.10.2019
276 Snow 0 1000 89 10000 5.1 40 12:39 13.10.2019
277 Snow 0 1000 94 10000 5.1 40 12:20 13.10.2019
278 Snow 0 1000 94 0 6.2 50 11:58 13.10.2019
279 Snow 0 1000 94 0 6.2 50 11:39 13.10.2019
280 Snow 0 1000 94 0 6.2 50 11:20 13.10.2019
281 Snow 0 1000 94 0 5.7 50 10:56 13.10.2019
282 Snow 0 1000 94 0 5.7 50 10:38 13.10.2019
283 Snow 0 1000 94 0 5.7 50 10:20 13.10.2019
284 Snow 0 1000 94 0 5.7 60 09:39 13.10.2019
285 Snow 0 1000 95 0 5.7 60 09:21 13.10.2019
286 Snow 0 1000 95 0 6.2 80 08:44 13.10.2019
287 Snow 0 1000 95 0 6.2 80 08:26 13.10.2019
288 Snow 0 1001 95 0 3.1 60 07:52 13.10.2019
289 Snow 0 1001 95 0 3.1 60 07:33 13.10.2019
290 -273 0 0 0 0 0 06:54 13.10.2019
291 Snow 0 1002 95 0 3.1 50 06:54 13.10.2019
292 Snow 0 1002 98 0 3.1 50 06:24 13.10.2019
293 Snow 0 1002 95 0 3.1 50 06:24 13.10.2019
294 Snow 0 1004 98 0 2.1 0 05:27 13.10.2019
295 Snow 0 1004 98 0 2.1 0 05:27 13.10.2019
296 Snow 0 1005 98 0 4.1 160 04:35 13.10.2019
297 Snow 0 1006 98 0 1.5 0 03:34 13.10.2019
298 Snow 1 1007 86 3500 5.1 170 02:32 13.10.2019
299 Snow 0 1009 98 3000 3.1 180 01:37 13.10.2019
300 Snow 0 1009 98 3000 3.1 180 01:18 13.10.2019
301 Snow 0 1010 98 1500 4.6 190 00:42 13.10.2019
302 Snow 0 1010 98 1500 4.6 190 00:42 13.10.2019
303 Snow 0 1010 98 1500 4.6 190 00:19 13.10.2019
304 Snow 0 1011 98 1200 5.1 190 23:42 12.10.2019
305 Snow 0 1011 98 1200 5.1 190 23:23 12.10.2019
306 Snow 0 1012 98 2000 5.1 180 22:59 12.10.2019
307 Snow 0 1012 98 2000 5.1 180 22:40 12.10.2019
308 Snow 0 1012 98 2000 5.1 180 22:22 12.10.2019
309 Snow 1 1013 98 5000 4.6 180 21:59 12.10.2019
310 Snow 1 1013 98 5000 4.6 180 21:40 12.10.2019
311 Snow 1 1013 93 5000 4.6 180 21:22 12.10.2019
312 Clouds 2 1013 94 10000 5.1 180 20:56 12.10.2019
313 Clouds 2 1013 94 10000 5.1 180 20:37 12.10.2019
314 Clouds 2 1013 94 10000 5.1 180 20:19 12.10.2019
315 Rain 1 1014 94 10000 4.1 190 19:36 12.10.2019
316 Rain 1 1014 94 10000 4.1 190 19:18 12.10.2019
317 Clouds 1 1015 94 10000 3.6 180 18:44 12.10.2019
318 Clouds 1 1015 94 10000 3.6 180 18:26 12.10.2019
319 Rain 2 1016 92 10000 3.6 180 17:56 12.10.2019
320 Rain 2 1016 92 10000 3.6 180 17:55 12.10.2019
321 Rain 2 1016 92 10000 3.6 180 17:37 12.10.2019
322 Rain 2 1016 92 10000 3.6 180 17:18 12.10.2019
323 Rain 1 1016 92 10000 4.1 190 16:40 12.10.2019
324 Rain 1 1016 92 10000 4.1 190 16:21 12.10.2019
325 Rain 1 1017 86 10000 5.1 180 15:57 12.10.2019
326 Rain 1 1017 86 10000 5.1 180 15:38 12.10.2019
327 Rain 1 1017 86 10000 5.1 180 15:19 12.10.2019
328 Rain 1 1017 97 10000 5.1 170 14:41 12.10.2019
329 Rain 1 1017 97 10000 5.1 170 14:21 12.10.2019
330 Rain 1 1017 97 10000 5.1 170 14:21 12.10.2019
331 Rain 1 1017 97 10000 4.1 190 13:52 12.10.2019
332 Rain 1 1017 97 10000 4.1 190 13:33 12.10.2019
333 Rain 1 1017 86 10000 3.1 170 12:59 12.10.2019
334 Rain 1 1017 86 10000 3.1 170 12:38 12.10.2019
335 Rain 1 1017 86 10000 3.1 170 12:20 12.10.2019
336 Snow 1 1017 86 5000 3.1 170 11:47 12.10.2019
337 Clouds 1 1017 86 0 3.1 170 11:26 12.10.2019
338 Clouds 1 1018 86 0 2.1 180 10:59 12.10.2019
339 Clouds 1 1018 86 0 2.1 180 10:40 12.10.2019
340 Clouds 1 1018 86 0 2.1 180 10:22 12.10.2019
341 Clouds 1 1017 81 0 2.6 190 09:57 12.10.2019
342 Clouds 1 1017 81 0 2.6 190 09:39 12.10.2019
343 Clouds 1 1017 87 0 2.6 190 09:20 12.10.2019
344 Clouds 1 1017 86 0 3.1 160 08:55 12.10.2019
345 Clouds 1 1017 86 0 3.1 160 08:36 12.10.2019
346 Clouds 1 1017 86 0 3.1 160 08:18 12.10.2019
347 Clouds 1 1017 86 0 2.6 160 07:33 12.10.2019
348 Clouds 1 1017 89 0 2.1 230 06:44 12.10.2019
349 Clouds 1 1017 85 0 2.6 180 05:46 12.10.2019
350 Clouds 1 1018 85 0 2.6 190 04:47 12.10.2019
351 Snow 1 1018 85 0 4.1 210 03:57 12.10.2019
352 Clouds 1 1017 87 0 3.1 170 02:57 12.10.2019
353 Clouds 1 1017 86 0 2.1 180 01:36 12.10.2019
354 Rain 2 1017 93 0 2.1 220 00:59 12.10.2019
355 Rain 2 1017 93 0 2.1 220 00:39 12.10.2019
356 Clouds 2 1017 93 10000 0.5 190 23:57 11.10.2019
357 Clouds 2 1017 93 10000 0.5 190 23:38 11.10.2019
358 Clouds 2 1017 93 10000 0.5 190 23:19 11.10.2019
359 Clouds 2 1017 100 10000 2.6 200 22:40 11.10.2019
360 Clouds 3 1017 100 10000 2.6 200 22:21 11.10.2019
361 Rain 3 1016 100 10000 4.6 200 21:56 11.10.2019
362 Rain 2 1016 100 10000 4.6 200 21:38 11.10.2019
363 Rain 2 1016 100 10000 4.6 200 21:19 11.10.2019
364 Rain 3 1016 93 10000 3.1 190 20:44 11.10.2019
365 Rain 3 1016 93 10000 3.1 190 20:25 11.10.2019
366 Clouds 3 1016 93 10000 3.6 170 19:56 11.10.2019
367 Clouds 3 1016 93 10000 3.6 170 19:38 11.10.2019
368 Clouds 3 1016 93 10000 3.6 170 19:18 11.10.2019
369 Rain 3 1016 100 10000 4.6 180 18:58 11.10.2019
370 Rain 3 1016 100 10000 4.6 180 18:38 11.10.2019
371 Rain 3 1016 100 10000 4.6 180 18:38 11.10.2019
372 Rain 3 1016 100 10000 4.6 180 18:19 11.10.2019
373 Clouds 3 1016 100 10000 6.2 190 17:58 11.10.2019
374 Clouds 3 1016 100 10000 6.2 190 17:37 11.10.2019
375 Clouds 3 1016 100 10000 6.2 190 17:19 11.10.2019
376 Clouds 2 1015 100 10000 7.7 190 16:55 11.10.2019
377 Clouds 2 1015 100 10000 7.7 190 16:37 11.10.2019
378 Clouds 2 1015 100 10000 7.7 190 16:18 11.10.2019
379 Clouds 2 1015 100 10000 7.7 190 16:18 11.10.2019
380 Clouds 2 1014 100 10000 9.8 180 15:41 11.10.2019
381 Clouds 2 1014 100 10000 9.8 180 15:19 11.10.2019
382 Clouds 2 1014 100 3000 11.3 180 14:58 11.10.2019
383 Clouds 2 1014 100 3000 11.3 180 14:37 11.10.2019
384 Clouds 2 1014 100 3000 11.3 180 14:19 11.10.2019
385 Rain 2 1013 100 2500 14.9 160 13:43 11.10.2019
386 Rain 2 1013 100 2500 14.9 160 13:24 11.10.2019
387 Snow 2 1011 93 2500 17 170 12:56 11.10.2019
388 Snow 2 1011 93 2500 17 170 12:38 11.10.2019
389 Snow 2 1011 93 2500 17 170 12:20 11.10.2019
390 Clouds 2 1010 93 3000 18.5 160 11:56 11.10.2019
391 Clouds 2 1010 93 3000 18.5 160 11:38 11.10.2019
392 Clouds 2 1010 93 3000 18.5 160 11:20 11.10.2019
393 Clouds 2 1012 93 3000 17 170 10:42 11.10.2019
394 Clouds 2 1012 93 3000 17 170 10:23 11.10.2019
395 Snow 2 1013 97 0 12.3 160 09:59 11.10.2019
396 Snow 2 1013 98 0 12.3 160 09:40 11.10.2019
397 Snow 2 1013 98 0 12.3 160 09:20 11.10.2019
398 Snow 2 1015 80 0 10.8 170 08:56 11.10.2019
399 Snow 2 1015 80 0 10.8 170 08:37 11.10.2019
400 Snow 2 1015 80 0 10.8 170 08:19 11.10.2019
401 Clouds 3 1016 69 0 6.7 0 07:51 11.10.2019
402 Clouds 3 1016 69 0 6.7 0 07:33 11.10.2019
403 Clouds 1 1015 74 0 0.5 280 06:49 11.10.2019
404 Clouds 1 1015 74 0 0.5 280 06:24 11.10.2019
405 Clouds 1 1016 80 0 1 0 05:46 11.10.2019
406 Clouds 1 1016 80 0 1 0 05:27 11.10.2019
407 Clouds 1 1017 80 0 2.1 160 04:47 11.10.2019
408 Clouds 1 1017 69 10000 4.6 70 02:59 11.10.2019
409 Clouds 0 1017 66 10000 3.1 50 00:54 11.10.2019
410 Clouds 0 1017 66 10000 3.1 50 00:31 11.10.2019
411 Clouds 1 1018 74 10000 3.1 30 23:57 10.10.2019
412 Clouds 1 1018 74 10000 3.1 30 23:38 10.10.2019
413 Clouds 1 1018 74 10000 3.1 30 23:18 10.10.2019
414 Clouds 1 1018 74 10000 2.6 50 22:54 10.10.2019
415 Clouds 1 1018 74 10000 2.6 50 22:36 10.10.2019
416 Clouds 1 1018 74 10000 2.6 50 22:18 10.10.2019
417 Clouds 3 1018 69 10000 3.6 50 21:42 10.10.2019
418 Clouds 3 1018 69 10000 3.6 50 21:22 10.10.2019
419 Clouds 3 1018 60 10000 3.6 40 20:58 10.10.2019
420 Clouds 4 1018 60 10000 3.6 40 20:39 10.10.2019
421 Clouds 4 1018 60 10000 3.6 40 20:19 10.10.2019
422 Clouds 3 1018 74 10000 3.1 20 19:56 10.10.2019
423 Clouds 3 1018 74 10000 3.1 20 19:38 10.10.2019
424 Clouds 3 1018 74 10000 3.1 20 19:19 10.10.2019
425 Clouds 2 1018 80 10000 5.1 50 18:42 10.10.2019
426 Clouds 2 1018 80 10000 5.1 50 18:21 10.10.2019
427 Clouds 2 1017 69 10000 5.1 60 17:59 10.10.2019
428 Clouds 2 1017 69 10000 5.1 60 17:40 10.10.2019
429 Clouds 2 1017 69 10000 5.1 60 17:18 10.10.2019
430 Clouds 1 1018 86 10000 4.1 50 16:56 10.10.2019
431 Clouds 1 1018 86 10000 4.1 50 16:56 10.10.2019
432 Clouds 1 1018 86 10000 4.1 50 16:37 10.10.2019
433 Clouds 1 1018 86 10000 4.1 50 16:19 10.10.2019
434 Clouds 1 1018 86 10000 2.6 40 15:42 10.10.2019
435 Clouds 1 1018 86 10000 2.6 40 15:23 10.10.2019
436 Clouds 0 1018 59 10000 2.1 30 14:59 10.10.2019
437 Clouds 0 1018 59 10000 2.1 30 14:37 10.10.2019
438 Clouds 0 1018 59 10000 2.1 30 14:19 10.10.2019
439 Clouds 1 1018 86 10000 2.6 60 13:58 10.10.2019
440 Clouds 1 1018 86 10000 2.6 60 13:39 10.10.2019
441 Clouds 1 1018 86 10000 2.6 60 13:18 10.10.2019
442 Clouds 0 1018 60 10000 2.1 50 12:43 10.10.2019
443 Clouds 0 1018 62 10000 2.1 50 12:21 10.10.2019
444 Clouds 1 1018 86 10000 2.6 60 11:58 10.10.2019
445 Clouds 1 1018 86 10000 2.6 60 11:40 10.10.2019
446 Clouds 1 1018 86 10000 2.6 60 11:20 10.10.2019
447 Clouds 1 1018 86 0 3.1 60 10:58 10.10.2019
448 Clouds 1 1018 86 0 3.1 60 10:40 10.10.2019
449 Clouds 1 1018 86 0 3.1 60 10:21 10.10.2019
450 Clouds 1 1018 86 0 3.1 50 09:41 10.10.2019
451 Clear 1 1018 86 0 3.1 50 09:23 10.10.2019
452 Clear 1 1018 80 0 2.6 50 08:59 10.10.2019
453 Clear 1 1018 80 0 2.6 50 08:41 10.10.2019
454 Clear 1 1018 80 0 2.6 50 08:21 10.10.2019
455 Clear 0 1018 61 0 2.6 30 07:58 10.10.2019
456 Clear 1 1018 61 0 2.6 30 07:37 10.10.2019
457 Clear 1 1018 61 0 2.6 30 07:19 10.10.2019
458 Clear 2 1017 59 0 2.6 50 06:40 10.10.2019
459 Clear 1 1017 64 0 2.6 40 05:57 10.10.2019
460 Clear 1 1017 64 0 2.6 40 05:22 10.10.2019
461 Clear 1 1017 64 0 2.6 40 05:22 10.10.2019
462 Clear 1 1017 69 0 2.1 20 04:36 10.10.2019
463 Clear 1 1017 80 0 3.1 360 02:49 10.10.2019
464 Clear 3 1017 59 0 2.6 50 01:41 10.10.2019
465 Clear 3 1017 59 0 2.6 50 01:41 10.10.2019
466 Clear 3 1017 59 0 2.6 50 01:22 10.10.2019
467 Clouds 4 1016 60 10000 2.1 50 00:41 10.10.2019
468 Clouds 4 1016 60 10000 2.1 50 00:19 10.10.2019
469 Clouds 4 1016 60 10000 2.1 40 23:39 09.10.2019
470 Clouds 4 1016 60 10000 2.1 40 23:19 09.10.2019
471 Clouds 5 1016 56 10000 1.5 60 22:42 09.10.2019
472 Clouds 5 1016 56 10000 1.5 60 22:24 09.10.2019
473 Clouds 5 1015 52 10000 1.5 40 21:59 09.10.2019
474 Clouds 5 1015 52 10000 1.5 40 21:39 09.10.2019
475 Clouds 5 1015 52 10000 1.5 40 21:20 09.10.2019
476 Clouds 7 1014 45 10000 2.6 60 20:56 09.10.2019
477 Clouds 7 1014 45 10000 2.6 60 20:37 09.10.2019
478 Clouds 7 1014 45 10000 2.6 60 20:18 09.10.2019
479 Clouds 7 1014 45 10000 2.6 60 20:18 09.10.2019
480 Clouds 6 1014 48 10000 2.1 20 19:45 09.10.2019
481 Clouds 6 1014 48 10000 2.1 20 19:24 09.10.2019
482 Clouds 4 1013 74 10000 2.6 40 18:58 09.10.2019
483 Clouds 3 1013 74 10000 2.6 40 18:38 09.10.2019
484 Clouds 3 1013 74 10000 2.6 40 18:18 09.10.2019
485 Clouds 4 1013 60 10000 3.1 40 17:56 09.10.2019
486 Clouds 4 1013 60 10000 3.1 40 17:37 09.10.2019
487 Clouds 4 1013 60 10000 3.1 40 17:18 09.10.2019
488 Clouds 3 1012 74 10000 3.6 30 16:42 09.10.2019
489 Clouds 3 1012 74 10000 3.6 30 16:23 09.10.2019
490 Clouds 2 1012 80 10000 1.5 20 15:58 09.10.2019
491 Clouds 2 1012 80 10000 1.5 20 15:39 09.10.2019
492 Clouds 2 1012 80 10000 1.5 20 15:20 09.10.2019
493 Clouds 2 1011 74 10000 2.48 70.47 14:59 09.10.2019
494 Clouds 2 1011 74 10000 2.48 70.47 14:41 09.10.2019
495 Clouds 2 1011 74 10000 2.48 70.47 14:18 09.10.2019
496 Clouds 1 1010 86 10000 4.6 40 13:40 09.10.2019
497 Clouds 1 1010 86 10000 4.6 40 13:22 09.10.2019
498 Clouds 1 1009 86 10000 2.1 50 12:59 09.10.2019
499 Clouds 1 1009 86 10000 2.1 50 12:59 09.10.2019
500 Clouds 1 1009 86 10000 2.1 50 12:41 09.10.2019
501 Clouds 1 1009 86 10000 2.1 50 12:22 09.10.2019
502 Clouds 1 1009 86 10000 2.1 50 12:22 09.10.2019
503 -273 0 0 0 0 0 11:56 09.10.2019
504 Clouds 1 1008 86 10000 5.1 50 11:37 09.10.2019
505 Clouds 1 1008 86 10000 5.1 50 11:37 09.10.2019
506 Clouds 1 1008 86 10000 5.1 50 11:19 09.10.2019
507 Clouds 2 1007 74 10000 0.5 0 10:44 09.10.2019
508 Clouds 2 1007 74 10000 0.5 0 10:22 09.10.2019
509 Clear 1 1007 80 0 1.5 80 09:59 09.10.2019
510 Clear 1 1007 80 0 1.5 80 09:41 09.10.2019
511 Clear 1 1007 80 0 1.5 80 09:19 09.10.2019
512 Clear 1 1006 74 0 1.5 90 08:55 09.10.2019
513 Clear 1 1006 74 0 1.5 90 08:37 09.10.2019
514 Clear 1 1006 74 0 1.5 90 08:18 09.10.2019
515 Clear 1 1005 80 0 1.5 100 07:42 09.10.2019
516 Clear 1 1005 80 0 1.5 100 07:22 09.10.2019
517 Clear 2 1005 69 0 1 0 06:52 09.10.2019
518 Clear 2 1005 69 0 1 0 06:20 09.10.2019
519 Clear 2 1005 69 0 1 0 06:20 09.10.2019
520 Clear 1 1004 69 0 2.2 82.512 05:46 09.10.2019
521 Clear 1 1003 80 0 1 190 04:27 09.10.2019
522 Clouds 1 1002 69 10000 1.52 96.452 02:54 09.10.2019
523 Clouds 2 1001 64 10000 0.5 0 01:44 09.10.2019
524 Clouds 2 1001 64 10000 0.5 0 01:21 09.10.2019
525 Clouds 2 1001 64 10000 0.5 0 01:21 09.10.2019
526 Clouds 2 1001 64 10000 0.5 0 01:21 09.10.2019
527 Clouds 2 1001 69 10000 2.1 70 00:58 09.10.2019
528 Clouds 2 1001 69 10000 2.1 70 00:40 09.10.2019
529 Clouds 2 1001 69 10000 2.1 70 00:21 09.10.2019
530 Clouds 2 1000 69 10000 0.5 190 23:57 08.10.2019
531 Clouds 2 1000 69 10000 0.5 190 23:36 08.10.2019
532 Clouds 2 1000 69 10000 0.5 190 23:18 08.10.2019
533 Clouds 3 1000 69 10000 2.6 40 22:39 08.10.2019
534 Clouds 3 1000 69 10000 2.6 40 22:20 08.10.2019
535 Clouds 3 1000 69 10000 2.6 40 22:20 08.10.2019
536 Clouds 3 1000 69 10000 2.6 40 22:20 08.10.2019
537 Clouds 4 999 64 10000 1.5 350 21:58 08.10.2019
538 Clouds 4 999 64 10000 1.5 350 21:39 08.10.2019
539 Clouds 4 999 64 10000 1.5 350 21:19 08.10.2019
540 Clouds 5 999 54 10000 2.1 210 20:57 08.10.2019
541 Clouds 5 999 54 10000 2.1 210 20:57 08.10.2019
542 Clouds 5 999 54 10000 2.1 210 20:57 08.10.2019
543 Clouds 5 999 53 10000 2.1 210 20:39 08.10.2019
544 Clouds 5 999 53 10000 2.1 210 20:21 08.10.2019
545 Clouds 5 998 60 10000 2.1 210 19:58 08.10.2019
546 Clouds 5 998 60 10000 2.1 210 19:40 08.10.2019
547 Clouds 5 998 60 10000 2.1 210 19:22 08.10.2019
548 Clouds 4 998 64 10000 2.1 200 18:55 08.10.2019
549 Clouds 4 998 64 10000 2.1 200 18:55 08.10.2019
550 Clouds 4 998 64 10000 2.1 200 18:36 08.10.2019
551 Clouds 4 998 64 10000 2.1 200 18:18 08.10.2019
552 Clouds 3 998 74 10000 1.5 10 17:40 08.10.2019
553 Clouds 3 998 74 10000 1.5 10 17:21 08.10.2019
554 Clouds 3 998 74 10000 1 200 16:59 08.10.2019
555 Clouds 3 998 74 10000 1 200 16:40 08.10.2019
556 Clouds 3 998 74 10000 1 200 16:21 08.10.2019
557 Clear 2 998 80 10000 1.32 57.09 15:41 08.10.2019
558 Clear 2 998 80 10000 2.25 40.148 15:22 08.10.2019
559 Clear 2 998 80 10000 2.25 40.148 15:22 08.10.2019
560 Clear 1 997 52 10000 2.1 50 14:58 08.10.2019
561 Clear 0 997 52 10000 2.1 50 14:39 08.10.2019
562 Clear 0 997 52 10000 2.1 50 14:21 08.10.2019
563 Clouds 0 997 52 10000 2.6 50 13:57 08.10.2019
564 Clouds 0 997 52 10000 2.6 50 13:38 08.10.2019
565 Clouds 0 997 52 10000 2.6 50 13:19 08.10.2019
566 Clouds 0 997 53 10000 4.1 50 12:58 08.10.2019
567 Clouds 0 997 53 10000 4.1 50 12:38 08.10.2019
568 Clouds 0 997 52 10000 4.1 50 12:18 08.10.2019
569 Clear 0 997 52 0 1 130 11:42 08.10.2019
570 Clear 0 997 52 0 1 130 11:24 08.10.2019
571 Clear 0 997 52 0 1 130 11:24 08.10.2019
572 Clear 1 998 74 0 1 0 10:58 08.10.2019
573 Clear 1 998 74 0 1 0 10:38 08.10.2019
574 Clear 1 998 74 0 1 0 10:19 08.10.2019
575 Clear 1 998 80 0 4.1 50 09:56 08.10.2019
576 Clear 1 998 80 0 4.1 50 09:37 08.10.2019
577 Clouds 1 998 80 0 4.1 50 09:19 08.10.2019
578 Clouds 0 998 54 0 5.1 50 08:42 08.10.2019
579 Clouds 0 998 54 0 5.1 50 08:23 08.10.2019
580 Clouds 0 998 54 0 5.1 50 07:45 08.10.2019
581 Clouds 0 998 54 0 5.1 50 07:21 08.10.2019
582 Clouds 1 999 80 0 2.1 70 06:56 08.10.2019
583 Clouds 1 999 80 0 2.1 70 06:32 08.10.2019
584 Clouds 1 999 74 0 1.5 60 05:55 08.10.2019
585 Clouds 1 999 74 0 1.5 60 05:36 08.10.2019
586 Clouds 0 1000 60 0 1.43 72.438 04:33 08.10.2019
587 Clouds 1 1000 74 0 1 0 03:29 08.10.2019
588 Clouds 1 1000 74 0 0.5 130 02:39 08.10.2019
589 Clouds 1 1000 80 0 2.1 60 01:49 08.10.2019
590 Clouds 1 1000 80 0 2.1 60 01:31 08.10.2019
591 Clouds 1 1000 74 0 1.5 0 00:50 08.10.2019
592 Clouds 1 1000 74 0 1.5 0 00:21 08.10.2019
593 Clouds 2 1001 64 10000 2.6 60 23:41 07.10.2019
594 Clouds 2 1001 64 10000 2.6 60 23:20 07.10.2019
595 Clouds 2 1001 64 10000 2.6 60 23:20 07.10.2019
596 Clouds 2 1001 64 10000 1.5 50 22:58 07.10.2019
597 Clouds 2 1001 64 10000 1.5 50 22:40 07.10.2019
598 Clouds 2 1001 64 10000 1.5 50 22:20 07.10.2019
599 Clouds 3 1002 64 10000 0.5 310 21:57 07.10.2019
600 Clouds 3 1002 64 10000 0.5 310 21:39 07.10.2019
601 Clouds 3 1002 64 10000 0.5 310 21:20 07.10.2019
602 Clouds 3 1002 69 10000 3.1 40 20:58 07.10.2019
603 Clouds 3 1002 69 10000 3.1 40 20:39 07.10.2019
604 Clouds 3 1002 69 10000 3.1 40 20:20 07.10.2019
605 Clouds 4 1002 64 10000 2.6 30 19:58 07.10.2019
606 Clouds 4 1002 64 10000 2.6 30 19:40 07.10.2019
607 Clouds 4 1002 64 10000 2.6 30 19:19 07.10.2019
608 Clouds 4 1002 60 10000 1.5 0 18:58 07.10.2019
609 Clouds 4 1002 60 10000 1.5 0 18:38 07.10.2019
610 Clouds 4 1002 60 10000 1.5 0 18:18 07.10.2019
611 Clouds 3 1002 64 10000 2.6 50 17:43 07.10.2019
612 Clouds 3 1002 64 10000 2.6 50 17:43 07.10.2019
613 Clouds 3 1002 64 10000 2.6 50 17:23 07.10.2019
614 Clouds 3 1003 60 10000 0.5 0 16:58 07.10.2019
615 Clouds 3 1003 60 10000 0.5 0 16:58 07.10.2019
616 Clouds 4 1003 60 10000 0.5 0 16:39 07.10.2019
617 Clouds 4 1003 60 10000 0.5 0 16:20 07.10.2019
618 Clouds 2 1003 64 10000 1.5 280 15:45 07.10.2019
619 Clouds 2 1003 64 10000 1.5 280 15:26 07.10.2019
620 Clouds 2 1003 64 10000 1.5 280 15:26 07.10.2019
621 Clouds 2 1003 64 10000 1.5 280 15:26 07.10.2019
622 Clouds 1 1002 69 10000 6.2 70 14:58 07.10.2019
623 Clouds 1 1002 69 10000 6.2 70 14:40 07.10.2019
624 Clouds 1 1002 69 10000 6.2 70 14:21 07.10.2019
625 Clouds 1 1002 69 10000 7.7 70 13:43 07.10.2019
626 Clouds 1 1002 69 10000 7.7 70 13:21 07.10.2019
627 Clouds 1 1003 69 10000 6.7 70 12:57 07.10.2019
628 Clouds 1 1003 69 10000 6.7 70 12:39 07.10.2019
629 Clouds 1 1003 69 10000 6.7 70 12:19 07.10.2019
630 Clouds 0 1003 62 10000 5.7 70 11:58 07.10.2019
631 Clouds 0 1003 62 10000 5.7 70 11:38 07.10.2019
632 Clouds 0 1003 62 10000 5.7 70 11:20 07.10.2019
633 Clouds 1 1003 69 10000 4.1 60 10:42 07.10.2019
634 Clouds 1 1003 69 10000 4.1 60 10:21 07.10.2019
635 Clouds 1 1003 80 0 3.6 40 09:55 07.10.2019
636 -273 0 0 0 0 0 09:54 07.10.2019
637 Clouds 1 1003 80 0 3.6 40 09:36 07.10.2019
638 Clear 1 1003 80 0 3.6 40 09:18 07.10.2019
639 Clear 0 1003 67 0 3.1 30 08:41 07.10.2019
640 Clear 0 1003 67 0 3.1 30 08:20 07.10.2019
641 Clear 1 1002 69 0 4.6 60 07:46 07.10.2019
642 Clear 1 1002 69 0 4.6 60 07:27 07.10.2019
643 Clear 0 1002 67 0 3.6 50 06:56 07.10.2019
644 Clear 0 1002 67 0 3.6 50 06:37 07.10.2019
645 Clear 0 1002 77 0 2.6 50 05:54 07.10.2019
646 Clear 0 1002 77 0 2.6 50 05:25 07.10.2019
647 Clear 0 1002 77 0 2.6 30 04:47 07.10.2019
648 Fog 0 1002 77 10000 3.1 50 03:45 07.10.2019
649 Fog 0 1002 77 10000 3.1 50 03:45 07.10.2019
650 Fog 0 1002 85 10000 3.1 50 03:23 07.10.2019
651 Clouds 1 1002 86 10000 2.6 30 02:23 07.10.2019
652 Clouds 1 1002 86 10000 2.6 30 02:23 07.10.2019
653 Clouds 1 1002 86 10000 2.1 40 01:58 07.10.2019
654 Clouds 1 1002 86 10000 2.1 40 01:23 07.10.2019
655 Clouds 1 1002 86 10000 3.6 30 00:45 07.10.2019
656 Clouds 1 1002 86 10000 3.6 30 00:23 07.10.2019
657 Clear 2 1002 82 0 2.6 60 23:59 06.10.2019
658 Clear 2 1002 82 0 2.6 60 23:39 06.10.2019
659 Clear 2 1002 82 0 2.6 60 23:18 06.10.2019
660 Clear 3 1001 82 0 4.6 340 22:55 06.10.2019
661 Clear 3 1001 82 0 4.6 340 22:55 06.10.2019
662 Clear 3 1001 82 0 4.6 340 22:37 06.10.2019
663 Clear 3 1001 82 0 4.6 340 22:18 06.10.2019
664 Clouds 4 1001 69 10000 5.7 330 21:55 06.10.2019
665 Clouds 4 1001 69 10000 5.7 330 21:36 06.10.2019
666 Clouds 4 1001 69 10000 5.7 330 21:18 06.10.2019
667 Clouds 4 1000 64 10000 3.6 350 20:54 06.10.2019
668 Clouds 4 1000 64 10000 3.6 350 20:36 06.10.2019
669 Clouds 4 1000 64 10000 3.6 350 20:36 06.10.2019
670 Clouds 4 1000 64 10000 3.6 350 20:18 06.10.2019
671 Clouds 4 1000 64 10000 4.1 360 19:55 06.10.2019
672 Clouds 4 1000 64 10000 4.1 360 19:36 06.10.2019
673 Clouds 4 1000 64 10000 4.1 360 19:18 06.10.2019
674 Clouds 3 999 69 10000 5.7 30 18:55 06.10.2019
675 Clouds 3 999 69 10000 5.7 30 18:55 06.10.2019
676 Clouds 3 999 69 10000 5.7 30 18:36 06.10.2019
677 Clouds 3 999 69 10000 5.7 30 18:18 06.10.2019
678 Clouds 3 999 69 10000 5.7 30 18:18 06.10.2019
679 Clouds 2 999 69 10000 5.7 10 17:42 06.10.2019
680 Clouds 2 999 69 10000 5.7 10 17:20 06.10.2019
681 Clouds 2 998 74 10000 5.1 10 16:55 06.10.2019
682 Clouds 2 998 74 10000 5.1 10 16:55 06.10.2019
683 Clouds 2 998 74 10000 5.1 10 16:37 06.10.2019
684 Clouds 2 998 74 10000 5.1 10 16:18 06.10.2019
685 Snow 2 997 80 10000 5.1 350 15:42 06.10.2019
686 Snow 2 997 80 10000 5.1 350 15:42 06.10.2019
687 Snow 2 997 80 10000 5.1 350 15:21 06.10.2019
688 Rain 1 997 75 10000 4.1 360 14:44 06.10.2019
689 Rain 1 997 75 10000 4.1 360 14:26 06.10.2019
690 Snow 0 996 75 6000 7.2 340 13:59 06.10.2019
691 Snow 0 996 75 6000 7.2 340 13:40 06.10.2019
692 Snow 0 996 75 6000 7.2 340 13:22 06.10.2019
693 Rain 2 996 80 10000 7.7 330 12:58 06.10.2019
694 Rain 2 996 80 10000 7.7 330 12:40 06.10.2019
695 Rain 2 996 80 10000 7.7 330 12:21 06.10.2019
696 Fog 1 997 64 10000 3.1 10 11:59 06.10.2019
697 Fog 1 997 64 10000 3.1 10 11:40 06.10.2019
698 Fog 1 997 64 10000 3.1 10 11:21 06.10.2019
699 Clouds 1 996 64 0 5.7 330 10:55 06.10.2019
700 Clouds 1 996 64 0 5.7 330 10:37 06.10.2019
701 Clouds 1 996 64 0 5.7 330 10:19 06.10.2019
702 Clouds 1 996 80 0 3.6 360 09:41 06.10.2019
703 Clouds 1 996 80 0 3.6 360 09:19 06.10.2019
704 Snow 1 995 86 0 3.6 350 08:48 06.10.2019
705 Snow 1 995 86 0 3.6 350 08:21 06.10.2019
706 Clouds 1 994 74 0 3.1 30 07:57 06.10.2019
707 Clouds 1 994 74 0 3.1 30 07:39 06.10.2019
708 Clouds 1 994 74 0 3.6 350 06:49 06.10.2019
709 Clouds 2 993 69 0 6.7 340 05:40 06.10.2019
710 Clouds 2 993 69 0 7.2 350 04:32 06.10.2019
711 Clouds 3 991 78 0 9.8 340 02:52 06.10.2019
712 Clouds 3 991 78 0 9.8 340 02:29 06.10.2019
713 Clouds 3 990 86 0 6.2 340 01:46 06.10.2019
714 Clouds 3 990 86 0 6.2 340 01:28 06.10.2019
715 Clouds 3 989 86 10000 6.2 350 00:59 06.10.2019
716 Clouds 3 989 86 10000 6.2 350 00:31 06.10.2019
717 Clouds 3 988 93 10000 7.2 340 23:54 05.10.2019
718 Clouds 3 988 93 10000 7.2 340 23:36 05.10.2019
719 Clouds 3 988 93 10000 7.2 340 23:18 05.10.2019
720 Clouds 4 987 86 10000 6.7 340 22:54 05.10.2019
721 -273 0 0 0 0 0 22:54 05.10.2019
722 Clouds 4 987 86 10000 6.7 340 22:36 05.10.2019
723 Clouds 4 987 86 10000 6.7 340 22:18 05.10.2019
724 Clouds 5 985 86 10000 5.1 340 21:40 05.10.2019
725 Clouds 5 985 86 10000 5.1 340 21:21 05.10.2019
726 Fog 7 984 75 10000 3.6 320 20:57 05.10.2019
727 Fog 7 984 75 10000 3.6 320 20:39 05.10.2019
728 Fog 7 984 75 10000 3.6 320 20:19 05.10.2019
729 Clouds 9 983 66 10000 4.1 290 19:41 05.10.2019
730 Clouds 9 983 66 10000 4.1 290 19:22 05.10.2019
731 Clouds 9 982 61 10000 2.6 20 18:58 05.10.2019
732 Clouds 9 982 61 10000 2.6 20 18:39 05.10.2019
733 Clouds 9 982 61 10000 2.6 20 18:21 05.10.2019
734 Clouds 10 981 46 10000 2.6 20 17:59 05.10.2019
735 Clouds 10 981 46 10000 2.6 20 17:40 05.10.2019
736 Clouds 10 981 46 10000 2.6 20 17:20 05.10.2019
737 Clouds 9 981 45 10000 3.6 50 16:42 05.10.2019
738 Clouds 9 981 45 10000 3.6 50 16:23 05.10.2019
739 Clouds 9 981 42 10000 3.6 360 15:59 05.10.2019
740 Clouds 9 981 42 10000 3.6 360 15:40 05.10.2019
741 Clouds 9 981 42 10000 3.6 360 15:21 05.10.2019
742 Clouds 7 981 48 10000 4.1 40 14:59 05.10.2019
743 Clouds 7 981 48 10000 4.1 40 14:41 05.10.2019
744 Clouds 7 981 48 10000 4.1 40 14:20 05.10.2019
745 Clouds 5 981 60 10000 1.5 80 13:43 05.10.2019
746 Clouds 5 981 60 10000 1.5 80 13:23 05.10.2019
747 Clouds 5 981 65 10000 4.1 320 12:57 05.10.2019
748 Clouds 5 981 65 10000 4.1 320 12:39 05.10.2019
749 Clouds 5 981 65 10000 4.1 320 12:39 05.10.2019
750 Clouds 5 981 65 10000 4.1 320 12:39 05.10.2019
751 Clouds 5 981 65 10000 4.1 320 12:18 05.10.2019
752 Clouds 5 981 65 10000 4.1 320 12:18 05.10.2019
753 Clouds 6 980 45 0 7.2 70 11:39 05.10.2019
754 Clouds 6 980 45 0 7.2 70 11:19 05.10.2019
755 Clouds 6 981 48 0 6.2 60 10:45 05.10.2019
756 Clouds 6 981 48 0 6.2 60 10:26 05.10.2019
757 Clouds 6 981 48 0 6.7 80 09:59 05.10.2019
758 Clouds 6 981 48 0 6.7 80 09:39 05.10.2019
759 Clouds 6 981 48 0 6.7 80 09:20 05.10.2019
760 Clouds 6 981 52 0 7.2 70 08:40 05.10.2019
761 Clouds 6 981 52 0 7.2 70 08:21 05.10.2019
762 Clouds 6 981 52 0 7.2 70 08:21 05.10.2019
763 Clouds 5 982 56 0 6.7 60 07:58 05.10.2019
764 Clouds 5 982 56 0 6.7 60 07:37 05.10.2019
765 Clouds 5 982 56 0 6.7 60 07:19 05.10.2019
766 Clouds 5 983 60 0 6.2 50 06:28 05.10.2019
767 Clouds 5 985 56 0 4.6 40 05:59 05.10.2019
768 Clouds 6 986 52 0 5.7 60 04:42 05.10.2019
769 Clouds 6 987 52 0 4.6 40 03:29 05.10.2019
770 Clouds 6 988 52 0 4.6 60 01:59 05.10.2019
771 Clouds 6 988 52 0 4.6 60 01:24 05.10.2019
772 Clouds 5 989 52 0 4.6 50 00:46 05.10.2019
773 Clouds 5 989 52 0 4.6 50 00:27 05.10.2019
774 Clouds 6 989 48 0 4.6 50 23:45 04.10.2019
775 Clouds 6 989 48 0 4.6 50 23:26 04.10.2019
776 Clouds 6 990 52 10000 3.6 30 22:59 04.10.2019
777 Clouds 6 990 52 10000 3.6 30 22:41 04.10.2019
778 Clouds 6 990 52 10000 3.6 30 22:22 04.10.2019
779 Clouds 8 991 39 10000 4.1 40 21:58 04.10.2019
780 Clouds 8 991 39 10000 4.1 40 21:39 04.10.2019
781 Clouds 8 991 39 10000 4.1 40 21:21 04.10.2019
782 Clouds 7 992 48 10000 4.1 50 20:57 04.10.2019
783 Clouds 7 992 48 10000 4.1 50 20:39 04.10.2019
784 Clouds 7 992 48 10000 4.1 50 20:21 04.10.2019
785 Clouds 8 992 42 10000 4.1 60 19:55 04.10.2019
786 Clouds 8 992 42 10000 4.1 60 19:37 04.10.2019
787 Clouds 8 992 42 10000 4.1 60 19:18 04.10.2019
788 Clouds 7 993 52 10000 4.1 40 18:39 04.10.2019
789 Clouds 7 993 52 10000 4.1 40 18:19 04.10.2019
790 Clouds 6 993 42 10000 4.6 50 17:58 04.10.2019
791 Clouds 6 993 42 10000 4.6 50 17:39 04.10.2019
792 Clouds 6 993 42 10000 4.6 50 17:20 04.10.2019
793 Clouds 5 993 65 10000 4.6 50 16:55 04.10.2019
794 Clouds 5 993 65 10000 4.6 50 16:55 04.10.2019
795 Clouds 5 993 65 10000 4.6 50 16:37 04.10.2019
796 Clouds 5 993 65 10000 4.6 50 16:18 04.10.2019
797 Clouds 5 993 65 10000 5.7 40 15:55 04.10.2019
798 Clouds 5 993 65 10000 5.7 40 15:37 04.10.2019
799 Clouds 5 993 65 10000 5.7 40 15:18 04.10.2019
800 Clear 4 993 69 10000 6.7 60 14:42 04.10.2019
801 Clear 4 993 69 10000 6.7 60 14:22 04.10.2019
802 Clouds 4 993 69 10000 3.6 80 13:59 04.10.2019
803 Clouds 4 993 69 10000 3.6 80 13:41 04.10.2019
804 Clouds 4 993 69 10000 3.6 80 13:19 04.10.2019
805 Clouds 4 993 69 10000 3.6 80 13:19 04.10.2019
806 Clouds 4 993 64 10000 4.1 50 12:46 04.10.2019
807 Clouds 4 993 64 10000 4.1 50 12:27 04.10.2019
808 Clouds 5 993 56 10000 0.5 0 11:57 04.10.2019
809 Clouds 5 993 56 10000 0.5 0 11:38 04.10.2019
810 Clouds 5 993 56 10000 0.5 0 11:19 04.10.2019
811 Clouds 4 992 64 10000 1.5 30 10:39 04.10.2019
812 Clouds 4 992 64 10000 1.5 30 10:20 04.10.2019
813 Clouds 4 992 64 0 1 80 09:45 04.10.2019
814 Clouds 4 992 64 0 1 80 09:45 04.10.2019
815 Clouds 4 992 64 0 1 80 09:27 04.10.2019
816 Clouds 4 991 64 0 1.5 140 08:56 04.10.2019
817 Clouds 4 991 64 0 1.5 140 08:37 04.10.2019
818 Clouds 4 991 64 0 1.5 140 08:19 04.10.2019
819 Clouds 5 991 65 0 2.6 210 07:43 04.10.2019
820 Clouds 5 991 65 0 2.6 210 07:22 04.10.2019
821 Clouds 5 990 60 0 1 100 06:42 04.10.2019
822 Clouds 5 990 60 0 1 100 06:24 04.10.2019
823 Clouds 5 990 60 0 1 100 06:24 04.10.2019
824 Clouds 6 990 60 0 2.6 170 05:24 04.10.2019
825 Clouds 6 990 60 0 1 100 04:56 04.10.2019
826 Clouds 7 990 56 10000 2.1 210 03:47 04.10.2019
827 Clouds 7 990 56 10000 2.1 210 03:47 04.10.2019
828 Clouds 8 990 49 10000 2.6 100 02:53 04.10.2019
829 Clouds 8 990 49 10000 2.6 100 02:53 04.10.2019
830 Clouds 7 990 56 10000 0.5 0 01:55 04.10.2019
831 Clouds 7 990 56 10000 0.5 0 01:55 04.10.2019
832 Clouds 7 990 56 10000 0.5 0 01:29 04.10.2019
833 Clouds 7 989 52 10000 2.6 160 00:57 04.10.2019
834 Clouds 9 989 49 10000 3.6 180 23:55 03.10.2019
835 Clouds 9 989 49 10000 3.6 180 23:37 03.10.2019
836 Clouds 9 989 49 10000 3.6 180 23:18 03.10.2019
837 Clouds 11 989 37 10000 4.6 190 22:55 03.10.2019
838 Clouds 11 989 37 10000 4.6 190 22:37 03.10.2019
839 Clouds 11 989 37 10000 4.6 190 22:18 03.10.2019
840 Clouds 12 989 34 10000 4.1 200 21:55 03.10.2019
841 Clouds 12 989 34 10000 4.1 200 21:36 03.10.2019
842 Clouds 12 989 34 10000 4.1 200 21:18 03.10.2019
843 Clouds 12 989 34 10000 4.1 200 21:18 03.10.2019
844 Clouds 12 988 37 10000 5.1 180 20:55 03.10.2019
845 Clouds 12 988 37 10000 5.1 180 20:37 03.10.2019
846 Clouds 12 988 37 10000 5.1 180 20:37 03.10.2019
847 Clouds 12 988 37 10000 5.1 180 20:19 03.10.2019
848 Clouds 13 988 30 10000 8.2 170 19:41 03.10.2019
849 Clouds 13 988 30 10000 8.2 170 19:22 03.10.2019
850 Clouds 12 987 30 10000 1 0 18:58 03.10.2019
851 Clouds 12 987 30 10000 1 0 18:39 03.10.2019
852 Clouds 12 987 30 10000 1 0 18:39 03.10.2019
853 Clouds 12 987 30 10000 1 0 18:19 03.10.2019
854 Clouds 13 987 28 10000 2.73 114.376 17:56 03.10.2019
855 Clouds 13 987 28 10000 2.73 114.376 17:37 03.10.2019
856 Clouds 13 987 28 10000 2.73 114.376 17:19 03.10.2019
857 Clouds 12 987 27 10000 4.1 130 16:44 03.10.2019
858 Clouds 12 987 27 10000 4.1 130 16:26 03.10.2019
859 Clouds 8 990 45 0 2.73 114.376 15:56 03.10.2019
860 Clouds 8 990 45 0 2.73 114.376 15:38 03.10.2019
861 Clouds 11 987 37 10000 6.7 60 15:20 03.10.2019
862 Clouds 11 987 37 10000 6.7 60 14:46 03.10.2019
863 Clouds 11 987 37 10000 6.7 60 14:27 03.10.2019
864 Clouds 11 988 27 10000 5.1 60 13:59 03.10.2019
865 Clouds 11 988 27 10000 5.1 60 13:41 03.10.2019
866 Clouds 11 988 27 10000 5.1 60 13:19 03.10.2019
867 Clouds 10 988 31 10000 8.2 80 12:56 03.10.2019
868 Clouds 10 988 31 10000 8.2 80 12:38 03.10.2019
869 Clouds 10 988 31 10000 8.2 80 12:19 03.10.2019
870 Clouds 10 989 31 10000 5.7 90 11:41 03.10.2019
871 Clouds 10 989 31 10000 5.7 90 11:41 03.10.2019
872 Clouds 10 989 31 10000 5.7 90 11:23 03.10.2019
873 Clouds 10 989 31 0 7.2 80 10:59 03.10.2019
874 Clouds 10 989 31 0 7.2 80 10:40 03.10.2019
875 Clouds 10 989 31 0 7.2 80 10:19 03.10.2019
876 Clouds 10 990 31 0 7.2 80 09:58 03.10.2019
877 Clouds 10 990 31 0 7.2 80 09:40 03.10.2019
878 Clouds 10 990 31 0 7.2 80 09:21 03.10.2019
879 Clouds 9 990 39 0 7.2 60 08:46 03.10.2019
880 Clouds 9 990 39 0 7.2 60 08:27 03.10.2019
881 Clouds 9 991 39 0 6.7 60 07:59 03.10.2019
882 Clouds 9 991 39 0 6.7 60 07:59 03.10.2019
883 Clouds 9 991 39 0 6.7 60 07:41 03.10.2019
884 Clouds 9 991 39 0 6.7 60 07:19 03.10.2019
885 Clouds 8 991 49 0 7.7 50 06:51 03.10.2019
886 Clouds 8 991 49 0 7.7 50 06:25 03.10.2019
887 Clouds 9 992 42 0 6.2 60 05:47 03.10.2019
888 Clouds 9 992 42 0 6.2 60 05:20 03.10.2019
889 Clouds 11 992 34 0 8.7 90 04:31 03.10.2019
890 Clouds 10 993 37 0 6.7 70 03:24 03.10.2019
891 Clouds 10 993 37 0 8.7 80 02:39 03.10.2019
892 Clouds 11 992 34 0 4.6 50 01:59 03.10.2019
893 Clouds 10 992 34 0 4.6 50 01:37 03.10.2019
894 Clouds 10 992 37 10000 5.7 60 00:51 03.10.2019
895 Clouds 10 992 37 10000 5.7 60 00:23 03.10.2019
896 Clouds 10 993 43 10000 4.1 80 23:44 02.10.2019
897 Clouds 10 993 43 10000 4.1 80 23:22 02.10.2019
898 Clouds 9 993 42 10000 5.7 50 22:47 02.10.2019
899 Clouds 9 993 42 10000 5.7 50 22:23 02.10.2019
900 Clouds 11 993 34 10000 5.7 80 21:58 02.10.2019
901 Clouds 12 993 34 10000 5.7 80 21:39 02.10.2019
902 Clouds 12 993 34 10000 5.7 80 21:20 02.10.2019
903 Clouds 12 993 32 10000 5.7 60 20:57 02.10.2019
904 Clouds 12 993 32 10000 5.7 60 20:39 02.10.2019
905 Clouds 12 993 32 10000 5.7 60 20:20 02.10.2019
906 Clouds 12 993 30 10000 5.1 50 19:57 02.10.2019
907 Clouds 12 993 30 10000 5.1 50 19:39 02.10.2019
908 Clouds 12 993 30 10000 5.1 50 19:21 02.10.2019
909 Clouds 10 994 52 10000 4.6 30 18:57 02.10.2019
910 Clouds 8 994 52 10000 4.6 30 18:38 02.10.2019
911 Clouds 8 994 52 10000 4.6 30 18:20 02.10.2019
912 Clouds 8 995 49 10000 6.2 40 17:56 02.10.2019
913 Clouds 8 995 49 10000 6.2 40 17:37 02.10.2019
914 Clouds 8 995 49 10000 6.2 40 17:37 02.10.2019
915 Clouds 8 995 49 10000 6.2 40 17:19 02.10.2019
916 Clouds 8 995 49 10000 6.2 40 17:19 02.10.2019
917 Clouds 6 996 56 10000 5.1 30 16:42 02.10.2019
918 Clouds 6 996 56 10000 5.1 30 16:22 02.10.2019
919 Clouds 6 996 56 10000 7.2 60 15:59 02.10.2019
920 Clouds 6 996 56 10000 7.2 60 15:38 02.10.2019
921 Clouds 6 996 56 10000 7.2 60 15:20 02.10.2019
922 Clouds 4 997 69 10000 5.7 40 14:57 02.10.2019
923 Clouds 4 997 69 10000 5.7 40 14:39 02.10.2019
924 Clouds 4 997 69 10000 5.7 40 14:20 02.10.2019
925 Clouds 3 998 74 10000 3.1 10 13:43 02.10.2019
926 Clouds 3 998 74 10000 3.1 10 13:24 02.10.2019
927 Clouds 3 998 74 10000 4.1 30 12:58 02.10.2019
928 Clouds 3 998 74 10000 4.1 30 12:37 02.10.2019
929 Clouds 3 998 74 10000 4.1 30 12:19 02.10.2019
930 Clouds 3 998 74 0 5.7 60 11:44 02.10.2019
931 Clouds 3 998 74 0 5.7 60 11:23 02.10.2019
932 Clouds 3 999 74 0 4.6 40 10:42 02.10.2019
933 Clouds 3 999 74 0 4.6 40 10:20 02.10.2019
934 Clouds 3 999 74 0 5.1 40 09:59 02.10.2019
935 Clouds 3 999 74 0 5.1 40 09:59 02.10.2019
936 Clouds 3 999 74 0 5.1 40 09:37 02.10.2019
937 Clouds 3 999 74 0 5.1 40 09:19 02.10.2019
938 Clouds 3 999 74 0 6.2 40 08:44 02.10.2019
939 Clouds 3 999 74 0 6.2 40 08:25 02.10.2019
940 Clouds 3 999 74 0 6.2 40 08:25 02.10.2019
941 Clouds 3 1000 60 0 4.6 50 07:59 02.10.2019
942 Clouds 3 1000 60 0 4.6 50 07:38 02.10.2019
943 Clouds 3 1000 60 0 4.6 50 07:20 02.10.2019
944 Clouds 3 1001 69 0 5.7 50 06:36 02.10.2019
945 Clouds 3 1001 74 0 6.2 40 05:55 02.10.2019
946 Clouds 3 1001 74 0 6.2 40 05:55 02.10.2019
947 Clouds 3 1001 74 0 6.2 40 05:24 02.10.2019
948 Clouds 3 1002 74 0 5.1 40 04:53 02.10.2019
949 Clouds 3 1003 74 0 3.1 30 03:52 02.10.2019
950 Clouds 4 1004 69 10000 5.1 40 02:41 02.10.2019
951 Clouds 4 1004 69 10000 5.1 40 02:23 02.10.2019
952 Clouds 3 1005 62 10000 4.1 10 01:40 02.10.2019
953 Clouds 4 1005 61 10000 3.6 30 00:50 02.10.2019
954 Clouds 4 1005 61 10000 3.6 30 00:26 02.10.2019
955 Clouds 6 1006 56 10000 3.6 40 23:43 01.10.2019
956 Clouds 6 1006 56 10000 3.6 40 23:25 01.10.2019
957 Clouds 8 1007 49 10000 3.6 40 22:59 01.10.2019
958 Clouds 8 1007 49 10000 3.6 40 22:39 01.10.2019
959 Clouds 8 1007 49 10000 3.6 40 22:19 01.10.2019
960 Clouds 9 1007 45 10000 3.1 40 21:57 01.10.2019
961 Clouds 9 1007 45 10000 3.1 40 21:38 01.10.2019
962 Clouds 9 1007 45 10000 3.1 40 21:19 01.10.2019
963 Clouds 9 1007 42 10000 3.1 40 20:55 01.10.2019
964 Clouds 9 1007 42 10000 3.1 40 20:55 01.10.2019
965 Clouds 9 1007 42 10000 3.1 40 20:37 01.10.2019
966 Clouds 9 1007 42 10000 3.1 40 20:18 01.10.2019
967 Clouds 8 1008 49 10000 3.6 40 19:55 01.10.2019
968 Clouds 8 1008 49 10000 3.6 40 19:55 01.10.2019
969 Clouds 8 1008 49 10000 3.6 40 19:37 01.10.2019
970 Clouds 8 1008 49 10000 3.6 40 19:18 01.10.2019
971 Clouds 9 1008 42 10000 1 0 18:40 01.10.2019
972 Clouds 9 1008 42 10000 1 0 18:22 01.10.2019
973 Clouds 7 1008 42 10000 6.2 30 17:58 01.10.2019
974 Clouds 5 1008 42 10000 6.2 30 17:39 01.10.2019
975 Clouds 5 1008 42 10000 6.2 30 17:19 01.10.2019
976 Clouds 5 1009 42 10000 2.6 10 16:57 01.10.2019
977 Clouds 5 1009 42 10000 2.6 10 16:39 01.10.2019
978 Clouds 5 1009 42 10000 2.6 10 16:21 01.10.2019
979 Clouds 5 1009 42 10000 4.1 30 15:46 01.10.2019
980 Clouds 5 1009 53 10000 4.1 30 15:23 01.10.2019
981 Clouds 4 1010 53 10000 3.6 40 14:55 01.10.2019
982 Clouds 4 1010 53 10000 3.6 40 14:37 01.10.2019
983 Clouds 4 1010 53 10000 3.6 40 14:18 01.10.2019
984 Clouds 3 1009 53 10000 4.1 40 13:40 01.10.2019
985 Clouds 3 1009 52 10000 4.1 40 13:21 01.10.2019
986 Clouds 3 1010 52 10000 6.2 40 12:59 01.10.2019
987 Clouds 3 1010 52 10000 6.2 40 12:41 01.10.2019
988 Clouds 3 1010 59 10000 6.2 40 12:20 01.10.2019
989 Clouds 3 1011 59 0 1.92 33.69 11:58 01.10.2019
990 Clouds 3 1011 59 0 1.92 33.69 11:38 01.10.2019
991 -273 0 0 0 0 0 11:19 01.10.2019
992 Clouds 3 1010 59 0 6.2 40 10:58 01.10.2019
993 Clouds 3 1010 59 0 6.2 40 10:40 01.10.2019
994 Clouds 3 1010 59 0 6.2 40 10:22 01.10.2019
995 Clouds 3 1011 59 0 5.7 40 09:42 01.10.2019
996 Clouds 3 1011 58 0 5.7 40 09:21 01.10.2019
997 Clouds 4 1011 58 0 6.2 40 08:43 01.10.2019
998 Clouds 4 1011 58 0 6.2 40 08:25 01.10.2019
999 Clouds 3 1011 58 0 5.1 50 07:49 01.10.2019
1000 Clouds 3 1011 58 0 5.1 50 07:25 01.10.2019
1001 Clouds 3 1012 58 0 4.6 50 06:50 01.10.2019
1002 Clouds 3 1012 58 0 4.6 50 06:22 01.10.2019
1003 Clouds 4 1012 58 0 5.7 50 05:46 01.10.2019
1004 Clouds 4 1012 58 0 5.7 50 05:18 01.10.2019
1005 Clouds 6 1013 60 0 4.6 80 04:34 01.10.2019
1006 Clouds 7 1014 60 0 3.1 70 02:30 01.10.2019
1007 Clouds 7 1014 60 0 3.6 60 01:59 01.10.2019
1008 Clouds 7 1014 61 0 3.6 60 01:25 01.10.2019
1009 Clouds 8 1014 61 10000 3.1 50 00:40 01.10.2019
1010 Clouds 8 1014 63 10000 3.1 50 00:22 01.10.2019
1011 Clouds 7 1015 63 10000 3.6 50 23:41 30.09.2019
1012 Clouds 7 1015 63 10000 3.6 50 23:41 30.09.2019
1013 Clouds 7 1015 63 10000 3.6 50 23:41 30.09.2019
1014 Clouds 7 1015 63 10000 3.6 50 23:22 30.09.2019
1015 Clouds 7 1015 56 10000 3.6 40 22:45 30.09.2019
1016 Clouds 7 1015 56 10000 3.6 40 22:26 30.09.2019
1017 Clouds 7 1015 63 10000 3.6 50 21:58 30.09.2019
1018 Clouds 8 1015 63 10000 3.6 50 21:39 30.09.2019
1019 Clouds 8 1015 55 10000 3.6 50 21:20 30.09.2019
1020 Clouds 8 1015 49 10000 4.1 60 20:58 30.09.2019
1021 Clouds 9 1015 49 10000 4.1 60 20:39 30.09.2019
1022 Clouds 9 1015 49 10000 4.1 60 20:20 30.09.2019
1023 Clouds 8 1015 61 10000 4.1 50 19:58 30.09.2019
1024 Clouds 8 1015 61 10000 4.1 50 19:40 30.09.2019
1025 Clouds 8 1015 61 10000 4.1 50 19:20 30.09.2019
1026 Clouds 7 1015 70 10000 4.1 50 18:58 30.09.2019
1027 Clouds 6 1015 70 10000 4.1 50 18:40 30.09.2019
1028 Clouds 6 1015 70 10000 4.1 50 18:20 30.09.2019
1029 Clouds 7 1015 70 10000 4.1 50 17:54 30.09.2019
1030 Clouds 7 1015 70 10000 4.1 50 17:36 30.09.2019
1031 Clouds 7 1015 70 10000 4.1 50 17:18 30.09.2019
1032 Clouds 7 1016 65 10000 4.1 40 16:41 30.09.2019
1033 Clouds 7 1016 65 10000 4.1 40 16:41 30.09.2019
1034 Clouds 7 1016 65 10000 4.1 40 16:20 30.09.2019
1035 Clouds 7 1016 65 10000 4.1 40 16:19 30.09.2019
1036 Clouds 7 1016 65 10000 4.1 40 16:19 30.09.2019
1037 Clouds 6 1016 80 10000 5.1 50 15:59 30.09.2019
1038 Clouds 6 1016 80 10000 5.1 50 15:59 30.09.2019
1039 Clouds 5 1016 80 10000 5.1 50 15:38 30.09.2019
1040 Clouds 5 1016 80 10000 5.1 50 15:19 30.09.2019
1041 Clouds 6 1015 70 10000 4.1 50 14:58 30.09.2019
1042 Clouds 6 1015 70 10000 4.1 50 14:38 30.09.2019
1043 Clouds 6 1015 70 10000 4.1 50 14:19 30.09.2019
1044 Clouds 6 1015 70 10000 1 130 13:59 30.09.2019
1045 Clouds 6 1015 70 10000 1 130 13:40 30.09.2019
1046 Clouds 6 1015 70 10000 1 130 13:21 30.09.2019
1047 Clouds 4 1015 86 10000 2.6 80 12:44 30.09.2019
1048 Clouds 4 1015 86 10000 2.6 80 12:25 30.09.2019
1049 Clouds 4 1015 86 10000 2.1 0 11:59 30.09.2019
1050 Clouds 4 1015 86 10000 2.1 0 11:40 30.09.2019
1051 Clouds 4 1015 86 10000 2.1 0 11:21 30.09.2019
1052 Clouds 5 1015 80 0 1 0 10:56 30.09.2019
1053 Clouds 5 1015 80 0 1 0 10:37 30.09.2019
1054 Clouds 5 1015 80 0 1 0 10:37 30.09.2019
1055 Clouds 5 1015 80 0 1 0 10:18 30.09.2019
1056 Clouds 5 1015 80 0 1 70 09:40 30.09.2019
1057 Clouds 5 1015 80 0 1 70 09:21 30.09.2019
1058 Clouds 6 1015 75 0 2.1 180 08:51 30.09.2019
1059 Clouds 6 1015 75 0 2.1 180 08:33 30.09.2019
1060 Clouds 6 1015 70 0 1.5 0 07:58 30.09.2019
1061 Clouds 7 1015 70 0 1.5 0 07:40 30.09.2019
1062 Clouds 7 1015 70 0 1.5 0 07:18 30.09.2019
1063 Clouds 7 1015 70 0 3.1 70 06:42 30.09.2019
1064 Clouds 7 1015 70 0 3.1 70 06:23 30.09.2019
1065 Clouds 7 1015 70 0 3.1 70 06:23 30.09.2019
1066 Clouds 7 1015 70 0 4.1 70 05:38 30.09.2019
1067 Clouds 6 1016 81 10000 5.7 50 02:51 30.09.2019
1068 Clouds 6 1016 81 10000 5.7 50 02:25 30.09.2019
1069 Clouds 7 1016 75 10000 5.7 60 01:24 30.09.2019
1070 Clouds 6 1016 81 10000 4.1 60 00:38 30.09.2019
1071 Clouds 6 1016 81 10000 4.1 60 00:19 30.09.2019
1072 Clouds 7 1017 70 0 4.1 50 23:42 29.09.2019
1073 Clouds 7 1017 70 0 4.1 50 23:21 29.09.2019
1074 Clouds 8 1017 70 0 3.1 60 22:55 29.09.2019
1075 Clouds 8 1017 70 0 3.1 60 22:36 29.09.2019
1076 Clouds 8 1017 70 0 3.1 60 22:36 29.09.2019
1077 Clouds 8 1017 70 0 3.1 60 22:18 29.09.2019
1078 Clouds 8 1017 75 0 3.6 50 21:55 29.09.2019
1079 Clouds 8 1017 75 0 3.6 50 21:36 29.09.2019
1080 Clouds 8 1017 75 0 3.6 50 21:18 29.09.2019
1081 Clouds 8 1018 75 0 2.1 20 20:43 29.09.2019
1082 Clouds 8 1018 75 0 2.1 20 20:19 29.09.2019
1083 Clouds 8 1018 75 0 1 0 19:58 29.09.2019
1084 Clouds 8 1018 75 0 1 0 19:37 29.09.2019
1085 Clouds 8 1018 75 0 1 0 19:19 29.09.2019
1086 Clouds 8 1018 75 0 1 0 19:19 29.09.2019
1087 Clouds 8 1018 75 0 3.1 200 18:55 29.09.2019
1088 Clouds 8 1018 75 0 3.1 200 18:55 29.09.2019
1089 Clouds 8 1018 75 0 3.1 200 18:37 29.09.2019
1090 Clouds 8 1018 75 0 3.1 200 18:19 29.09.2019
1091 Clouds 8 1018 70 0 2.6 190 17:56 29.09.2019
1092 Clouds 8 1018 70 0 2.6 190 17:38 29.09.2019
1093 Clouds 8 1018 70 0 2.6 190 17:19 29.09.2019
1094 Clouds 8 1018 61 0 4.6 180 16:57 29.09.2019
1095 Clouds 9 1018 61 0 4.6 180 16:39 29.09.2019
1096 Clouds 9 1018 61 0 4.6 180 16:18 29.09.2019
1097 Clouds 6 1018 87 10000 4.1 180 15:41 29.09.2019
1098 Clouds 6 1018 87 10000 4.1 180 15:19 29.09.2019
1099 Clouds 5 1018 93 10000 3.1 160 14:59 29.09.2019
1100 Clouds 5 1018 93 10000 3.1 160 14:39 29.09.2019
1101 Clouds 5 1018 93 10000 3.1 160 14:20 29.09.2019
1102 Rain 5 1018 93 10000 2.6 210 13:57 29.09.2019
1103 Rain 5 1018 93 10000 2.6 210 13:39 29.09.2019
1104 Rain 5 1018 93 10000 2.6 210 13:19 29.09.2019
1105 Clouds 5 1017 86 0 2.1 190 12:57 29.09.2019
1106 Clouds 5 1017 86 0 2.1 190 12:39 29.09.2019
1107 Clouds 5 1017 86 0 2.1 190 12:21 29.09.2019
1108 Clouds 5 1017 86 0 1.76 156.861 11:57 29.09.2019
1109 Clouds 5 1017 86 0 1.76 156.861 11:37 29.09.2019
1110 Clouds 5 1017 86 0 1.76 156.861 11:18 29.09.2019
1111 Clouds 4 1017 93 0 1.76 156.861 10:56 29.09.2019
1112 Clouds 4 1017 93 0 1.76 156.861 10:36 29.09.2019
1113 Clouds 4 1017 93 0 1.76 156.861 10:18 29.09.2019
1114 Clouds 4 1017 86 0 1.76 156.861 09:44 29.09.2019
1115 Clouds 4 1017 86 0 2.53 112.768 09:20 29.09.2019
1116 Clouds 3 1017 93 0 2.53 112.768 08:57 29.09.2019
1117 Clouds 3 1017 93 0 2.06 123.698 08:37 29.09.2019
1118 Clouds 3 1017 93 0 2.06 123.698 08:18 29.09.2019
1119 Clouds 3 1017 93 0 1 80 07:41 29.09.2019
1120 Clouds 3 1017 93 0 1 80 07:23 29.09.2019
1121 Clouds 2 1017 100 0 2.06 123.698 06:42 29.09.2019
1122 Mist 1 1017 100 0 2.77 99.626 04:57 29.09.2019
1123 Mist 1 1017 100 0 2.77 99.626 04:25 29.09.2019
1124 Fog 2 1017 100 0 0.5 180 03:55 29.09.2019
1125 Drizzle 3 1017 100 400 2.6 190 02:40 29.09.2019
1126 Drizzle 3 1017 100 400 2.6 190 02:18 29.09.2019
1127 Fog 3 1017 100 400 2.6 200 01:30 29.09.2019
1128 Fog 3 1016 100 700 3.1 200 00:47 29.09.2019
1129 Fog 3 1016 100 700 3.1 200 00:20 29.09.2019
1130 Fog 3 1016 100 600 1.5 190 23:42 28.09.2019
1131 Fog 3 1016 100 600 1.5 190 23:22 28.09.2019
1132 Fog 4 1016 93 300 3.1 190 22:57 28.09.2019
1133 Fog 4 1016 93 300 3.1 190 22:38 28.09.2019
1134 Fog 4 1016 93 300 3.1 190 22:20 28.09.2019
1135 Fog 4 1016 100 300 2.6 200 21:56 28.09.2019
1136 Fog 4 1016 100 300 2.6 200 21:37 28.09.2019
1137 Fog 4 1016 100 300 2.6 200 21:19 28.09.2019
1138 Fog 4 1016 100 300 2.6 200 21:19 28.09.2019
1139 Fog 6 1016 87 10000 2.6 200 20:57 28.09.2019
1140 Fog 6 1016 87 10000 2.6 200 20:57 28.09.2019
1141 Fog 6 1016 87 10000 2.6 200 20:37 28.09.2019
1142 Fog 6 1016 87 10000 2.6 200 20:18 28.09.2019
1143 Clouds 7 1016 75 10000 2.1 210 19:55 28.09.2019
1144 Clouds 7 1016 75 10000 2.1 210 19:36 28.09.2019
1145 Clouds 7 1016 75 10000 2.1 210 19:18 28.09.2019
1146 Clouds 7 1016 81 10000 2.1 200 18:41 28.09.2019
1147 Clouds 7 1016 81 10000 2.1 200 18:22 28.09.2019
1148 Clouds 7 1016 81 10000 2.1 220 17:59 28.09.2019
1149 Clouds 7 1016 81 10000 2.1 220 17:40 28.09.2019
1150 Clouds 7 1016 81 10000 2.1 220 17:21 28.09.2019
1151 Clear 6 1016 81 10000 1 190 16:55 28.09.2019
1152 Clear 6 1016 81 10000 1 190 16:37 28.09.2019
1153 Clear 6 1016 81 10000 1 190 16:18 28.09.2019
1154 Clouds 6 1016 87 10000 1.5 190 15:40 28.09.2019
1155 Clouds 6 1016 87 10000 1.5 190 15:21 28.09.2019
1156 Clouds 4 1016 86 10000 1 180 14:55 28.09.2019
1157 Clouds 4 1016 86 10000 1 180 14:55 28.09.2019
1158 Clouds 4 1016 86 10000 1 180 14:37 28.09.2019
1159 Clouds 4 1016 86 10000 1 180 14:18 28.09.2019
1160 Clear 2 1016 93 10000 2.1 180 13:43 28.09.2019
1161 Clear 2 1016 93 10000 2.1 180 13:20 28.09.2019
1162 Clear 2 1016 93 10000 0.5 0 12:57 28.09.2019
1163 Clear 2 1016 93 10000 0.5 0 12:39 28.09.2019
1164 Clear 2 1016 93 10000 0.5 0 12:18 28.09.2019
1165 Clear 3 1015 86 10000 2.1 50 11:41 28.09.2019
1166 Clear 3 1015 86 10000 2.1 50 11:41 28.09.2019
1167 Clear 3 1015 86 10000 2.1 50 11:20 28.09.2019
1168 Clear 2 1016 93 0 1.5 160 10:59 28.09.2019
1169 Clear 2 1016 93 0 1.5 160 10:39 28.09.2019
1170 Clear 2 1016 93 0 1.5 160 10:19 28.09.2019
1171 Clear 3 1015 86 0 1.5 70 09:41 28.09.2019
1172 Clear 3 1015 86 0 1.5 70 09:41 28.09.2019
1173 Clear 3 1015 86 0 1.5 70 09:22 28.09.2019
1174 Clear 2 1016 93 0 1 200 08:48 28.09.2019
1175 Clear 2 1016 93 0 1 200 08:30 28.09.2019
1176 Clear 2 1016 93 0 1 0 07:59 28.09.2019
1177 Clear 2 1016 93 0 1 0 07:41 28.09.2019
1178 Clear 2 1016 93 0 1 0 07:19 28.09.2019
1179 Clear 2 1016 93 0 2.1 80 06:51 28.09.2019
1180 Clear 2 1016 93 0 2.1 80 06:30 28.09.2019
1181 Clear 4 1017 86 0 0.5 130 05:41 28.09.2019
1182 Clear 4 1017 86 0 0.5 130 05:19 28.09.2019
1183 Clear 4 1017 93 0 1.28 61.354 04:37 28.09.2019
1184 Clear 5 1017 86 0 2.1 60 03:45 28.09.2019
1185 Clear 5 1017 86 0 2.1 60 03:20 28.09.2019
1186 Clear 6 1017 87 0 3.6 170 02:43 28.09.2019
1187 Clear 6 1017 87 0 3.6 170 02:25 28.09.2019
1188 Clear 5 1017 93 0 4.6 190 01:46 28.09.2019
1189 Clear 5 1017 93 0 4.6 190 01:24 28.09.2019
1190 Clouds 5 1017 86 10000 1 110 00:49 28.09.2019
1191 Clouds 5 1017 86 10000 1 110 00:30 28.09.2019
1192 Clouds 7 1017 81 10000 2.6 190 23:41 27.09.2019
1193 Clouds 7 1017 81 10000 2.6 190 23:41 27.09.2019
1194 Clouds 7 1017 81 10000 2.6 190 23:22 27.09.2019
1195 Clouds 7 1017 87 10000 6.2 190 22:59 27.09.2019
1196 Clouds 7 1017 87 10000 6.2 190 22:41 27.09.2019
1197 Clouds 7 1017 87 10000 6.2 190 22:18 27.09.2019
1198 Clouds 8 1017 81 10000 7.2 180 21:55 27.09.2019
1199 Clouds 8 1017 81 10000 7.2 180 21:36 27.09.2019
1200 Clouds 8 1017 81 10000 7.2 180 21:18 27.09.2019
1201 Clouds 9 1017 76 10000 6.2 200 20:54 27.09.2019
1202 Clouds 9 1017 76 10000 6.2 200 20:36 27.09.2019
1203 Clouds 9 1017 76 10000 6.2 200 20:18 27.09.2019
1204 Clouds 8 1017 75 10000 6.2 200 19:42 27.09.2019
1205 Clouds 8 1017 75 10000 6.2 200 19:23 27.09.2019
1206 Clouds 7 1016 81 10000 7.2 190 18:57 27.09.2019
1207 Clouds 7 1016 81 10000 7.2 190 18:38 27.09.2019
1208 Clouds 7 1016 81 10000 7.2 190 18:20 27.09.2019
1209 Clouds 7 1016 81 10000 7.7 190 17:40 27.09.2019
1210 Clouds 7 1016 81 10000 7.7 190 17:22 27.09.2019
1211 Clouds 7 1016 81 10000 7.7 190 17:22 27.09.2019
1212 Clouds 6 1016 81 10000 7.7 190 16:59 27.09.2019
1213 Clouds 6 1016 81 10000 7.7 190 16:41 27.09.2019
1214 Clouds 6 1016 81 10000 7.7 190 16:20 27.09.2019
1215 Clouds 6 1016 81 10000 7.7 190 16:20 27.09.2019
1216 Clouds 4 1015 93 10000 6.7 200 15:57 27.09.2019
1217 Clouds 4 1015 93 10000 6.7 200 15:57 27.09.2019
1218 Clouds 4 1015 93 10000 6.7 200 15:39 27.09.2019
1219 Clouds 4 1015 93 10000 6.7 200 15:19 27.09.2019
1220 Fog 5 1015 48 10000 2.1 200 14:56 27.09.2019
1221 Fog 5 1015 48 10000 2.1 200 14:37 27.09.2019
1222 Fog 5 1015 48 10000 2.1 200 14:37 27.09.2019
1223 Fog 5 1015 48 10000 2.1 200 14:18 27.09.2019
1224 Clouds 3 1014 74 10000 1.5 10 13:55 27.09.2019
1225 Clouds 3 1014 74 10000 1.5 10 13:37 27.09.2019
1226 Clouds 3 1014 74 10000 1.5 10 13:18 27.09.2019
1227 Clouds 4 1013 64 10000 0.5 30 12:42 27.09.2019
1228 Clouds 4 1013 64 10000 0.5 30 12:21 27.09.2019
1229 Clouds 4 1013 64 10000 0.5 30 12:21 27.09.2019
1230 Clear 4 1013 64 10000 2.1 50 11:40 27.09.2019
1231 Clear 4 1013 64 10000 2.1 50 11:22 27.09.2019
1232 Clear 5 1012 56 10000 0.5 0 10:59 27.09.2019
1233 Clear 5 1012 56 10000 0.5 0 10:40 27.09.2019
1234 Clear 5 1012 56 10000 0.5 0 10:20 27.09.2019
1235 Clear 5 1011 60 0 1 90 09:44 27.09.2019
1236 Clear 5 1011 60 0 1 90 09:44 27.09.2019
1237 Clear 5 1011 60 0 1 90 09:23 27.09.2019
1238 Clear 5 1011 60 0 1 90 09:23 27.09.2019
1239 Clear 4 1011 64 0 1 0 08:58 27.09.2019
1240 Clear 4 1011 64 0 1 0 08:39 27.09.2019
1241 Clear 4 1011 64 0 1 0 08:20 27.09.2019
1242 Clear 6 1010 48 0 0.5 0 07:49 27.09.2019
1243 Clear 6 1010 48 0 0.5 0 07:24 27.09.2019
1244 Clear 8 1010 45 0 0.5 0 06:43 27.09.2019
1245 Clear 8 1010 45 0 0.5 0 06:25 27.09.2019
1246 Clear 7 1010 52 0 0.5 0 05:52 27.09.2019
1247 Clear 7 1010 52 0 0.5 0 05:33 27.09.2019
1248 Clear 6 1009 45 10000 1 50 03:57 27.09.2019
1249 Clear 6 1009 45 10000 1 50 03:37 27.09.2019
1250 Clear 6 1009 45 10000 1.5 360 01:53 27.09.2019
1251 Clear 6 1009 45 10000 1.5 360 01:28 27.09.2019
1252 Clear 6 1008 45 10000 0.5 150 00:34 27.09.2019
1253 Clear 9 1008 34 10000 2.1 0 23:57 26.09.2019
1254 Clear 9 1008 34 10000 2.1 0 23:38 26.09.2019
1255 Clear 9 1008 34 10000 2.1 0 23:19 26.09.2019
1256 Clear 7 1007 48 10000 6.7 40 22:58 26.09.2019
1257 Clear 7 1007 48 10000 6.7 40 22:57 26.09.2019
1258 Clear 7 1007 48 10000 6.7 40 22:39 26.09.2019
1259 Clear 7 1007 48 10000 6.7 40 22:18 26.09.2019
1260 Clouds 8 1007 49 10000 7.7 30 21:58 26.09.2019
1261 Clouds 8 1007 49 10000 7.7 30 21:37 26.09.2019
1262 Clouds 8 1007 49 10000 7.7 30 21:19 26.09.2019
1263 Clouds 8 1007 45 10000 8.2 30 20:58 26.09.2019
1264 Clouds 8 1007 45 10000 8.2 30 20:39 26.09.2019
1265 Clouds 8 1007 45 10000 8.2 30 20:21 26.09.2019
1266 Clouds 8 1007 45 10000 8.2 30 20:21 26.09.2019
1267 Clouds 8 1007 45 10000 8.7 40 19:56 26.09.2019
1268 Clouds 8 1007 45 10000 8.7 40 19:38 26.09.2019
1269 Clouds 8 1007 45 10000 8.7 40 19:18 26.09.2019
1270 Clouds 8 1007 39 10000 9.8 50 18:43 26.09.2019
1271 Clouds 8 1007 39 10000 9.8 50 18:22 26.09.2019
1272 Clouds 8 1007 34 10000 9.3 50 17:59 26.09.2019
1273 Clouds 9 1007 34 10000 9.3 50 17:59 26.09.2019
1274 Clouds 9 1007 34 10000 9.3 50 17:38 26.09.2019
1275 Clouds 9 1007 34 10000 9.3 50 17:19 26.09.2019
1276 Clouds 8 1008 36 10000 8.7 50 16:55 26.09.2019
1277 Clouds 8 1008 36 10000 8.7 50 16:37 26.09.2019
1278 Clouds 8 1008 36 10000 8.7 50 16:18 26.09.2019
1279 Clouds 8 1008 36 10000 8.7 50 16:18 26.09.2019
1280 Clouds 6 1009 52 10000 9.3 50 15:42 26.09.2019
1281 Clouds 6 1009 52 10000 9.3 50 15:23 26.09.2019
1282 Clouds 6 1009 48 10000 7.7 50 14:59 26.09.2019
1283 Clouds 6 1009 48 10000 7.7 50 14:41 26.09.2019
1284 Clouds 6 1009 48 10000 7.7 50 14:22 26.09.2019
1285 Clouds 5 1009 56 10000 9.3 40 13:58 26.09.2019
1286 Clouds 5 1009 56 10000 9.3 40 13:39 26.09.2019
1287 Clouds 5 1009 56 10000 9.3 40 13:19 26.09.2019
1288 Clouds 5 1009 56 10000 7.7 50 12:55 26.09.2019
1289 Clouds 5 1009 56 10000 7.7 50 12:55 26.09.2019
1290 Clouds 5 1009 56 10000 7.7 50 12:55 26.09.2019
1291 Clouds 5 1009 56 10000 7.7 50 12:36 26.09.2019
1292 Clouds 5 1009 56 10000 7.7 50 12:18 26.09.2019
1293 Clouds 4 1010 64 10000 7.7 40 11:41 26.09.2019
1294 Clouds 4 1010 64 10000 7.7 40 11:20 26.09.2019
1295 Clear 4 1010 69 0 8.2 50 10:43 26.09.2019
1296 Clear 4 1010 69 0 8.2 50 10:24 26.09.2019
1297 Clear 4 1010 69 0 7.7 40 09:59 26.09.2019
1298 Clear 4 1010 69 0 7.7 40 09:59 26.09.2019
1299 Clear 4 1010 69 0 7.7 40 09:41 26.09.2019
1300 Clouds 4 1010 69 0 7.7 40 09:22 26.09.2019
1301 Clouds 4 1009 64 0 8.7 60 08:54 26.09.2019
1302 Clouds 4 1009 64 0 8.7 60 08:32 26.09.2019
1303 Clouds 4 1009 69 0 7.2 40 07:58 26.09.2019
1304 Clouds 4 1009 69 0 7.2 40 07:40 26.09.2019
1305 Clouds 4 1009 69 0 7.2 40 07:19 26.09.2019
1306 Clouds 4 1009 58 0 7.7 40 06:43 26.09.2019
1307 Clear 4 1009 61 0 7.7 40 06:24 26.09.2019
1308 Clear 4 1010 61 0 7.2 50 05:40 26.09.2019
1309 Clear 4 1010 61 0 7.2 50 05:21 26.09.2019
1310 Clear 4 1010 64 0 5.7 50 02:41 26.09.2019
1311 Clear 4 1010 64 0 5.7 50 01:49 26.09.2019
1312 Clear 4 1010 64 0 5.7 50 01:27 26.09.2019
1313 Clear 4 1010 64 0 5.1 50 00:54 26.09.2019
1314 Clear 4 1010 64 0 5.1 50 00:36 26.09.2019
1315 Clear 5 1010 63 0 4.1 50 23:47 25.09.2019
1316 Clear 5 1010 63 0 4.1 50 23:28 25.09.2019
1317 Clear 6 1009 70 10000 4.6 60 22:57 25.09.2019
1318 Clear 6 1009 70 10000 4.6 60 22:39 25.09.2019
1319 Clear 6 1009 70 10000 4.6 60 22:20 25.09.2019
1320 Clear 7 1009 63 10000 5.7 50 21:56 25.09.2019
1321 Clear 7 1009 63 10000 5.7 50 21:38 25.09.2019
1322 Clear 7 1009 57 10000 5.7 50 21:19 25.09.2019
1323 Clear 7 1009 56 10000 5.7 60 20:56 25.09.2019
1324 Clear 7 1009 56 10000 5.7 60 20:56 25.09.2019
1325 Clear 7 1009 56 10000 5.7 60 20:38 25.09.2019
1326 Clear 7 1009 56 10000 5.7 60 20:19 25.09.2019
1327 Clear 7 1009 56 10000 5.1 50 19:41 25.09.2019
1328 Clear 7 1009 56 10000 5.1 50 19:41 25.09.2019
1329 Clear 7 1009 56 10000 5.1 50 19:22 25.09.2019
1330 Clear 6 1008 70 10000 4.6 50 18:57 25.09.2019
1331 Clear 6 1008 70 10000 4.6 50 18:39 25.09.2019
1332 Clear 6 1008 70 10000 4.6 50 18:21 25.09.2019
1333 Clouds 5 1008 86 10000 5.1 60 17:58 25.09.2019
1334 Clouds 4 1008 86 10000 5.1 60 17:37 25.09.2019
1335 Clouds 4 1008 86 10000 5.1 60 17:19 25.09.2019
1336 Clouds 4 1008 86 10000 6.2 30 16:45 25.09.2019
1337 Clouds 4 1008 86 10000 6.2 30 16:27 25.09.2019
1338 Fog 3 1008 93 5000 5.7 40 15:58 25.09.2019
1339 Fog 3 1008 93 5000 5.7 40 15:40 25.09.2019
1340 Fog 3 1008 93 5000 5.7 40 15:21 25.09.2019
1341 Fog 3 1008 93 5000 5.1 30 14:55 25.09.2019
1342 Fog 3 1008 93 5000 5.1 30 14:36 25.09.2019
1343 Fog 3 1008 93 5000 5.1 30 14:18 25.09.2019
1344 Fog 2 1007 100 1900 6.2 40 13:41 25.09.2019
1345 Fog 2 1007 100 1900 6.2 40 13:20 25.09.2019
1346 Fog 2 1006 100 4000 5.1 50 12:58 25.09.2019
1347 Fog 2 1006 100 4000 5.1 50 12:39 25.09.2019
1348 Fog 2 1006 100 4000 5.1 50 12:21 25.09.2019
1349 Drizzle 2 1006 100 3500 5.7 40 11:42 25.09.2019
1350 Drizzle 2 1006 100 3500 5.7 40 11:22 25.09.2019
1351 Clear 2 1005 93 0 3.6 60 10:59 25.09.2019
1352 Clear 3 1005 93 0 3.6 60 10:41 25.09.2019
1353 Clear 3 1005 93 0 3.6 60 10:21 25.09.2019
1354 Clear 3 1004 93 0 2.1 30 09:56 25.09.2019
1355 Clear 3 1004 93 0 2.1 30 09:36 25.09.2019
1356 Clear 3 1004 93 0 2.1 30 09:18 25.09.2019
1357 Clear 3 1004 100 0 1 140 08:41 25.09.2019
1358 Clear 3 1004 100 0 1 140 08:21 25.09.2019
1359 Clear 4 1003 93 0 3.26 19.747 07:56 25.09.2019
1360 Clear 4 1003 93 0 3.26 19.747 07:37 25.09.2019
1361 Clear 4 1003 93 0 3.26 19.747 07:19 25.09.2019
1362 Clear 4 1003 93 0 0.5 240 06:38 25.09.2019
1363 Clear 4 1003 93 0 0.5 240 06:18 25.09.2019
1364 Clear 4 1002 93 0 0.5 160 05:27 25.09.2019
1365 Clear 4 1001 93 0 1.5 20 04:49 25.09.2019
1366 Clouds 4 1000 93 10000 2.1 350 02:18 25.09.2019
1367 Clouds 4 999 93 10000 3.1 350 00:44 25.09.2019
1368 Clouds 4 999 93 10000 3.1 350 00:24 25.09.2019
1369 Clouds 5 998 93 10000 2.6 360 23:55 24.09.2019
1370 Clouds 5 998 93 10000 2.6 360 23:36 24.09.2019
1371 Clouds 5 998 93 10000 2.6 360 23:36 24.09.2019
1372 Clouds 5 998 93 10000 2.6 360 23:18 24.09.2019
1373 Clouds 5 997 86 10000 6.2 330 22:39 24.09.2019
1374 Clouds 5 997 86 10000 6.2 330 22:20 24.09.2019
1375 Clouds 6 997 87 10000 4.6 330 21:56 24.09.2019
1376 Clouds 6 997 87 10000 4.6 330 21:37 24.09.2019
1377 Clouds 6 997 87 10000 4.6 330 21:19 24.09.2019
1378 Clouds 8 996 75 10000 4.6 330 20:57 24.09.2019
1379 Clouds 8 996 75 10000 4.6 330 20:39 24.09.2019
1380 Clouds 8 996 75 10000 4.6 330 20:20 24.09.2019
1381 Clouds 9 995 66 10000 2.6 340 19:44 24.09.2019
1382 Clouds 9 995 66 10000 2.6 340 19:23 24.09.2019
1383 Clouds 8 995 70 10000 2.1 340 18:59 24.09.2019
1384 Clouds 8 995 70 10000 2.1 340 18:41 24.09.2019
1385 Clouds 8 995 70 10000 2.1 340 18:22 24.09.2019
1386 Clouds 7 994 75 10000 3.1 60 17:58 24.09.2019
1387 Clouds 7 994 75 10000 3.1 60 17:38 24.09.2019
1388 Clouds 7 994 75 10000 3.1 60 17:38 24.09.2019
1389 Clouds 7 994 75 10000 3.1 60 17:20 24.09.2019
1390 Clouds 6 994 81 10000 3.1 40 16:58 24.09.2019
1391 Clouds 6 994 81 10000 3.1 40 16:40 24.09.2019
1392 Clouds 6 994 81 10000 3.1 40 16:19 24.09.2019
1393 Clouds 5 994 86 10000 3.6 40 15:42 24.09.2019
1394 Clouds 5 994 86 10000 3.6 40 15:23 24.09.2019
1395 Clouds 3 994 93 10000 3.1 30 14:45 24.09.2019
1396 Clouds 3 994 93 10000 3.1 30 14:21 24.09.2019
1397 Fog 2 993 100 10000 3.1 40 13:59 24.09.2019
1398 Fog 2 993 100 10000 3.1 40 13:40 24.09.2019
1399 Fog 2 993 100 10000 3.1 40 13:21 24.09.2019
1400 Fog 2 993 100 10000 4.6 50 12:40 24.09.2019
1401 Fog 2 993 100 10000 4.6 50 12:21 24.09.2019
1402 Clouds 2 993 100 10000 3.6 40 11:57 24.09.2019
1403 Clouds 2 993 100 10000 3.6 40 11:39 24.09.2019
1404 Clouds 2 993 100 10000 3.6 40 11:19 24.09.2019
1405 Clouds 2 993 100 0 3.6 40 10:40 24.09.2019
1406 Clouds 2 993 100 0 3.6 40 10:21 24.09.2019
1407 Clouds 2 993 100 0 4.6 60 09:57 24.09.2019
1408 Clouds 2 993 100 0 4.6 60 09:39 24.09.2019
1409 Clouds 2 993 100 0 4.6 60 09:19 24.09.2019
1410 Clouds 2 993 100 0 4.1 50 08:41 24.09.2019
1411 Clouds 2 993 100 0 4.1 50 08:23 24.09.2019
1412 Clouds 2 992 100 0 3.6 20 07:59 24.09.2019
1413 Clouds 2 992 100 0 3.6 20 07:41 24.09.2019
1414 Clouds 2 992 100 0 3.6 20 07:22 24.09.2019
1415 Clouds 2 992 100 0 5.1 50 06:46 24.09.2019
1416 Clouds 2 992 100 0 5.1 50 06:26 24.09.2019
1417 Clouds 2 992 100 0 4.6 50 05:25 24.09.2019
1418 Clouds 2 993 100 0 2.6 10 03:47 24.09.2019
1419 Clouds 2 993 100 0 2.6 10 03:26 24.09.2019
1420 Clouds 3 993 93 0 3.1 20 02:45 24.09.2019
1421 Clouds 3 993 93 10000 2.6 30 01:43 24.09.2019
1422 Clouds 3 992 100 10000 4.1 10 00:42 24.09.2019
1423 Clouds 3 992 100 10000 4.1 10 00:23 24.09.2019
1424 Clouds 3 992 93 10000 3.6 20 23:43 23.09.2019
1425 Clouds 3 992 93 10000 3.6 20 23:23 23.09.2019
1426 Clouds 3 992 93 10000 3.6 20 23:23 23.09.2019
1427 Clouds 4 992 93 10000 3.1 20 22:57 23.09.2019
1428 Clouds 4 992 93 10000 3.1 20 22:37 23.09.2019
1429 Clouds 4 992 93 0 2.68 20 22:37 23.09.2019
1430 Clouds 5 991 86 10000 3.1 40 22:19 23.09.2019
1431 Clouds 5 991 86 10000 3.1 40 21:56 23.09.2019
1432 Clouds 5 991 86 10000 3.1 40 21:37 23.09.2019
1433 Clouds 5 991 86 10000 3.1 40 21:18 23.09.2019
1434 Clouds 4 991 86 10000 3.1 30 20:40 23.09.2019
1435 Clouds 4 991 86 10000 3.1 30 20:20 23.09.2019
1436 Clouds 5 991 86 10000 3.6 20 19:56 23.09.2019
1437 Clouds 5 991 86 10000 3.6 20 19:38 23.09.2019
1438 Clouds 5 991 86 10000 3.6 20 19:20 23.09.2019
1439 Clouds 4 990 93 10000 3.1 40 18:42 23.09.2019
1440 Clouds 4 990 93 10000 3.1 40 18:21 23.09.2019
1441 Fog 3 990 93 700 4.1 30 17:59 23.09.2019
1442 Fog 3 990 93 700 4.1 30 17:39 23.09.2019
1443 Fog 3 990 93 700 4.1 30 17:21 23.09.2019
1444 Fog 3 990 93 700 4.1 30 17:21 23.09.2019
1445 Fog 2 990 100 600 4.1 20 16:59 23.09.2019
1446 Fog 2 990 100 600 4.1 20 16:38 23.09.2019
1447 Fog 2 990 100 600 4.1 20 16:19 23.09.2019
1448 Fog 1 990 100 10000 3.6 20 15:57 23.09.2019
1449 Fog 1 990 100 10000 3.6 20 15:39 23.09.2019
1450 Fog 1 990 100 10000 3.6 20 15:39 23.09.2019
1451 Fog 1 990 100 10000 3.6 20 15:19 23.09.2019
1452 Fog 2 989 100 10000 3.1 30 14:57 23.09.2019
1453 Fog 2 989 100 10000 3.1 30 14:36 23.09.2019
1454 Fog 2 989 100 10000 3.1 30 14:18 23.09.2019
1455 Fog 1 989 100 900 3.1 10 13:40 23.09.2019
1456 Fog 1 989 100 900 3.1 10 13:19 23.09.2019
1457 Fog 1 988 100 6000 4.1 20 12:59 23.09.2019
1458 Fog 1 988 100 6000 4.1 20 12:40 23.09.2019
1459 Fog 1 988 100 6000 4.1 20 12:21 23.09.2019
1460 Fog 1 988 100 10000 4.1 40 11:45 23.09.2019
1461 Fog 1 988 100 10000 4.1 40 11:27 23.09.2019
1462 Clouds 1 987 100 0 4.6 40 10:57 23.09.2019
1463 Clouds 1 987 100 0 4.6 40 10:39 23.09.2019
1464 Clouds 1 987 100 0 4.6 40 10:20 23.09.2019
1465 Clouds 1 987 100 0 4.6 40 09:40 23.09.2019
1466 Clear 1 987 100 0 4.6 40 09:21 23.09.2019
1467 Clear 1 987 86 0 4.1 60 08:58 23.09.2019
1468 Clear 1 987 87 0 4.1 60 08:38 23.09.2019
1469 Clear 1 987 87 0 4.1 60 08:18 23.09.2019
1470 Snow 1 987 100 0 3.6 20 07:33 23.09.2019
1471 Clear 1 988 100 0 2.6 20 06:53 23.09.2019
1472 Clear 1 988 100 0 2.6 20 06:20 23.09.2019
1473 Clear 2 988 93 0 2.6 20 05:23 23.09.2019
1474 Clear 1 988 100 0 2.1 10 04:56 23.09.2019
1475 Clear 1 988 100 0 2.6 40 03:59 23.09.2019
1476 Clouds 4 989 86 0 3.1 40 01:25 23.09.2019
1477 Clouds 3 989 93 0 1.5 30 00:26 23.09.2019
1478 Clouds 4 989 80 0 3.1 60 23:58 22.09.2019
1479 Clouds 4 989 80 0 3.1 60 23:40 22.09.2019
1480 Clouds 4 989 80 0 3.1 60 23:21 22.09.2019
1481 Clouds 5 990 80 0 2.6 40 22:55 22.09.2019
1482 Clouds 5 990 80 0 2.6 40 22:37 22.09.2019
1483 Clouds 5 990 80 0 2.6 40 22:18 22.09.2019
1484 Clouds 7 990 65 0 2.1 30 21:42 22.09.2019
1485 Clouds 7 990 65 0 2.1 30 21:42 22.09.2019
1486 Clouds 7 990 65 0 2.1 30 21:20 22.09.2019
1487 Clouds 6 991 75 0 2.1 330 20:45 22.09.2019
1488 Clouds 6 991 75 0 2.1 330 20:45 22.09.2019
1489 Clouds 6 991 75 0 2.1 330 20:27 22.09.2019
1490 Clouds 6 991 75 0 2.1 350 19:59 22.09.2019
1491 Clouds 6 991 75 0 2.1 350 19:40 22.09.2019
1492 Clouds 6 991 75 0 2.1 350 19:20 22.09.2019
1493 Clouds 5 992 86 0 2.1 50 18:57 22.09.2019
1494 Clouds 5 992 86 0 2.1 50 18:57 22.09.2019
1495 Clouds 5 992 86 0 2.1 50 18:38 22.09.2019
1496 Clouds 5 992 86 0 2.1 50 18:18 22.09.2019
1497 Clouds 4 992 86 10000 2.6 40 17:47 22.09.2019
1498 Clouds 4 992 86 10000 2.6 40 17:27 22.09.2019
1499 Clouds 4 993 86 10000 1.5 10 16:58 22.09.2019
1500 Clouds 4 993 86 10000 1.5 10 16:40 22.09.2019
1501 Clouds 4 993 86 10000 1.5 10 16:21 22.09.2019
1502 Clouds 3 993 93 10000 2.1 30 15:46 22.09.2019
1503 Clouds 3 993 93 10000 2.1 30 15:27 22.09.2019
1504 Clouds 3 994 93 10000 2.1 60 14:58 22.09.2019
1505 Clouds 3 994 93 10000 2.1 60 14:40 22.09.2019
1506 Clouds 3 994 93 10000 2.1 60 14:21 22.09.2019
1507 Fog 2 994 100 10000 0.5 0 13:55 22.09.2019
1508 Fog 2 994 100 10000 0.5 0 13:36 22.09.2019
1509 Fog 2 994 100 10000 0.5 0 13:18 22.09.2019
1510 Clouds 2 994 100 0 2.1 50 12:42 22.09.2019
1511 Clouds 2 994 100 0 2.1 50 12:22 22.09.2019
1512 Clouds 3 995 93 0 1 180 11:56 22.09.2019
1513 Clouds 3 995 93 0 1 180 11:38 22.09.2019
1514 Clouds 3 995 93 0 1 180 11:19 22.09.2019
1515 Clouds 3 995 93 0 2.6 190 10:43 22.09.2019
1516 Clouds 3 995 93 0 2.6 190 10:20 22.09.2019
1517 Clouds 3 995 93 0 2.13 123.929 09:56 22.09.2019
1518 Clouds 3 995 93 0 2.13 123.929 09:37 22.09.2019
1519 Clouds 3 995 93 0 3.88 152.267 09:19 22.09.2019
1520 Clouds 3 995 93 0 1 40 08:42 22.09.2019
1521 Clouds 3 995 93 0 1 40 08:23 22.09.2019
1522 Clouds 3 995 93 0 2.1 30 07:52 22.09.2019
1523 Clouds 3 995 93 0 2.1 30 07:33 22.09.2019
1524 Clouds 3 995 93 0 3.1 180 06:59 22.09.2019
1525 Clouds 3 995 93 0 3.1 180 06:38 22.09.2019
1526 Snow 4 995 93 0 4.1 180 05:22 22.09.2019
1527 Clouds 4 996 93 10000 6.2 170 02:46 22.09.2019
1528 Clouds 4 996 93 10000 6.2 170 02:26 22.09.2019
1529 Clouds 4 996 93 10000 5.7 180 01:53 22.09.2019
1530 Clouds 4 996 93 0 5.81 180 00:55 22.09.2019
1531 Clouds 4 996 93 0 5.81 180 00:32 22.09.2019
1532 Clouds 4 996 93 10000 6.2 180 23:57 21.09.2019
1533 Clouds 4 996 93 10000 6.2 180 23:39 21.09.2019
1534 Clouds 5 996 86 10000 8.2 170 22:57 21.09.2019
1535 Clouds 5 996 86 10000 8.2 170 22:38 21.09.2019
1536 Clouds 5 996 86 10000 8.2 170 22:20 21.09.2019
1537 Clouds 5 996 86 10000 8.2 170 22:20 21.09.2019
1538 Clouds 5 996 86 10000 8.2 170 22:20 21.09.2019
1539 Clouds 5 996 86 10000 9.3 170 21:42 21.09.2019
1540 Clouds 5 996 86 10000 9.3 170 21:20 21.09.2019
1541 Clouds 5 996 86 10000 9.3 180 20:58 21.09.2019
1542 Clouds 5 996 86 10000 9.3 180 20:38 21.09.2019
1543 Clouds 5 996 86 10000 9.3 180 20:38 21.09.2019
1544 Clouds 5 996 86 10000 9.3 180 20:19 21.09.2019
1545 Clouds 5 996 86 10000 9.3 180 20:19 21.09.2019
1546 Clouds 5 996 86 10000 9.3 170 19:46 21.09.2019
1547 Clouds 5 996 86 10000 9.3 170 19:23 21.09.2019
1548 Rain 5 996 86 10000 12.3 170 18:55 21.09.2019
1549 Rain 5 996 86 10000 12.3 170 18:36 21.09.2019
1550 Rain 5 996 86 10000 12.3 170 18:18 21.09.2019
1551 Rain 4 997 100 5000 8.2 180 17:39 21.09.2019
1552 Rain 4 997 100 5000 8.2 180 17:19 21.09.2019
1553 Rain 5 997 86 3500 14.9 160 16:43 21.09.2019
1554 Rain 5 997 86 3500 14.9 160 16:24 21.09.2019
1555 Rain 4 997 93 8000 10.8 170 15:48 21.09.2019
1556 Rain 4 997 93 8000 10.8 170 15:25 21.09.2019
1557 Rain 5 997 80 4000 13.9 160 14:55 21.09.2019
1558 Rain 5 997 80 4000 13.9 160 14:37 21.09.2019
1559 Rain 5 997 80 4000 13.9 160 14:19 21.09.2019
1560 Rain 6 996 75 10000 17.5 150 13:41 21.09.2019
1561 Rain 6 996 75 10000 17.5 150 13:23 21.09.2019
1562 Rain 6 997 75 10000 17 150 12:57 21.09.2019
1563 Rain 6 997 75 10000 17 150 12:38 21.09.2019
1564 Rain 6 997 75 10000 17 150 12:20 21.09.2019
1565 Snow 5 997 80 0 15.9 160 11:50 21.09.2019
1566 Snow 5 997 80 0 15.9 160 11:25 21.09.2019
1567 Snow 5 997 80 0 16.5 150 10:56 21.09.2019
1568 Snow 5 997 80 0 16.5 150 10:37 21.09.2019
1569 Snow 5 997 80 0 16.5 150 10:19 21.09.2019
1570 Snow 5 997 86 0 15.9 160 09:55 21.09.2019
1571 Snow 5 997 86 0 15.9 160 09:36 21.09.2019
1572 Snow 5 997 86 0 15.9 160 09:18 21.09.2019
1573 Snow 5 997 86 0 15.9 160 08:42 21.09.2019
1574 Rain 6 997 75 0 16.5 150 07:58 21.09.2019
1575 Rain 6 997 75 0 16.5 150 07:39 21.09.2019
1576 Rain 6 997 75 0 16.5 150 07:18 21.09.2019
1577 Rain 6 997 70 0 18 160 06:35 21.09.2019
1578 Snow 5 998 80 0 19 160 05:51 21.09.2019
1579 Snow 5 997 80 0 20.1 160 04:39 21.09.2019
1580 Rain 5 998 80 0 15.4 160 03:31 21.09.2019
1581 Rain 5 998 80 0 15.9 160 02:25 21.09.2019
1582 Rain 5 998 86 0 18.5 160 01:48 21.09.2019
1583 Rain 5 998 86 0 18.5 160 01:25 21.09.2019
1584 Snow 4 998 93 0 17.5 160 00:23 21.09.2019
1585 Snow 4 999 93 0 12.9 170 23:49 20.09.2019
1586 Snow 4 999 93 0 12.9 170 23:30 20.09.2019
1587 Snow 4 999 93 0 15.4 160 22:56 20.09.2019
1588 Snow 4 999 93 0 15.4 160 22:37 20.09.2019
1589 Snow 4 999 93 0 15.4 160 22:19 20.09.2019
1590 Rain 4 999 86 8000 12.3 170 21:54 20.09.2019
1591 Rain 4 999 86 8000 12.3 170 21:36 20.09.2019
1592 Rain 4 999 86 8000 12.3 170 21:18 20.09.2019
1593 Rain 4 999 86 10000 15.9 170 20:41 20.09.2019
1594 Rain 4 999 86 10000 15.9 170 20:20 20.09.2019
1595 Rain 4 999 86 10000 15.9 170 20:20 20.09.2019
1596 Rain 4 999 80 10000 15.4 170 19:56 20.09.2019
1597 Rain 4 999 80 10000 15.4 170 19:37 20.09.2019
1598 Rain 4 999 80 10000 15.4 170 19:19 20.09.2019
1599 Drizzle 6 1000 70 10000 12.3 170 18:39 20.09.2019
1600 Drizzle 6 1000 60 10000 12.3 170 18:20 20.09.2019
1601 Clouds 6 1000 60 10000 11.3 170 17:57 20.09.2019
1602 Clouds 6 1000 60 10000 11.3 170 17:39 20.09.2019
1603 Clouds 6 1000 60 10000 11.3 170 17:20 20.09.2019
1604 Clouds 6 1000 60 10000 10.3 170 16:41 20.09.2019
1605 Clouds 6 1000 60 10000 10.3 170 16:41 20.09.2019
1606 Clouds 6 1000 60 10000 10.3 170 16:19 20.09.2019
1607 Clouds 7 1000 52 10000 10.8 170 15:43 20.09.2019
1608 Clouds 7 1000 52 10000 10.8 170 15:23 20.09.2019
1609 Clouds 7 1000 45 10000 10.3 160 14:59 20.09.2019
1610 Clouds 8 1000 45 10000 10.3 160 14:41 20.09.2019
1611 Clouds 8 1000 45 10000 10.3 160 14:18 20.09.2019
1612 Clouds 8 1000 45 10000 10.3 160 14:18 20.09.2019
1613 Clouds 8 1001 42 10000 8.2 170 13:47 20.09.2019
1614 Clouds 8 1001 42 10000 8.2 170 13:27 20.09.2019
1615 Clouds 4 1001 69 10000 2.1 0 12:57 20.09.2019
1616 Clouds 4 1001 69 10000 2.1 0 12:36 20.09.2019
1617 Clouds 4 1001 69 10000 2.1 0 12:18 20.09.2019
1618 Clouds 3 1002 74 10000 2.93 108.918 11:48 20.09.2019
1619 Clouds 3 1002 74 10000 2.93 108.918 11:21 20.09.2019
1620 Clouds 2 1002 80 10000 0.5 40 10:43 20.09.2019
1621 Clouds 2 1002 80 10000 0.5 40 10:24 20.09.2019
1622 Clouds 2 1003 80 0 1 0 09:59 20.09.2019
1623 Clouds 2 1003 80 0 1 0 09:37 20.09.2019
1624 Clouds 2 1003 80 0 1 0 09:18 20.09.2019
1625 Clouds 1 1003 86 0 1.5 170 08:41 20.09.2019
1626 Clouds 1 1003 86 0 1.5 170 08:23 20.09.2019
1627 Clouds 2 1004 74 0 2.6 10 07:47 20.09.2019
1628 Clouds 2 1004 74 0 2.6 10 07:28 20.09.2019
1629 Clouds 1 1004 80 0 2.17 135.784 06:44 20.09.2019
1630 Clouds 1 1004 80 0 1.79 129.523 06:22 20.09.2019
1631 Clouds 2 1004 80 0 1.79 129.523 05:47 20.09.2019
1632 Clouds 2 1004 80 0 1.79 129.523 03:42 20.09.2019
1633 Clouds 2 1004 80 0 1.38 103.612 03:19 20.09.2019
1634 Clear 3 1005 69 10000 1.5 170 01:45 20.09.2019
1635 Clear 3 1005 69 10000 1.5 170 01:18 20.09.2019
1636 Clouds 3 1005 86 10000 2.1 190 00:26 20.09.2019
1637 Clear 5 1005 64 10000 2.6 190 23:45 19.09.2019
1638 Clear 5 1005 64 10000 2.6 190 23:22 19.09.2019
1639 Clear 6 1005 60 10000 2.1 240 22:57 19.09.2019
1640 Clear 6 1005 60 10000 2.1 240 22:38 19.09.2019
1641 Clear 6 1005 60 10000 2.1 240 22:19 19.09.2019
1642 Clear 8 1004 39 10000 2.6 340 21:56 19.09.2019
1643 Clear 8 1004 39 10000 2.6 340 21:37 19.09.2019
1644 Clear 8 1004 39 10000 2.6 340 21:18 19.09.2019
1645 Clear 7 1004 45 10000 1.5 300 20:43 19.09.2019
1646 Clear 7 1004 45 10000 1.5 300 20:22 19.09.2019
1647 Clear 6 1004 52 10000 4.1 50 19:56 19.09.2019
1648 Clear 6 1004 52 10000 4.1 50 19:38 19.09.2019
1649 Clear 6 1004 52 10000 4.1 50 19:19 19.09.2019
1650 Clear 6 1004 52 10000 4.1 50 19:19 19.09.2019
1651 Clear 6 1004 52 10000 4.1 50 19:19 19.09.2019
1652 -273 0 0 0 0 0 18:55 19.09.2019
1653 Clear 7 1005 42 10000 3.6 30 18:36 19.09.2019
1654 Clear 7 1005 42 10000 3.6 30 18:18 19.09.2019
1655 Clear 6 1005 45 10000 3.6 30 17:42 19.09.2019
1656 Clear 6 1005 45 10000 3.6 30 17:23 19.09.2019
1657 Clear 5 1006 42 10000 2.1 350 16:58 19.09.2019
1658 Clear 4 1006 42 10000 2.1 350 16:39 19.09.2019
1659 Clear 4 1006 42 10000 2.1 350 16:18 19.09.2019
1660 Clear 4 1006 60 0 1.24 172.858 15:39 19.09.2019
1661 Clear 4 1006 60 10000 1.42 105.701 15:19 19.09.2019
1662 Clear 4 1006 60 10000 1.42 105.701 14:42 19.09.2019
1663 Clear 4 1006 60 10000 1.42 105.701 14:24 19.09.2019
1664 Clouds 2 1006 74 10000 1.42 105.701 13:59 19.09.2019
1665 Clouds 1 1006 74 10000 1.42 105.701 13:40 19.09.2019
1666 Clouds 1 1006 74 10000 1.36 92.744 13:19 19.09.2019
1667 Clouds 1 1006 69 10000 1.36 92.744 12:40 19.09.2019
1668 Clouds 1 1006 69 10000 1.25 125.16 12:20 19.09.2019
1669 Clouds 1 1006 64 10000 0.5 360 11:58 19.09.2019
1670 Clouds 1 1006 64 10000 0.5 360 11:39 19.09.2019
1671 Clouds 1 1006 64 10000 0.5 360 11:20 19.09.2019
1672 Clouds 1 1006 69 0 2.6 60 10:56 19.09.2019
1673 Clouds 1 1006 69 0 2.6 60 10:56 19.09.2019
1674 Clouds 1 1006 69 0 2.6 60 10:56 19.09.2019
1675 Clouds 1 1006 69 0 2.6 60 10:56 19.09.2019
1676 Clouds 1 1006 69 0 2.6 60 10:36 19.09.2019
1677 Clouds 1 1006 69 0 2.6 60 10:18 19.09.2019
1678 Clouds 1 1007 86 0 2.6 20 09:41 19.09.2019
1679 Clouds 1 1007 86 0 2.6 20 09:22 19.09.2019
1680 Clouds 1 1007 60 0 2.6 30 08:56 19.09.2019
1681 Clouds 1 1007 60 0 2.6 30 08:56 19.09.2019
1682 Clouds 1 1007 59 0 2.6 30 08:29 19.09.2019
1683 Clouds 2 1008 74 0 1 250 07:58 19.09.2019
1684 Clouds 2 1008 74 0 1 250 07:40 19.09.2019
1685 Clouds 2 1008 74 0 1 250 07:21 19.09.2019
1686 Clouds 3 1008 59 0 4.1 60 06:46 19.09.2019
1687 Clouds 3 1008 59 0 4.1 60 06:27 19.09.2019
1688 Clouds 2 1009 74 0 1.5 80 05:52 19.09.2019
1689 Clouds 2 1009 74 0 1.5 20 04:44 19.09.2019
1690 Clouds 2 1009 74 0 2.1 50 03:51 19.09.2019
1691 Clouds 2 1010 74 0 3.1 30 02:45 19.09.2019
1692 Clouds 2 1010 80 0 3.1 50 01:27 19.09.2019
1693 Clouds 3 1011 74 10000 3.1 40 00:50 19.09.2019
1694 Clouds 3 1011 74 10000 3.1 40 00:25 19.09.2019
1695 Clouds 4 1011 60 10000 2.1 360 23:42 18.09.2019
1696 Clouds 4 1011 60 10000 2.1 360 23:21 18.09.2019
1697 Clouds 6 1012 41 10000 2.6 330 22:55 18.09.2019
1698 Clouds 6 1012 41 10000 2.6 330 22:36 18.09.2019
1699 Clouds 6 1012 41 10000 2.6 330 22:18 18.09.2019
1700 Clouds 7 1012 39 10000 2.6 10 21:54 18.09.2019
1701 Clouds 7 1012 39 10000 2.6 10 21:36 18.09.2019
1702 Clouds 7 1012 39 10000 2.6 10 21:18 18.09.2019
1703 Clouds 7 1012 33 10000 2.6 40 20:55 18.09.2019
1704 Clouds 7 1012 33 10000 2.6 40 20:37 18.09.2019
1705 Clouds 7 1012 33 10000 2.6 40 20:18 18.09.2019
1706 Clear 7 1013 33 10000 2.6 50 19:41 18.09.2019
1707 Clear 7 1013 33 10000 2.6 50 19:20 18.09.2019
1708 Clear 6 1013 35 10000 3.1 60 18:56 18.09.2019
1709 Clear 6 1013 35 10000 3.1 60 18:38 18.09.2019
1710 Clear 6 1013 35 10000 3.1 60 18:19 18.09.2019
1711 Clear 4 1014 55 10000 3.1 30 17:59 18.09.2019
1712 Clear 4 1014 55 10000 3.1 30 17:40 18.09.2019
1713 Clear 4 1014 55 10000 3.1 30 17:19 18.09.2019
1714 Clouds 4 1014 60 10000 3.1 20 16:56 18.09.2019
1715 Clouds 4 1014 60 10000 3.1 20 16:38 18.09.2019
1716 Clouds 4 1014 60 10000 3.1 20 16:19 18.09.2019
1717 Clouds 4 1014 60 10000 3.6 20 15:56 18.09.2019
1718 Clouds 4 1014 60 10000 3.6 20 15:38 18.09.2019
1719 Clouds 4 1014 60 10000 3.6 20 15:19 18.09.2019
1720 Clouds 3 1015 51 10000 3.6 40 14:57 18.09.2019
1721 Clouds 3 1015 51 10000 3.6 40 14:39 18.09.2019
1722 Clouds 3 1015 51 10000 3.6 40 14:21 18.09.2019
1723 Clouds 1 1015 74 10000 4.1 30 13:54 18.09.2019
1724 Clouds 1 1015 74 10000 4.1 30 13:36 18.09.2019
1725 Clouds 1 1015 74 10000 4.1 30 13:18 18.09.2019
1726 Clouds 2 1015 51 10000 3.1 60 12:37 18.09.2019
1727 Clouds 2 1015 51 10000 3.1 60 12:19 18.09.2019
1728 Clear 1 1015 59 10000 2.1 40 11:40 18.09.2019
1729 Clear 1 1015 59 10000 2.1 40 11:20 18.09.2019
1730 Clear 1 1016 74 0 4.6 50 10:56 18.09.2019
1731 Clear 1 1016 74 0 4.6 50 10:37 18.09.2019
1732 Clear 1 1016 74 0 4.6 50 10:18 18.09.2019
1733 Clear 2 1016 64 0 4.1 60 09:54 18.09.2019
1734 Clear 2 1016 64 0 4.1 60 09:36 18.09.2019
1735 Clear 2 1016 64 0 4.1 60 09:18 18.09.2019
1736 Clear 2 1016 55 0 4.1 60 08:41 18.09.2019
1737 Clear 2 1016 55 0 4.1 60 08:21 18.09.2019
1738 Clear 2 1016 69 0 5.7 60 07:44 18.09.2019
1739 Clear 2 1016 69 0 5.7 60 07:23 18.09.2019
1740 Clear 1 1016 80 0 5.1 60 06:49 18.09.2019
1741 Clear 1 1016 80 0 5.1 60 06:24 18.09.2019
1742 Clear 2 1016 69 0 5.1 60 05:33 18.09.2019
1743 Clear 1 1017 64 0 3.1 40 03:42 18.09.2019
1744 Clear 2 1018 69 10000 3.1 50 02:40 18.09.2019
1745 Clear 3 1018 51 10000 3.1 40 01:50 18.09.2019
1746 Clear 3 1018 47 10000 3.1 60 00:57 18.09.2019
1747 Clear 3 1018 47 10000 3.1 60 00:34 18.09.2019
1748 Clear 4 1018 55 10000 3.1 30 23:48 17.09.2019
1749 Clear 4 1018 55 10000 3.1 30 23:26 17.09.2019
1750 Clear 5 1018 56 10000 2.6 30 22:59 17.09.2019
1751 Clear 5 1018 56 10000 2.6 30 22:41 17.09.2019
1752 Clear 5 1018 56 10000 2.6 30 22:22 17.09.2019
1753 Clear 6 1018 38 10000 4.6 60 21:54 17.09.2019
1754 Clear 6 1018 38 10000 4.6 60 21:36 17.09.2019
1755 Clear 6 1018 38 10000 4.6 60 21:18 17.09.2019
1756 Clear 6 1018 38 10000 4.6 60 21:18 17.09.2019
1757 Clear 6 1019 38 10000 4.1 60 20:57 17.09.2019
1758 Clear 6 1019 38 10000 4.1 60 20:38 17.09.2019
1759 Clear 6 1019 38 10000 4.1 60 20:20 17.09.2019
1760 Clear 6 1019 38 10000 4.1 60 20:20 17.09.2019
1761 Clear 6 1019 38 10000 4.1 40 19:57 17.09.2019
1762 Clear 6 1019 38 10000 4.1 40 19:38 17.09.2019
1763 Clear 6 1019 38 10000 4.1 40 19:18 17.09.2019
1764 Clear 5 1019 48 10000 4.1 40 18:54 17.09.2019
1765 Clear 5 1019 48 10000 4.1 40 18:36 17.09.2019
1766 Clear 5 1019 48 10000 4.1 40 18:18 17.09.2019
1767 Clear 5 1020 48 10000 4.1 40 17:44 17.09.2019
1768 Clear 5 1020 48 10000 4.1 40 17:19 17.09.2019
1769 Clear 4 1020 51 10000 4.6 40 16:56 17.09.2019
1770 Clear 4 1020 51 10000 4.6 40 16:37 17.09.2019
1771 Clear 4 1020 51 10000 4.6 40 16:19 17.09.2019
1772 Clear 3 1020 59 10000 5.1 60 15:39 17.09.2019
1773 Clear 3 1020 59 10000 5.1 60 15:20 17.09.2019
1774 Clear 3 1020 59 10000 4.1 50 14:56 17.09.2019
1775 Clear 3 1020 59 10000 4.1 50 14:56 17.09.2019
1776 Clear 3 1020 59 10000 4.1 50 14:38 17.09.2019
1777 Clear 3 1020 59 10000 4.1 50 14:19 17.09.2019
1778 Clear 2 1021 69 10000 4.6 50 13:54 17.09.2019
1779 Clear 2 1021 69 10000 4.6 50 13:36 17.09.2019
1780 Clear 2 1021 69 10000 4.6 50 13:18 17.09.2019
1781 Clear 2 1020 64 10000 4.6 60 12:41 17.09.2019
1782 Clear 2 1020 64 10000 4.6 60 12:19 17.09.2019
1783 Clear 1 1021 64 10000 5.7 60 11:44 17.09.2019
1784 Clear 1 1021 64 10000 5.7 60 11:26 17.09.2019
1785 Clear 1 1020 69 0 5.7 70 10:59 17.09.2019
1786 Clear 1 1020 69 0 5.7 70 10:40 17.09.2019
1787 Clear 1 1020 69 0 5.7 70 10:20 17.09.2019
1788 Clear 1 1020 74 0 4.6 50 09:43 17.09.2019
1789 Clear 1 1020 74 0 4.6 50 09:24 17.09.2019
1790 Clear 1 1020 59 0 4.6 50 08:57 17.09.2019
1791 Clear 2 1020 59 0 4.6 50 08:39 17.09.2019
1792 Clear 2 1020 59 0 4.6 50 08:39 17.09.2019
1793 Clear 2 1020 59 0 4.6 50 08:20 17.09.2019
1794 Clear 2 1020 69 0 4.6 50 07:42 17.09.2019
1795 Clear 2 1020 69 0 4.6 50 07:42 17.09.2019
1796 Clear 2 1020 69 0 4.6 50 07:24 17.09.2019
1797 Clear 2 1020 69 0 4.6 50 07:24 17.09.2019
1798 Clear 2 1020 69 0 4.6 50 06:53 17.09.2019
1799 Clear 2 1020 69 0 4.6 50 06:29 17.09.2019
1800 Clouds 2 1020 74 10000 4.6 60 05:53 17.09.2019
1801 Clear 2 1020 69 10000 4.6 50 04:55 17.09.2019
1802 Clear 2 1020 74 10000 4.6 50 03:42 17.09.2019
1803 Clear 2 1020 69 10000 4.1 60 02:39 17.09.2019
1804 Clear 3 1020 64 10000 3.6 60 01:50 17.09.2019
1805 Clear 3 1020 64 10000 3.6 50 00:50 17.09.2019
1806 Clouds 5 1020 52 10000 2.6 50 23:42 16.09.2019
1807 Clouds 5 1020 52 10000 2.6 50 23:20 16.09.2019
1808 Clouds 6 1020 48 10000 2.6 50 22:59 16.09.2019
1809 Clouds 6 1020 48 10000 2.6 50 22:40 16.09.2019
1810 Clouds 6 1020 48 10000 2.6 50 22:22 16.09.2019
1811 Clouds 6 1020 48 10000 2.6 50 22:22 16.09.2019
1812 Clouds 6 1019 52 10000 3.1 50 21:57 16.09.2019
1813 Clouds 6 1019 52 10000 3.1 50 21:38 16.09.2019
1814 Clouds 6 1019 52 10000 3.1 50 21:38 16.09.2019
1815 Clouds 6 1019 52 10000 3.1 50 21:20 16.09.2019
1816 Clouds 6 1019 52 10000 3.1 50 21:20 16.09.2019
1817 Clouds 7 1019 48 10000 2.6 30 20:55 16.09.2019
1818 Clouds 7 1019 48 10000 2.6 30 20:37 16.09.2019
1819 Clouds 7 1019 48 10000 2.6 30 20:18 16.09.2019
1820 Clouds 7 1019 45 10000 3.6 50 19:42 16.09.2019
1821 Clouds 7 1019 45 10000 3.6 50 19:20 16.09.2019
1822 Clouds 6 1019 48 10000 4.1 50 18:57 16.09.2019
1823 Clouds 6 1019 48 10000 4.1 50 18:39 16.09.2019
1824 Clouds 6 1019 48 10000 4.1 50 18:20 16.09.2019
1825 Clear 5 1019 52 10000 4.1 40 17:43 16.09.2019
1826 Clear 5 1019 52 10000 4.1 40 17:24 16.09.2019
1827 Clear 5 1019 52 10000 4.1 40 16:58 16.09.2019
1828 Clear 5 1019 52 10000 4.1 40 16:39 16.09.2019
1829 Clear 5 1019 52 10000 4.1 40 16:20 16.09.2019
1830 Clear 4 1019 69 10000 4.1 30 15:56 16.09.2019
1831 Clear 4 1019 69 10000 4.1 30 15:37 16.09.2019
1832 Clear 4 1019 69 10000 4.1 30 15:19 16.09.2019
1833 Clear 3 1019 74 10000 4.1 40 14:56 16.09.2019
1834 Clear 3 1019 74 10000 4.1 40 14:37 16.09.2019
1835 Clear 3 1019 74 10000 4.1 40 14:19 16.09.2019
1836 Clear 2 1019 80 10000 4.1 50 13:40 16.09.2019
1837 Clear 2 1019 80 10000 4.1 50 13:21 16.09.2019
1838 Clouds 2 1019 74 10000 5.1 60 12:46 16.09.2019
1839 Clouds 2 1019 74 10000 5.1 60 12:27 16.09.2019
1840 Clear 1 1019 86 10000 4.1 60 11:58 16.09.2019
1841 Clear 1 1019 86 10000 4.1 60 11:40 16.09.2019
1842 Clear 1 1019 86 10000 4.1 60 11:21 16.09.2019
1843 Clear 2 1019 80 10000 5.1 70 10:40 16.09.2019
1844 Clear 2 1019 80 10000 5.1 70 10:40 16.09.2019
1845 Clear 2 1019 80 10000 5.1 70 10:40 16.09.2019
1846 Clear 2 1019 80 10000 5.1 70 10:21 16.09.2019
1847 Clear 2 1019 71 0 5.1 70 09:58 16.09.2019
1848 Clear 2 1019 71 0 5.1 70 09:40 16.09.2019
1849 Clear 2 1019 71 0 5.1 70 09:40 16.09.2019
1850 Clear 2 1019 81 0 5.1 70 09:20 16.09.2019
1851 Clear 2 1019 81 0 5.1 60 08:47 16.09.2019
1852 Clear 2 1019 83 0 5.1 60 08:28 16.09.2019
1853 Clear 2 1019 83 0 4.6 70 07:57 16.09.2019
1854 Clear 2 1019 83 0 4.6 70 07:39 16.09.2019
1855 Clear 2 1019 83 0 4.6 70 07:39 16.09.2019
1856 Clear 2 1019 83 0 4.6 70 07:20 16.09.2019
1857 Clear 2 1019 93 0 4.1 50 06:48 16.09.2019
1858 Clear 2 1019 93 0 4.1 50 06:30 16.09.2019
1859 Clear 2 1019 93 0 4.1 50 05:57 16.09.2019
1860 Clear 2 1019 93 0 4.1 50 05:38 16.09.2019
1861 Clear 2 1020 79 0 3.6 50 04:55 16.09.2019
1862 Clear 2 1020 93 0 3.1 50 03:33 16.09.2019
1863 Clear 4 1020 80 0 1 330 00:44 16.09.2019
1864 Clear 4 1020 80 0 1 330 00:26 16.09.2019
1865 Clear 5 1019 75 0 1.5 260 23:56 15.09.2019
1866 Clear 5 1019 75 0 1.5 260 23:37 15.09.2019
1867 Clear 5 1019 75 0 1.5 260 23:18 15.09.2019
1868 Clouds 6 1019 70 10000 1.5 220 22:39 15.09.2019
1869 Clouds 6 1019 70 10000 1.5 220 22:20 15.09.2019
1870 Clouds 6 1019 70 10000 1.5 230 21:56 15.09.2019
1871 Clouds 6 1019 70 10000 1.5 230 21:38 15.09.2019
1872 Clouds 6 1019 70 10000 1.5 230 21:19 15.09.2019
1873 Clouds 5 1019 75 10000 2.1 170 20:45 15.09.2019
1874 Clouds 5 1019 75 10000 2.1 170 20:26 15.09.2019
1875 Rain 5 1019 80 10000 4.1 220 19:58 15.09.2019
1876 Rain 5 1019 80 10000 4.1 220 19:40 15.09.2019
1877 Rain 5 1019 80 10000 4.1 220 19:22 15.09.2019
1878 Clouds 6 1019 75 10000 2.6 190 18:40 15.09.2019
1879 Clouds 6 1019 75 10000 2.6 190 18:22 15.09.2019
1880 Clouds 5 1019 80 10000 2.6 200 17:56 15.09.2019
1881 Clouds 5 1019 80 10000 2.6 200 17:36 15.09.2019
1882 Clouds 5 1019 80 10000 2.6 200 17:18 15.09.2019
1883 Clouds 5 1018 75 10000 2.1 190 16:42 15.09.2019
1884 Clouds 5 1018 75 10000 2.1 190 16:22 15.09.2019
1885 Clouds 4 1018 86 10000 2.1 180 15:57 15.09.2019
1886 Clouds 4 1018 86 10000 2.1 180 15:38 15.09.2019
1887 Clouds 4 1018 86 10000 2.1 180 15:19 15.09.2019
1888 Clouds 4 1018 86 10000 2.1 180 15:19 15.09.2019
1889 Clouds 3 1018 93 10000 1.5 210 14:55 15.09.2019
1890 Clouds 3 1018 93 10000 1.5 210 14:37 15.09.2019
1891 Clouds 3 1018 93 10000 1.5 210 14:19 15.09.2019
1892 Clouds 2 1017 93 10000 1.89 307.622 13:44 15.09.2019
1893 Clouds 2 1017 93 10000 1.89 307.622 13:44 15.09.2019
1894 Clouds 2 1017 93 10000 2.94 312.835 13:22 15.09.2019
1895 Clouds 1 1017 78 0 2.94 312.835 12:43 15.09.2019
1896 Clouds 1 1017 78 0 2.94 312.835 12:25 15.09.2019
1897 Snow 1 1016 86 0 1.5 0 11:59 15.09.2019
1898 Snow 1 1016 86 0 1.5 0 11:41 15.09.2019
1899 Snow 1 1016 86 0 1.5 0 11:21 15.09.2019
1900 Snow 2 1015 93 0 0.5 270 10:55 15.09.2019
1901 Snow 2 1015 93 0 0.5 270 10:37 15.09.2019
1902 Snow 2 1015 93 0 0.5 270 10:18 15.09.2019
1903 Rain 2 1015 93 0 1 170 09:39 15.09.2019
1904 Rain 2 1015 93 0 1 170 09:19 15.09.2019
1905 Rain 3 1014 86 0 1 160 08:47 15.09.2019
1906 Rain 3 1014 86 0 1 160 08:27 15.09.2019
1907 Rain 2 1013 93 0 4.69 320.8 07:49 15.09.2019
1908 Rain 2 1013 93 0 4.69 320.8 07:30 15.09.2019
1909 Clouds 2 1013 93 10000 4.69 320.8 06:43 15.09.2019
1910 Clouds 3 1011 86 10000 1 0 03:32 15.09.2019
1911 Clouds 3 1010 86 10000 1.5 360 02:42 15.09.2019
1912 Clouds 4 1009 86 10000 4.6 340 01:45 15.09.2019
1913 Clouds 4 1009 86 10000 4.6 340 01:45 15.09.2019
1914 Clouds 4 1009 86 10000 4.6 340 01:45 15.09.2019
1915 Clouds 4 1009 86 10000 4.6 340 01:27 15.09.2019
1916 Clouds 4 1008 86 10000 2.6 330 00:50 15.09.2019
1917 Clouds 4 1008 86 10000 2.6 330 00:24 15.09.2019
1918 Clouds 5 1007 80 10000 2.6 320 23:59 14.09.2019
1919 Clouds 5 1007 80 10000 2.6 320 23:41 14.09.2019
1920 Clouds 5 1007 80 10000 2.6 320 23:22 14.09.2019
1921 Clouds 6 1006 75 10000 2.6 330 22:59 14.09.2019
1922 Clouds 6 1006 75 10000 2.6 330 22:59 14.09.2019
1923 Clouds 6 1006 75 10000 2.6 330 22:41 14.09.2019
1924 Clouds 6 1006 75 10000 2.6 330 22:41 14.09.2019
1925 Clouds 6 1006 75 10000 2.6 330 22:21 14.09.2019
1926 Clouds 6 1005 75 10000 3.6 270 21:59 14.09.2019
1927 Clouds 6 1005 75 10000 3.6 270 21:39 14.09.2019
1928 Clouds 6 1005 75 10000 3.6 270 21:20 14.09.2019
1929 Clouds 6 1004 81 10000 2.1 180 20:55 14.09.2019
1930 Clouds 6 1004 81 10000 2.1 180 20:37 14.09.2019
1931 Clouds 6 1004 81 10000 2.1 180 20:19 14.09.2019
1932 Rain 4 1003 86 10000 0.5 240 19:44 14.09.2019
1933 Rain 4 1003 86 10000 0.5 240 19:21 14.09.2019
1934 Rain 6 1002 81 10000 0.5 0 18:57 14.09.2019
1935 Rain 6 1002 81 10000 0.5 0 18:37 14.09.2019
1936 Rain 6 1002 81 10000 0.5 0 18:19 14.09.2019
1937 Clouds 4 1001 93 10000 1 0 17:43 14.09.2019
1938 Clouds 4 1001 93 10000 1 0 17:22 14.09.2019
1939 Clouds 2 1001 100 10000 1.5 330 16:48 14.09.2019
1940 Clouds 2 1001 100 10000 1.5 330 16:28 14.09.2019
1941 Rain 2 1000 93 10000 2.6 260 15:58 14.09.2019
1942 Rain 2 1000 93 10000 2.6 260 15:40 14.09.2019
1943 Rain 2 1000 93 10000 2.6 260 15:20 14.09.2019
1944 Rain 3 999 93 10000 5.1 170 14:44 14.09.2019
1945 Rain 3 999 93 10000 5.1 170 14:19 14.09.2019
1946 Clouds 4 999 86 10000 4.6 170 13:55 14.09.2019
1947 Clouds 4 999 86 10000 4.6 170 13:37 14.09.2019
1948 Clouds 4 999 86 10000 4.6 170 13:18 14.09.2019
1949 Clouds 3 998 93 10000 4.6 180 12:40 14.09.2019
1950 Clouds 3 998 93 10000 4.6 180 12:18 14.09.2019
1951 Clouds 3 998 93 10000 5.1 170 11:40 14.09.2019
1952 Clouds 3 998 93 10000 5.1 170 11:20 14.09.2019
1953 Rain 3 998 93 0 3.6 180 10:40 14.09.2019
1954 Rain 3 998 93 0 3.6 180 10:21 14.09.2019
1955 Snow 3 998 93 0 4.6 180 09:58 14.09.2019
1956 Snow 2 998 93 0 4.6 180 09:39 14.09.2019
1957 Snow 2 998 93 0 4.6 180 09:20 14.09.2019
1958 Snow 2 997 100 0 10.8 170 08:47 14.09.2019
1959 Snow 2 997 100 0 10.8 170 08:25 14.09.2019
1960 Snow 2 997 93 0 13.4 160 07:48 14.09.2019
1961 Snow 2 997 93 0 13.4 160 07:29 14.09.2019
1962 Snow 2 996 93 0 14.4 160 06:53 14.09.2019
1963 Snow 2 996 93 0 14.4 160 06:31 14.09.2019
1964 Snow 2 996 93 0 15.4 160 05:27 14.09.2019
1965 Snow 3 999 86 0 6.7 150 03:47 14.09.2019
1966 Snow 3 1000 95 0 8.2 150 02:55 14.09.2019
1967 Snow 3 1000 95 0 8.2 150 02:55 14.09.2019
1968 Snow 3 1001 95 0 11.3 160 01:59 14.09.2019
1969 Snow 3 1001 95 0 11.3 160 01:39 14.09.2019
1970 Snow 3 1001 95 0 11.3 160 01:18 14.09.2019
1971 Rain 5 1002 65 10000 11.8 150 00:39 14.09.2019
1972 Rain 5 1002 65 10000 11.8 150 00:21 14.09.2019
1973 Drizzle 4 1002 83 10000 10.3 160 23:54 13.09.2019
1974 Drizzle 4 1002 83 10000 10.3 160 23:36 13.09.2019
1975 Drizzle 4 1002 83 10000 10.3 160 23:36 13.09.2019
1976 Drizzle 4 1002 83 10000 10.3 160 23:18 13.09.2019
1977 Clouds 5 1004 75 10000 8.7 170 22:39 13.09.2019
1978 Clouds 5 1004 75 10000 8.7 170 22:21 13.09.2019
1979 Clouds 5 1004 75 10000 6.7 190 21:56 13.09.2019
1980 Clouds 5 1004 75 10000 6.7 190 21:38 13.09.2019
1981 Clouds 5 1004 75 10000 6.7 190 21:19 13.09.2019
1982 Clouds 5 1005 75 10000 7.2 200 20:57 13.09.2019
1983 Clouds 5 1005 75 10000 7.2 200 20:57 13.09.2019
1984 Clouds 5 1005 75 10000 7.2 200 20:37 13.09.2019
1985 Clouds 5 1005 75 10000 7.2 200 20:18 13.09.2019
1986 Clouds 6 1005 70 10000 5.7 190 19:44 13.09.2019
1987 Clouds 6 1005 70 10000 5.7 190 19:22 13.09.2019
1988 Clouds 6 1006 78 10000 6.7 190 18:59 13.09.2019
1989 Clouds 6 1006 78 10000 6.7 190 18:38 13.09.2019
1990 Clouds 6 1006 74 10000 6.7 190 18:19 13.09.2019
1991 Clouds 5 1007 75 10000 5.7 200 17:44 13.09.2019
1992 Clouds 5 1007 75 10000 5.7 200 17:21 13.09.2019
1993 Clouds 5 1008 74 10000 5.1 170 16:59 13.09.2019
1994 Clouds 5 1008 74 10000 5.1 170 16:39 13.09.2019
1995 Clouds 5 1008 74 10000 5.1 170 16:19 13.09.2019
1996 Clouds 4 1006 74 0 5.36 187.532 15:42 13.09.2019
1997 Clouds 4 1008 69 10000 3.6 170 15:23 13.09.2019
1998 Clouds 4 1008 69 10000 3.6 170 14:55 13.09.2019
1999 Clouds 4 1008 69 10000 3.6 170 14:37 13.09.2019
2000 Clouds 4 1008 69 10000 3.6 170 14:18 13.09.2019
2001 Clouds 3 1009 86 10000 2.6 200 13:41 13.09.2019
2002 Clouds 3 1009 86 10000 2.6 200 13:22 13.09.2019
2003 Clouds 3 1009 80 10000 1.5 0 12:45 13.09.2019
2004 Clouds 3 1009 87 10000 1.5 0 12:25 13.09.2019
2005 -273 0 0 0 0 0 12:25 13.09.2019
2006 Clouds 3 1009 86 10000 1.5 170 11:57 13.09.2019
2007 Clouds 3 1009 86 10000 1.5 170 11:20 13.09.2019
2008 Clouds 3 1009 87 0 2.6 260 10:57 13.09.2019
2009 Clouds 3 1009 87 0 2.6 260 10:37 13.09.2019
2010 Clouds 3 1009 87 0 2.6 260 10:18 13.09.2019
2011 Clouds 3 1009 87 0 1.5 210 09:43 13.09.2019
2012 Clouds 3 1009 88 0 1.5 210 09:20 13.09.2019
2013 Clouds 3 1009 93 0 1 220 08:55 13.09.2019
2014 Clouds 3 1009 93 0 1 220 08:37 13.09.2019
2015 Clouds 3 1009 93 0 1 220 08:19 13.09.2019
2016 Clouds 3 1009 93 0 0.5 250 07:41 13.09.2019
2017 Clouds 3 1009 93 0 0.5 250 07:21 13.09.2019
2018 Clouds 3 1009 93 0 2.62 165.746 06:38 13.09.2019
2019 Clouds 4 1009 86 0 0.82 135.344 05:34 13.09.2019
2020 Clouds 4 1009 93 0 0.82 135.344 03:53 13.09.2019
2021 Clouds 4 1009 93 0 2.23 331.297 03:26 13.09.2019
2022 Clouds 4 1009 86 0 1 360 02:20 13.09.2019
2023 Clouds 4 1009 93 10000 1.5 330 01:38 13.09.2019
2024 Clouds 5 1009 86 10000 2.1 310 00:59 13.09.2019
2025 Clouds 5 1009 86 10000 2.1 310 00:36 13.09.2019
2026 Clouds 5 1009 86 10000 3.6 320 23:53 12.09.2019
2027 Clouds 5 1009 86 10000 3.6 320 23:26 12.09.2019
2028 Clouds 5 1008 75 10000 1 300 22:58 12.09.2019
2029 Clouds 5 1008 75 10000 1 300 22:40 12.09.2019
2030 Clouds 5 1008 75 10000 1 300 22:22 12.09.2019
2031 Rain 5 1008 80 10000 3.1 350 21:56 12.09.2019
2032 Rain 5 1008 80 10000 3.1 350 21:37 12.09.2019
2033 Rain 5 1008 80 10000 3.1 350 21:19 12.09.2019
2034 Rain 8 1008 64 10000 1.5 340 20:44 12.09.2019
2035 Rain 8 1008 64 10000 1.5 340 20:23 12.09.2019
2036 Rain 7 1007 56 10000 3.6 20 19:58 12.09.2019
2037 Rain 7 1007 56 10000 3.6 20 19:40 12.09.2019
2038 Rain 7 1007 56 10000 3.6 20 19:20 12.09.2019
2039 Clouds 7 1007 56 10000 2.6 50 18:57 12.09.2019
2040 Clouds 7 1007 56 10000 2.6 50 18:36 12.09.2019
2041 Clouds 7 1007 56 10000 2.6 50 18:18 12.09.2019
2042 Clouds 6 1007 56 10000 2.6 60 17:41 12.09.2019
2043 Clouds 6 1007 56 10000 2.6 60 17:20 12.09.2019
2044 Clouds 5 1006 65 10000 3.6 40 16:58 12.09.2019
2045 Clouds 5 1006 65 10000 3.6 40 16:40 12.09.2019
2046 Clouds 5 1006 65 10000 3.6 40 16:19 12.09.2019
2047 Clouds 5 1006 65 10000 3.6 50 15:41 12.09.2019
2048 Clouds 5 1006 65 10000 3.6 50 15:23 12.09.2019
2049 Clouds 5 1006 46 10000 4.1 60 14:46 12.09.2019
2050 Clouds 5 1006 46 10000 4.1 60 14:23 12.09.2019
2051 Clouds 3 1005 46 10000 4.1 60 13:59 12.09.2019
2052 Clouds 3 1005 46 10000 4.1 60 13:38 12.09.2019
2053 Clouds 3 1005 45 10000 4.1 60 13:20 12.09.2019
2054 Clouds 3 1005 45 10000 1.5 0 12:47 12.09.2019
2055 Clouds 3 1005 67 10000 1.5 0 12:19 12.09.2019
2056 Clouds 3 1005 67 10000 4.1 70 11:57 12.09.2019
2057 Clouds 3 1005 67 10000 4.1 70 11:39 12.09.2019
2058 Clouds 3 1005 67 10000 4.1 70 11:21 12.09.2019
2059 Clouds 3 1004 86 10000 3.6 40 10:48 12.09.2019
2060 Clouds 3 1004 86 10000 3.6 40 10:26 12.09.2019
2061 Clouds 3 1004 86 0 3.6 76.717 09:56 12.09.2019
2062 Clouds 3 1004 86 0 3.6 76.717 09:36 12.09.2019
2063 Clouds 3 1004 86 0 2.15 81.606 09:18 12.09.2019
2064 Clouds 3 1004 86 0 0.5 80 08:41 12.09.2019
2065 Clouds 3 1004 86 0 0.5 80 08:22 12.09.2019
2066 Clouds 2 1004 87 0 1.13 82.944 07:45 12.09.2019
2067 Clouds 2 1004 87 0 1.13 82.944 07:20 12.09.2019
2068 Clouds 3 1004 87 0 1.5 150 06:51 12.09.2019
2069 Clouds 3 1004 87 0 1.5 150 06:31 12.09.2019
2070 Clouds 3 1004 86 0 0.47 82.495 05:52 12.09.2019
2071 Clouds 3 1004 86 0 0.47 82.495 05:34 12.09.2019
2072 Clouds 3 1004 93 0 0.47 82.495 04:41 12.09.2019
2073 Clouds 4 1004 86 0 0.5 0 03:18 12.09.2019
2074 Clouds 4 1005 86 0 1 10 01:38 12.09.2019
2075 Clouds 4 1005 86 0 1 10 01:19 12.09.2019
2076 Clouds 4 1004 86 0 0.5 340 00:45 12.09.2019
2077 Clouds 4 1004 86 0 0.5 340 00:25 12.09.2019
2078 Clouds 4 1004 86 10000 2.93 322.962 23:43 11.09.2019
2079 Clouds 4 1004 86 10000 2.93 322.962 23:24 11.09.2019
2080 Clouds 5 1004 75 10000 1.5 310 22:57 11.09.2019
2081 Clouds 5 1004 75 10000 1.5 310 22:38 11.09.2019
2082 Clouds 5 1004 75 10000 1.5 310 22:19 11.09.2019
2083 Clouds 6 1004 75 10000 3.6 50 21:55 11.09.2019
2084 Clouds 3 1005 78 0 2.93 322.962 21:36 11.09.2019
2085 Clouds 8 1004 65 10000 1 330 21:18 11.09.2019
2086 Clouds 8 1004 65 10000 1 330 20:54 11.09.2019
2087 Clouds 8 1004 65 10000 1 330 20:36 11.09.2019
2088 Clouds 8 1004 65 10000 1 330 20:18 11.09.2019
2089 Clouds 8 1004 65 10000 1 330 20:18 11.09.2019
2090 Rain 7 1004 65 10000 0.5 0 19:54 11.09.2019
2091 Rain 7 1004 65 10000 0.5 0 19:36 11.09.2019
2092 Rain 7 1004 65 10000 0.5 0 19:18 11.09.2019
2093 -273 0 0 0 0 0 18:41 11.09.2019
2094 Rain 5 1004 80 10000 3.1 330 18:22 11.09.2019
2095 Rain 6 1005 75 10000 2.1 360 17:58 11.09.2019
2096 Rain 6 1005 75 10000 2.1 360 17:58 11.09.2019
2097 Rain 6 1005 75 10000 2.1 360 17:39 11.09.2019
2098 Rain 6 1005 75 10000 2.1 360 17:20 11.09.2019
2099 Clouds 6 1005 75 10000 1.5 30 16:54 11.09.2019
2100 Clouds 6 1005 75 10000 1.5 30 16:36 11.09.2019
2101 Clouds 6 1005 75 10000 1.5 30 16:18 11.09.2019
2102 Clouds 4 1005 86 10000 1.5 0 15:43 11.09.2019
2103 Clouds 4 1005 86 10000 1.5 0 15:20 11.09.2019
2104 Clouds 4 1005 86 10000 1 360 14:57 11.09.2019
2105 Clouds 4 1005 86 10000 1 360 14:37 11.09.2019
2106 Clouds 4 1005 86 10000 1 360 14:18 11.09.2019
2107 Rain 3 1005 86 10000 0.58 11.136 13:40 11.09.2019
2108 Rain 3 1005 86 10000 1.56 348.899 13:21 11.09.2019
2109 Rain 2 1005 93 10000 0.5 70 12:59 11.09.2019
2110 Rain 2 1005 93 10000 0.5 70 12:59 11.09.2019
2111 Rain 2 1005 93 10000 0.5 70 12:38 11.09.2019
2112 Rain 2 1005 93 10000 0.5 70 12:20 11.09.2019
2113 Rain 3 1005 93 10000 1.5 320 11:41 11.09.2019
2114 Rain 3 1005 93 10000 1.5 320 11:22 11.09.2019
2115 Rain 3 1005 93 10000 1.5 50 10:59 11.09.2019
2116 Rain 3 1005 93 10000 1.5 50 10:40 11.09.2019
2117 Rain 3 1005 93 10000 1.5 50 10:21 11.09.2019
2118 Clouds 3 1005 93 0 1.48 359.419 09:40 11.09.2019
2119 Clouds 3 1005 93 0 1.83 315.753 09:20 11.09.2019
2120 Clouds 3 1005 93 0 1 20 08:59 11.09.2019
2121 Clouds 3 1005 93 0 1 20 08:39 11.09.2019
2122 Clouds 3 1005 93 0 1 20 08:20 11.09.2019
2123 Clouds 3 1006 93 0 2.08 333.09 07:41 11.09.2019
2124 Clouds 3 1006 93 0 2.08 333.09 07:22 11.09.2019
2125 Clouds 3 1006 93 0 1 220 06:50 11.09.2019
2126 Clouds 3 1006 93 0 1 220 06:50 11.09.2019
2127 Clouds 3 1006 93 0 1 220 06:32 11.09.2019
2128 Rain 3 1006 93 0 3.49 331.662 05:42 11.09.2019
2129 Rain 3 1006 93 0 3.49 331.662 05:23 11.09.2019
2130 Snow 3 1006 93 0 2.1 80 04:42 11.09.2019
2131 Snow 3 1006 93 0 1 360 03:33 11.09.2019
2132 Rain 2 1007 93 10000 2.1 70 02:46 11.09.2019
2133 Rain 2 1007 93 10000 2.1 70 02:20 11.09.2019
2134 Rain 4 1006 86 10000 1 80 00:52 11.09.2019
2135 Rain 4 1006 86 10000 1 80 00:26 11.09.2019
2136 Rain 5 1006 80 10000 2.6 20 23:56 10.09.2019
2137 Rain 5 1006 80 10000 2.6 20 23:38 10.09.2019
2138 Rain 5 1006 80 10000 2.6 20 23:20 10.09.2019
2139 Rain 5 1006 80 10000 1.5 10 22:41 10.09.2019
2140 Rain 5 1006 80 10000 1.5 10 22:20 10.09.2019
2141 Rain 5 1006 80 10000 2.1 360 21:56 10.09.2019
2142 Rain 5 1006 80 10000 2.1 360 21:38 10.09.2019
2143 Rain 5 1006 80 10000 2.1 360 21:20 10.09.2019
2144 Rain 5 1005 86 10000 2.1 330 20:58 10.09.2019
2145 Rain 5 1005 86 10000 2.1 330 20:39 10.09.2019
2146 Rain 5 1005 86 10000 2.1 330 20:21 10.09.2019
2147 Rain 6 1005 81 10000 2.1 230 19:57 10.09.2019
2148 Rain 6 1005 81 10000 2.1 230 19:37 10.09.2019
2149 Rain 6 1005 81 10000 2.1 230 19:19 10.09.2019
2150 Rain 4 1005 93 10000 2.1 50 18:56 10.09.2019
2151 Rain 4 1005 93 10000 2.1 50 18:37 10.09.2019
2152 Rain 4 1005 93 10000 2.1 50 18:19 10.09.2019
2153 Clouds 6 1005 81 10000 3.1 190 17:44 10.09.2019
2154 Clouds 6 1005 81 10000 3.1 190 17:23 10.09.2019
2155 Rain 5 1005 86 10000 2.6 200 16:59 10.09.2019
2156 Rain 4 1005 86 10000 2.6 200 16:59 10.09.2019
2157 Rain 4 1005 86 10000 2.6 200 16:40 10.09.2019
2158 Rain 4 1005 86 10000 2.6 200 16:22 10.09.2019
2159 Rain 4 1004 86 10000 4.6 160 15:59 10.09.2019
2160 Rain 4 1004 86 10000 4.6 160 15:40 10.09.2019
2161 Rain 4 1004 86 10000 4.6 160 15:20 10.09.2019
2162 Clouds 4 1004 86 10000 4.6 170 14:42 10.09.2019
2163 Clouds 4 1004 86 10000 4.6 170 14:24 10.09.2019
2164 Clouds 5 1004 75 10000 2.6 180 13:59 10.09.2019
2165 Clouds 5 1004 75 10000 2.6 180 13:40 10.09.2019
2166 Clouds 5 1004 75 10000 2.6 180 13:40 10.09.2019
2167 Clouds 5 1004 75 10000 2.6 180 13:22 10.09.2019
2168 Clouds 5 1004 75 10000 2.6 180 13:22 10.09.2019
2169 Clouds 4 1004 93 10000 3.1 160 12:49 10.09.2019
2170 Clouds 4 1004 93 10000 3.1 160 12:27 10.09.2019
2171 Clouds 3 1003 93 10000 2.6 160 11:58 10.09.2019
2172 Clouds 3 1003 93 10000 2.6 160 11:39 10.09.2019
2173 Clouds 3 1003 93 10000 2.6 160 11:21 10.09.2019
2174 Snow 2 1003 93 4000 2.1 60 10:42 10.09.2019
2175 Snow 2 1003 93 4000 2.1 60 10:20 10.09.2019
2176 Clear 4 1003 86 0 1.5 200 09:57 10.09.2019
2177 Clear 4 1003 86 0 1.5 200 09:39 10.09.2019
2178 Clear 4 1003 86 0 1.5 200 09:19 10.09.2019
2179 Clear 3 1003 93 0 1.5 220 08:47 10.09.2019
2180 Clear 3 1003 93 0 1.5 220 08:28 10.09.2019
2181 Clear 3 1003 93 0 1 0 07:55 10.09.2019
2182 Clear 3 1003 93 0 1 0 07:55 10.09.2019
2183 Clear 3 1003 93 0 1 0 07:37 10.09.2019
2184 Clear 3 1003 93 0 1 0 07:18 10.09.2019
2185 Clear 3 1002 93 0 1.5 290 06:39 10.09.2019
2186 Clear 3 1002 93 0 1.5 290 06:19 10.09.2019
2187 Clear 4 1002 86 0 1.5 340 04:18 10.09.2019
2188 Clear 4 1002 86 0 2.1 350 02:38 10.09.2019
2189 Clear 4 1002 86 0 2.1 350 02:19 10.09.2019
2190 Clouds 4 1002 93 10000 3.6 320 01:50 10.09.2019
2191 Clouds 4 1002 93 10000 3.6 320 01:50 10.09.2019
2192 Clouds 4 1002 93 10000 3.6 320 01:50 10.09.2019
2193 Clouds 4 1002 93 10000 3.6 320 01:50 10.09.2019
2194 Clouds 4 1002 93 10000 3.6 320 01:22 10.09.2019
2195 Clouds 5 1002 86 10000 4.1 330 00:36 10.09.2019
2196 Clouds 6 1002 75 10000 4.1 340 23:56 09.09.2019
2197 Clouds 6 1002 75 10000 4.1 340 23:36 09.09.2019
2198 Clouds 6 1002 75 10000 4.1 340 23:18 09.09.2019
2199 Clouds 6 1002 75 10000 4.6 340 22:54 09.09.2019
2200 Clouds 6 1002 75 10000 4.6 340 22:36 09.09.2019
2201 Clouds 6 1002 75 10000 4.6 340 22:18 09.09.2019
2202 Clouds 7 1001 70 10000 5.1 330 21:55 09.09.2019
2203 Clouds 7 1001 70 10000 5.1 330 21:36 09.09.2019
2204 Clouds 7 1001 70 10000 5.1 330 21:18 09.09.2019
2205 Clouds 8 1001 61 10000 3.1 340 20:54 09.09.2019
2206 Clouds 8 1001 61 10000 3.1 340 20:36 09.09.2019
2207 Clouds 8 1001 61 10000 3.1 340 20:36 09.09.2019
2208 Clouds 8 1001 61 10000 3.1 340 20:18 09.09.2019
2209 Clouds 9 1001 57 10000 2.1 310 19:55 09.09.2019
2210 Clouds 9 1001 57 10000 2.1 310 19:37 09.09.2019
2211 Clouds 9 1001 57 10000 2.1 310 19:18 09.09.2019
2212 Clouds 9 1001 72 10000 1 290 18:54 09.09.2019
2213 Clouds 9 1001 72 10000 1 290 18:36 09.09.2019
2214 Clouds 9 1001 72 10000 1 290 18:36 09.09.2019
2215 Clouds 9 1001 55 10000 1 290 18:18 09.09.2019
2216 Clear 8 1001 55 10000 1 0 17:41 09.09.2019
2217 Clear 8 1001 55 10000 1 0 17:21 09.09.2019
2218 Clouds 7 1001 65 10000 1 290 16:59 09.09.2019
2219 Clouds 7 1001 65 10000 1 290 16:40 09.09.2019
2220 Clouds 7 1001 65 10000 1 290 16:21 09.09.2019
2221 Clear 6 1000 60 10000 1.5 200 15:56 09.09.2019
2222 Clear 6 1000 60 10000 1.5 200 15:38 09.09.2019
2223 Clear 6 1000 60 10000 1.5 200 15:19 09.09.2019
2224 Clear 5 1001 42 10000 2.1 180 14:57 09.09.2019
2225 Clear 5 1001 42 10000 2.1 180 14:38 09.09.2019
2226 Clear 5 1001 42 10000 2.1 180 14:20 09.09.2019
2227 Clear 4 1001 42 10000 2.27 22.195 13:45 09.09.2019
2228 Clear 4 1001 42 10000 1.98 20.83 13:21 09.09.2019
2229 Clear 2 1001 80 10000 3.1 350 12:58 09.09.2019
2230 Clear 2 1001 80 10000 3.1 350 12:40 09.09.2019
2231 Clear 2 1001 80 10000 3.1 350 12:40 09.09.2019
2232 Clear 2 1001 80 10000 3.1 350 12:21 09.09.2019
2233 Clouds 1 1001 57 10000 3.1 30 11:55 09.09.2019
2234 Clouds 1 1001 57 10000 3.1 30 11:36 09.09.2019
2235 Clouds 1 1001 57 10000 3.1 30 11:18 09.09.2019
2236 Clouds 2 1001 57 10000 3.1 30 10:42 09.09.2019
2237 Clouds 2 1001 57 10000 3.1 30 10:23 09.09.2019
2238 Clear 2 1002 57 0 3.6 40 09:58 09.09.2019
2239 Clear 2 1002 57 0 3.6 40 09:39 09.09.2019
2240 Clear 2 1002 62 0 3.6 40 09:21 09.09.2019
2241 Clear 3 1003 86 0 5.7 50 08:39 09.09.2019
2242 Clear 3 1003 86 0 5.7 50 08:21 09.09.2019
2243 Clear 3 1004 86 0 4.6 50 07:57 09.09.2019
2244 Clear 3 1004 86 0 4.6 50 07:38 09.09.2019
2245 Clear 3 1004 86 0 4.6 50 07:19 09.09.2019
2246 Clear 4 1005 63 0 6.7 70 06:46 09.09.2019
2247 Clear 4 1006 80 0 6.7 60 05:34 09.09.2019
2248 Clouds 4 1009 80 0 5.7 60 02:59 09.09.2019
2249 Clouds 4 1009 80 0 5.7 60 02:40 09.09.2019
2250 Clouds 4 1010 86 0 4.1 50 01:20 09.09.2019
2251 Clouds 5 1011 80 0 3.1 50 00:23 09.09.2019
2252 Clouds 7 1011 70 0 3.1 40 23:46 08.09.2019
2253 Clouds 7 1011 70 0 3.1 40 23:27 08.09.2019
2254 Clouds 7 1011 70 0 3.1 40 23:27 08.09.2019
2255 Clouds 7 1012 75 0 3.6 50 22:59 08.09.2019
2256 Clouds 7 1012 75 0 3.6 50 22:38 08.09.2019
2257 Clouds 7 1012 75 0 3.6 50 22:20 08.09.2019
2258 Clouds 8 1012 70 0 2.6 330 21:57 08.09.2019
2259 Clouds 8 1012 70 0 2.6 330 21:39 08.09.2019
2260 Clouds 8 1012 70 0 2.6 330 21:21 08.09.2019
2261 Clouds 8 1013 70 0 2.1 190 20:41 08.09.2019
2262 Rain 8 1013 70 0 2.1 190 20:22 08.09.2019
2263 Clouds 7 1013 75 10000 1 0 19:59 08.09.2019
2264 Clouds 7 1013 75 10000 1 0 19:39 08.09.2019
2265 Clouds 7 1013 75 10000 1 0 19:21 08.09.2019
2266 Clouds 6 1012 81 10000 1.5 0 18:58 08.09.2019
2267 Clouds 6 1012 81 10000 1.5 0 18:39 08.09.2019
2268 Clouds 6 1012 81 10000 1.5 0 18:19 08.09.2019
2269 Clouds 6 1012 75 10000 1.5 190 17:58 08.09.2019
2270 Clouds 7 1012 75 10000 1.5 190 17:37 08.09.2019
2271 Clouds 7 1012 75 10000 1.5 190 17:18 08.09.2019
2272 Clouds 6 1012 75 10000 3.1 200 16:55 08.09.2019
2273 Clouds 6 1012 75 10000 3.1 200 16:37 08.09.2019
2274 Clouds 6 1012 75 10000 3.1 200 16:18 08.09.2019
2275 Clouds 5 1012 86 10000 3.1 200 15:41 08.09.2019
2276 Clouds 5 1012 86 10000 3.1 200 15:22 08.09.2019
2277 Clouds 5 1012 86 10000 3.1 200 15:22 08.09.2019
2278 Clouds 4 1012 93 10000 2.6 200 14:59 08.09.2019
2279 Clouds 4 1012 93 10000 2.6 200 14:39 08.09.2019
2280 Clouds 4 1012 93 10000 2.6 200 14:21 08.09.2019
2281 Clouds 4 1012 93 10000 2.6 190 13:57 08.09.2019
2282 Clouds 4 1012 93 10000 2.6 190 13:38 08.09.2019
2283 Clouds 4 1012 93 10000 2.6 190 13:20 08.09.2019
2284 Clouds 4 1011 93 10000 2.1 200 12:54 08.09.2019
2285 Clouds 4 1011 93 10000 2.1 200 12:36 08.09.2019
2286 Clouds 4 1011 93 10000 2.1 200 12:18 08.09.2019
2287 Clouds 4 1011 86 0 3.1 190 11:54 08.09.2019
2288 Clouds 4 1011 86 0 3.1 190 11:36 08.09.2019
2289 Clouds 4 1011 86 0 3.1 190 11:18 08.09.2019
2290 Clouds 4 1011 80 0 4.1 190 10:41 08.09.2019
2291 Clouds 4 1011 80 0 4.1 190 10:22 08.09.2019
2292 Clouds 4 1010 86 0 3.6 180 09:55 08.09.2019
2293 Clouds 4 1010 86 0 3.6 180 09:55 08.09.2019
2294 Clouds 4 1010 86 0 3.6 180 09:37 08.09.2019
2295 Clouds 4 1010 86 0 3.6 180 09:37 08.09.2019
2296 Rain 4 1010 86 0 3.6 180 09:19 08.09.2019
2297 Rain 4 1010 86 0 3.6 180 09:19 08.09.2019
2298 Rain 4 1010 86 0 3.1 180 08:39 08.09.2019
2299 Rain 4 1010 86 0 3.1 180 08:19 08.09.2019
2300 Rain 4 1009 86 0 3.1 180 07:42 08.09.2019
2301 Rain 4 1009 86 0 3.1 180 07:21 08.09.2019
2302 Rain 4 1009 93 0 3.1 190 06:57 08.09.2019
2303 Rain 4 1009 93 0 3.1 190 06:34 08.09.2019
2304 Rain 4 1009 86 0 2.1 180 05:40 08.09.2019
2305 Rain 4 1008 93 0 1.5 190 04:59 08.09.2019
2306 Rain 4 1008 93 0 2.1 200 03:23 08.09.2019
2307 Rain 4 1008 93 0 2.6 240 02:48 08.09.2019
2308 Rain 5 1007 86 0 3.6 270 01:54 08.09.2019
2309 Rain 5 1007 86 0 3.6 270 01:26 08.09.2019
2310 Rain 5 1006 86 0 5.1 280 00:49 08.09.2019
2311 Rain 5 1006 86 0 5.1 280 00:30 08.09.2019
2312 Clouds 5 1006 86 10000 5.1 290 23:57 07.09.2019
2313 Clouds 5 1006 86 10000 5.1 290 23:37 07.09.2019
2314 Clouds 5 1006 86 10000 5.1 290 23:18 07.09.2019
2315 Clouds 6 1005 81 10000 6.2 300 22:43 07.09.2019
2316 Clouds 6 1005 81 10000 6.2 300 22:23 07.09.2019
2317 Clouds 6 1004 81 10000 6.2 320 21:56 07.09.2019
2318 Clouds 6 1004 81 10000 6.2 320 21:38 07.09.2019
2319 Clouds 6 1004 81 10000 6.2 320 21:19 07.09.2019
2320 Clouds 6 1003 81 10000 6.2 310 20:39 07.09.2019
2321 Clouds 6 1003 81 10000 6.2 310 20:21 07.09.2019
2322 Clouds 6 1002 81 10000 6.7 320 19:56 07.09.2019
2323 Clouds 6 1002 81 10000 6.7 320 19:38 07.09.2019
2324 Clouds 6 1002 81 10000 6.7 320 19:19 07.09.2019
2325 Clouds 6 1001 81 10000 6.7 330 18:58 07.09.2019
2326 Clouds 6 1001 81 10000 6.7 330 18:39 07.09.2019
2327 Clouds 6 1001 81 10000 6.7 330 18:20 07.09.2019
2328 Clouds 6 1000 81 10000 6.7 330 17:58 07.09.2019
2329 Clouds 6 1000 81 10000 6.7 330 17:58 07.09.2019
2330 Clouds 6 1000 81 10000 6.7 330 17:58 07.09.2019
2331 Clouds 6 1000 81 10000 6.7 330 17:39 07.09.2019
2332 Clouds 6 1000 81 10000 6.7 330 17:18 07.09.2019
2333 Clouds 6 1000 81 10000 5.7 330 16:56 07.09.2019
2334 Clouds 6 1000 81 10000 5.7 330 16:37 07.09.2019
2335 Clouds 6 1000 81 10000 5.7 330 16:18 07.09.2019
2336 Clouds 5 999 86 10000 6.2 330 15:44 07.09.2019
2337 Clouds 5 999 86 10000 6.2 330 15:25 07.09.2019
2338 Clouds 5 998 86 10000 4.6 330 14:56 07.09.2019
2339 Clouds 5 998 86 10000 4.6 330 14:36 07.09.2019
2340 Clouds 5 998 86 10000 4.6 330 14:36 07.09.2019
2341 Clouds 5 998 86 10000 4.6 330 14:18 07.09.2019
2342 Clouds 5 998 93 10000 2.6 330 13:55 07.09.2019
2343 Clouds 5 998 93 10000 2.6 330 13:55 07.09.2019
2344 Clouds 5 998 93 10000 2.6 330 13:37 07.09.2019
2345 Clouds 5 998 93 10000 2.6 330 13:18 07.09.2019
2346 Clouds 5 998 93 10000 2.6 330 13:18 07.09.2019
2347 Clouds 5 997 86 10000 1 300 12:42 07.09.2019
2348 Clouds 5 997 86 10000 1 300 12:23 07.09.2019
2349 Clouds 5 996 86 0 1.5 10 11:41 07.09.2019
2350 Clouds 5 996 86 0 1.5 10 11:22 07.09.2019
2351 Clouds 5 996 93 0 3.6 350 10:58 07.09.2019
2352 Clouds 5 996 93 0 3.6 350 10:37 07.09.2019
2353 Clouds 5 996 93 0 3.6 350 10:19 07.09.2019
2354 Clouds 5 995 93 0 2.6 350 09:43 07.09.2019
2355 Rain 5 995 93 0 2.6 350 09:22 07.09.2019
2356 Rain 5 995 93 0 2.6 300 08:57 07.09.2019
2357 Rain 5 995 93 0 2.6 300 08:36 07.09.2019
2358 Rain 5 995 93 0 2.6 300 08:18 07.09.2019
2359 Rain 5 994 100 0 2.1 30 07:43 07.09.2019
2360 Rain 5 994 100 0 2.1 30 07:22 07.09.2019
2361 Snow 5 994 100 0 1 30 06:43 07.09.2019
2362 Snow 5 994 100 0 1 30 06:19 07.09.2019
2363 Snow 6 994 93 0 2.33 1.672 04:33 07.09.2019
2364 Snow 6 993 93 0 0.5 90 03:44 07.09.2019
2365 Snow 5 993 93 0 1.5 330 02:43 07.09.2019
2366 Drizzle 6 993 93 7000 0.43 288.813 01:44 07.09.2019
2367 Drizzle 5 993 100 3000 2.1 0 00:56 07.09.2019
2368 Drizzle 5 993 100 3000 2.1 0 00:37 07.09.2019
2369 Drizzle 6 993 100 3000 2.1 0 00:18 07.09.2019
2370 Drizzle 7 993 93 7000 5.1 180 23:38 06.09.2019
2371 Drizzle 7 993 93 7000 5.1 180 23:38 06.09.2019
2372 Drizzle 7 993 93 7000 5.1 180 23:20 06.09.2019
2373 Drizzle 7 992 93 500 3.6 180 22:57 06.09.2019
2374 Drizzle 7 992 93 500 3.6 180 22:37 06.09.2019
2375 Drizzle 7 992 93 500 3.6 180 22:19 06.09.2019
2376 Drizzle 6 992 93 500 3.1 30 21:56 06.09.2019
2377 Drizzle 5 992 93 500 3.1 30 21:38 06.09.2019
2378 Drizzle 5 992 93 500 3.1 30 21:19 06.09.2019
2379 -273 0 0 0 0 0 20:55 06.09.2019
2380 Drizzle 5 992 100 2000 2.1 30 20:37 06.09.2019
2381 Drizzle 5 992 100 2000 2.1 30 20:37 06.09.2019
2382 Drizzle 5 992 100 2000 2.1 30 20:18 06.09.2019
2383 Drizzle 5 992 100 2000 2.1 30 20:18 06.09.2019
2384 Drizzle 5 992 93 3000 4.6 50 19:42 06.09.2019
2385 Drizzle 5 992 93 3000 4.6 50 19:24 06.09.2019
2386 Drizzle 5 992 93 6000 4.21 152.375 18:58 06.09.2019
2387 Drizzle 5 992 93 6000 4.21 152.375 18:40 06.09.2019
2388 Drizzle 5 992 93 6000 3.62 98.992 18:22 06.09.2019
2389 Rain 5 992 86 10000 2.6 120 17:56 06.09.2019
2390 Rain 5 992 86 10000 2.6 120 17:37 06.09.2019
2391 Rain 5 992 86 10000 2.6 120 17:18 06.09.2019
2392 Rain 6 992 81 10000 0.5 210 16:39 06.09.2019
2393 Rain 6 992 81 10000 0.5 210 16:18 06.09.2019
2394 Rain 6 991 75 10000 2.1 190 15:41 06.09.2019
2395 Rain 6 991 75 10000 2.1 190 15:23 06.09.2019
2396 Clouds 6 992 70 10000 1 50 14:48 06.09.2019
2397 Clouds 6 992 70 10000 1 50 14:20 06.09.2019
2398 Clouds 5 991 80 10000 4.1 40 13:59 06.09.2019
2399 Clouds 5 991 80 10000 4.1 40 13:41 06.09.2019
2400 Clouds 5 991 80 10000 4.1 40 13:19 06.09.2019
2401 Clouds 5 992 80 10000 4.1 10 12:38 06.09.2019
2402 Clouds 5 992 80 10000 4.1 10 12:38 06.09.2019
2403 Clouds 5 992 80 10000 4.1 10 12:19 06.09.2019
2404 Clouds 5 992 75 10000 6.7 40 11:54 06.09.2019
2405 Clouds 5 992 75 10000 6.7 40 11:36 06.09.2019
2406 Clouds 5 992 75 10000 6.7 40 11:18 06.09.2019
2407 Clouds 5 993 75 10000 6.2 40 10:40 06.09.2019
2408 Clouds 5 993 75 10000 6.2 40 10:21 06.09.2019
2409 Clouds 4 995 86 0 6.7 40 09:57 06.09.2019
2410 Clouds 4 995 86 0 6.7 40 09:36 06.09.2019
2411 Clouds 4 995 86 0 6.7 40 09:36 06.09.2019
2412 Clouds 4 995 86 0 6.7 40 09:18 06.09.2019
2413 Clouds 5 996 75 0 7.7 50 08:42 06.09.2019
2414 Clouds 5 996 75 0 7.7 50 08:42 06.09.2019
2415 Clouds 5 996 75 0 7.7 50 08:42 06.09.2019
2416 Clouds 5 996 75 0 7.7 50 08:42 06.09.2019
2417 Clouds 5 996 75 0 7.7 50 08:42 06.09.2019
2418 Clouds 5 996 75 0 7.7 50 08:24 06.09.2019
2419 Clouds 5 998 80 0 7.7 30 07:48 06.09.2019
2420 Clouds 5 998 80 0 7.7 30 07:27 06.09.2019
2421 Clouds 5 1000 80 0 7.7 60 06:58 06.09.2019
2422 Clouds 5 1000 80 0 7.7 60 06:26 06.09.2019
2423 Clouds 6 1002 75 0 7.7 70 05:43 06.09.2019
2424 Clear 5 1004 80 10000 7.2 60 04:52 06.09.2019
2425 Clear 5 1004 80 10000 7.2 60 04:19 06.09.2019
2426 Clouds 4 1007 86 10000 4.1 30 02:27 06.09.2019
2427 Clouds 8 1009 52 10000 2.1 100 00:48 06.09.2019
2428 Clouds 9 1009 45 10000 4.1 150 23:57 05.09.2019
2429 Clouds 9 1009 45 10000 4.1 150 23:57 05.09.2019
2430 Clouds 9 1009 45 10000 4.1 150 23:39 05.09.2019
2431 Clouds 9 1009 45 10000 4.1 150 23:19 05.09.2019
2432 Clouds 9 1010 42 10000 6.2 150 22:44 05.09.2019
2433 Clouds 9 1010 42 10000 6.2 150 22:25 05.09.2019
2434 Clouds 8 1010 49 10000 8.2 160 21:57 05.09.2019
2435 Clouds 8 1010 49 10000 8.2 160 21:38 05.09.2019
2436 Clouds 8 1010 49 10000 8.2 160 21:19 05.09.2019
2437 Clouds 8 1011 91 10000 9.3 170 20:57 05.09.2019
2438 Clouds 8 1011 90 10000 9.3 170 20:38 05.09.2019
2439 Clouds 8 1011 90 10000 9.3 170 20:38 05.09.2019
2440 Clouds 8 1011 90 10000 9.3 170 20:19 05.09.2019
2441 Rain 6 1011 80 10000 11.3 160 19:56 05.09.2019
2442 Rain 5 1011 80 10000 11.3 160 19:37 05.09.2019
2443 Rain 5 1011 80 10000 11.3 160 19:19 05.09.2019
2444 Rain 6 1011 75 8000 13.9 160 18:41 05.09.2019
2445 Rain 6 1011 75 8000 13.9 160 18:22 05.09.2019
2446 Rain 6 1011 75 10000 11.8 170 17:58 05.09.2019
2447 Rain 6 1011 75 10000 11.8 170 17:39 05.09.2019
2448 Rain 6 1011 75 10000 11.8 170 17:20 05.09.2019
2449 Rain 5 1011 86 10000 13.9 160 16:42 05.09.2019
2450 Rain 4 1011 86 10000 13.9 160 16:22 05.09.2019
2451 Rain 4 1011 93 7000 14.9 160 16:00 05.09.2019
2452 Rain 4 1011 93 7000 14.9 160 15:39 05.09.2019
2453 Rain 4 1011 93 7000 14.9 160 15:19 05.09.2019
2454 Rain 4 1011 93 8000 12.9 160 14:56 05.09.2019
2455 Rain 4 1011 93 8000 12.9 160 14:38 05.09.2019
2456 Rain 4 1011 93 8000 12.9 160 14:18 05.09.2019
2457 Rain 5 1011 93 9000 13.4 160 13:43 05.09.2019
2458 Rain 5 1011 93 9000 13.4 160 13:20 05.09.2019
2459 Rain 5 1011 86 10000 13.9 160 12:44 05.09.2019
2460 Rain 5 1011 86 10000 13.9 160 12:26 05.09.2019
2461 Rain 5 1011 86 10000 13.4 160 11:57 05.09.2019
2462 Rain 5 1011 86 10000 13.4 160 11:39 05.09.2019
2463 Rain 5 1011 86 10000 13.4 160 11:18 05.09.2019
2464 Snow 4 1011 93 0 12.9 160 10:41 05.09.2019
2465 Snow 4 1011 93 0 12.9 160 10:22 05.09.2019
2466 Snow 4 1010 93 0 14.9 160 09:58 05.09.2019
2467 Snow 4 1010 93 0 14.9 160 09:58 05.09.2019
2468 Snow 4 1010 93 0 14.9 160 09:38 05.09.2019
2469 Snow 4 1010 93 0 14.9 160 09:18 05.09.2019
2470 Snow 4 1010 93 0 14.9 160 09:18 05.09.2019
2471 Snow 4 1010 100 0 13.9 160 08:45 05.09.2019
2472 Snow 4 1010 100 0 13.9 160 08:26 05.09.2019
2473 Snow 5 1010 93 0 13.9 170 07:46 05.09.2019
2474 Snow 5 1010 93 0 13.9 170 07:27 05.09.2019
2475 Snow 5 1009 93 0 14.9 160 06:55 05.09.2019
2476 Snow 5 1009 93 0 14.9 160 06:30 05.09.2019
2477 Snow 5 1009 93 0 14.9 160 06:30 05.09.2019
2478 Snow 5 1009 93 0 14.4 160 05:50 05.09.2019
2479 Snow 5 1009 93 0 14.4 160 05:30 05.09.2019
2480 Snow 6 1009 75 0 13.9 160 04:50 05.09.2019
2481 Snow 6 1009 75 0 13.9 160 04:25 05.09.2019
2482 Rain 6 1009 81 5000 13.9 160 03:38 05.09.2019
2483 Rain 6 1009 75 6000 12.9 160 02:46 05.09.2019
2484 Rain 6 1009 75 6000 12.9 160 02:26 05.09.2019
2485 Clouds 7 1009 70 10000 12.9 160 01:37 05.09.2019
2486 Clouds 7 1009 70 10000 12.9 160 01:37 05.09.2019
2487 Rain 6 1008 75 10000 12.9 160 00:44 05.09.2019
2488 Rain 6 1008 75 10000 12.9 160 00:21 05.09.2019
2489 Clouds 7 1008 70 10000 12.9 170 23:56 04.09.2019
2490 Clouds 7 1008 70 10000 12.9 170 23:37 04.09.2019
2491 Clouds 7 1008 70 10000 12.9 170 23:18 04.09.2019
2492 Clouds 7 1008 70 10000 12.9 160 22:42 04.09.2019
2493 Clouds 7 1008 70 10000 12.9 160 22:19 04.09.2019
2494 Clouds 7 1007 65 10000 11.3 170 21:40 04.09.2019
2495 Clouds 7 1007 65 10000 11.3 170 21:20 04.09.2019
2496 Clouds 7 1007 65 10000 11.3 170 21:20 04.09.2019
2497 Clouds 7 1007 65 10000 11.3 170 21:20 04.09.2019
2498 Clouds 7 1008 52 10000 10.8 160 20:57 04.09.2019
2499 Clouds 8 1008 52 10000 10.8 160 20:57 04.09.2019
2500 Clouds 8 1008 52 10000 10.8 160 20:39 04.09.2019
2501 Clouds 8 1008 52 10000 10.8 160 20:19 04.09.2019
2502 Rain 7 1007 70 10000 8.7 180 19:57 04.09.2019
2503 Rain 7 1007 70 10000 8.7 180 19:38 04.09.2019
2504 Rain 7 1007 70 10000 8.7 180 19:19 04.09.2019
2505 Clouds 8 1007 61 10000 8.2 170 18:39 04.09.2019
2506 Clouds 8 1007 61 10000 8.2 170 18:20 04.09.2019
2507 Clouds 9 1007 57 10000 9.3 170 17:54 04.09.2019
2508 Clouds 9 1007 57 10000 9.3 170 17:54 04.09.2019
2509 Clouds 9 1007 57 10000 9.3 170 17:36 04.09.2019
2510 Clouds 9 1007 57 10000 9.3 170 17:18 04.09.2019
2511 Clouds 8 1007 52 10000 8.2 160 16:46 04.09.2019
2512 Clouds 8 1007 52 10000 8.2 160 16:28 04.09.2019
2513 Clouds 8 1008 67 10000 6.2 160 15:58 04.09.2019
2514 Clouds 9 1008 67 10000 6.2 160 15:39 04.09.2019
2515 Clouds 9 1008 70 10000 6.2 160 15:20 04.09.2019
2516 Clouds 7 1008 65 10000 7.2 160 14:56 04.09.2019
2517 Clouds 7 1008 65 10000 7.2 160 14:37 04.09.2019
2518 Clouds 7 1008 65 10000 7.2 160 14:19 04.09.2019
2519 Clouds 7 1008 65 10000 7.7 140 13:40 04.09.2019
2520 Clouds 7 1008 65 10000 7.7 140 13:22 04.09.2019
2521 Clouds 6 1008 70 10000 9.3 160 12:59 04.09.2019
2522 Clouds 6 1008 70 10000 9.3 160 12:39 04.09.2019
2523 Clouds 6 1008 70 10000 9.3 160 12:21 04.09.2019
2524 Clouds 6 1007 75 10000 8.7 160 11:55 04.09.2019
2525 Clouds 6 1007 75 10000 8.7 160 11:55 04.09.2019
2526 Clouds 6 1007 75 10000 8.7 160 11:36 04.09.2019
2527 Clouds 6 1007 75 10000 8.7 160 11:18 04.09.2019
2528 Clouds 5 1007 86 10000 8.2 170 10:43 04.09.2019
2529 Clouds 5 1007 86 10000 8.2 170 10:25 04.09.2019
2530 Clouds 5 1007 93 0 8.2 170 09:47 04.09.2019
2531 Clouds 5 1007 93 0 8.2 170 09:27 04.09.2019
2532 Clouds 5 1006 93 0 6.2 180 08:59 04.09.2019
2533 Clouds 5 1006 93 0 6.2 180 08:40 04.09.2019
2534 Clouds 5 1006 93 0 6.2 180 08:22 04.09.2019
2535 Clouds 5 1006 100 0 6.2 180 07:50 04.09.2019
2536 Clouds 5 1006 100 0 6.2 180 07:32 04.09.2019
2537 Clouds 5 1006 100 0 5.7 180 06:40 04.09.2019
2538 Rain 5 1006 100 0 5.7 180 06:20 04.09.2019
2539 Rain 5 1005 100 0 7.2 190 04:52 04.09.2019
2540 Rain 5 1005 100 0 7.2 190 04:19 04.09.2019
2541 Snow 7 1002 100 0 9.8 180 01:39 04.09.2019
2542 Rain 7 1001 100 3500 14.4 170 00:55 04.09.2019
2543 Rain 7 1001 100 3500 14.4 170 00:34 04.09.2019
2544 Rain 9 1001 93 3000 9.3 180 23:56 03.09.2019
2545 Rain 9 1001 93 3000 9.3 180 23:38 03.09.2019
2546 Rain 9 1001 93 3000 9.3 180 23:19 03.09.2019
2547 Rain 10 1001 87 6000 7.7 170 22:40 03.09.2019
2548 Rain 10 1001 87 6000 7.7 170 22:22 03.09.2019
2549 Rain 10 1001 87 6000 7.7 170 22:22 03.09.2019
2550 Rain 11 1000 76 10000 15.4 160 21:56 03.09.2019
2551 Rain 11 1000 76 10000 15.4 160 21:38 03.09.2019
2552 Rain 8 1000 76 10000 15.4 160 21:20 03.09.2019
2553 Rain 9 1001 76 10000 13.9 160 20:44 03.09.2019
2554 Rain 9 1001 76 10000 13.9 160 20:24 03.09.2019
2555 Rain 9 1001 76 10000 13.9 160 20:24 03.09.2019
2556 Rain 8 1002 93 10000 2.6 0 19:57 03.09.2019
2557 Rain 8 1002 93 10000 2.6 0 19:39 03.09.2019
2558 Rain 8 1002 93 10000 2.6 0 19:19 03.09.2019
2559 Rain 7 1003 93 10000 1 0 18:56 03.09.2019
2560 Rain 7 1003 93 10000 1 0 18:38 03.09.2019
2561 Rain 7 1003 93 10000 1 0 18:18 03.09.2019
2562 Rain 7 1004 100 5000 6.4 90.815 17:43 03.09.2019
2563 Rain 7 1004 100 5000 6.4 90.815 17:21 03.09.2019
2564 Drizzle 8 1005 87 10000 1 0 16:59 03.09.2019
2565 Drizzle 8 1005 87 10000 1 0 16:41 03.09.2019
2566 Drizzle 8 1005 87 10000 1 0 16:22 03.09.2019
2567 Rain 7 1006 93 10000 1 0 15:42 03.09.2019
2568 Rain 7 1006 93 10000 1 0 15:42 03.09.2019
2569 Rain 7 1006 93 10000 1 0 15:22 03.09.2019
2570 Rain 7 1007 87 10000 1 0 14:59 03.09.2019
2571 Rain 7 1007 87 10000 1 0 14:41 03.09.2019
2572 Rain 7 1007 87 10000 1 0 14:22 03.09.2019
2573 Rain 8 1008 75 10000 1.5 230 13:58 03.09.2019
2574 Rain 8 1008 75 10000 1.5 230 13:38 03.09.2019
2575 Rain 8 1008 75 10000 1.5 230 13:20 03.09.2019
2576 Rain 8 1008 70 10000 1.5 0 12:58 03.09.2019
2577 Rain 8 1008 70 10000 1.5 0 12:39 03.09.2019
2578 Rain 8 1008 70 10000 1.5 0 12:21 03.09.2019
2579 Clouds 6 1009 81 10000 4.1 0 11:43 03.09.2019
2580 Clouds 6 1009 81 10000 4.1 0 11:23 03.09.2019
2581 Rain 6 1010 81 0 1 0 10:58 03.09.2019
2582 Rain 6 1010 81 0 1 0 10:39 03.09.2019
2583 Rain 6 1010 81 0 1 0 10:21 03.09.2019
2584 Clouds 4 1011 93 0 1.5 40 09:49 03.09.2019
2585 Clouds 4 1011 93 0 1.5 40 09:31 03.09.2019
2586 Clouds 5 1011 86 0 1.5 170 08:57 03.09.2019
2587 Clouds 5 1011 86 0 1.5 170 08:37 03.09.2019
2588 Clouds 5 1011 86 0 1.5 170 08:19 03.09.2019
2589 Clouds 5 1012 86 0 1 0 07:42 03.09.2019
2590 Clouds 5 1012 86 0 1 0 07:24 03.09.2019
2591 Clouds 5 1012 80 0 5.17 81.448 06:45 03.09.2019
2592 Clouds 5 1012 80 0 3.45 134.777 06:27 03.09.2019
2593 Clouds 6 1013 81 10000 3.6 150 03:44 03.09.2019
2594 Clouds 7 1013 70 10000 5.7 160 02:47 03.09.2019
2595 Clouds 7 1013 70 10000 5.7 160 02:26 03.09.2019
2596 Clouds 7 1013 87 10000 4.1 190 01:53 03.09.2019
2597 Clouds 7 1013 87 10000 4.1 190 01:34 03.09.2019
2598 Clouds 8 1013 81 10000 6.2 180 00:57 03.09.2019
2599 Clouds 8 1013 81 10000 6.2 180 00:26 03.09.2019
2600 Clouds 8 1013 81 10000 6.7 180 23:41 02.09.2019
2601 Clouds 8 1013 81 10000 6.7 180 23:20 02.09.2019
2602 Clouds 8 1012 81 10000 6.7 180 22:57 02.09.2019
2603 Clouds 8 1012 81 10000 6.7 180 22:39 02.09.2019
2604 Clouds 8 1012 81 10000 6.7 180 22:21 02.09.2019
2605 Clouds 8 1012 75 10000 8.7 170 21:58 02.09.2019
2606 Clouds 8 1012 75 10000 8.7 170 21:40 02.09.2019
2607 Clouds 8 1012 75 10000 8.7 170 21:40 02.09.2019
2608 Clouds 8 1012 75 10000 8.7 170 21:20 02.09.2019
2609 Clouds 8 1011 75 10000 8.2 180 20:59 02.09.2019
2610 Clouds 8 1011 75 10000 8.2 180 20:40 02.09.2019
2611 Clouds 8 1011 75 10000 8.2 180 20:19 02.09.2019
2612 Clouds 8 1010 75 10000 8.2 180 19:57 02.09.2019
2613 Clouds 8 1010 75 10000 8.2 180 19:39 02.09.2019
2614 Clouds 8 1010 75 10000 8.2 180 19:20 02.09.2019
2615 Drizzle 7 1009 87 10000 8.7 180 18:41 02.09.2019
2616 Drizzle 7 1009 87 10000 8.7 180 18:22 02.09.2019
2617 Drizzle 7 1008 87 10000 8.2 180 17:58 02.09.2019
2618 Drizzle 7 1008 87 10000 8.2 180 17:39 02.09.2019
2619 Drizzle 7 1008 87 10000 8.2 180 17:21 02.09.2019
2620 Drizzle 7 1008 87 10000 8.2 180 17:21 02.09.2019
2621 Drizzle 7 1008 87 10000 11.3 170 16:58 02.09.2019
2622 Drizzle 7 1008 87 10000 11.3 170 16:38 02.09.2019
2623 Drizzle 7 1008 87 10000 11.3 170 16:20 02.09.2019
2624 Clouds 7 1007 87 10000 11.3 170 15:45 02.09.2019
2625 Clouds 7 1007 87 10000 11.3 170 15:26 02.09.2019
2626 Drizzle 6 1006 93 10000 10.8 180 14:57 02.09.2019
2627 Drizzle 6 1006 93 10000 10.8 180 14:57 02.09.2019
2628 Drizzle 6 1006 93 10000 10.8 180 14:57 02.09.2019
2629 Drizzle 6 1006 93 10000 10.8 180 14:38 02.09.2019
2630 Drizzle 6 1006 93 10000 10.8 180 14:20 02.09.2019
2631 Drizzle 6 1005 93 10000 12.3 170 13:55 02.09.2019
2632 Drizzle 6 1005 93 10000 12.3 170 13:55 02.09.2019
2633 Drizzle 6 1005 93 10000 12.3 170 13:36 02.09.2019
2634 Drizzle 6 1005 93 10000 12.3 170 13:18 02.09.2019
2635 Drizzle 6 1005 93 5000 9.8 170 12:42 02.09.2019
2636 Drizzle 6 1005 93 5000 9.8 170 12:24 02.09.2019
2637 Drizzle 7 1004 87 3800 10.3 170 11:58 02.09.2019
2638 Drizzle 7 1004 87 3800 10.3 170 11:38 02.09.2019
2639 Drizzle 7 1004 87 3800 10.3 170 11:20 02.09.2019
2640 Drizzle 7 1004 87 3800 10.3 170 11:20 02.09.2019
2641 Drizzle 7 1003 93 6000 13.4 170 10:56 02.09.2019
2642 Drizzle 7 1003 93 6000 13.4 170 10:37 02.09.2019
2643 Drizzle 7 1003 93 6000 13.4 170 10:19 02.09.2019
2644 Rain 7 1002 93 0 13.4 170 09:43 02.09.2019
2645 Rain 7 1002 93 0 13.4 170 09:22 02.09.2019
2646 Snow 8 1002 87 0 12.9 170 08:45 02.09.2019
2647 Snow 8 1002 87 0 12.9 170 08:23 02.09.2019
2648 Rain 8 1001 87 0 10.8 160 07:58 02.09.2019
2649 Rain 8 1001 87 0 10.8 160 07:39 02.09.2019
2650 Rain 8 1001 87 0 10.8 160 07:21 02.09.2019
2651 Rain 8 1001 93 0 8.2 180 06:44 02.09.2019
2652 Clouds 8 1001 93 0 8.2 180 06:22 02.09.2019
2653 Clouds 9 1000 87 0 9.8 170 05:44 02.09.2019
2654 Clouds 9 1000 87 0 9.8 170 05:18 02.09.2019
2655 Snow 8 999 93 0 16.5 170 02:46 02.09.2019
2656 Snow 8 998 93 0 18 160 01:43 02.09.2019
2657 Snow 7 998 93 0 17.5 160 00:47 02.09.2019
2658 Snow 7 998 93 0 17.5 160 00:28 02.09.2019
2659 Snow 8 997 93 0 17.5 160 23:41 01.09.2019
2660 Snow 8 997 93 0 17.5 160 23:21 01.09.2019
2661 Drizzle 9 997 93 0 18.5 160 22:57 01.09.2019
2662 Drizzle 9 997 93 0 18.5 160 22:39 01.09.2019
2663 Drizzle 9 997 93 0 18.5 160 22:19 01.09.2019
2664 Drizzle 9 997 93 0 18.5 160 22:19 01.09.2019
2665 Rain 9 996 93 0 15.9 160 21:57 01.09.2019
2666 Rain 9 996 93 0 15.9 160 21:37 01.09.2019
2667 Rain 9 996 93 0 15.9 160 21:19 01.09.2019
2668 Rain 9 996 87 0 15.9 170 20:56 01.09.2019
2669 Rain 9 996 87 0 15.9 170 20:36 01.09.2019
2670 Rain 9 996 87 0 15.9 170 20:18 01.09.2019
2671 Rain 10 997 81 0 10.3 170 19:55 01.09.2019
2672 -273 0 0 0 0 0 19:55 01.09.2019
2673 Rain 10 997 81 0 10.3 170 19:37 01.09.2019
2674 Rain 10 997 81 0 10.3 170 19:18 01.09.2019
2675 Rain 10 997 81 0 7.7 170 18:41 01.09.2019
2676 Rain 10 997 81 0 7.7 170 18:23 01.09.2019
2677 Rain 10 997 81 0 7.7 170 18:23 01.09.2019
2678 Rain 9 996 81 0 1.5 0 17:55 01.09.2019
2679 Rain 9 996 81 0 1.5 0 17:37 01.09.2019
2680 Rain 9 996 81 0 1.5 0 17:18 01.09.2019
2681 Rain 9 996 81 0 1.5 0 17:18 01.09.2019
2682 Rain 9 997 76 0 3.1 0 16:39 01.09.2019
2683 Rain 9 997 76 0 3.1 0 16:39 01.09.2019
2684 Rain 9 997 76 0 3.1 0 16:18 01.09.2019
2685 Snow 8 997 87 0 3.1 0 15:46 01.09.2019
2686 Snow 8 997 87 0 3.1 0 15:26 01.09.2019
2687 Snow 8 997 81 0 5.7 60 14:56 01.09.2019
2688 Snow 8 997 81 0 5.7 60 14:37 01.09.2019
2689 Snow 8 997 81 0 5.7 60 14:19 01.09.2019
2690 Rain 7 997 87 0 6.2 60 13:42 01.09.2019
2691 Rain 7 997 87 0 6.2 60 13:24 01.09.2019
2692 Rain 7 997 87 0 4.1 60 12:59 01.09.2019
2693 Rain 7 997 87 0 4.1 60 12:40 01.09.2019
2694 Rain 7 997 87 0 4.1 60 12:40 01.09.2019
2695 Rain 7 997 87 0 4.1 60 12:21 01.09.2019
2696 Rain 7 997 81 0 4.6 60 11:40 01.09.2019
2697 Rain 7 997 81 0 4.6 60 11:20 01.09.2019
2698 Snow 7 997 81 0 2.6 190 10:57 01.09.2019
2699 Snow 7 997 81 0 2.6 190 10:39 01.09.2019
2700 Snow 7 997 81 0 2.6 190 10:20 01.09.2019
2701 Snow 7 997 81 0 5.1 60 09:42 01.09.2019
2702 Snow 7 997 81 0 5.1 60 09:24 01.09.2019
2703 Clouds 8 998 65 0 1 0 08:44 01.09.2019
2704 Clouds 8 998 65 0 1 0 08:23 01.09.2019
2705 Clouds 7 998 75 0 1 40 07:49 01.09.2019
2706 Clouds 7 998 75 0 1 40 07:31 01.09.2019
2707 Clouds 7 999 75 0 2.6 40 06:42 01.09.2019
2708 Clouds 7 999 75 0 2.6 40 06:19 01.09.2019
2709 Clouds 6 999 87 0 1.5 340 05:39 01.09.2019
2710 Clouds 7 1000 81 0 3.1 50 04:29 01.09.2019
2711 Clouds 7 1000 75 0 2 297.641 03:41 01.09.2019
2712 Clouds 8 1001 70 10000 2.1 170 02:57 01.09.2019
2713 Clouds 8 1001 70 10000 2.1 170 02:26 01.09.2019
2714 Clouds 7 1001 81 10000 3.1 200 01:50 01.09.2019
2715 Clouds 7 1001 81 10000 3.1 200 01:50 01.09.2019
2716 Clouds 7 1001 81 10000 3.1 200 01:22 01.09.2019
2717 Clouds 7 1002 81 10000 3.1 200 00:45 01.09.2019
2718 Clouds 7 1002 81 10000 3.1 200 00:22 01.09.2019
2719 Clouds 8 1002 75 10000 3.1 200 23:48 31.08.2019
2720 Clouds 8 1002 75 10000 3.1 200 23:22 31.08.2019
2721 Clouds 8 1003 75 10000 3.6 190 22:58 31.08.2019
2722 Clouds 8 1003 75 10000 3.6 190 22:40 31.08.2019
2723 Clouds 8 1003 75 10000 3.6 190 22:22 31.08.2019
2724 Clouds 9 1003 70 10000 3.6 200 21:55 31.08.2019
2725 Clouds 9 1003 70 10000 3.6 200 21:55 31.08.2019
2726 Clouds 9 1003 70 10000 3.6 200 21:37 31.08.2019
2727 Clouds 9 1003 70 10000 3.6 200 21:19 31.08.2019
2728 Clouds 10 1004 61 10000 5.1 200 20:47 31.08.2019
2729 Clouds 10 1004 61 10000 5.1 200 20:28 31.08.2019
2730 Clouds 10 1004 61 10000 2.6 200 19:56 31.08.2019
2731 Clouds 10 1004 61 10000 2.6 200 19:37 31.08.2019
2732 Clouds 10 1004 61 10000 2.6 200 19:19 31.08.2019
2733 Clouds 10 1005 61 10000 3.1 210 18:39 31.08.2019
2734 Clouds 10 1005 61 10000 3.1 210 18:20 31.08.2019
2735 Clouds 10 1005 66 10000 1.5 330 17:56 31.08.2019
2736 Clouds 10 1005 66 10000 1.5 330 17:37 31.08.2019
2737 Clouds 10 1005 66 10000 1.5 330 17:18 31.08.2019
2738 Clouds 9 1006 61 10000 2.1 360 16:57 31.08.2019
2739 Clouds 9 1006 61 10000 2.1 360 16:39 31.08.2019
2740 Clouds 9 1006 61 10000 2.1 360 16:20 31.08.2019
2741 Clouds 9 1006 61 10000 1.5 270 15:54 31.08.2019
2742 Clouds 9 1006 61 10000 1.5 270 15:36 31.08.2019
2743 Clouds 9 1006 61 10000 1.5 270 15:18 31.08.2019
2744 Clouds 9 1007 61 10000 0.5 0 14:41 31.08.2019
2745 Clouds 9 1007 61 10000 0.5 0 14:22 31.08.2019
2746 Clouds 7 1008 75 10000 0.5 180 13:41 31.08.2019
2747 Clouds 7 1008 75 10000 0.5 180 13:23 31.08.2019
2748 Clouds 5 1008 80 10000 0.5 80 12:59 31.08.2019
2749 Clouds 5 1008 80 10000 0.5 80 12:59 31.08.2019
2750 Clouds 5 1008 80 10000 0.5 80 12:39 31.08.2019
2751 Clouds 5 1008 80 10000 0.5 80 12:20 31.08.2019
2752 Clouds 4 1008 80 0 0.5 180 11:55 31.08.2019
2753 Clouds 4 1008 80 0 0.5 180 11:36 31.08.2019
2754 Clouds 4 1008 80 0 0.5 180 11:18 31.08.2019
2755 Clouds 5 1008 75 0 1.18 129.974 10:41 31.08.2019
2756 Clouds 5 1008 75 0 1.18 129.974 10:19 31.08.2019
2757 Clouds 4 1009 80 0 1 340 09:57 31.08.2019
2758 Clouds 4 1009 80 0 1 340 09:38 31.08.2019
2759 Clouds 4 1009 80 0 1 340 09:19 31.08.2019
2760 Clouds 5 1009 75 0 2.1 40 08:43 31.08.2019
2761 Clouds 5 1009 75 0 2.1 40 08:23 31.08.2019
2762 Clouds 5 1009 75 0 1 0 07:41 31.08.2019
2763 Clouds 5 1009 75 0 1 0 07:22 31.08.2019
2764 Clouds 6 1010 70 0 3.6 170 06:41 31.08.2019
2765 Clear 6 1010 70 0 3.6 170 06:18 31.08.2019
2766 Clear 8 1009 61 0 4.1 170 05:34 31.08.2019
2767 Clear 8 1010 61 0 4.1 180 04:36 31.08.2019
2768 Clear 8 1010 65 0 3.6 180 03:45 31.08.2019
2769 Clouds 9 1010 57 0 4.6 190 02:49 31.08.2019
2770 Clouds 8 1010 65 0 4.1 190 01:56 31.08.2019
2771 Clouds 8 1010 65 0 4.1 190 01:35 31.08.2019
2772 Clouds 8 1010 65 0 4.1 190 01:35 31.08.2019
2773 Clouds 8 1011 70 10000 5.1 210 00:52 31.08.2019
2774 Clouds 8 1011 70 10000 5.1 210 00:52 31.08.2019
2775 Clouds 8 1011 70 10000 5.1 210 00:52 31.08.2019
2776 Clouds 8 1011 70 10000 5.1 210 00:31 31.08.2019
2777 Clouds 10 1011 46 10000 7.7 170 23:59 30.08.2019
2778 Clouds 12 1011 46 10000 7.7 170 23:40 30.08.2019
2779 Clouds 12 1011 46 10000 7.7 170 23:18 30.08.2019
2780 Clouds 9 1011 66 10000 3.1 220 22:43 30.08.2019
2781 Clouds 9 1011 66 10000 3.1 220 22:25 30.08.2019
2782 Clouds 9 1011 66 10000 5.1 190 21:59 30.08.2019
2783 Clouds 9 1011 66 10000 5.1 190 21:38 30.08.2019
2784 Clouds 9 1011 66 10000 5.1 190 21:20 30.08.2019
2785 Clouds 9 1011 66 10000 5.1 190 21:20 30.08.2019
2786 Clouds 11 1012 53 10000 3.1 200 20:59 30.08.2019
2787 Clouds 11 1012 53 10000 3.1 200 20:41 30.08.2019
2788 Clouds 11 1012 53 10000 3.1 200 20:21 30.08.2019
2789 Clouds 13 1012 58 10000 1.5 0 19:59 30.08.2019
2790 Clouds 13 1012 58 10000 1.5 0 19:40 30.08.2019
2791 Clouds 13 1012 58 10000 1.5 0 19:40 30.08.2019
2792 Clouds 13 1012 58 10000 1.5 0 19:20 30.08.2019
2793 Clouds 11 1012 43 10000 1.5 0 18:55 30.08.2019
2794 Clouds 11 1012 43 10000 1.5 0 18:55 30.08.2019
2795 Clouds 11 1012 43 10000 1.5 0 18:37 30.08.2019
2796 Clouds 11 1012 43 10000 1.5 0 18:18 30.08.2019
2797 Clouds 10 1013 46 10000 2.1 210 17:55 30.08.2019
2798 Clouds 10 1013 46 10000 2.1 210 17:37 30.08.2019
2799 Clouds 10 1013 46 10000 2.1 210 17:18 30.08.2019
2800 Clouds 10 1013 46 10000 2.6 220 16:43 30.08.2019
2801 Clouds 10 1013 46 10000 2.6 220 16:24 30.08.2019
2802 Clouds 11 1012 32 10000 3.6 60 15:45 30.08.2019
2803 Clouds 11 1012 32 10000 3.6 60 15:25 30.08.2019
2804 Clouds 10 1013 29 10000 3.1 50 14:59 30.08.2019
2805 Clouds 10 1013 29 10000 3.1 50 14:41 30.08.2019
2806 Clouds 10 1013 29 10000 3.1 50 14:23 30.08.2019
2807 Clouds 9 1012 36 10000 3.6 40 13:44 30.08.2019
2808 Clouds 9 1012 36 10000 3.6 40 13:23 30.08.2019
2809 Clouds 8 1013 39 10000 2.6 10 12:58 30.08.2019
2810 Clouds 8 1013 39 10000 2.6 10 12:40 30.08.2019
2811 Clouds 8 1013 39 10000 2.6 10 12:21 30.08.2019
2812 Clouds 8 1013 39 10000 2.6 10 12:21 30.08.2019
2813 Clouds 8 1013 39 10000 1.5 320 11:42 30.08.2019
2814 Clouds 8 1013 39 10000 1.5 320 11:24 30.08.2019
2815 Clouds 6 1013 45 10000 0.5 0 10:42 30.08.2019
2816 Clouds 6 1013 45 10000 0.5 0 10:23 30.08.2019
2817 Clouds 6 1013 48 0 2.1 160 09:59 30.08.2019
2818 Clouds 6 1013 48 0 2.1 160 09:40 30.08.2019
2819 Clouds 6 1013 48 0 2.1 160 09:19 30.08.2019
2820 Clouds 8 1012 36 0 8.2 80 08:57 30.08.2019
2821 Clouds 8 1012 36 0 8.2 80 08:57 30.08.2019
2822 Clouds 8 1012 36 0 8.2 80 08:38 30.08.2019
2823 Clouds 8 1012 36 0 8.2 80 08:20 30.08.2019
2824 Clouds 7 1012 42 0 6.2 60 07:42 30.08.2019
2825 Clouds 7 1012 42 0 6.2 60 07:23 30.08.2019
2826 Clouds 5 1013 65 0 5.1 40 06:47 30.08.2019
2827 Clouds 5 1013 65 0 5.1 40 06:29 30.08.2019
2828 Clouds 6 1014 60 0 3.1 30 05:54 30.08.2019
2829 Clouds 7 1014 56 0 3.6 30 04:20 30.08.2019
2830 Clouds 7 1014 56 0 3.6 30 04:20 30.08.2019
2831 Clouds 8 1014 45 0 1.5 30 03:38 30.08.2019
2832 Clouds 8 1014 45 0 1.5 30 03:38 30.08.2019
2833 Clouds 8 1014 45 0 1.5 30 03:18 30.08.2019
2834 Clouds 9 1014 45 0 4.1 20 02:29 30.08.2019
2835 Clouds 10 1014 37 10000 4.6 60 01:30 30.08.2019
2836 Clouds 11 1015 37 10000 3.1 50 00:45 30.08.2019
2837 Clouds 11 1015 37 10000 3.1 50 00:18 30.08.2019
2838 Clouds 12 1015 27 10000 2.6 40 23:41 29.08.2019
2839 Clouds 12 1015 27 10000 2.6 40 23:21 29.08.2019
2840 Clouds 12 1016 30 10000 2.6 20 22:44 29.08.2019
2841 Clouds 12 1016 30 10000 2.6 20 22:26 29.08.2019
2842 Clear 13 1016 26 10000 3.6 50 21:57 29.08.2019
2843 Clear 13 1016 26 10000 3.6 50 21:39 29.08.2019
2844 Clear 13 1016 26 10000 3.6 50 21:21 29.08.2019
2845 Clear 13 1016 26 10000 3.6 50 21:21 29.08.2019
2846 Clear 13 1016 26 10000 3.6 50 21:21 29.08.2019
2847 Clear 12 1016 27 10000 4.1 60 20:56 29.08.2019
2848 Clear 12 1016 27 10000 4.1 60 20:37 29.08.2019
2849 Clear 12 1016 27 10000 4.1 60 20:37 29.08.2019
2850 Clear 12 1016 27 10000 4.1 60 20:18 29.08.2019
2851 Clear 11 1015 32 10000 7.2 70 19:46 29.08.2019
2852 Clear 11 1015 32 10000 7.2 70 19:25 29.08.2019
2853 Clear 11 1015 29 10000 7.7 50 18:54 29.08.2019
2854 Clear 11 1015 29 10000 7.7 50 18:36 29.08.2019
2855 Clear 11 1015 29 10000 7.7 50 18:18 29.08.2019
2856 Clear 10 1016 31 10000 6.2 50 17:54 29.08.2019
2857 Clear 10 1016 31 10000 6.2 50 17:54 29.08.2019
2858 Clear 10 1016 31 10000 6.2 50 17:36 29.08.2019
2859 Clear 10 1016 31 10000 6.2 50 17:18 29.08.2019
2860 Clear 10 1016 31 10000 6.2 50 17:18 29.08.2019
2861 Clear 8 1016 45 10000 7.2 10 16:41 29.08.2019
2862 Clear 8 1016 45 10000 7.2 10 16:41 29.08.2019
2863 Clear 8 1016 45 10000 7.2 10 16:22 29.08.2019
2864 Clear 7 1016 48 10000 8.2 20 15:41 29.08.2019
2865 Clear 7 1016 48 10000 8.2 20 15:21 29.08.2019
2866 Clear 7 1015 48 10000 11.3 10 14:58 29.08.2019
2867 Clear 7 1015 48 10000 11.3 10 14:40 29.08.2019
2868 Clear 7 1015 48 10000 11.3 10 14:20 29.08.2019
2869 Clear 6 1016 56 10000 9.8 20 13:57 29.08.2019
2870 Clear 6 1016 56 10000 9.8 20 13:38 29.08.2019
2871 Clear 6 1016 56 10000 9.8 20 13:18 29.08.2019
2872 Clear 7 1016 42 10000 11.8 30 12:56 29.08.2019
2873 Clear 7 1016 42 10000 11.8 30 12:38 29.08.2019
2874 Clear 7 1016 42 10000 11.8 30 12:19 29.08.2019
2875 Clear 6 1016 48 10000 12.3 50 11:42 29.08.2019
2876 Clear 6 1016 48 10000 12.3 50 11:21 29.08.2019
2877 Clear 6 1016 48 0 9.8 40 10:57 29.08.2019
2878 Clear 6 1016 48 0 9.8 40 10:38 29.08.2019
2879 Clear 6 1016 48 0 9.8 40 10:20 29.08.2019
2880 Clear 7 1016 42 0 10.3 50 09:41 29.08.2019
2881 Clear 7 1016 42 0 10.3 50 09:19 29.08.2019
2882 Clear 8 1016 39 0 10.8 50 08:49 29.08.2019
2883 Clear 8 1016 39 0 10.8 50 08:31 29.08.2019
2884 Clear 7 1015 42 0 11.8 50 07:59 29.08.2019
2885 Clear 7 1015 42 0 11.8 50 07:41 29.08.2019
2886 Clear 7 1015 42 0 11.8 50 07:23 29.08.2019
2887 Clear 8 1015 39 0 11.3 60 06:40 29.08.2019
2888 Clear 7 1015 52 0 8.2 20 05:54 29.08.2019
2889 Clear 7 1015 52 0 8.2 20 05:33 29.08.2019
2890 Clear 7 1015 56 0 8.7 20 04:49 29.08.2019
2891 Clear 7 1015 56 0 8.7 20 04:28 29.08.2019
2892 Clouds 7 1014 52 10000 7.2 30 02:21 29.08.2019
2893 Clear 8 1014 52 10000 7.2 40 01:41 29.08.2019
2894 Clouds 9 1013 53 10000 8.7 30 00:52 29.08.2019
2895 Clouds 9 1013 53 10000 8.7 30 00:25 29.08.2019
2896 Clouds 10 1012 46 10000 9.3 10 23:59 28.08.2019
2897 Clouds 10 1012 46 10000 9.3 10 23:41 28.08.2019
2898 Clouds 10 1012 46 10000 9.3 10 23:22 28.08.2019
2899 Clouds 11 1012 65 10000 9.8 20 22:57 28.08.2019
2900 Clouds 11 1012 65 10000 9.8 20 22:38 28.08.2019
2901 Clouds 11 1012 65 10000 9.8 20 22:18 28.08.2019
2902 Clouds 11 1012 43 10000 9.3 30 21:57 28.08.2019
2903 Clouds 11 1012 43 10000 9.3 30 21:38 28.08.2019
2904 Clouds 11 1012 43 10000 9.3 30 21:19 28.08.2019
2905 Clouds 12 1011 40 10000 8.7 40 20:41 28.08.2019
2906 Clouds 12 1011 40 10000 8.7 40 20:22 28.08.2019
2907 Clouds 11 1010 40 10000 9.8 20 19:55 28.08.2019
2908 Clouds 11 1010 40 10000 9.8 20 19:37 28.08.2019
2909 Clouds 11 1010 40 10000 9.8 20 19:18 28.08.2019
2910 Clouds 11 1010 43 10000 7.7 30 18:42 28.08.2019
2911 Clouds 11 1010 43 10000 7.7 30 18:21 28.08.2019
2912 Clouds 10 1010 46 10000 8.7 20 17:40 28.08.2019
2913 Clouds 10 1010 46 10000 8.7 20 17:21 28.08.2019
2914 Clouds 10 1010 48 10000 6.7 30 16:59 28.08.2019
2915 Clouds 10 1010 48 10000 6.7 30 16:41 28.08.2019
2916 Clouds 10 1010 48 10000 6.7 30 16:18 28.08.2019
2917 Clouds 9 1009 48 10000 6.7 20 15:54 28.08.2019
2918 Clouds 9 1009 48 10000 6.7 20 15:36 28.08.2019
2919 Clouds 9 1009 48 10000 6.7 20 15:36 28.08.2019
2920 Clouds 9 1009 47 10000 6.7 20 15:18 28.08.2019
2921 Clouds 8 1009 61 10000 8.2 20 14:55 28.08.2019
2922 Clouds 8 1009 61 10000 8.2 20 14:36 28.08.2019
2923 Clouds 8 1009 61 10000 8.2 20 14:18 28.08.2019
2924 Clouds 7 1008 56 10000 10.3 20 13:39 28.08.2019
2925 Clouds 7 1008 56 10000 10.3 20 13:20 28.08.2019
2926 Clouds 7 1008 65 10000 9.3 20 12:58 28.08.2019
2927 Clouds 7 1008 65 10000 9.3 20 12:40 28.08.2019
2928 Clouds 7 1008 65 10000 9.3 20 12:40 28.08.2019
2929 Clouds 7 1008 65 10000 9.3 20 12:21 28.08.2019
2930 Clouds 7 1007 65 10000 7.7 10 11:40 28.08.2019
2931 Clouds 7 1007 65 10000 7.7 10 11:22 28.08.2019
2932 Clear 7 1007 70 0 7.2 20 10:57 28.08.2019
2933 Clear 7 1007 70 0 7.2 20 10:38 28.08.2019
2934 Clear 7 1007 70 0 7.2 20 10:20 28.08.2019
2935 Clear 7 1006 70 0 5.7 360 09:42 28.08.2019
2936 Clouds 7 1006 70 0 5.7 360 09:22 28.08.2019
2937 Clouds 8 1005 58 0 8.2 20 08:59 28.08.2019
2938 Clouds 8 1005 58 0 8.2 20 08:38 28.08.2019
2939 Clouds 8 1005 58 0 8.2 20 08:19 28.08.2019
2940 Clouds 7 1005 70 0 5.1 30 07:39 28.08.2019
2941 Clouds 7 1005 70 0 5.1 30 07:20 28.08.2019
2942 Clouds 6 1004 93 0 3.6 50 06:50 28.08.2019
2943 Clouds 6 1004 93 0 3.6 50 06:31 28.08.2019
2944 Clear 6 1004 93 0 3.1 30 05:24 28.08.2019
2945 Clear 7 1003 87 0 2.6 20 02:20 28.08.2019
2946 Clear 8 1003 87 0 2.1 340 01:31 28.08.2019
2947 Clear 9 1002 76 0 2.1 340 00:54 28.08.2019
2948 Clear 9 1002 76 0 2.1 340 00:34 28.08.2019
2949 Clouds 10 1001 71 10000 2.6 320 23:58 27.08.2019
2950 Clouds 10 1001 71 10000 2.6 320 23:38 27.08.2019
2951 Clouds 10 1001 71 10000 2.6 320 23:19 27.08.2019
2952 Clouds 10 1001 76 10000 4.1 320 22:42 27.08.2019
2953 Clouds 10 1001 76 10000 4.1 320 22:23 27.08.2019
2954 Clouds 11 1001 66 10000 3.1 330 21:57 27.08.2019
2955 Clouds 11 1001 66 10000 3.1 330 21:38 27.08.2019
2956 Clouds 11 1001 66 10000 3.1 330 21:20 27.08.2019
2957 Clouds 10 1000 71 10000 4.1 330 20:59 27.08.2019
2958 Clouds 10 1000 71 10000 4.1 330 20:40 27.08.2019
2959 Clouds 10 1000 71 10000 4.1 330 20:19 27.08.2019
2960 Clouds 10 1000 66 10000 3.6 350 19:45 27.08.2019
2961 Clouds 10 1000 66 10000 3.6 350 19:27 27.08.2019
2962 Clouds 11 999 40 10000 3.6 20 18:59 27.08.2019
2963 Clouds 11 999 40 10000 3.6 20 18:41 27.08.2019
2964 Clouds 11 999 40 10000 3.6 20 18:18 27.08.2019
2965 Clouds 10 1000 43 10000 1.5 350 17:56 27.08.2019
2966 Clouds 10 1000 43 10000 1.5 350 17:37 27.08.2019
2967 Clouds 10 1000 43 10000 1.5 350 17:18 27.08.2019
2968 Clouds 9 999 54 10000 1.5 330 16:43 27.08.2019
2969 Clouds 9 999 54 10000 1.5 330 16:24 27.08.2019
2970 Clouds 9 999 45 10000 2.1 40 15:57 27.08.2019
2971 Clouds 9 999 45 10000 2.1 40 15:38 27.08.2019
2972 Clouds 9 999 45 10000 2.1 40 15:20 27.08.2019
2973 Clouds 8 999 57 10000 3.6 50 14:43 27.08.2019
2974 Clouds 8 999 57 10000 3.6 50 14:24 27.08.2019
2975 Clouds 8 999 61 10000 3.6 30 13:57 27.08.2019
2976 Clouds 8 999 61 10000 3.6 30 13:38 27.08.2019
2977 Clouds 8 999 61 10000 3.6 30 13:20 27.08.2019
2978 Clouds 7 999 65 10000 2.6 360 12:41 27.08.2019
2979 Clouds 7 999 65 10000 2.6 360 12:20 27.08.2019
2980 Clouds 8 999 65 10000 1 190 11:57 27.08.2019
2981 Clouds 8 999 65 10000 1 190 11:37 27.08.2019
2982 Clouds 8 999 65 10000 1 190 11:18 27.08.2019
2983 Clouds 8 999 70 0 2.28 39.989 10:41 27.08.2019
2984 Clouds 8 999 70 0 2.28 39.989 10:20 27.08.2019
2985 Clouds 8 999 65 0 1.5 160 09:55 27.08.2019
2986 Clouds 8 999 65 0 1.5 160 09:37 27.08.2019
2987 Clouds 8 999 65 0 1.5 160 09:37 27.08.2019
2988 Clouds 8 999 65 0 1.5 160 09:18 27.08.2019
2989 Clouds 10 1000 39 0 2.1 180 08:44 27.08.2019
2990 Clouds 10 1000 39 0 2.1 180 08:24 27.08.2019
2991 Clouds 8 1000 65 0 1.5 120 07:55 27.08.2019
2992 Clouds 8 1000 65 0 1.5 120 07:36 27.08.2019
2993 Clouds 8 1000 65 0 1.5 120 07:36 27.08.2019
2994 Clouds 8 1000 65 0 1.5 120 07:18 27.08.2019
2995 Clouds 10 1001 43 0 2.1 180 06:44 27.08.2019
2996 Clouds 10 1001 43 0 2.1 180 06:19 27.08.2019
2997 Clouds 9 1001 57 0 0.5 0 05:26 27.08.2019
2998 Clouds 8 1002 61 0 1.5 0 03:43 27.08.2019
2999 Clouds 7 1003 81 0 3.6 60 02:55 27.08.2019
3000 Clouds 8 1004 70 0 3.1 360 01:46 27.08.2019
3001 Clouds 8 1004 70 0 3.1 360 01:25 27.08.2019
3002 Clouds 8 1004 75 0 3.1 30 00:49 27.08.2019
3003 Clouds 8 1004 75 0 3.1 30 00:28 27.08.2019
3004 Clouds 9 1005 70 10000 3.1 40 23:44 26.08.2019
3005 Clouds 9 1005 70 10000 3.1 40 23:25 26.08.2019
3006 Clouds 10 1006 66 10000 2.6 20 22:59 26.08.2019
3007 Clouds 10 1006 66 10000 2.6 20 22:37 26.08.2019
3008 Clouds 10 1006 66 10000 2.6 20 22:19 26.08.2019
3009 Clouds 11 1006 50 10000 2.1 340 21:40 26.08.2019
3010 Clouds 11 1006 50 10000 2.1 340 21:22 26.08.2019
3011 Clouds 12 1007 50 10000 1.5 340 20:59 26.08.2019
3012 Clouds 12 1007 50 10000 1.5 340 20:41 26.08.2019
3013 Clouds 12 1007 50 10000 1.5 340 20:20 26.08.2019
3014 Clouds 13 1007 43 10000 1 0 19:58 26.08.2019
3015 Clouds 13 1007 43 10000 1 0 19:58 26.08.2019
3016 Clouds 13 1007 43 10000 1 0 19:40 26.08.2019
3017 Clouds 13 1007 43 10000 1 0 19:19 26.08.2019
3018 Clouds 12 1008 62 10000 2.6 50 18:55 26.08.2019
3019 Clouds 12 1008 62 10000 2.6 50 18:37 26.08.2019
3020 Clouds 11 1008 53 10000 2.6 50 18:18 26.08.2019
3021 Clouds 11 1008 43 10000 3.1 70 17:43 26.08.2019
3022 Clouds 11 1008 43 10000 3.1 70 17:19 26.08.2019
3023 Clouds 11 1008 53 10000 2.6 20 16:57 26.08.2019
3024 Clouds 11 1008 53 10000 2.6 20 16:38 26.08.2019
3025 Clouds 11 1008 53 10000 2.6 20 16:18 26.08.2019
3026 Clouds 10 1008 53 10000 3.6 50 15:42 26.08.2019
3027 Clouds 10 1008 53 10000 3.6 50 15:22 26.08.2019
3028 Clouds 9 1009 66 10000 3.1 50 14:58 26.08.2019
3029 Clouds 9 1009 66 10000 3.1 50 14:38 26.08.2019
3030 Clouds 9 1009 66 10000 3.1 50 14:19 26.08.2019
3031 Clouds 7 1008 87 10000 3.1 30 13:43 26.08.2019
3032 Clouds 7 1008 87 10000 3.1 30 13:22 26.08.2019
3033 Clouds 6 1009 87 10000 3.1 30 12:54 26.08.2019
3034 Clouds 6 1009 87 10000 3.1 30 12:36 26.08.2019
3035 Clouds 6 1009 87 10000 3.1 30 12:18 26.08.2019
3036 Clouds 5 1008 93 10000 3.1 20 11:38 26.08.2019
3037 Clouds 5 1008 93 10000 3.1 20 11:19 26.08.2019
3038 Clouds 5 1008 86 10000 3.1 10 10:55 26.08.2019
3039 Clouds 5 1008 86 10000 3.1 10 10:36 26.08.2019
3040 Clouds 5 1008 86 10000 3.1 10 10:18 26.08.2019
3041 Clouds 5 1008 86 0 3.6 60 09:41 26.08.2019
3042 Clear 5 1008 86 0 3.6 60 09:23 26.08.2019
3043 Clear 5 1008 86 0 3.1 20 08:56 26.08.2019
3044 Clear 5 1008 86 0 3.1 20 08:37 26.08.2019
3045 Clear 5 1008 86 0 3.1 20 08:19 26.08.2019
3046 Clear 4 1008 93 0 3.6 20 07:42 26.08.2019
3047 Clear 4 1008 93 0 3.6 20 07:24 26.08.2019
3048 Fog 5 1007 93 10000 3.6 30 06:56 26.08.2019
3049 Fog 5 1007 93 10000 3.6 30 06:38 26.08.2019
3050 Fog 5 1007 93 10000 3.6 30 06:18 26.08.2019
3051 Clear 5 1007 86 10000 2.6 20 04:36 26.08.2019
3052 Clear 5 1007 93 10000 1 310 03:48 26.08.2019
3053 Clear 6 1007 87 10000 5.51 328.221 02:31 26.08.2019
3054 Clouds 7 1007 81 10000 3.1 340 01:23 26.08.2019
3055 Clouds 8 1007 75 10000 3.1 360 00:44 26.08.2019
3056 Clouds 8 1007 75 10000 3.1 360 00:44 26.08.2019
3057 Clouds 8 1007 75 10000 3.1 360 00:25 26.08.2019
3058 Clouds 9 1007 66 10000 4.1 340 23:44 25.08.2019
3059 Clouds 9 1007 66 10000 4.1 340 23:20 25.08.2019
3060 Clouds 11 1006 57 10000 6.7 350 22:59 25.08.2019
3061 Clouds 11 1006 57 10000 6.7 350 22:40 25.08.2019
3062 Clouds 11 1006 57 10000 6.7 350 22:20 25.08.2019
3063 Clouds 11 1005 53 10000 7.2 330 21:58 25.08.2019
3064 Clouds 11 1005 53 10000 7.2 330 21:39 25.08.2019
3065 Clouds 11 1005 53 10000 7.2 330 21:19 25.08.2019
3066 Clouds 11 1005 62 10000 6.2 340 20:56 25.08.2019
3067 Clouds 11 1005 62 10000 6.2 340 20:38 25.08.2019
3068 Clouds 11 1005 62 10000 6.2 340 20:19 25.08.2019
3069 Clouds 12 1005 58 10000 3.1 360 19:41 25.08.2019
3070 Clouds 12 1005 58 10000 3.1 360 19:23 25.08.2019
3071 Clouds 11 1005 62 10000 3.6 40 18:59 25.08.2019
3072 Clouds 11 1005 62 10000 3.6 40 18:59 25.08.2019
3073 Clouds 11 1005 62 10000 3.6 40 18:40 25.08.2019
3074 Clouds 11 1005 62 10000 3.6 40 18:22 25.08.2019
3075 Clouds 10 1005 66 10000 3.1 50 17:59 25.08.2019
3076 Clouds 10 1005 66 10000 3.1 50 17:39 25.08.2019
3077 Clouds 10 1005 66 10000 3.1 50 17:20 25.08.2019
3078 Clouds 9 1005 70 10000 3.6 50 16:41 25.08.2019
3079 Clouds 9 1005 70 10000 3.6 50 16:23 25.08.2019
3080 Clouds 8 1005 70 10000 3.6 60 15:56 25.08.2019
3081 Clouds 8 1005 70 10000 3.6 60 15:37 25.08.2019
3082 Clouds 8 1005 70 10000 3.6 60 15:19 25.08.2019
3083 Clouds 7 1005 75 10000 3.1 60 14:39 25.08.2019
3084 Clouds 7 1005 75 10000 3.1 60 14:21 25.08.2019
3085 Clouds 6 1006 81 10000 3.6 350 13:45 25.08.2019
3086 Clouds 6 1006 81 10000 3.6 350 13:21 25.08.2019
3087 Clouds 5 1006 86 10000 3.1 360 12:56 25.08.2019
3088 Clouds 5 1006 86 10000 3.1 360 12:38 25.08.2019
3089 Clouds 5 1006 86 10000 3.1 360 12:20 25.08.2019
3090 Clouds 5 1006 86 10000 3.6 350 11:55 25.08.2019
3091 Clouds 5 1006 86 10000 3.6 350 11:36 25.08.2019
3092 Clouds 5 1006 86 10000 3.6 350 11:36 25.08.2019
3093 Clouds 5 1006 86 10000 3.6 350 11:18 25.08.2019
3094 Clear 5 1005 93 0 3.1 360 10:40 25.08.2019
3095 Clear 5 1005 93 0 3.1 360 10:21 25.08.2019
3096 Clear 6 1005 87 0 3.6 330 09:59 25.08.2019
3097 Clear 6 1005 87 0 3.6 330 09:41 25.08.2019
3098 Clear 6 1005 87 0 3.6 330 09:22 25.08.2019
3099 Clear 6 1005 87 0 2.1 30 08:44 25.08.2019
3100 Clear 6 1005 87 0 2.1 30 08:22 25.08.2019
3101 Clear 5 1006 93 0 1.5 20 07:45 25.08.2019
3102 Clear 5 1006 93 0 1.5 20 07:23 25.08.2019
3103 Clear 5 1006 93 0 2.6 60 06:31 25.08.2019
3104 Clear 5 1006 93 0 1.5 30 04:58 25.08.2019
3105 Clear 6 1006 93 0 2.6 310 03:43 25.08.2019
3106 Clear 6 1006 93 0 3.47 322.671 02:41 25.08.2019
3107 Clear 7 1006 87 0 3.47 322.671 01:42 25.08.2019
3108 Clouds 9 1007 81 10000 4.1 280 00:42 25.08.2019
3109 Clouds 9 1007 81 10000 4.1 280 00:22 25.08.2019
3110 Clear 11 1006 57 10000 2.6 310 23:54 24.08.2019
3111 Clear 11 1006 57 10000 2.6 310 23:24 24.08.2019
3112 Clear 11 1007 57 10000 3.6 320 22:58 24.08.2019
3113 Clear 11 1007 57 10000 3.6 320 22:40 24.08.2019
3114 Clear 11 1007 57 10000 3.6 320 22:19 24.08.2019
3115 Clear 12 1007 50 10000 3.1 320 21:57 24.08.2019
3116 Clear 12 1007 50 10000 3.1 320 21:39 24.08.2019
3117 Clear 12 1007 50 10000 3.1 320 21:20 24.08.2019
3118 Clear 12 1007 50 10000 3.1 320 21:20 24.08.2019
3119 Clouds 12 1007 50 10000 2.1 330 20:57 24.08.2019
3120 Clouds 12 1007 50 10000 2.1 330 20:38 24.08.2019
3121 Clouds 12 1007 50 10000 2.1 330 20:18 24.08.2019
3122 Clouds 13 1007 43 10000 3.1 50 19:57 24.08.2019
3123 Clouds 13 1007 43 10000 3.1 50 19:38 24.08.2019
3124 Clouds 13 1007 43 10000 3.1 50 19:19 24.08.2019
3125 Clouds 12 1007 50 10000 3.1 30 18:46 24.08.2019
3126 Clouds 12 1007 50 10000 3.1 30 18:24 24.08.2019
3127 Clouds 9 1007 70 10000 3.1 30 17:46 24.08.2019
3128 Clouds 9 1007 70 10000 3.1 30 17:27 24.08.2019
3129 Clouds 8 1008 81 10000 3.6 20 16:56 24.08.2019
3130 Clouds 8 1008 81 10000 3.6 20 16:37 24.08.2019
3131 Clouds 8 1008 81 10000 3.6 20 16:19 24.08.2019
3132 Clouds 7 1008 87 10000 4.1 30 15:44 24.08.2019
3133 Clouds 7 1008 87 10000 4.1 30 15:25 24.08.2019
3134 Clouds 5 1009 100 10000 4.6 40 14:57 24.08.2019
3135 Clouds 5 1009 100 10000 4.6 40 14:38 24.08.2019
3136 Clouds 5 1009 100 10000 4.6 40 14:18 24.08.2019
3137 Fog 5 1009 100 400 4.6 30 13:43 24.08.2019
3138 Fog 5 1009 100 400 4.6 30 13:22 24.08.2019
3139 Fog 5 1009 100 400 4.6 40 12:59 24.08.2019
3140 Fog 5 1009 100 400 4.6 40 12:40 24.08.2019
3141 Fog 5 1009 100 400 4.6 40 12:40 24.08.2019
3142 Fog 5 1009 100 400 4.6 40 12:22 24.08.2019
3143 Fog 5 1009 100 250 4.6 20 11:46 24.08.2019
3144 Fog 5 1009 100 250 4.6 20 11:26 24.08.2019
3145 Snow 4 1009 100 0 4.6 20 10:59 24.08.2019
3146 Snow 4 1009 100 0 4.6 20 10:38 24.08.2019
3147 Snow 4 1009 100 0 4.6 20 10:38 24.08.2019
3148 Snow 4 1009 100 0 4.6 20 10:19 24.08.2019
3149 Snow 5 1009 100 0 3.1 360 09:41 24.08.2019
3150 Snow 5 1009 100 0 3.1 360 09:18 24.08.2019
3151 Snow 5 1009 100 0 3.1 360 09:18 24.08.2019
3152 Clear 5 1010 100 0 3.6 30 08:43 24.08.2019
3153 Clear 5 1010 100 0 3.6 30 08:24 24.08.2019
3154 Clear 6 1010 93 0 3.6 20 07:52 24.08.2019
3155 Clear 6 1010 93 0 3.6 20 07:30 24.08.2019
3156 Clear 6 1010 87 0 2.6 40 06:39 24.08.2019
3157 Clear 6 1010 87 0 2.6 40 06:21 24.08.2019
3158 Clear 6 1011 87 0 1 40 05:35 24.08.2019
3159 Clear 6 1012 87 0 2.08 325.195 03:41 24.08.2019
3160 Clouds 7 1012 87 10000 1.5 300 02:50 24.08.2019
3161 Clouds 7 1012 87 10000 1.5 300 02:18 24.08.2019
3162 Clouds 8 1012 81 10000 3.1 300 01:25 24.08.2019
3163 Clouds 9 1012 76 10000 2.6 300 00:47 24.08.2019
3164 Clouds 9 1012 76 10000 2.6 300 00:23 24.08.2019
3165 Clouds 9 1012 76 10000 2.6 300 00:23 24.08.2019
3166 Clouds 9 1012 76 10000 3.6 310 23:45 23.08.2019
3167 Clouds 9 1012 76 10000 3.6 310 23:20 23.08.2019
3168 Clouds 10 1012 66 10000 3.6 310 22:45 23.08.2019
3169 Clouds 10 1012 66 10000 3.6 310 22:27 23.08.2019
3170 Clouds 10 1012 61 10000 3.6 270 21:56 23.08.2019
3171 Clouds 10 1012 61 10000 3.6 270 21:37 23.08.2019
3172 Clouds 10 1012 61 10000 3.6 270 21:19 23.08.2019
3173 Clouds 11 1013 62 10000 4.1 260 20:52 23.08.2019
3174 Clouds 11 1013 62 10000 4.1 260 20:33 23.08.2019
3175 Clouds 10 1013 66 10000 4.6 270 19:47 23.08.2019
3176 Clouds 10 1013 66 10000 4.6 270 19:19 23.08.2019
3177 Clouds 10 1013 61 10000 1.5 330 18:58 23.08.2019
3178 Clouds 10 1013 61 10000 1.5 330 18:39 23.08.2019
3179 Clouds 10 1013 61 10000 1.5 330 18:21 23.08.2019
3180 Clouds 10 1014 66 10000 2.1 30 17:45 23.08.2019
3181 Clouds 10 1014 66 10000 2.1 30 17:26 23.08.2019
3182 Clouds 8 1014 75 10000 2.1 30 16:57 23.08.2019
3183 Clouds 8 1014 75 10000 2.1 30 16:39 23.08.2019
3184 Clouds 8 1014 75 10000 2.1 30 16:21 23.08.2019
3185 Clouds 8 1014 81 10000 3.1 30 15:40 23.08.2019
3186 Clouds 8 1014 81 10000 3.1 30 15:22 23.08.2019
3187 Clouds 7 1014 81 10000 2.6 30 14:58 23.08.2019
3188 Clouds 7 1014 81 10000 2.6 30 14:39 23.08.2019
3189 Clouds 7 1014 81 10000 2.6 30 14:20 23.08.2019
3190 Clouds 6 1014 87 10000 1.5 360 13:54 23.08.2019
3191 Clouds 6 1014 87 10000 1.5 360 13:36 23.08.2019
3192 Clouds 6 1014 87 10000 1.5 360 13:36 23.08.2019
3193 Clouds 6 1014 87 10000 1.5 360 13:18 23.08.2019
3194 Clouds 6 1014 87 10000 2.1 20 12:42 23.08.2019
3195 Clouds 6 1014 87 10000 2.1 20 12:22 23.08.2019
3196 Clouds 5 1014 93 10000 3.6 10 11:59 23.08.2019
3197 Clouds 5 1014 93 10000 3.6 10 11:40 23.08.2019
3198 Clouds 5 1014 93 10000 3.6 10 11:20 23.08.2019
3199 Clouds 5 1014 93 10000 4.1 10 10:57 23.08.2019
3200 Clouds 5 1014 93 10000 4.1 10 10:39 23.08.2019
3201 Clouds 5 1014 93 10000 4.1 10 10:20 23.08.2019
3202 Clear 5 1014 93 0 3.1 10 09:44 23.08.2019
3203 Clouds 5 1014 93 0 3.1 10 09:25 23.08.2019
3204 Clouds 5 1014 93 0 3.6 20 08:56 23.08.2019
3205 Clouds 5 1014 93 0 3.6 20 08:37 23.08.2019
3206 Clouds 5 1014 93 0 3.6 20 08:18 23.08.2019
3207 Clouds 5 1014 93 0 3.1 30 07:41 23.08.2019
3208 Clouds 5 1014 93 0 3.1 30 07:23 23.08.2019
3209 Clouds 6 1015 87 0 2.1 40 06:43 23.08.2019
3210 Clouds 6 1015 87 0 2.1 40 06:23 23.08.2019
3211 Clouds 5 1015 93 0 2.1 40 05:46 23.08.2019
3212 Clouds 5 1015 93 0 2.1 40 05:26 23.08.2019
3213 Clouds 6 1015 87 0 3.1 40 03:59 23.08.2019
3214 Clouds 6 1015 87 0 3.6 350 02:39 23.08.2019
3215 Clouds 6 1015 87 0 3.6 350 02:21 23.08.2019
3216 Clouds 7 1015 81 0 4.6 340 01:36 23.08.2019
3217 Clouds 7 1015 81 10000 4.6 350 00:43 23.08.2019
3218 Clouds 7 1015 81 10000 4.6 350 00:18 23.08.2019
3219 Clouds 7 1015 81 10000 6.2 330 23:43 22.08.2019
3220 Clouds 7 1015 81 10000 6.2 330 23:22 22.08.2019
3221 Clouds 8 1015 75 10000 5.1 330 22:43 22.08.2019
3222 Clouds 8 1015 75 10000 5.1 330 22:24 22.08.2019
3223 Clouds 8 1015 81 10000 3.1 10 21:59 22.08.2019
3224 Clouds 8 1015 81 10000 3.1 10 21:41 22.08.2019
3225 Clouds 8 1015 81 10000 3.1 10 21:23 22.08.2019
3226 Clouds 8 1015 75 10000 2.1 340 20:58 22.08.2019
3227 Clouds 8 1015 75 10000 2.1 340 20:40 22.08.2019
3228 Clouds 8 1015 75 10000 2.1 340 20:20 22.08.2019
3229 Clouds 8 1015 75 10000 2.1 340 20:20 22.08.2019
3230 Rain 9 1015 76 10000 2.1 20 19:57 22.08.2019
3231 Rain 9 1015 76 10000 2.1 20 19:39 22.08.2019
3232 Rain 9 1015 76 10000 2.1 20 19:20 22.08.2019
3233 Rain 8 1015 87 10000 1.5 20 18:58 22.08.2019
3234 Rain 8 1015 87 10000 1.5 20 18:39 22.08.2019
3235 Rain 8 1015 87 10000 1.5 20 18:20 22.08.2019
3236 Drizzle 7 1015 87 10000 2.1 360 17:56 22.08.2019
3237 Drizzle 7 1015 87 10000 2.1 360 17:38 22.08.2019
3238 Drizzle 7 1015 87 10000 2.1 360 17:19 22.08.2019
3239 Rain 8 1015 81 10000 1.5 300 16:56 22.08.2019
3240 Rain 8 1015 81 10000 1.5 300 16:37 22.08.2019
3241 Rain 8 1015 81 10000 1.5 300 16:19 22.08.2019
3242 Drizzle 6 1015 93 5000 1.5 320 15:42 22.08.2019
3243 Drizzle 6 1015 93 5000 1.5 320 15:42 22.08.2019
3244 Drizzle 6 1015 93 5000 1.5 320 15:42 22.08.2019
3245 Drizzle 6 1015 93 5000 1.5 320 15:24 22.08.2019
3246 Drizzle 6 1015 93 5000 1.5 320 15:24 22.08.2019
3247 Drizzle 6 1015 93 5000 1.5 320 15:24 22.08.2019
3248 Drizzle 7 1015 87 10000 2.1 260 14:59 22.08.2019
3249 Drizzle 7 1015 87 10000 2.1 260 14:41 22.08.2019
3250 Drizzle 7 1015 87 10000 2.1 260 14:21 22.08.2019
3251 Clouds 7 1015 81 10000 3.1 320 13:58 22.08.2019
3252 Clouds 7 1015 81 10000 3.1 320 13:39 22.08.2019
3253 Clouds 7 1015 81 10000 3.1 320 13:19 22.08.2019
3254 Clouds 6 1015 93 10000 1.5 10 12:56 22.08.2019
3255 Clouds 6 1015 93 10000 1.5 10 12:37 22.08.2019
3256 Clouds 6 1015 93 10000 1.5 10 12:19 22.08.2019
3257 Clouds 6 1015 93 10000 2.6 20 11:42 22.08.2019
3258 Clouds 6 1015 93 10000 2.6 20 11:20 22.08.2019
3259 Rain 6 1015 93 0 2.1 30 10:58 22.08.2019
3260 Rain 6 1015 93 0 2.1 30 10:40 22.08.2019
3261 Rain 6 1015 93 0 2.1 30 10:21 22.08.2019
3262 Snow 5 1015 100 0 2.64 295.507 09:57 22.08.2019
3263 Snow 5 1015 100 0 2.64 295.507 09:39 22.08.2019
3264 Snow 5 1015 100 0 2.64 295.507 09:39 22.08.2019
3265 Snow 5 1015 100 0 2.42 255.722 09:20 22.08.2019
3266 Snow 6 1015 93 0 2.1 340 08:54 22.08.2019
3267 Snow 6 1015 93 0 2.1 340 08:36 22.08.2019
3268 Snow 6 1015 93 0 2.1 340 08:18 22.08.2019
3269 Clouds 6 1015 87 0 1.5 0 07:39 22.08.2019
3270 Clouds 6 1015 87 0 1.5 0 07:19 22.08.2019
3271 Clouds 6 1015 93 0 2.1 30 06:47 22.08.2019
3272 Clouds 6 1015 93 0 2.1 30 06:22 22.08.2019
3273 Clouds 6 1015 93 0 3.1 310 05:36 22.08.2019
3274 Clouds 6 1015 93 0 2.1 30 04:20 22.08.2019
3275 Drizzle 6 1014 100 10000 1 30 02:38 22.08.2019
3276 Clouds 7 1014 87 10000 2.6 330 01:40 22.08.2019
3277 Clouds 7 1014 87 10000 2.6 330 01:21 22.08.2019
3278 Clouds 8 1014 75 10000 3.1 300 00:41 22.08.2019
3279 Clouds 8 1014 75 10000 3.1 300 00:22 22.08.2019
3280 Clouds 8 1014 81 10000 2.6 330 23:48 21.08.2019
3281 Clouds 8 1014 81 10000 2.6 330 23:29 21.08.2019
3282 Clouds 8 1014 75 10000 1.5 230 22:59 21.08.2019
3283 Clouds 8 1014 75 10000 1.5 230 22:40 21.08.2019
3284 Clouds 8 1014 75 10000 1.5 230 22:21 21.08.2019
3285 Clouds 7 1013 87 10000 2.1 210 21:57 21.08.2019
3286 Clouds 7 1013 87 10000 2.1 210 21:38 21.08.2019
3287 Clouds 7 1013 87 10000 2.1 210 21:19 21.08.2019
3288 Drizzle 6 1013 93 5000 3.1 200 20:56 21.08.2019
3289 Drizzle 6 1013 93 5000 3.1 200 20:56 21.08.2019
3290 Drizzle 6 1013 93 5000 3.1 200 20:38 21.08.2019
3291 Drizzle 6 1013 93 5000 3.1 200 20:20 21.08.2019
3292 Drizzle 6 1013 100 4000 3.6 200 19:44 21.08.2019
3293 Drizzle 6 1013 100 4000 3.6 200 19:44 21.08.2019
3294 Drizzle 6 1013 100 4000 3.6 200 19:25 21.08.2019
3295 Clouds 7 1013 81 10000 4.1 190 18:58 21.08.2019
3296 Clouds 7 1013 81 10000 4.1 190 18:39 21.08.2019
3297 Clouds 7 1013 81 10000 4.1 190 18:20 21.08.2019
3298 Clouds 6 1013 87 10000 3.6 200 17:45 21.08.2019
3299 Clouds 6 1013 87 10000 3.6 200 17:25 21.08.2019
3300 Clouds 6 1012 87 10000 3.6 240 16:59 21.08.2019
3301 Clouds 6 1012 87 10000 3.6 240 16:40 21.08.2019
3302 Clouds 6 1012 87 10000 3.6 240 16:21 21.08.2019
3303 Clouds 6 1012 87 10000 4.6 230 15:58 21.08.2019
3304 Clouds 6 1012 87 10000 4.6 230 15:39 21.08.2019
3305 Clouds 6 1012 87 10000 4.6 230 15:20 21.08.2019
3306 Clouds 6 1012 87 10000 3.6 230 14:57 21.08.2019
3307 Clouds 6 1012 87 10000 3.6 230 14:38 21.08.2019
3308 Clouds 6 1012 87 10000 3.6 230 14:19 21.08.2019
3309 Clouds 6 1012 87 10000 3.6 230 14:19 21.08.2019
3310 Clouds 6 1012 86 0 3.59 301.111 13:44 21.08.2019
3311 Clouds 6 1012 87 10000 3.6 200 13:21 21.08.2019
3312 Clouds 6 1012 87 10000 3.6 200 12:59 21.08.2019
3313 Clouds 6 1012 87 10000 3.6 200 12:59 21.08.2019
3314 Clouds 6 1012 87 10000 3.6 200 12:40 21.08.2019
3315 Clouds 6 1012 87 10000 3.6 200 12:21 21.08.2019
3316 Fog 5 1011 93 10000 2.6 200 11:57 21.08.2019
3317 Fog 5 1011 93 10000 2.6 200 11:39 21.08.2019
3318 Fog 5 1011 93 10000 2.6 200 11:21 21.08.2019
3319 Clouds 5 1011 93 0 2.1 230 10:56 21.08.2019
3320 Clouds 5 1011 93 0 2.1 230 10:37 21.08.2019
3321 Clouds 5 1011 93 0 2.1 230 10:19 21.08.2019
3322 Clouds 5 1011 93 0 2.6 220 09:43 21.08.2019
3323 Clouds 5 1011 93 0 2.6 220 09:23 21.08.2019
3324 Clouds 5 1011 93 0 2.1 240 08:59 21.08.2019
3325 Clouds 5 1011 93 0 2.1 240 08:41 21.08.2019
3326 Clouds 5 1011 93 0 2.1 240 08:21 21.08.2019
3327 Clouds 5 1011 100 0 2.1 220 07:40 21.08.2019
3328 Clouds 5 1011 100 0 2.1 220 07:21 21.08.2019
3329 Clouds 5 1011 100 0 2.1 230 06:49 21.08.2019
3330 Clouds 5 1011 100 0 2.1 230 06:22 21.08.2019
3331 Clouds 5 1011 100 0 2.6 220 05:42 21.08.2019
3332 Clouds 5 1011 100 0 2.6 220 05:23 21.08.2019
3333 Clouds 6 1011 93 10000 2.1 210 03:38 21.08.2019
3334 Clouds 6 1011 93 10000 3.6 210 01:50 21.08.2019
3335 Clouds 7 1011 87 10000 3.1 220 00:46 21.08.2019
3336 Clouds 7 1011 87 10000 3.1 220 00:24 21.08.2019
3337 Clouds 7 1011 87 10000 3.6 210 23:59 20.08.2019
3338 Clouds 7 1011 87 10000 3.6 210 23:41 20.08.2019
3339 Clouds 7 1011 87 10000 3.6 210 23:18 20.08.2019
3340 Clouds 7 1011 87 10000 4.6 220 22:56 20.08.2019
3341 Clouds 7 1011 87 10000 4.6 220 22:37 20.08.2019
3342 Clouds 7 1011 87 10000 4.6 220 22:19 20.08.2019
3343 Clouds 8 1010 81 10000 3.6 210 21:57 20.08.2019
3344 Clouds 8 1010 81 10000 3.6 210 21:37 20.08.2019
3345 Clouds 8 1010 81 10000 3.6 210 21:19 20.08.2019
3346 Clouds 9 1010 70 10000 3.6 210 20:43 20.08.2019
3347 Clouds 9 1010 70 10000 3.6 210 20:24 20.08.2019
3348 Clouds 9 1010 70 10000 3.6 210 20:24 20.08.2019
3349 Clouds 9 1010 70 10000 3.6 210 19:58 20.08.2019
3350 Clouds 9 1010 70 10000 3.6 210 19:38 20.08.2019
3351 Clouds 9 1010 70 10000 3.6 210 19:20 20.08.2019
3352 Clouds 8 1011 75 10000 3.6 220 18:55 20.08.2019
3353 Clouds 8 1011 75 10000 3.6 220 18:37 20.08.2019
3354 Clouds 8 1011 75 10000 3.6 220 18:18 20.08.2019
3355 Clouds 8 1011 75 10000 3.6 230 17:54 20.08.2019
3356 Clouds 8 1011 75 10000 3.6 230 17:36 20.08.2019
3357 Clouds 8 1011 75 10000 3.6 230 17:18 20.08.2019
3358 Clouds 8 1011 75 10000 3.1 230 16:41 20.08.2019
3359 Clouds 7 1011 75 10000 3.1 230 16:23 20.08.2019
3360 Clouds 7 1010 75 10000 2.6 230 15:41 20.08.2019
3361 Clouds 7 1010 75 10000 2.6 230 15:19 20.08.2019
3362 Clouds 7 1010 81 10000 1.5 250 14:56 20.08.2019
3363 Clouds 7 1010 81 10000 1.5 250 14:38 20.08.2019
3364 Clouds 7 1010 81 10000 1.5 250 14:19 20.08.2019
3365 Clouds 7 1010 81 10000 2.6 300 13:55 20.08.2019
3366 Clouds 7 1010 81 10000 2.6 300 13:37 20.08.2019
3367 Clouds 7 1010 81 10000 2.6 300 13:18 20.08.2019
3368 Clouds 7 1010 87 10000 2.6 320 12:48 20.08.2019
3369 Clouds 7 1010 87 10000 2.6 320 12:24 20.08.2019
3370 Clouds 6 1010 93 10000 1 310 11:56 20.08.2019
3371 Clouds 6 1010 93 10000 1 310 11:38 20.08.2019
3372 Clouds 6 1010 93 10000 1 310 11:18 20.08.2019
3373 Clouds 6 1010 93 10000 0.5 40 10:56 20.08.2019
3374 Clouds 6 1010 93 10000 0.5 40 10:37 20.08.2019
3375 Clouds 6 1010 93 10000 0.5 40 10:18 20.08.2019
3376 Clouds 6 1010 93 0 0.68 106.095 09:41 20.08.2019
3377 Clouds 6 1010 93 0 2.62 303.945 09:22 20.08.2019
3378 Clouds 6 1010 93 0 1 280 08:43 20.08.2019
3379 Clouds 6 1010 93 0 1 280 08:25 20.08.2019
3380 Clouds 6 1009 93 0 2.62 303.945 07:59 20.08.2019
3381 Clouds 6 1009 93 0 2.62 303.945 07:41 20.08.2019
3382 Clouds 6 1009 93 0 2.62 303.945 07:22 20.08.2019
3383 Clouds 6 1009 93 0 0.5 300 06:55 20.08.2019
3384 Clouds 7 1009 93 0 0.5 300 06:24 20.08.2019
3385 Clouds 7 1009 87 0 2.1 20 05:49 20.08.2019
3386 Clouds 7 1009 93 10000 1 360 04:56 20.08.2019
3387 Clouds 7 1010 93 10000 1.5 310 03:52 20.08.2019
3388 Clouds 7 1010 93 10000 2.1 330 02:36 20.08.2019
3389 Clouds 9 1010 81 10000 1 360 01:36 20.08.2019
3390 Clouds 9 1010 87 10000 2.6 30 00:51 20.08.2019
3391 Clouds 9 1010 87 10000 2.6 30 00:31 20.08.2019
3392 Clouds 10 1010 81 10000 3.6 340 23:57 19.08.2019
3393 Clouds 10 1010 81 10000 3.6 340 23:38 19.08.2019
3394 Clouds 10 1010 81 10000 3.6 340 23:18 19.08.2019
3395 Clouds 11 1010 76 10000 4.6 350 22:54 19.08.2019
3396 Clouds 11 1010 76 10000 4.6 350 22:36 19.08.2019
3397 Clouds 11 1010 76 10000 4.6 350 22:18 19.08.2019
3398 Clouds 11 1009 76 10000 4.6 340 21:55 19.08.2019
3399 Clouds 11 1009 76 10000 4.6 340 21:36 19.08.2019
3400 Clouds 11 1009 76 10000 4.6 340 21:18 19.08.2019
3401 Clouds 12 1009 76 10000 2.6 340 20:39 19.08.2019
3402 Clouds 11 1009 76 10000 2.6 340 20:20 19.08.2019
3403 Clouds 11 1010 81 10000 2.1 340 19:58 19.08.2019
3404 Clouds 11 1010 81 10000 2.1 340 19:39 19.08.2019
3405 Clouds 11 1010 81 10000 2.1 340 19:19 19.08.2019
3406 Clouds 12 1010 76 10000 3.1 340 18:46 19.08.2019
3407 Clouds 12 1010 76 10000 3.1 340 18:28 19.08.2019
3408 Clouds 10 1010 87 10000 2.6 30 17:59 19.08.2019
3409 Clouds 10 1010 87 10000 2.6 30 17:41 19.08.2019
3410 Clouds 10 1010 87 10000 2.6 30 17:41 19.08.2019
3411 Clouds 10 1010 87 10000 2.6 30 17:21 19.08.2019
3412 Drizzle 9 1010 93 4000 2.1 30 16:58 19.08.2019
3413 Drizzle 9 1010 93 4000 2.1 30 16:37 19.08.2019
3414 Drizzle 9 1010 93 4000 2.1 30 16:37 19.08.2019
3415 Drizzle 9 1010 93 4000 2.1 30 16:19 19.08.2019
3416 Fog 9 1010 93 10000 1.5 30 15:55 19.08.2019
3417 Fog 9 1010 93 10000 1.5 30 15:37 19.08.2019
3418 Fog 9 1010 93 10000 1.5 30 15:18 19.08.2019
3419 Fog 9 1010 87 10000 1.5 340 14:41 19.08.2019
3420 Fog 9 1010 87 10000 1.5 340 14:22 19.08.2019
3421 Clouds 8 1010 93 10000 0.5 360 13:57 19.08.2019
3422 Clouds 8 1010 93 10000 0.5 360 13:38 19.08.2019
3423 Clouds 8 1010 93 10000 0.5 360 13:38 19.08.2019
3424 Clouds 8 1010 93 10000 0.5 360 13:19 19.08.2019
3425 Clouds 8 1010 93 10000 0.5 360 13:19 19.08.2019
3426 Clouds 8 1010 100 10000 3.22 335.3 12:45 19.08.2019
3427 Clouds 8 1010 100 10000 1.44 354.769 12:25 19.08.2019
3428 Clouds 8 1010 93 10000 1.44 354.769 11:59 19.08.2019
3429 Clouds 8 1010 93 10000 1.44 354.769 11:39 19.08.2019
3430 Clouds 8 1010 93 10000 1.44 354.769 11:20 19.08.2019
3431 Fog 7 1010 100 0 1 120 10:55 19.08.2019
3432 Fog 7 1010 100 0 1 120 10:37 19.08.2019
3433 Fog 7 1010 100 0 1 120 10:18 19.08.2019
3434 Fog 7 1009 100 0 1.5 170 09:43 19.08.2019
3435 Fog 7 1009 100 0 1.5 170 09:22 19.08.2019
3436 Clouds 7 1009 100 0 3.1 190 08:56 19.08.2019
3437 Clouds 7 1009 100 0 3.1 190 08:38 19.08.2019
3438 Clouds 7 1009 100 0 3.1 190 08:18 19.08.2019
3439 Clouds 8 1009 93 0 3.1 190 07:44 19.08.2019
3440 Clouds 8 1009 93 0 3.1 190 07:26 19.08.2019
3441 Clouds 8 1009 93 0 3.1 190 06:47 19.08.2019
3442 Clouds 8 1009 93 0 3.1 190 06:25 19.08.2019
3443 Clouds 8 1009 93 0 3.6 180 04:54 19.08.2019
3444 Clouds 8 1009 93 0 3.6 180 04:25 19.08.2019
3445 Clouds 8 1009 93 0 4.1 180 03:21 19.08.2019
3446 Clouds 8 1009 93 10000 4.1 190 02:19 19.08.2019
3447 Clouds 9 1008 87 10000 4.6 180 01:21 19.08.2019
3448 Clouds 9 1008 87 10000 5.7 180 00:43 19.08.2019
3449 Clouds 9 1008 87 10000 5.7 180 00:23 19.08.2019
3450 Clouds 9 1008 93 10000 5.7 200 23:42 18.08.2019
3451 Clouds 9 1008 93 10000 5.7 200 23:21 18.08.2019
3452 Clouds 11 1008 81 10000 6.2 200 22:55 18.08.2019
3453 Clouds 11 1008 81 10000 6.2 200 22:37 18.08.2019
3454 Clouds 11 1008 81 10000 6.2 200 22:19 18.08.2019
3455 Clouds 9 1007 93 10000 3.6 210 21:55 18.08.2019
3456 Clouds 9 1007 93 10000 3.6 210 21:37 18.08.2019
3457 Clouds 9 1007 93 10000 3.6 210 21:18 18.08.2019
3458 Clouds 9 1007 93 10000 3.6 210 21:18 18.08.2019
3459 Clouds 9 1007 87 10000 4.1 200 20:42 18.08.2019
3460 Clouds 9 1007 87 10000 4.1 200 20:24 18.08.2019
3461 Clouds 10 1006 81 10000 4.6 200 19:55 18.08.2019
3462 Clouds 10 1006 81 10000 4.6 200 19:36 18.08.2019
3463 Clouds 10 1006 81 10000 4.6 200 19:18 18.08.2019
3464 Clouds 10 1006 81 10000 4.6 190 18:41 18.08.2019
3465 Clouds 10 1006 81 10000 4.6 190 18:23 18.08.2019
3466 Fog 8 1006 93 8000 3.1 210 17:58 18.08.2019
3467 Fog 8 1006 93 8000 3.1 210 17:40 18.08.2019
3468 Fog 8 1006 93 8000 3.1 210 17:19 18.08.2019
3469 Fog 9 1005 93 3000 4.1 210 16:56 18.08.2019
3470 Fog 9 1005 93 3000 4.1 210 16:38 18.08.2019
3471 Fog 9 1005 93 3000 4.1 210 16:19 18.08.2019
3472 Clouds 8 1005 100 10000 5.1 200 15:56 18.08.2019
3473 Clouds 8 1005 100 10000 5.1 200 15:56 18.08.2019
3474 Clouds 8 1005 100 10000 5.1 200 15:38 18.08.2019
3475 Clouds 8 1005 100 10000 5.1 200 15:20 18.08.2019
3476 Clouds 8 1004 100 10000 4.1 200 14:40 18.08.2019
3477 Clouds 8 1004 100 10000 4.1 200 14:21 18.08.2019
3478 Clouds 8 1004 100 10000 2.6 230 13:59 18.08.2019
3479 Clouds 8 1004 100 10000 2.6 230 13:41 18.08.2019
3480 Clouds 8 1004 100 10000 2.6 230 13:22 18.08.2019
3481 Clouds 8 1004 100 10000 1 200 12:58 18.08.2019
3482 Clouds 8 1004 100 10000 1 200 12:39 18.08.2019
3483 Clouds 8 1004 100 10000 1 200 12:20 18.08.2019
3484 Clouds 8 1004 93 10000 2.6 190 11:43 18.08.2019
3485 Clouds 8 1004 93 10000 2.6 190 11:43 18.08.2019
3486 Clouds 8 1004 93 10000 2.6 190 11:23 18.08.2019
3487 Rain 8 1004 93 0 1 0 10:59 18.08.2019
3488 Rain 8 1004 93 0 1 0 10:40 18.08.2019
3489 Rain 8 1004 93 0 1 0 10:19 18.08.2019
3490 Rain 8 1003 93 0 0.5 250 09:43 18.08.2019
3491 Rain 8 1003 93 0 0.5 250 09:20 18.08.2019
3492 Rain 8 1003 93 0 2.1 0 08:44 18.08.2019
3493 Rain 8 1003 93 0 2.1 0 08:25 18.08.2019
3494 Rain 8 1003 100 0 1.5 50 07:58 18.08.2019
3495 Rain 8 1003 100 0 1.5 50 07:30 18.08.2019
3496 Rain 8 1004 93 0 0.5 190 06:47 18.08.2019
3497 Rain 8 1004 100 0 1 260 05:43 18.08.2019
3498 Snow 8 1004 100 0 1 0 04:25 18.08.2019
3499 Snow 8 1005 100 0 4.1 180 03:20 18.08.2019
3500 Rain 9 1005 87 5000 4.6 190 02:42 18.08.2019
3501 Rain 9 1005 87 5000 4.6 190 02:18 18.08.2019
3502 Rain 9 1005 93 8000 3.6 140 01:27 18.08.2019
3503 Rain 7 1005 100 7000 5.7 190 00:43 18.08.2019
3504 Rain 7 1005 100 7000 5.7 190 00:23 18.08.2019
3505 Rain 8 1006 93 6000 5.7 200 23:58 17.08.2019
3506 Rain 8 1006 93 6000 5.7 200 23:38 17.08.2019
3507 Rain 8 1006 93 6000 5.7 200 23:20 17.08.2019
3508 Drizzle 8 1006 93 500 2.1 200 22:58 17.08.2019
3509 Drizzle 8 1006 93 500 2.1 200 22:58 17.08.2019
3510 Drizzle 8 1006 93 500 2.1 200 22:40 17.08.2019
3511 Drizzle 8 1006 93 500 2.1 200 22:21 17.08.2019
3512 Rain 8 1006 93 5000 1.51 26.139 21:55 17.08.2019
3513 Rain 8 1006 93 5000 1.51 26.139 21:55 17.08.2019
3514 Rain 8 1006 93 5000 1.51 26.139 21:37 17.08.2019
3515 Rain 8 1006 93 5000 0.76 322.679 21:19 17.08.2019
3516 Drizzle 8 1006 93 4000 2.1 190 20:39 17.08.2019
3517 Drizzle 8 1006 93 4000 2.1 190 20:20 17.08.2019
3518 Rain 8 1007 93 10000 1 280 19:56 17.08.2019
3519 Rain 8 1007 93 10000 1 280 19:38 17.08.2019
3520 Rain 8 1007 93 10000 1 280 19:19 17.08.2019
3521 Rain 8 1007 87 10000 1.5 210 18:39 17.08.2019
3522 Rain 8 1007 87 10000 1.5 210 18:19 17.08.2019
3523 Rain 8 1007 87 10000 1.5 210 18:19 17.08.2019
3524 Rain 8 1007 87 10000 1.5 210 18:19 17.08.2019
3525 Rain 8 1008 93 10000 3.6 350 17:56 17.08.2019
3526 Rain 8 1008 93 10000 3.6 350 17:38 17.08.2019
3527 Rain 8 1008 93 10000 3.6 350 17:19 17.08.2019
3528 Rain 10 1008 81 10000 1.5 0 16:43 17.08.2019
3529 Rain 10 1008 81 10000 1.5 0 16:25 17.08.2019
3530 Clouds 9 1009 87 10000 4.1 50 15:58 17.08.2019
3531 Clouds 9 1009 87 10000 4.1 50 15:39 17.08.2019
3532 Clouds 9 1009 87 10000 4.1 50 15:20 17.08.2019
3533 Clouds 9 1009 87 10000 2.1 30 14:41 17.08.2019
3534 Clouds 9 1009 87 10000 2.1 30 14:41 17.08.2019
3535 Clouds 9 1009 87 10000 2.1 30 14:41 17.08.2019
3536 Clouds 9 1009 87 10000 2.1 30 14:23 17.08.2019
3537 Clouds 8 1010 87 10000 2.6 20 13:49 17.08.2019
3538 Clouds 8 1010 87 10000 2.6 20 13:23 17.08.2019
3539 Clouds 8 1010 87 10000 2.6 20 13:23 17.08.2019
3540 Rain 8 1011 87 10000 0.5 0 12:58 17.08.2019
3541 Rain 8 1011 87 10000 0.5 0 12:40 17.08.2019
3542 Rain 8 1011 87 10000 0.5 0 12:19 17.08.2019
3543 Clouds 9 1011 81 10000 2.1 20 11:45 17.08.2019
3544 Clouds 9 1011 81 10000 2.1 20 11:21 17.08.2019
3545 Rain 10 1012 66 0 2.1 160 10:57 17.08.2019
3546 Rain 10 1012 66 0 2.1 160 10:39 17.08.2019
3547 Rain 10 1012 66 0 2.1 160 10:19 17.08.2019
3548 Rain 10 1012 71 0 3.6 190 09:49 17.08.2019
3549 Rain 10 1012 71 0 3.6 190 09:30 17.08.2019
3550 Rain 8 1013 87 0 4.6 190 08:54 17.08.2019
3551 Rain 10 1013 87 0 4.6 190 08:25 17.08.2019
3552 Rain 10 1013 81 0 5.1 180 07:52 17.08.2019
3553 Rain 10 1013 81 0 5.1 180 07:22 17.08.2019
3554 Clouds 10 1012 76 10000 8.7 180 06:55 17.08.2019
3555 Clouds 10 1012 66 10000 5.7 200 05:55 17.08.2019
3556 Clouds 11 1012 57 10000 2.1 190 04:30 17.08.2019
3557 Clouds 11 1012 57 10000 4.1 70 03:35 17.08.2019
3558 Clouds 10 1013 71 10000 5.7 40 01:48 17.08.2019
3559 Clouds 10 1013 71 10000 5.7 40 01:29 17.08.2019
3560 -273 0 0 0 0 0 00:55 17.08.2019
3561 Clouds 10 1013 71 10000 5.7 40 00:31 17.08.2019
3562 Clouds 11 1014 71 10000 4.6 40 23:57 16.08.2019
3563 Clouds 11 1014 71 10000 4.6 40 23:37 16.08.2019
3564 Clouds 11 1014 71 10000 4.6 40 23:18 16.08.2019
3565 Clouds 11 1014 71 10000 4.1 40 22:40 16.08.2019
3566 Clouds 11 1014 71 10000 4.1 40 22:19 16.08.2019
3567 Clouds 11 1014 71 10000 4.1 40 22:19 16.08.2019
3568 Clouds 11 1015 71 10000 3.6 50 21:42 16.08.2019
3569 Clouds 11 1015 71 10000 3.6 50 21:21 16.08.2019
3570 Clouds 11 1015 71 10000 3.1 40 20:58 16.08.2019
3571 Clouds 11 1015 71 10000 3.1 40 20:39 16.08.2019
3572 Clouds 11 1015 71 10000 3.1 40 20:19 16.08.2019
3573 Clouds 11 1015 66 10000 3.1 10 19:45 16.08.2019
3574 Clouds 11 1015 66 10000 3.1 10 19:23 16.08.2019
3575 Clouds 10 1016 76 10000 3.1 50 18:59 16.08.2019
3576 Clouds 10 1016 76 10000 3.1 50 18:41 16.08.2019
3577 Clouds 10 1016 76 10000 3.1 50 18:22 16.08.2019
3578 Clouds 10 1016 76 10000 4.1 20 17:44 16.08.2019
3579 Clouds 10 1016 76 10000 4.1 20 17:25 16.08.2019
3580 Clouds 9 1016 81 10000 3.6 40 16:56 16.08.2019
3581 Clouds 9 1016 81 10000 3.6 40 16:38 16.08.2019
3582 Clouds 9 1016 81 10000 3.6 40 16:18 16.08.2019
3583 Clouds 10 1016 76 10000 2.1 340 15:55 16.08.2019
3584 Clouds 10 1016 76 10000 2.1 340 15:37 16.08.2019
3585 Clouds 10 1016 76 10000 2.1 340 15:19 16.08.2019
3586 Clouds 10 1016 76 10000 0.5 320 14:42 16.08.2019
3587 Clouds 10 1016 76 10000 0.5 320 14:19 16.08.2019
3588 Clouds 8 1016 87 10000 1.5 340 13:59 16.08.2019
3589 Clouds 8 1016 87 10000 1.5 340 13:38 16.08.2019
3590 Clouds 8 1016 87 10000 1.5 340 13:20 16.08.2019
3591 Clouds 7 1016 87 10000 1 200 12:40 16.08.2019
3592 Clouds 7 1016 87 10000 1 200 12:20 16.08.2019
3593 Clouds 7 1016 87 10000 1 200 12:20 16.08.2019
3594 Clouds 6 1016 93 10000 1.5 200 11:55 16.08.2019
3595 Clouds 6 1016 93 10000 1.5 200 11:37 16.08.2019
3596 Clouds 6 1016 93 10000 1.5 200 11:18 16.08.2019
3597 Clouds 6 1015 93 0 3.6 200 10:42 16.08.2019
3598 Clouds 6 1015 93 0 3.6 200 10:20 16.08.2019
3599 Clouds 6 1015 93 0 4.6 190 09:39 16.08.2019
3600 Clouds 6 1015 93 0 4.6 190 09:19 16.08.2019
3601 Clouds 6 1015 93 0 5.1 190 08:58 16.08.2019
3602 Clouds 6 1015 93 0 5.1 190 08:39 16.08.2019
3603 Clouds 6 1015 93 0 5.1 190 08:19 16.08.2019
3604 Clouds 6 1015 93 0 5.7 200 07:45 16.08.2019
3605 Clouds 6 1015 93 0 5.7 200 07:26 16.08.2019
3606 Clouds 6 1014 93 0 5.7 200 06:55 16.08.2019
3607 Clouds 6 1014 93 0 5.7 200 06:19 16.08.2019
3608 Clouds 7 1014 87 0 5.1 200 05:34 16.08.2019
3609 Clouds 7 1014 81 0 4.6 160 03:20 16.08.2019
3610 Clouds 6 1013 87 10000 5.7 200 01:52 16.08.2019
3611 Clouds 6 1013 87 10000 5.7 200 01:25 16.08.2019
3612 Clouds 6 1013 87 10000 5.1 200 00:50 16.08.2019
3613 Clouds 6 1013 87 10000 5.1 200 00:24 16.08.2019
3614 Clouds 6 1013 81 10000 6.2 200 23:59 15.08.2019
3615 Clouds 7 1013 81 10000 6.2 200 23:41 15.08.2019
3616 Clouds 7 1013 81 10000 6.2 200 23:19 15.08.2019
3617 Clouds 7 1013 81 10000 6.2 200 22:41 15.08.2019
3618 Clouds 7 1013 81 10000 6.2 200 22:23 15.08.2019
3619 Clouds 7 1013 75 10000 6.2 200 21:59 15.08.2019
3620 Clouds 7 1013 75 10000 6.2 200 21:39 15.08.2019
3621 Clouds 7 1013 75 10000 6.2 200 21:20 15.08.2019
3622 Clouds 7 1013 75 10000 7.2 200 20:58 15.08.2019
3623 Clouds 7 1013 75 10000 7.2 200 20:58 15.08.2019
3624 Clouds 8 1013 75 10000 7.2 200 20:40 15.08.2019
3625 Clouds 8 1013 75 10000 7.2 200 20:21 15.08.2019
3626 Clouds 8 1013 75 10000 6.2 190 19:54 15.08.2019
3627 Clouds 8 1013 75 10000 6.2 190 19:36 15.08.2019
3628 Clouds 8 1013 75 10000 6.2 190 19:18 15.08.2019
3629 Clouds 7 1013 81 10000 5.7 190 18:41 15.08.2019
3630 Clouds 7 1013 81 10000 5.7 190 18:21 15.08.2019
3631 Clouds 7 1013 93 10000 6.2 200 17:55 15.08.2019
3632 Clouds 7 1013 93 10000 6.2 200 17:37 15.08.2019
3633 Clouds 7 1013 93 10000 6.2 200 17:19 15.08.2019
3634 Clouds 6 1013 93 10000 5.7 200 16:47 15.08.2019
3635 Clouds 6 1013 93 10000 5.7 200 16:25 15.08.2019
3636 Clouds 5 1013 100 10000 5.7 200 15:56 15.08.2019
3637 Clouds 5 1013 100 10000 5.7 200 15:38 15.08.2019
3638 Clouds 5 1013 100 10000 5.7 200 15:19 15.08.2019
3639 Drizzle 5 1013 100 10000 4.6 220 14:42 15.08.2019
3640 Drizzle 5 1013 100 10000 4.6 220 14:23 15.08.2019
3641 Drizzle 5 1013 100 7000 4.1 210 13:57 15.08.2019
3642 Drizzle 5 1013 100 7000 4.1 210 13:39 15.08.2019
3643 Drizzle 5 1013 100 7000 4.1 210 13:20 15.08.2019
3644 Drizzle 5 1012 93 6000 4.6 200 12:57 15.08.2019
3645 Drizzle 5 1012 93 6000 4.6 200 12:39 15.08.2019
3646 Drizzle 5 1012 93 6000 4.6 200 12:19 15.08.2019
3647 Drizzle 5 1012 93 10000 4.6 210 11:57 15.08.2019
3648 Drizzle 5 1012 93 10000 4.6 210 11:36 15.08.2019
3649 Drizzle 5 1012 93 10000 4.6 210 11:18 15.08.2019
3650 Drizzle 5 1012 93 10000 4.6 210 11:18 15.08.2019
3651 Clouds 5 1012 93 0 4.6 220 10:54 15.08.2019
3652 Clouds 5 1012 93 0 4.6 220 10:36 15.08.2019
3653 Clouds 5 1012 93 0 4.6 220 10:18 15.08.2019
3654 Clouds 5 1012 93 0 5.7 220 09:41 15.08.2019
3655 Clear 5 1012 93 0 5.7 220 09:21 15.08.2019
3656 Clear 5 1012 93 0 5.1 220 08:38 15.08.2019
3657 Clear 5 1012 93 0 5.1 220 08:19 15.08.2019
3658 Clear 5 1011 93 0 5.7 220 07:50 15.08.2019
3659 Clear 5 1011 93 0 5.7 220 07:32 15.08.2019
3660 Clear 5 1011 100 0 4.1 210 06:57 15.08.2019
3661 Clear 5 1011 100 0 4.1 210 06:39 15.08.2019
3662 Clear 5 1011 100 0 4.1 210 06:21 15.08.2019
3663 Clear 6 1011 93 0 2.1 220 05:29 15.08.2019
3664 Clear 6 1011 93 0 2.1 260 04:51 15.08.2019
3665 Clear 6 1011 93 0 2.6 280 03:49 15.08.2019
3666 Clouds 7 1011 87 0 3.1 280 02:52 15.08.2019
3667 Clouds 7 1011 87 0 3.1 280 02:24 15.08.2019
3668 Clouds 7 1010 87 0 3.1 270 01:39 15.08.2019
3669 Clouds 8 1010 81 10000 3.6 280 00:54 15.08.2019
3670 Clouds 8 1010 81 10000 3.6 280 00:36 15.08.2019
3671 Clouds 8 1010 81 10000 3.6 280 00:18 15.08.2019
3672 Clouds 10 1010 71 10000 4.1 280 23:54 14.08.2019
3673 Clouds 10 1010 71 10000 4.1 280 23:36 14.08.2019
3674 Clouds 10 1010 71 10000 4.1 280 23:18 14.08.2019
3675 Clouds 11 1010 66 10000 4.6 280 22:40 14.08.2019
3676 Clouds 11 1010 66 10000 4.6 280 22:22 14.08.2019
3677 Clouds 12 1010 62 10000 5.7 280 21:57 14.08.2019
3678 Clouds 12 1010 62 10000 5.7 280 21:38 14.08.2019
3679 Clouds 12 1010 62 10000 5.7 280 21:20 14.08.2019
3680 Clouds 14 1010 54 10000 2.6 320 20:56 14.08.2019
3681 Clouds 14 1010 54 10000 2.6 320 20:37 14.08.2019
3682 Clouds 14 1010 54 10000 2.6 320 20:18 14.08.2019
3683 Clouds 13 1010 54 10000 2.1 340 19:40 14.08.2019
3684 Clouds 14 1010 54 10000 2.1 340 19:22 14.08.2019
3685 Clouds 13 1010 58 10000 2.6 330 18:57 14.08.2019
3686 Clouds 13 1010 58 10000 2.6 330 18:39 14.08.2019
3687 Clouds 13 1010 58 10000 2.6 330 18:21 14.08.2019
3688 Clouds 12 1011 62 10000 3.1 20 17:59 14.08.2019
3689 Clouds 12 1011 62 10000 3.1 20 17:39 14.08.2019
3690 Clouds 12 1011 62 10000 3.1 20 17:21 14.08.2019
3691 Clouds 11 1011 66 10000 2.6 10 16:56 14.08.2019
3692 Clouds 11 1011 66 10000 2.6 10 16:38 14.08.2019
3693 Clouds 11 1011 66 10000 2.6 10 16:18 14.08.2019
3694 Clouds 11 1011 66 10000 2.6 10 16:18 14.08.2019
3695 Clouds 8 1011 81 10000 3.6 30 15:43 14.08.2019
3696 Clouds 8 1011 81 10000 3.6 30 15:18 14.08.2019
3697 Fog 5 1012 93 800 4.6 20 14:55 14.08.2019
3698 Fog 5 1012 93 800 4.6 20 14:55 14.08.2019
3699 Fog 5 1012 93 800 4.6 20 14:36 14.08.2019
3700 Fog 5 1012 93 800 4.6 20 14:36 14.08.2019
3701 Fog 5 1012 93 800 4.6 20 14:18 14.08.2019
3702 Fog 5 1012 93 500 3.6 360 13:43 14.08.2019
3703 Fog 5 1012 93 500 3.6 360 13:24 14.08.2019
3704 Fog 4 1012 100 400 3.6 360 12:57 14.08.2019
3705 Fog 4 1012 100 400 3.6 360 12:38 14.08.2019
3706 Fog 4 1012 100 400 3.6 360 12:38 14.08.2019
3707 Fog 4 1012 100 400 3.6 360 12:38 14.08.2019
3708 Fog 4 1012 100 400 3.6 360 12:20 14.08.2019
3709 Fog 4 1012 100 200 2.6 350 11:55 14.08.2019
3710 Fog 4 1012 100 200 2.6 350 11:37 14.08.2019
3711 Fog 4 1012 100 200 2.6 350 11:19 14.08.2019
3712 Clear 4 1012 100 0 1.5 360 10:42 14.08.2019
3713 Clear 4 1012 100 0 1.5 360 10:24 14.08.2019
3714 Clear 5 1012 93 0 2.1 20 09:56 14.08.2019
3715 Clear 5 1012 93 0 2.1 20 09:37 14.08.2019
3716 Clear 5 1012 93 0 2.1 20 09:19 14.08.2019
3717 Clear 5 1012 93 0 3.6 20 08:37 14.08.2019
3718 Clear 5 1012 93 0 3.6 20 08:19 14.08.2019
3719 Fog 5 1013 93 0 0.93 290.115 07:50 14.08.2019
3720 Fog 5 1013 93 0 0.93 290.115 07:31 14.08.2019
3721 Clear 5 1013 100 0 1.5 290 06:45 14.08.2019
3722 Clear 9 1013 61 0 2.1 360 05:54 14.08.2019
3723 Clear 9 1013 61 0 2.1 360 05:22 14.08.2019
3724 Clear 9 1013 70 0 2.6 60 03:38 14.08.2019
3725 Clouds 10 1013 66 0 2.6 20 02:33 14.08.2019
3726 Clouds 12 1013 54 0 3.1 20 01:48 14.08.2019
3727 Clouds 12 1013 54 0 3.1 20 01:18 14.08.2019
3728 Clouds 10 1013 46 0 4.39 286.137 23:50 13.08.2019
3729 Clouds 18 1011 31 10000 3.1 320 23:25 13.08.2019
3730 Clouds 18 1011 31 10000 3.1 320 23:00 13.08.2019
3731 Clouds 18 1011 31 10000 3.1 320 22:40 13.08.2019
3732 Clouds 18 1011 31 10000 3.1 320 22:40 13.08.2019
3733 Clouds 18 1011 31 10000 3.1 320 22:21 13.08.2019
3734 Clouds 19 1011 32 10000 4.1 300 21:58 13.08.2019
3735 Clouds 19 1011 32 10000 4.1 300 21:38 13.08.2019
3736 Clouds 19 1011 32 10000 4.1 300 21:19 13.08.2019
3737 Clouds 19 1011 34 10000 4.6 280 20:56 13.08.2019
3738 Clouds 19 1011 34 10000 4.6 280 20:37 13.08.2019
3739 Clouds 19 1011 34 10000 4.6 280 20:18 13.08.2019
3740 Clouds 19 1010 29 10000 4.1 280 19:43 13.08.2019
3741 Clouds 19 1010 29 10000 4.1 280 19:22 13.08.2019
3742 Clouds 18 1010 36 10000 2.6 300 18:59 13.08.2019
3743 Clouds 18 1010 36 10000 2.6 300 18:40 13.08.2019
3744 Clouds 18 1010 36 10000 2.6 300 18:20 13.08.2019
3745 Clouds 18 1010 27 10000 2.1 30 17:43 13.08.2019
3746 Clouds 18 1010 27 10000 2.1 30 17:22 13.08.2019
3747 Clouds 17 1010 33 10000 3.1 20 16:57 13.08.2019
3748 Clouds 17 1010 33 10000 3.1 20 16:39 13.08.2019
3749 Clouds 17 1010 33 10000 3.1 20 16:21 13.08.2019
3750 Clouds 15 1010 44 10000 3.6 40 15:59 13.08.2019
3751 Clouds 15 1010 44 10000 3.6 40 15:38 13.08.2019
3752 Clouds 15 1010 44 10000 3.6 40 15:19 13.08.2019
3753 Clouds 15 1010 44 10000 3.6 40 15:19 13.08.2019
3754 Clouds 13 1010 54 10000 3.6 40 14:42 13.08.2019
3755 Clouds 13 1010 54 10000 3.6 40 14:20 13.08.2019
3756 Clouds 14 1009 44 10000 1 0 13:57 13.08.2019
3757 Clouds 14 1009 44 10000 1 0 13:38 13.08.2019
3758 Clouds 14 1009 44 10000 1 0 13:18 13.08.2019
3759 Clouds 11 1009 66 10000 4.6 40 12:56 13.08.2019
3760 Clouds 11 1009 66 10000 4.6 40 12:37 13.08.2019
3761 Clouds 11 1009 66 10000 4.6 40 12:18 13.08.2019
3762 Clouds 11 1009 62 10000 3.6 40 11:42 13.08.2019
3763 Clouds 11 1009 62 10000 3.6 40 11:22 13.08.2019
3764 Clouds 12 1009 50 0 5.1 60 10:57 13.08.2019
3765 Clouds 12 1009 50 0 5.1 60 10:38 13.08.2019
3766 Clouds 12 1009 50 0 5.1 60 10:19 13.08.2019
3767 Clouds 10 1008 76 0 5.1 50 09:45 13.08.2019
3768 Clouds 10 1008 76 0 5.1 50 09:24 13.08.2019
3769 Clouds 10 1008 76 0 5.1 50 09:24 13.08.2019
3770 Clouds 10 1008 76 0 5.1 50 09:24 13.08.2019
3771 Clouds 10 1008 71 0 6.7 60 08:57 13.08.2019
3772 Clouds 10 1008 71 0 6.7 60 08:39 13.08.2019
3773 Clouds 10 1008 71 0 6.7 60 08:20 13.08.2019
3774 Clouds 11 1008 62 0 6.7 70 07:45 13.08.2019
3775 Clouds 11 1008 62 0 6.7 70 07:23 13.08.2019
3776 Clouds 10 1009 76 10000 7.7 60 06:44 13.08.2019
3777 Clouds 10 1009 71 10000 5.7 60 05:53 13.08.2019
3778 Clouds 10 1009 66 10000 4.1 40 04:36 13.08.2019
3779 Clouds 11 1010 62 10000 3.6 40 02:22 13.08.2019
3780 Clouds 13 1010 58 10000 2.6 30 01:38 13.08.2019
3781 Clouds 13 1010 62 10000 2.1 300 00:49 13.08.2019
3782 Clouds 13 1010 62 10000 2.1 300 00:22 13.08.2019
3783 Clouds 14 1009 58 10000 3.6 310 23:43 12.08.2019
3784 Clouds 14 1009 58 10000 3.6 310 23:21 12.08.2019
3785 Clouds 16 1009 55 10000 3.6 280 22:54 12.08.2019
3786 Clouds 16 1009 55 10000 3.6 280 22:36 12.08.2019
3787 Clouds 16 1009 55 10000 3.6 280 22:18 12.08.2019
3788 Clouds 17 1009 48 10000 1.5 320 21:54 12.08.2019
3789 Clouds 17 1009 48 10000 1.5 320 21:36 12.08.2019
3790 Clouds 17 1009 48 10000 1.5 320 21:36 12.08.2019
3791 Clouds 17 1009 48 10000 1.5 320 21:18 12.08.2019
3792 Clouds 16 1009 51 10000 2.6 330 20:41 12.08.2019
3793 Clouds 16 1009 51 10000 2.6 330 20:21 12.08.2019
3794 Clouds 14 1009 54 10000 2.1 330 19:58 12.08.2019
3795 Clouds 14 1009 54 10000 2.1 330 19:39 12.08.2019
3796 Clouds 14 1009 54 10000 2.1 330 19:20 12.08.2019
3797 Clouds 14 1009 54 10000 2.1 330 19:20 12.08.2019
3798 Clouds 15 1010 47 10000 3.6 20 18:58 12.08.2019
3799 Clouds 15 1010 47 10000 3.6 20 18:39 12.08.2019
3800 Clouds 15 1010 47 10000 3.6 20 18:20 12.08.2019
3801 Fog 12 1010 71 10000 3.6 20 17:55 12.08.2019
3802 Fog 12 1010 71 10000 3.6 20 17:37 12.08.2019
3803 Fog 12 1010 71 10000 3.6 20 17:19 12.08.2019
3804 Fog 10 1011 87 10000 4.1 30 16:39 12.08.2019
3805 Fog 10 1011 87 10000 4.1 30 16:20 12.08.2019
3806 Fog 8 1012 93 600 4.6 20 15:59 12.08.2019
3807 Fog 8 1012 93 600 4.6 20 15:59 12.08.2019
3808 Fog 8 1012 93 600 4.6 20 15:41 12.08.2019
3809 Fog 8 1012 93 600 4.6 20 15:39 12.08.2019
3810 Fog 8 1012 93 600 4.6 20 15:21 12.08.2019
3811 Fog 7 1012 100 600 5.1 40 14:55 12.08.2019
3812 Fog 7 1012 100 600 5.1 40 14:37 12.08.2019
3813 Fog 7 1012 100 600 5.1 40 14:18 12.08.2019
3814 Fog 7 1012 100 600 5.1 40 14:18 12.08.2019
3815 Fog 7 1013 100 400 3.6 20 13:42 12.08.2019
3816 Fog 7 1013 100 400 3.6 20 13:23 12.08.2019
3817 Fog 6 1013 100 300 3.1 20 12:57 12.08.2019
3818 Fog 6 1013 100 300 3.1 20 12:39 12.08.2019
3819 Fog 6 1013 100 300 3.1 20 12:18 12.08.2019
3820 Fog 6 1013 100 300 3.6 10 11:41 12.08.2019
3821 Fog 6 1013 100 300 3.6 10 11:23 12.08.2019
3822 Snow 5 1013 100 0 2.1 330 10:42 12.08.2019
3823 Snow 5 1013 100 0 2.1 330 10:23 12.08.2019
3824 Snow 5 1013 100 0 2.1 330 10:23 12.08.2019
3825 Fog 5 1014 100 0 2.1 10 09:56 12.08.2019
3826 Fog 5 1014 100 0 2.1 10 09:38 12.08.2019
3827 Fog 5 1014 100 0 2.1 10 09:19 12.08.2019
3828 -273 0 0 0 0 0 08:57 12.08.2019
3829 Fog 5 1014 100 0 1.5 220 08:38 12.08.2019
3830 Fog 5 1014 100 0 1.5 220 08:19 12.08.2019
3831 Snow 5 1014 100 0 0.5 160 07:49 12.08.2019
3832 Snow 5 1014 100 0 0.5 160 07:27 12.08.2019
3833 Snow 5 1014 100 0 4.1 200 06:47 12.08.2019
3834 Snow 5 1015 100 0 4.1 200 05:38 12.08.2019
3835 Snow 6 1015 93 0 3.6 210 02:44 12.08.2019
3836 Snow 6 1015 93 0 5.7 200 01:54 12.08.2019
3837 Snow 6 1015 93 0 5.7 200 01:21 12.08.2019
3838 Fog 7 1015 87 600 4.6 200 00:58 12.08.2019
3839 Fog 7 1015 87 600 4.6 200 00:38 12.08.2019
3840 Fog 7 1015 87 600 4.6 200 00:19 12.08.2019
3841 Fog 7 1015 87 3500 4.1 190 23:54 11.08.2019
3842 Fog 7 1015 87 3500 4.1 190 23:36 11.08.2019
3843 Fog 7 1015 87 3500 4.1 190 23:18 11.08.2019
3844 Fog 7 1015 87 3500 4.1 190 23:18 11.08.2019
3845 Fog 8 1015 81 4000 5.7 200 22:40 11.08.2019
3846 Fog 8 1015 81 4000 5.7 200 22:19 11.08.2019
3847 Fog 9 1016 76 10000 4.1 210 21:59 11.08.2019
3848 Fog 9 1016 76 10000 4.1 210 21:41 11.08.2019
3849 Fog 9 1016 76 10000 4.1 210 21:21 11.08.2019
3850 Fog 9 1016 76 10000 4.6 200 20:57 11.08.2019
3851 Fog 9 1016 76 10000 4.6 200 20:39 11.08.2019
3852 Fog 9 1016 76 10000 4.6 200 20:20 11.08.2019
3853 Fog 10 1016 71 10000 5.1 200 19:44 11.08.2019
3854 Fog 10 1016 71 10000 5.1 200 19:19 11.08.2019
3855 Fog 10 1016 76 10000 5.1 200 18:42 11.08.2019
3856 Fog 10 1016 76 10000 5.1 200 18:23 11.08.2019
3857 Fog 10 1016 76 10000 2.6 200 17:59 11.08.2019
3858 Fog 9 1016 76 10000 2.6 200 17:41 11.08.2019
3859 Fog 9 1016 76 10000 2.6 200 17:20 11.08.2019
3860 Fog 9 1017 81 10000 1 320 16:57 11.08.2019
3861 Fog 9 1017 81 10000 1 320 16:38 11.08.2019
3862 Fog 9 1017 81 10000 1 320 16:20 11.08.2019
3863 Fog 8 1017 81 1500 2.1 200 15:44 11.08.2019
3864 Fog 8 1017 81 1500 2.1 200 15:44 11.08.2019
3865 Fog 8 1017 81 1500 2.1 200 15:25 11.08.2019
3866 Fog 7 1017 93 600 1.5 240 14:59 11.08.2019
3867 Fog 7 1017 93 600 1.5 240 14:39 11.08.2019
3868 Fog 7 1017 93 600 1.5 240 14:21 11.08.2019
3869 Fog 6 1017 100 300 1.89 27.351 13:46 11.08.2019
3870 Fog 6 1017 100 300 0.77 39.996 13:26 11.08.2019
3871 Fog 5 1017 100 300 0.77 39.996 12:58 11.08.2019
3872 Fog 5 1017 100 300 0.77 39.996 12:38 11.08.2019
3873 Fog 5 1017 100 300 1.05 22.034 12:19 11.08.2019
3874 Fog 5 1017 100 400 2.1 350 11:40 11.08.2019
3875 Fog 5 1017 100 400 2.1 350 11:40 11.08.2019
3876 Fog 5 1017 100 400 2.1 350 11:22 11.08.2019
3877 Fog 5 1018 100 0 1.05 22.034 10:56 11.08.2019
3878 Fog 5 1018 100 0 1.05 22.034 10:38 11.08.2019
3879 Fog 5 1018 100 0 1.05 22.034 10:19 11.08.2019
3880 Fog 5 1018 100 0 1.05 22.034 09:43 11.08.2019
3881 Fog 5 1018 100 0 2.3 357.032 09:24 11.08.2019
3882 Fog 5 1018 100 0 2.06 0.807 08:58 11.08.2019
3883 Fog 5 1018 100 0 2.06 0.807 08:39 11.08.2019
3884 Fog 5 1018 100 0 2.06 0.807 08:20 11.08.2019
3885 Clear 5 1018 100 0 0.5 0 07:43 11.08.2019
3886 Clear 5 1018 100 0 0.5 0 07:18 11.08.2019
3887 Clear 5 1018 100 0 2.1 20 06:37 11.08.2019
3888 Clear 5 1019 100 0 1.5 10 05:19 11.08.2019
3889 Fog 7 1019 87 10000 1.5 250 02:53 11.08.2019
3890 Fog 7 1019 87 10000 1.5 250 02:25 11.08.2019
3891 Clear 7 1019 85 0 3.38 321.666 01:32 11.08.2019
3892 Clear 10 1020 71 10000 2.6 270 00:56 11.08.2019
3893 Clear 10 1020 71 10000 2.6 270 00:36 11.08.2019
3894 Clear 11 1020 71 0 2.68 200 23:57 10.08.2019
3895 Clear 11 1020 71 0 2.68 200 23:37 10.08.2019
3896 Clear 11 1020 71 10000 3.1 200 23:18 10.08.2019
3897 Clear 11 1020 71 10000 3.1 200 22:40 10.08.2019
3898 Clear 11 1020 71 10000 3.1 200 22:22 10.08.2019
3899 Clouds 11 1020 76 10000 3.1 200 21:55 10.08.2019
3900 Clouds 11 1020 76 10000 3.1 200 21:36 10.08.2019
3901 Clouds 11 1020 76 10000 3.1 200 21:18 10.08.2019
3902 Fog 11 1020 76 10000 3.6 190 20:42 10.08.2019
3903 Fog 11 1020 76 10000 3.6 190 20:21 10.08.2019
3904 Fog 11 1020 71 10000 3.6 190 19:56 10.08.2019
3905 Fog 11 1020 71 10000 3.6 190 19:37 10.08.2019
3906 Fog 11 1020 71 10000 3.6 190 19:19 10.08.2019
3907 Fog 10 1020 76 10000 4.1 190 18:39 10.08.2019
3908 Fog 10 1020 76 10000 4.1 190 18:20 10.08.2019
3909 Fog 9 1020 81 10000 4.1 200 17:44 10.08.2019
3910 Fog 9 1020 81 10000 4.1 200 17:24 10.08.2019
3911 Fog 9 1020 93 10000 4.6 200 16:46 10.08.2019
3912 Fog 9 1020 93 10000 4.6 200 16:28 10.08.2019
3913 Fog 6 1020 100 1500 3.1 200 15:54 10.08.2019
3914 Fog 6 1020 100 1500 3.1 200 15:25 10.08.2019
3915 Fog 6 1020 100 500 2.1 190 14:45 10.08.2019
3916 Fog 6 1020 100 500 2.1 190 14:22 10.08.2019
3917 Fog 6 1020 100 250 3.1 200 13:55 10.08.2019
3918 Fog 6 1020 100 250 3.1 200 13:37 10.08.2019
3919 Fog 6 1020 100 250 3.1 200 13:18 10.08.2019
3920 Fog 5 1020 100 200 2.6 200 12:41 10.08.2019
3921 Fog 5 1020 100 200 2.6 200 12:21 10.08.2019
3922 Snow 5 1020 100 0 3.1 190 11:54 10.08.2019
3923 Snow 5 1020 100 0 3.1 190 11:54 10.08.2019
3924 Snow 5 1020 100 0 3.1 190 11:36 10.08.2019
3925 Snow 5 1020 100 0 3.1 190 11:36 10.08.2019
3926 Snow 5 1020 100 0 3.1 190 11:18 10.08.2019
3927 Snow 5 1019 100 0 4.6 190 10:38 10.08.2019
3928 Snow 5 1019 100 0 4.6 190 10:20 10.08.2019
3929 Snow 5 1019 100 0 4.6 190 10:20 10.08.2019
3930 Snow 5 1019 100 0 5.1 200 09:44 10.08.2019
3931 Snow 5 1019 100 0 5.1 200 09:25 10.08.2019
3932 Snow 5 1019 100 0 3.6 180 08:59 10.08.2019
3933 Snow 5 1019 100 0 3.6 180 08:38 10.08.2019
3934 Snow 5 1019 100 0 3.6 180 08:18 10.08.2019
3935 Snow 5 1019 100 0 2.6 200 07:46 10.08.2019
3936 Snow 5 1019 100 0 2.6 200 07:25 10.08.2019
3937 Rain 5 1019 100 0 3.1 210 06:47 10.08.2019
3938 Rain 5 1019 100 0 3.1 210 06:18 10.08.2019
3939 Fog 6 1019 93 500 4.6 210 05:22 10.08.2019
3940 Fog 8 1018 87 10000 2.6 350 04:18 10.08.2019
3941 Clouds 10 1018 71 10000 3.6 10 02:51 10.08.2019
3942 Clouds 11 1018 71 10000 2.6 10 01:57 10.08.2019
3943 Clouds 11 1018 71 10000 2.6 10 01:37 10.08.2019
3944 Clouds 11 1018 71 10000 2.6 10 01:19 10.08.2019
3945 Clouds 13 1017 62 10000 2.6 360 00:43 10.08.2019
3946 Clouds 13 1017 62 10000 2.6 360 00:20 10.08.2019
3947 Clouds 15 1017 54 10000 2.6 20 23:41 09.08.2019
3948 Clouds 15 1017 54 10000 2.6 20 23:22 09.08.2019
3949 Clouds 15 1017 54 10000 3.6 20 22:56 09.08.2019
3950 Clouds 15 1017 54 10000 3.6 20 22:38 09.08.2019
3951 Clouds 15 1017 54 10000 3.6 20 22:19 09.08.2019
3952 Clouds 15 1017 54 10000 3.1 350 21:41 09.08.2019
3953 Clouds 15 1017 54 10000 3.1 350 21:41 09.08.2019
3954 Clouds 15 1017 54 10000 3.1 350 21:22 09.08.2019
3955 Clouds 15 1017 54 10000 3.6 320 20:58 09.08.2019
3956 Clouds 15 1017 54 10000 3.6 320 20:39 09.08.2019
3957 Clouds 15 1017 54 10000 3.6 320 20:20 09.08.2019
3958 Clouds 16 1017 55 10000 3.1 310 19:56 09.08.2019
3959 Clouds 16 1017 55 10000 3.1 310 19:37 09.08.2019
3960 Clouds 16 1017 55 10000 3.1 310 19:18 09.08.2019
3961 Clouds 15 1017 58 10000 2.6 320 18:39 09.08.2019
3962 Clouds 15 1017 58 10000 2.6 320 18:21 09.08.2019
3963 Clouds 14 1017 62 10000 2.6 40 17:46 09.08.2019
3964 Clouds 14 1017 62 10000 2.6 40 17:26 09.08.2019
3965 Clouds 12 1017 71 10000 3.1 30 16:59 09.08.2019
3966 Clouds 12 1017 71 10000 3.1 30 16:40 09.08.2019
3967 Clouds 12 1017 71 10000 3.1 30 16:21 09.08.2019
3968 Clouds 10 1017 81 10000 3.1 30 15:56 09.08.2019
3969 Clouds 10 1017 81 10000 3.1 30 15:56 09.08.2019
3970 Clouds 10 1017 81 10000 3.1 30 15:37 09.08.2019
3971 Clouds 10 1017 81 10000 3.1 30 15:18 09.08.2019
3972 Fog 8 1017 100 10000 4.1 330 14:44 09.08.2019
3973 Fog 8 1017 100 10000 4.1 330 14:22 09.08.2019
3974 Fog 6 1017 100 200 3.6 360 13:56 09.08.2019
3975 Fog 6 1017 100 200 3.6 360 13:38 09.08.2019
3976 Fog 6 1017 100 200 3.6 360 13:19 09.08.2019
3977 Fog 6 1017 100 200 4.6 20 12:44 09.08.2019
3978 Fog 6 1017 100 200 4.6 20 12:23 09.08.2019
3979 Fog 5 1018 100 800 5.1 10 11:57 09.08.2019
3980 Fog 5 1018 100 800 5.1 10 11:37 09.08.2019
3981 Fog 5 1018 100 800 5.1 10 11:18 09.08.2019
3982 Snow 5 1018 100 0 4.6 10 10:40 09.08.2019
3983 Snow 5 1018 100 0 4.6 10 10:21 09.08.2019
3984 Snow 5 1017 100 0 4.6 20 09:45 09.08.2019
3985 Snow 5 1017 100 0 4.6 20 09:20 09.08.2019
3986 Snow 5 1017 100 0 3.6 10 08:56 09.08.2019
3987 Snow 5 1017 100 0 3.6 10 08:37 09.08.2019
3988 Snow 5 1017 100 0 3.6 10 08:18 09.08.2019
3989 Snow 6 1017 93 0 3.6 20 07:43 09.08.2019
3990 Snow 6 1017 93 0 3.6 20 07:22 09.08.2019
3991 Snow 6 1018 100 0 3.1 10 06:54 09.08.2019
3992 Snow 6 1018 100 0 3.1 10 06:27 09.08.2019
3993 Mist 6 1018 100 0 3.1 20 05:50 09.08.2019
3994 Fog 8 1017 87 10000 1.5 260 02:33 09.08.2019
3995 Fog 9 1017 81 10000 1.5 270 01:45 09.08.2019
3996 Fog 12 1017 71 10000 3.1 300 00:45 09.08.2019
3997 Fog 12 1017 71 10000 3.1 300 00:45 09.08.2019
3998 Fog 12 1017 71 10000 3.1 300 00:26 09.08.2019
3999 Clouds 13 1017 66 10000 3.1 320 23:59 08.08.2019
4000 Clouds 13 1017 66 10000 3.1 320 23:59 08.08.2019
4001 Clouds 13 1017 66 10000 3.1 320 23:38 08.08.2019
4002 Clouds 13 1017 66 10000 3.1 320 23:19 08.08.2019
4003 Clouds 14 1017 62 10000 3.1 310 22:57 08.08.2019
4004 Clouds 14 1017 62 10000 3.1 310 22:37 08.08.2019
4005 Clouds 14 1017 62 10000 3.1 310 22:37 08.08.2019
4006 Clouds 14 1017 62 10000 3.1 310 22:18 08.08.2019
4007 Clouds 14 1017 62 10000 4.1 300 21:57 08.08.2019
4008 Clouds 14 1017 62 10000 4.1 300 21:38 08.08.2019
4009 Clouds 15 1017 62 10000 4.1 300 21:20 08.08.2019
4010 Clouds 15 1017 58 10000 2.6 330 20:42 08.08.2019
4011 Clouds 15 1017 58 10000 2.6 330 20:22 08.08.2019
4012 Clouds 14 1017 62 10000 4.1 300 19:59 08.08.2019
4013 Clouds 14 1017 62 10000 4.1 300 19:40 08.08.2019
4014 Clouds 14 1017 62 10000 4.1 300 19:20 08.08.2019
4015 Clouds 14 1017 62 10000 3.1 280 18:41 08.08.2019
4016 Clouds 14 1017 62 10000 3.1 280 18:22 08.08.2019
4017 Clouds 13 1017 66 10000 3.6 20 17:55 08.08.2019
4018 Clouds 13 1017 66 10000 3.6 20 17:37 08.08.2019
4019 Clouds 13 1017 66 10000 3.6 20 17:18 08.08.2019
4020 Clouds 10 1017 81 10000 3.1 30 16:42 08.08.2019
4021 Clouds 10 1017 81 10000 3.1 30 16:24 08.08.2019
4022 Clouds 9 1017 87 10000 3.6 10 15:58 08.08.2019
4023 Clouds 9 1017 87 10000 3.6 10 15:39 08.08.2019
4024 Clouds 9 1017 87 10000 3.6 10 15:21 08.08.2019
4025 Clouds 8 1017 87 10000 4.1 20 14:42 08.08.2019
4026 Clouds 8 1017 87 10000 4.1 20 14:23 08.08.2019
4027 Clouds 7 1018 93 10000 4.6 30 13:59 08.08.2019
4028 Clouds 7 1018 93 10000 4.6 30 13:59 08.08.2019
4029 Clouds 7 1018 93 10000 4.6 30 13:38 08.08.2019
4030 Clouds 7 1018 93 10000 4.6 30 13:18 08.08.2019
4031 Clouds 7 1018 93 10000 3.6 20 12:40 08.08.2019
4032 Clouds 7 1018 93 10000 3.6 20 12:20 08.08.2019
4033 Clouds 7 1018 93 10000 4.1 30 11:56 08.08.2019
4034 Clouds 7 1018 93 10000 4.1 30 11:37 08.08.2019
4035 Clouds 7 1018 93 10000 4.1 30 11:19 08.08.2019
4036 Clouds 6 1018 100 0 4.6 20 10:41 08.08.2019
4037 Clouds 6 1018 100 0 4.6 20 10:41 08.08.2019
4038 Clouds 6 1018 100 0 4.6 20 10:21 08.08.2019
4039 Mist 6 1018 93 0 3.1 10 09:49 08.08.2019
4040 Mist 6 1018 93 0 3.1 10 09:30 08.08.2019
4041 Mist 6 1019 93 0 2.6 10 08:57 08.08.2019
4042 Mist 6 1019 93 0 2.6 10 08:38 08.08.2019
4043 Mist 6 1019 93 0 2.6 10 08:18 08.08.2019
4044 Clouds 5 1019 100 0 2.6 50 07:40 08.08.2019
4045 Clouds 5 1019 100 0 2.6 50 07:20 08.08.2019
4046 Clouds 5 1019 100 0 2.1 30 06:47 08.08.2019
4047 Clouds 5 1019 100 0 2.1 30 06:27 08.08.2019
4048 Mist 5 1020 100 0 0.5 210 05:53 08.08.2019
4049 Clouds 6 1020 93 0 1.5 190 04:54 08.08.2019
4050 Clouds 6 1020 93 0 1.5 200 03:53 08.08.2019
4051 Clouds 6 1020 93 0 1.5 220 02:28 08.08.2019
4052 Clouds 6 1020 93 10000 2.6 220 01:36 08.08.2019
4053 Clouds 7 1020 87 10000 3.1 210 00:26 08.08.2019
4054 Clouds 7 1020 87 10000 2.6 200 23:51 07.08.2019
4055 Clouds 7 1020 87 10000 2.6 200 23:20 07.08.2019
4056 Clouds 7 1020 87 10000 2.6 220 22:56 07.08.2019
4057 Clouds 7 1020 87 10000 2.6 220 22:38 07.08.2019
4058 Clouds 7 1020 87 10000 2.6 220 22:19 07.08.2019
4059 Clouds 8 1020 81 10000 2.6 210 21:56 07.08.2019
4060 Clouds 8 1020 81 10000 2.6 210 21:37 07.08.2019
4061 Clouds 8 1020 81 10000 2.6 210 21:18 07.08.2019
4062 Clouds 8 1020 81 10000 2.6 200 20:43 07.08.2019
4063 Clouds 8 1020 81 10000 2.6 200 20:24 07.08.2019
4064 Clouds 8 1020 81 10000 3.6 220 19:58 07.08.2019
4065 Clouds 8 1020 81 10000 3.6 220 19:39 07.08.2019
4066 Clouds 8 1020 81 10000 3.6 220 19:21 07.08.2019
4067 Clouds 9 1020 81 10000 3.1 210 18:44 07.08.2019
4068 Clouds 9 1020 81 10000 3.1 210 18:22 07.08.2019
4069 Clouds 7 1021 93 10000 5.1 200 17:59 07.08.2019
4070 Clouds 7 1021 93 10000 5.1 200 17:40 07.08.2019
4071 Clouds 7 1021 93 10000 5.1 200 17:21 07.08.2019
4072 Clouds 7 1021 93 10000 5.1 200 17:21 07.08.2019
4073 Drizzle 7 1021 93 10000 5.1 200 16:57 07.08.2019
4074 Drizzle 7 1021 93 10000 5.1 200 16:39 07.08.2019
4075 Drizzle 7 1021 93 10000 5.1 200 16:21 07.08.2019
4076 Drizzle 6 1021 100 500 4.6 200 15:57 07.08.2019
4077 Drizzle 6 1021 100 500 4.6 200 15:38 07.08.2019
4078 Drizzle 6 1021 100 500 4.6 200 15:19 07.08.2019
4079 Drizzle 6 1021 100 300 4.1 200 14:49 07.08.2019
4080 Drizzle 6 1021 100 300 4.1 200 14:49 07.08.2019
4081 Drizzle 6 1021 100 300 4.1 200 14:28 07.08.2019
4082 Drizzle 6 1021 100 300 3.1 210 13:56 07.08.2019
4083 Drizzle 6 1021 100 300 3.1 210 13:38 07.08.2019
4084 Drizzle 6 1021 100 300 3.1 210 13:18 07.08.2019
4085 Drizzle 6 1021 93 300 4.6 200 12:55 07.08.2019
4086 Drizzle 6 1021 93 300 4.6 200 12:36 07.08.2019
4087 Drizzle 6 1021 93 300 4.6 200 12:18 07.08.2019
4088 Drizzle 5 1021 100 1000 4.6 190 11:43 07.08.2019
4089 Drizzle 5 1021 100 1000 4.6 190 11:21 07.08.2019
4090 Clouds 6 1021 93 0 5.1 200 10:57 07.08.2019
4091 Clouds 5 1021 93 0 5.1 200 10:39 07.08.2019
4092 Clouds 5 1021 93 0 5.1 200 10:18 07.08.2019
4093 Mist 5 1020 100 0 3.6 210 09:45 07.08.2019
4094 Mist 5 1020 100 0 3.6 210 09:22 07.08.2019
4095 Fog 5 1021 100 0 3.6 210 08:57 07.08.2019
4096 Fog 5 1021 100 0 3.6 210 08:39 07.08.2019
4097 Fog 5 1021 100 0 3.6 210 08:21 07.08.2019
4098 Clouds 5 1021 100 0 5.1 200 07:43 07.08.2019
4099 Clouds 5 1021 100 0 5.1 200 07:21 07.08.2019
4100 Clouds 6 1021 93 0 4.6 200 06:31 07.08.2019
4101 Clouds 6 1021 93 0 5.1 200 05:56 07.08.2019
4102 Clouds 5 1021 100 0 4.6 200 04:57 07.08.2019
4103 Fog 5 1020 100 10000 5.1 190 03:21 07.08.2019
4104 Fog 6 1020 93 10000 5.7 200 02:50 07.08.2019
4105 Fog 6 1020 93 10000 5.7 200 02:22 07.08.2019
4106 Clouds 6 1020 93 10000 5.7 200 01:42 07.08.2019
4107 Clouds 7 1020 87 10000 7.2 190 00:51 07.08.2019
4108 Clouds 7 1020 87 10000 7.2 190 00:22 07.08.2019
4109 Fog 6 1019 93 10000 4.6 220 23:44 06.08.2019
4110 Fog 6 1019 93 10000 4.6 220 23:22 06.08.2019
4111 Fog 7 1019 87 10000 4.1 220 22:58 06.08.2019
4112 Fog 7 1019 87 10000 4.1 220 22:38 06.08.2019
4113 Fog 7 1019 87 10000 4.1 220 22:20 06.08.2019
4114 Fog 7 1019 87 10000 4.1 220 22:20 06.08.2019
4115 Clouds 7 1019 81 10000 4.6 200 21:44 06.08.2019
4116 Clouds 7 1019 81 10000 4.6 200 21:26 06.08.2019
4117 Clouds 7 1019 81 10000 4.6 200 20:59 06.08.2019
4118 Clouds 8 1019 81 10000 4.6 200 20:41 06.08.2019
4119 Clouds 8 1019 81 10000 4.6 200 20:22 06.08.2019
4120 Clouds 8 1018 81 10000 3.6 200 19:47 06.08.2019
4121 Clouds 8 1018 81 10000 3.6 200 19:28 06.08.2019
4122 -273 0 0 0 0 0 18:55 06.08.2019
4123 Clouds 8 1018 81 10000 2.6 190 18:36 06.08.2019
4124 Clouds 8 1018 81 10000 2.6 190 18:18 06.08.2019
4125 Fog 8 1018 81 10000 2.1 200 17:56 06.08.2019
4126 Fog 8 1018 81 10000 2.1 200 17:56 06.08.2019
4127 Fog 7 1018 81 10000 2.1 200 17:36 06.08.2019
4128 Fog 7 1018 81 10000 2.1 200 17:18 06.08.2019
4129 Fog 7 1018 87 10000 2.1 200 16:42 06.08.2019
4130 Fog 7 1018 87 10000 2.1 200 16:24 06.08.2019
4131 Fog 7 1018 87 4000 2.6 190 15:57 06.08.2019
4132 Fog 7 1018 87 4000 2.6 190 15:39 06.08.2019
4133 Fog 7 1018 87 4000 2.6 190 15:20 06.08.2019
4134 Fog 6 1018 93 2500 1.5 160 14:45 06.08.2019
4135 Fog 6 1018 93 2500 1.5 160 14:26 06.08.2019
4136 Fog 5 1018 100 400 1.5 200 13:58 06.08.2019
4137 Fog 5 1018 100 400 1.5 200 13:40 06.08.2019
4138 Fog 5 1018 100 400 1.5 200 13:22 06.08.2019
4139 Fog 5 1017 100 400 1.5 210 12:58 06.08.2019
4140 Fog 5 1017 100 400 1.5 210 12:39 06.08.2019
4141 Fog 5 1017 100 400 1.5 210 12:21 06.08.2019
4142 Fog 5 1017 100 800 1.5 160 11:43 06.08.2019
4143 Fog 5 1017 100 800 1.5 160 11:43 06.08.2019
4144 Fog 5 1017 100 800 1.5 160 11:19 06.08.2019
4145 Fog 5 1017 93 0 1.5 210 10:56 06.08.2019
4146 Fog 5 1017 93 0 1.5 210 10:56 06.08.2019
4147 Fog 5 1017 93 0 1.5 210 10:38 06.08.2019
4148 Fog 5 1017 93 0 1.5 210 10:19 06.08.2019
4149 Fog 5 1017 93 0 2.1 280 09:41 06.08.2019
4150 Fog 5 1017 93 0 2.1 280 09:20 06.08.2019
4151 Fog 5 1017 100 0 0.5 0 08:49 06.08.2019
4152 Fog 5 1017 100 0 0.5 0 08:27 06.08.2019
4153 Fog 5 1016 100 0 0.5 200 07:59 06.08.2019
4154 Fog 5 1016 100 0 0.5 200 07:29 06.08.2019
4155 Fog 5 1016 100 0 2.1 300 06:44 06.08.2019
4156 Fog 5 1016 100 0 2.1 300 06:21 06.08.2019
4157 Fog 6 1016 93 0 2.1 290 05:21 06.08.2019
4158 Clouds 7 1016 93 10000 1.5 240 02:48 06.08.2019
4159 Clouds 8 1016 87 10000 1.5 260 01:25 06.08.2019
4160 Clouds 10 1017 76 10000 1.5 250 00:51 06.08.2019
4161 Clouds 10 1017 76 10000 2.1 200 23:59 05.08.2019
4162 Clouds 10 1017 76 10000 2.1 200 23:20 05.08.2019
4163 Clouds 10 1017 76 10000 2.6 200 22:42 05.08.2019
4164 Clouds 10 1017 76 10000 2.6 200 22:23 05.08.2019
4165 Clouds 10 1017 71 10000 3.6 200 21:59 05.08.2019
4166 Clouds 10 1017 71 10000 3.6 200 21:41 05.08.2019
4167 Clouds 10 1017 71 10000 3.6 200 21:20 05.08.2019
4168 Clouds 10 1018 71 10000 4.1 200 20:57 05.08.2019
4169 Clouds 10 1018 71 10000 4.1 200 20:39 05.08.2019
4170 Clouds 10 1018 71 10000 4.1 200 20:21 05.08.2019
4171 Clouds 10 1018 71 10000 4.1 200 20:21 05.08.2019
4172 Fog 10 1018 71 10000 3.6 200 19:55 05.08.2019
4173 Fog 10 1018 71 10000 3.6 200 19:37 05.08.2019
4174 Fog 8 1018 71 10000 3.6 200 19:18 05.08.2019
4175 Fog 9 1018 66 10000 2.6 200 18:41 05.08.2019
4176 Fog 9 1018 66 10000 2.6 200 18:20 05.08.2019
4177 Fog 8 1018 75 10000 3.1 200 17:47 05.08.2019
4178 Fog 8 1018 75 10000 3.1 200 17:29 05.08.2019
4179 Fog 7 1019 81 10000 2.1 210 16:59 05.08.2019
4180 Fog 7 1019 81 10000 2.1 210 16:40 05.08.2019
4181 Fog 7 1019 81 10000 2.1 210 16:22 05.08.2019
4182 Fog 5 1019 87 2000 1 0 15:40 05.08.2019
4183 Fog 5 1019 87 2000 1 0 15:20 05.08.2019
4184 Fog 5 1019 93 500 1.5 250 14:42 05.08.2019
4185 Fog 5 1019 93 500 1.5 250 14:22 05.08.2019
4186 Fog 4 1020 100 300 1.5 230 13:49 05.08.2019
4187 Fog 4 1020 100 300 1.5 230 13:24 05.08.2019
4188 Fog 4 1020 100 250 2.6 210 12:56 05.08.2019
4189 Fog 4 1020 100 250 2.6 210 12:37 05.08.2019
4190 Fog 4 1020 100 250 2.6 210 12:18 05.08.2019
4191 Fog 4 1020 93 250 2.6 210 11:42 05.08.2019
4192 Fog 4 1020 93 250 2.6 210 11:24 05.08.2019
4193 Snow 4 1020 100 0 3.1 210 10:46 05.08.2019
4194 Snow 4 1020 100 0 3.1 210 10:28 05.08.2019
4195 -273 0 0 0 0 0 09:56 05.08.2019
4196 Rain 4 1020 93 0 3.6 200 09:56 05.08.2019
4197 Rain 4 1020 93 0 3.6 200 09:37 05.08.2019
4198 Rain 4 1020 93 0 3.6 200 09:19 05.08.2019
4199 Rain 4 1020 100 0 3.1 200 08:43 05.08.2019
4200 Rain 4 1020 100 0 3.1 200 08:23 05.08.2019
4201 Rain 4 1020 100 0 3.1 200 07:47 05.08.2019
4202 Rain 4 1020 100 0 3.1 200 07:27 05.08.2019
4203 Snow 4 1020 100 0 3.1 210 06:51 05.08.2019
4204 Snow 4 1020 100 0 3.1 210 06:19 05.08.2019
4205 Snow 4 1021 100 0 3.6 200 05:23 05.08.2019
4206 Fog 4 1021 100 500 3.6 210 04:35 05.08.2019
4207 Fog 4 1021 100 900 4.1 200 03:50 05.08.2019
4208 Fog 5 1020 93 900 4.1 190 02:38 05.08.2019
4209 Fog 6 1020 93 10000 4.6 190 01:41 05.08.2019
4210 Fog 8 1020 81 10000 4.1 200 00:59 05.08.2019
4211 Fog 8 1020 81 10000 4.1 200 00:39 05.08.2019
4212 Fog 8 1020 81 10000 4.1 200 00:18 05.08.2019
4213 Fog 9 1020 81 10000 4.1 200 23:41 04.08.2019
4214 Fog 9 1020 81 10000 4.1 200 23:22 04.08.2019
4215 Fog 10 1020 76 10000 3.6 200 22:57 04.08.2019
4216 Fog 10 1020 76 10000 3.6 200 22:38 04.08.2019
4217 Fog 10 1020 76 10000 3.6 200 22:19 04.08.2019
4218 Fog 10 1020 76 10000 3.6 200 22:19 04.08.2019
4219 Clouds 11 1020 71 10000 4.1 190 21:45 04.08.2019
4220 Clouds 11 1020 71 10000 4.1 190 21:24 04.08.2019
4221 Clouds 11 1020 66 10000 4.1 190 20:59 04.08.2019
4222 Clouds 12 1020 66 10000 4.1 190 20:41 04.08.2019
4223 Clouds 12 1020 66 10000 4.1 190 20:18 04.08.2019
4224 Clouds 11 1019 71 10000 3.6 200 19:48 04.08.2019
4225 Clouds 11 1019 71 10000 3.6 200 19:28 04.08.2019
4226 Clouds 11 1019 71 10000 3.6 210 18:58 04.08.2019
4227 Clouds 11 1019 71 10000 3.6 210 18:40 04.08.2019
4228 Clouds 11 1019 71 10000 3.6 210 18:20 04.08.2019
4229 Fog 11 1020 76 10000 3.1 200 17:43 04.08.2019
4230 Fog 11 1020 76 10000 3.1 200 17:22 04.08.2019
4231 Fog 11 1020 76 10000 2.6 190 16:45 04.08.2019
4232 Fog 11 1020 76 10000 2.6 190 16:26 04.08.2019
4233 Fog 10 1020 81 10000 2.1 200 15:55 04.08.2019
4234 Fog 10 1020 81 10000 2.1 200 15:37 04.08.2019
4235 Fog 10 1020 81 10000 2.1 200 15:37 04.08.2019
4236 Fog 10 1020 81 10000 2.1 200 15:37 04.08.2019
4237 Fog 10 1020 81 10000 2.1 200 15:18 04.08.2019
4238 Fog 10 1019 76 10000 1.5 220 14:42 04.08.2019
4239 Fog 10 1019 76 10000 1.5 220 14:21 04.08.2019
4240 Fog 8 1019 87 10000 1 320 13:43 04.08.2019
4241 Fog 8 1019 87 10000 1 320 13:24 04.08.2019
4242 Fog 6 1019 100 10000 3.1 10 12:55 04.08.2019
4243 Fog 6 1019 100 10000 3.1 10 12:37 04.08.2019
4244 Fog 6 1019 100 10000 3.1 10 12:19 04.08.2019
4245 Fog 5 1019 100 150 2.6 10 11:41 04.08.2019
4246 Fog 5 1019 100 150 2.6 10 11:22 04.08.2019
4247 Snow 5 1019 100 0 3.1 10 10:43 04.08.2019
4248 Snow 5 1019 100 0 3.1 10 10:22 04.08.2019
4249 Snow 6 1019 93 0 5.1 20 09:46 04.08.2019
4250 Snow 6 1019 93 0 5.1 20 09:25 04.08.2019
4251 Snow 6 1019 100 0 5.1 30 08:57 04.08.2019
4252 Snow 6 1019 100 0 5.1 30 08:33 04.08.2019
4253 Snow 6 1019 100 0 5.1 20 07:54 04.08.2019
4254 Snow 6 1019 100 0 5.1 20 07:28 04.08.2019
4255 Clear 6 1019 100 0 5.7 20 06:40 04.08.2019
4256 Clear 6 1019 100 0 5.7 20 06:18 04.08.2019
4257 Fog 8 1019 87 10000 4.6 10 03:36 04.08.2019
4258 Clouds 11 1019 76 10000 4.6 20 01:52 04.08.2019
4259 Clouds 11 1019 76 10000 4.6 20 01:32 04.08.2019
4260 Clouds 12 1019 71 10000 5.1 30 00:42 04.08.2019
4261 Clouds 12 1019 71 10000 5.1 30 00:23 04.08.2019
4262 Clouds 14 1019 62 10000 4.1 30 23:55 03.08.2019
4263 Clouds 14 1019 62 10000 4.1 30 23:36 03.08.2019
4264 Clouds 14 1019 62 10000 4.1 30 23:18 03.08.2019
4265 Clouds 15 1019 58 10000 4.6 30 22:39 03.08.2019
4266 Clouds 15 1019 58 10000 4.6 30 22:19 03.08.2019
4267 Clouds 16 1019 55 10000 4.1 20 21:39 03.08.2019
4268 Clouds 16 1019 55 10000 4.1 20 21:21 03.08.2019
4269 Clouds 17 1019 51 10000 3.6 20 20:45 03.08.2019
4270 Clouds 17 1019 51 10000 3.6 20 20:24 03.08.2019
4271 Clouds 16 1019 55 10000 3.6 20 19:55 03.08.2019
4272 Clouds 16 1019 55 10000 3.6 20 19:37 03.08.2019
4273 Clouds 16 1019 55 10000 3.6 20 19:19 03.08.2019
4274 Clouds 15 1019 58 10000 3.6 40 18:40 03.08.2019
4275 Clouds 15 1019 58 10000 3.6 40 18:22 03.08.2019
4276 Clouds 14 1020 67 10000 4.6 30 17:42 03.08.2019
4277 Clouds 14 1020 67 10000 4.6 30 17:20 03.08.2019
4278 Clouds 12 1020 71 10000 5.1 30 16:39 03.08.2019
4279 Clouds 12 1020 71 10000 5.1 30 16:21 03.08.2019
4280 Clouds 10 1020 81 10000 5.1 20 15:46 03.08.2019
4281 Clouds 10 1020 81 10000 5.1 20 15:26 03.08.2019
4282 Fog 9 1020 87 10000 5.7 30 14:50 03.08.2019
4283 Fog 9 1020 87 10000 5.7 30 14:24 03.08.2019
4284 Fog 6 1020 100 200 4.6 10 13:59 03.08.2019
4285 Fog 6 1020 100 200 4.6 10 13:41 03.08.2019
4286 Fog 6 1020 100 200 4.6 10 13:23 03.08.2019
4287 Fog 6 1020 100 200 4.6 360 12:54 03.08.2019
4288 Fog 6 1020 100 200 4.6 360 12:36 03.08.2019
4289 Fog 6 1020 100 200 4.6 360 12:18 03.08.2019
4290 Fog 6 1020 100 200 5.7 360 11:38 03.08.2019
4291 Fog 6 1020 100 200 5.7 360 11:19 03.08.2019
4292 Snow 6 1020 100 0 5.1 10 10:38 03.08.2019
4293 Snow 6 1020 100 0 5.1 10 10:19 03.08.2019
4294 Snow 6 1020 100 0 6.2 20 09:37 03.08.2019
4295 Snow 6 1020 100 0 6.2 20 09:18 03.08.2019
4296 Snow 6 1020 100 0 5.7 10 08:43 03.08.2019
4297 Snow 6 1020 100 0 5.1 360 07:38 03.08.2019
4298 Fog 6 1020 100 300 5.1 360 06:48 03.08.2019
4299 Fog 6 1020 100 300 5.1 360 06:18 03.08.2019
4300 Fog 7 1021 93 10000 4.6 20 03:35 03.08.2019
4301 Fog 7 1021 93 10000 4.6 20 02:25 03.08.2019
4302 Clouds 9 1021 81 10000 4.1 360 00:58 03.08.2019
4303 Clouds 9 1021 81 10000 4.1 360 00:32 03.08.2019
4304 Clouds 11 1021 71 10000 4.6 360 23:42 02.08.2019
4305 Clouds 11 1021 71 10000 4.6 360 23:20 02.08.2019
4306 Clouds 13 1021 62 10000 3.6 360 22:59 02.08.2019
4307 Clouds 13 1021 62 10000 3.6 360 22:40 02.08.2019
4308 Clouds 13 1021 62 10000 3.6 360 22:22 02.08.2019
4309 Clouds 14 1021 58 10000 3.1 360 21:56 02.08.2019
4310 Clouds 14 1021 58 10000 3.1 360 21:37 02.08.2019
4311 Clouds 14 1021 58 10000 3.1 360 21:19 02.08.2019
4312 Clouds 15 1021 54 10000 2.6 350 20:43 02.08.2019
4313 Clouds 15 1021 54 10000 2.6 350 20:22 02.08.2019
4314 Clouds 14 1021 58 10000 3.1 10 19:53 02.08.2019
4315 Clouds 14 1021 58 10000 3.1 10 19:32 02.08.2019
4316 Clouds 14 1021 58 10000 2.6 30 18:50 02.08.2019
4317 Clouds 14 1021 58 10000 2.6 30 18:32 02.08.2019
4318 Clouds 13 1021 66 10000 2.6 340 17:57 02.08.2019
4319 Clouds 13 1021 66 10000 2.6 340 17:39 02.08.2019
4320 Clouds 13 1021 66 10000 2.6 340 17:20 02.08.2019
4321 Clouds 12 1021 71 10000 2.1 340 16:40 02.08.2019
4322 Clouds 12 1021 71 10000 2.1 340 16:21 02.08.2019
4323 Clouds 10 1022 76 10000 2.1 30 15:57 02.08.2019
4324 Clouds 10 1022 76 10000 2.1 30 15:37 02.08.2019
4325 Clouds 10 1022 76 10000 2.1 30 15:18 02.08.2019
4326 Clouds 7 1022 87 10000 3.6 340 14:43 02.08.2019
4327 Clouds 7 1022 87 10000 3.6 340 14:18 02.08.2019
4328 Clouds 6 1022 93 10000 3.1 340 13:46 02.08.2019
4329 Clouds 6 1022 93 10000 3.1 340 13:21 02.08.2019
4330 Clouds 7 1022 87 10000 2.1 320 12:44 02.08.2019
4331 Clouds 7 1022 87 10000 2.1 320 12:20 02.08.2019
4332 Clouds 6 1021 93 10000 2.1 320 11:41 02.08.2019
4333 Clouds 6 1021 93 10000 2.1 320 11:23 02.08.2019
4334 Clouds 6 1021 93 0 2.1 280 10:48 02.08.2019
4335 Clouds 6 1021 93 0 2.1 280 10:24 02.08.2019
4336 Clouds 6 1021 93 0 1.5 330 09:58 02.08.2019
4337 Clouds 6 1021 93 0 1.5 330 09:40 02.08.2019
4338 Clouds 6 1021 93 0 1.5 330 09:22 02.08.2019
4339 Clouds 6 1021 93 0 1.5 340 08:41 02.08.2019
4340 Clouds 6 1021 93 0 1.5 340 08:20 02.08.2019
4341 Clouds 6 1020 93 0 0.5 310 07:45 02.08.2019
4342 Clouds 6 1020 93 0 0.5 310 07:26 02.08.2019
4343 Clouds 6 1021 93 0 1.5 270 06:37 02.08.2019
4344 Clouds 6 1021 93 0 2.1 270 05:47 02.08.2019
4345 Clouds 6 1021 93 0 2.1 270 03:42 02.08.2019
4346 Clouds 6 1021 93 0 2.1 270 03:23 02.08.2019
4347 Clouds 7 1021 87 0 2.1 260 01:41 02.08.2019
4348 Clouds 7 1021 87 10000 2.1 220 00:32 02.08.2019
4349 Clouds 8 1021 87 10000 3.1 190 23:45 01.08.2019
4350 Clouds 8 1021 87 10000 3.1 190 23:26 01.08.2019
4351 Clouds 10 1021 76 10000 3.1 200 22:46 01.08.2019
4352 Clouds 10 1021 76 10000 3.1 200 22:25 01.08.2019
4353 Clouds 10 1021 76 10000 3.1 200 21:59 01.08.2019
4354 Clouds 10 1021 76 10000 3.1 200 21:41 01.08.2019
4355 Clouds 10 1021 76 10000 3.1 200 21:23 01.08.2019
4356 Clouds 9 1021 81 10000 3.1 200 20:47 01.08.2019
4357 Clouds 9 1021 81 10000 3.1 200 20:23 01.08.2019
4358 Clouds 8 1021 87 10000 3.6 220 19:59 01.08.2019
4359 Fog 8 1021 87 2100 3.6 200 19:37 01.08.2019
4360 Fog 8 1021 87 2100 3.6 200 19:18 01.08.2019
4361 Fog 8 1021 87 400 3.6 200 18:43 01.08.2019
4362 Fog 8 1021 87 400 3.6 200 18:24 01.08.2019
4363 Fog 8 1021 87 1200 3.6 210 17:50 01.08.2019
4364 Fog 8 1021 87 1200 3.6 210 17:31 01.08.2019
4365 Fog 8 1022 87 1500 2.6 200 16:45 01.08.2019
4366 Fog 8 1022 87 1500 2.6 200 16:23 01.08.2019
4367 Fog 8 1022 87 3000 3.1 210 15:56 01.08.2019
4368 Fog 8 1022 87 3000 3.1 210 15:38 01.08.2019
4369 Fog 6 1022 87 3000 3.1 210 15:18 01.08.2019
4370 Fog 6 1022 93 2000 3.6 200 14:42 01.08.2019
4371 Fog 6 1022 93 2000 3.6 200 14:19 01.08.2019
4372 Fog 6 1022 100 200 3.1 200 13:57 01.08.2019
4373 Fog 6 1022 100 200 3.1 200 13:39 01.08.2019
4374 Fog 6 1022 100 200 3.1 200 13:20 01.08.2019
4375 Fog 6 1022 100 200 2.6 200 12:43 01.08.2019
4376 Fog 6 1022 100 200 2.6 200 12:25 01.08.2019
4377 Fog 6 1022 100 250 2.6 220 11:43 01.08.2019
4378 Fog 6 1022 100 250 2.6 220 11:24 01.08.2019
4379 Snow 6 1022 100 0 1.5 200 10:56 01.08.2019
4380 Snow 6 1022 100 0 1.5 200 10:38 01.08.2019
4381 Snow 6 1022 100 0 1.5 200 10:20 01.08.2019
4382 Snow 6 1022 100 0 3.1 200 09:43 01.08.2019
4383 Snow 6 1022 100 0 3.1 200 09:23 01.08.2019
4384 Snow 6 1022 93 0 2.6 190 08:47 01.08.2019
4385 Snow 6 1022 93 0 2.6 190 08:21 01.08.2019
4386 Snow 6 1022 100 0 4.1 200 07:52 01.08.2019
4387 Snow 6 1022 100 0 4.1 200 07:52 01.08.2019
4388 Snow 6 1022 100 0 4.1 200 07:28 01.08.2019
4389 Snow 6 1022 100 0 3.6 200 06:49 01.08.2019
4390 Snow 6 1022 100 0 3.6 200 06:49 01.08.2019
4391 Snow 6 1022 100 0 3.6 200 06:29 01.08.2019
4392 Snow 6 1022 100 0 2.6 200 05:31 01.08.2019
4393 Rain 7 1022 93 0 6.2 200 02:35 01.08.2019
4394 Fog 8 1021 87 10000 7.2 200 00:51 01.08.2019
4395 Fog 8 1021 87 10000 7.2 200 00:26 01.08.2019
4396 Fog 8 1021 87 10000 7.7 200 23:57 31.07.2019
4397 Fog 8 1021 87 10000 7.7 200 23:39 31.07.2019
4398 Fog 8 1021 87 10000 7.7 200 23:19 31.07.2019
4399 Fog 9 1021 81 10000 6.2 200 22:44 31.07.2019
4400 Fog 9 1021 81 10000 6.2 200 22:24 31.07.2019
4401 Fog 9 1021 81 10000 6.2 210 21:41 31.07.2019
4402 Fog 9 1021 81 10000 6.2 210 21:22 31.07.2019
4403 Fog 8 1020 87 10000 5.7 200 20:49 31.07.2019
4404 Fog 8 1020 87 10000 5.7 200 20:24 31.07.2019
4405 Fog 10 1020 76 10000 5.1 200 19:49 31.07.2019
4406 Fog 10 1020 76 10000 5.1 200 19:31 31.07.2019
4407 Fog 10 1020 81 10000 4.6 200 18:58 31.07.2019
4408 Fog 10 1020 81 10000 4.6 200 18:39 31.07.2019
4409 Fog 10 1020 81 10000 4.6 200 18:18 31.07.2019
4410 Fog 10 1020 76 10000 4.1 200 17:45 31.07.2019
4411 Fog 10 1020 76 10000 4.1 200 17:20 31.07.2019
4412 Fog 9 1020 81 10000 4.6 200 16:54 31.07.2019
4413 Fog 9 1020 81 10000 4.6 200 16:33 31.07.2019
4414 Fog 8 1020 87 400 4.1 190 15:58 31.07.2019
4415 Fog 8 1020 87 400 4.1 190 15:39 31.07.2019
4416 Fog 8 1020 87 400 4.1 190 15:20 31.07.2019
4417 Fog 7 1019 93 400 4.1 190 14:42 31.07.2019
4418 Fog 7 1019 93 400 4.1 190 14:20 31.07.2019
4419 Fog 7 1019 100 200 4.1 190 13:55 31.07.2019
4420 Fog 7 1019 100 200 4.1 190 13:37 31.07.2019
4421 Fog 7 1019 100 200 4.1 190 13:19 31.07.2019
4422 Fog 6 1019 100 200 4.1 190 12:41 31.07.2019
4423 Fog 6 1019 100 200 4.1 190 12:23 31.07.2019
4424 Fog 6 1018 100 200 4.1 190 11:40 31.07.2019
4425 Fog 6 1018 100 200 4.1 190 11:21 31.07.2019
4426 Fog 5 1018 100 100 4.1 190 10:56 31.07.2019
4427 Fog 5 1018 100 100 4.1 190 10:38 31.07.2019
4428 Fog 5 1018 100 100 4.1 190 10:19 31.07.2019
4429 Snow 5 1017 100 0 4.6 190 09:43 31.07.2019
4430 Snow 5 1017 100 0 4.6 190 09:23 31.07.2019
4431 Snow 5 1016 100 0 3.1 190 08:44 31.07.2019
4432 Snow 5 1016 100 0 3.1 190 08:24 31.07.2019
4433 Rain 5 1016 100 0 3.1 190 07:53 31.07.2019
4434 Rain 5 1016 100 0 3.1 190 07:33 31.07.2019
4435 Clear 6 1016 93 0 2.1 200 05:24 31.07.2019
4436 Clear 7 1015 93 0 3.1 10 04:21 31.07.2019
4437 Fog 10 1016 76 10000 2.1 330 00:57 31.07.2019
4438 Clouds 11 1016 76 10000 2.6 270 23:51 30.07.2019
4439 Clouds 11 1016 76 10000 2.6 270 23:30 30.07.2019
4440 Clouds 12 1016 66 10000 2.6 230 22:59 30.07.2019
4441 Clouds 13 1016 66 10000 2.6 230 22:41 30.07.2019
4442 Clouds 13 1016 66 10000 2.6 230 22:21 30.07.2019
4443 Clouds 12 1016 66 10000 2.6 250 21:38 30.07.2019
4444 Clouds 12 1016 66 10000 2.6 250 21:19 30.07.2019
4445 Clouds 12 1016 66 10000 2.6 280 20:57 30.07.2019
4446 Clouds 12 1016 66 10000 2.6 280 20:39 30.07.2019
4447 Clouds 12 1016 66 10000 2.6 280 20:19 30.07.2019
4448 Clouds 11 1016 71 10000 2.6 290 19:49 30.07.2019
4449 Clouds 11 1016 71 10000 2.6 290 19:29 30.07.2019
4450 Clouds 10 1017 71 10000 3.1 280 18:48 30.07.2019
4451 Clouds 10 1017 71 10000 3.1 280 18:27 30.07.2019
4452 Clouds 11 1017 71 10000 1 0 17:58 30.07.2019
4453 Clouds 11 1017 71 10000 1 0 17:40 30.07.2019
4454 Clouds 11 1017 71 10000 1 0 17:18 30.07.2019
4455 Clouds 7 1017 87 10000 2.1 290 16:46 30.07.2019
4456 Clouds 7 1017 87 10000 2.1 290 16:19 30.07.2019
4457 Clouds 7 1017 87 10000 1.5 180 15:44 30.07.2019
4458 Clouds 7 1017 87 10000 1.5 180 15:22 30.07.2019
4459 Fog 5 1017 87 2000 1 0 14:46 30.07.2019
4460 Fog 5 1017 87 2000 1 0 14:27 30.07.2019
4461 Fog 5 1017 87 2000 1 0 14:27 30.07.2019
4462 Fog 5 1018 93 300 3.6 210 13:59 30.07.2019
4463 Fog 5 1018 93 300 3.6 210 13:40 30.07.2019
4464 Fog 5 1018 93 300 3.6 210 13:22 30.07.2019
4465 Fog 4 1017 100 400 2.1 220 12:49 30.07.2019
4466 Fog 4 1017 100 400 2.1 220 12:29 30.07.2019
4467 Fog 4 1017 100 300 2.6 200 11:58 30.07.2019
4468 Fog 4 1017 100 300 2.6 200 11:38 30.07.2019
4469 Fog 4 1017 100 300 2.6 200 11:18 30.07.2019
4470 Fog 4 1017 100 0 1 240 10:42 30.07.2019
4471 Fog 4 1017 100 0 1 240 10:23 30.07.2019
4472 Clouds 5 1017 93 0 2.1 350 09:49 30.07.2019
4473 Clouds 5 1017 93 0 2.1 350 09:30 30.07.2019
4474 Mist 4 1017 100 0 1 30 08:47 30.07.2019
4475 Mist 4 1017 100 0 1 30 08:28 30.07.2019
4476 Rain 4 1017 100 0 0.5 160 07:47 30.07.2019
4477 Rain 4 1017 100 0 0.5 160 07:47 30.07.2019
4478 Rain 4 1017 100 0 0.5 160 07:28 30.07.2019
4479 Rain 4 1018 93 0 3.1 190 06:47 30.07.2019
4480 Clouds 4 1018 100 0 1.79 200 05:56 30.07.2019
4481 Clouds 4 1018 100 0 1.79 200 05:32 30.07.2019
4482 Fog 8 1017 87 10000 2.6 200 01:40 30.07.2019
4483 Fog 8 1017 81 10000 2.1 190 00:45 30.07.2019
4484 Fog 10 1017 81 10000 2.1 190 00:20 30.07.2019
4485 Fog 10 1017 76 10000 2.6 230 23:44 29.07.2019
4486 Fog 10 1017 76 10000 2.6 230 23:26 29.07.2019
4487 -273 0 0 0 0 0 23:26 29.07.2019
4488 Fog 10 1016 76 10000 3.1 180 22:57 29.07.2019
4489 Fog 10 1016 76 10000 3.1 180 22:38 29.07.2019
4490 Fog 10 1016 76 10000 3.1 180 22:20 29.07.2019
4491 Fog 10 1016 76 10000 4.6 210 21:56 29.07.2019
4492 Fog 10 1016 76 10000 4.6 210 21:37 29.07.2019
4493 Fog 10 1016 76 10000 4.6 210 21:18 29.07.2019
4494 Fog 10 1016 76 10000 6.7 180 20:48 29.07.2019
4495 Fog 10 1016 76 10000 6.7 180 20:24 29.07.2019
4496 Clouds 9 1015 81 10000 5.7 200 19:57 29.07.2019
4497 Clouds 9 1015 81 10000 5.7 200 19:37 29.07.2019
4498 Clouds 9 1015 81 10000 5.7 200 19:19 29.07.2019
4499 Clouds 9 1015 81 10000 6.2 200 18:42 29.07.2019
4500 Clouds 9 1015 81 10000 6.2 200 18:22 29.07.2019
4501 Clouds 8 1015 81 10000 7.2 200 17:52 29.07.2019
4502 Clouds 8 1015 81 10000 7.2 200 17:34 29.07.2019
4503 Fog 8 1014 81 10000 7.7 200 16:59 29.07.2019
4504 Fog 8 1014 81 10000 7.7 200 16:40 29.07.2019
4505 Fog 6 1014 81 10000 7.7 200 16:22 29.07.2019
4506 Fog 6 1014 87 450 8.2 200 15:52 29.07.2019
4507 Fog 6 1014 87 450 8.2 200 15:33 29.07.2019
4508 -273 0 0 0 0 0 14:56 29.07.2019
4509 Fog 6 1013 93 500 7.7 200 14:38 29.07.2019
4510 Fog 6 1013 93 500 7.7 200 14:19 29.07.2019
4511 Fog 6 1013 93 400 5.1 200 13:43 29.07.2019
4512 Fog 6 1013 93 400 5.1 200 13:23 29.07.2019
4513 Fog 5 1013 100 300 4.6 190 12:43 29.07.2019
4514 Fog 5 1013 100 300 4.6 190 12:24 29.07.2019
4515 Fog 5 1012 100 300 5.1 200 11:44 29.07.2019
4516 -273 0 0 0 0 0 11:23 29.07.2019
4517 Rain 6 1012 93 0 3.6 190 10:57 29.07.2019
4518 Rain 6 1012 93 0 3.6 190 10:56 29.07.2019
4519 Rain 6 1012 93 0 3.6 190 10:38 29.07.2019
4520 Rain 6 1012 93 0 3.6 190 10:19 29.07.2019
4521 Fog 6 1011 93 0 2.6 180 09:38 29.07.2019
4522 Fog 6 1011 93 0 2.6 180 09:19 29.07.2019
4523 Clouds 7 1011 93 0 3.6 190 08:41 29.07.2019
4524 Clouds 7 1011 93 0 3.6 190 08:20 29.07.2019
4525 Clouds 7 1011 93 0 3.6 180 07:45 29.07.2019
4526 Clouds 7 1011 93 0 3.6 180 07:23 29.07.2019
4527 Clouds 11 1011 71 0 1.5 10 05:50 29.07.2019
4528 Clouds 11 1011 66 0 2.1 40 04:59 29.07.2019
4529 Clear 14 1010 58 0 3.1 30 02:28 29.07.2019
4530 Clear 16 1010 51 0 2.6 20 01:46 29.07.2019
4531 Clear 16 1010 51 0 2.6 20 01:24 29.07.2019
4532 Clouds 17 1010 48 10000 1.5 20 00:50 29.07.2019
4533 Clouds 17 1010 48 10000 1.5 20 00:22 29.07.2019
4534 Clouds 17 1010 51 10000 2.6 290 23:41 28.07.2019
4535 Clouds 17 1010 51 10000 2.6 290 23:19 28.07.2019
4536 Clouds 18 1009 45 10000 2.1 270 22:42 28.07.2019
4537 Clouds 18 1009 45 10000 2.1 270 22:23 28.07.2019
4538 Clouds 16 1009 48 10000 2.1 320 21:50 28.07.2019
4539 Clouds 16 1009 48 10000 2.1 320 21:20 28.07.2019
4540 Clouds 16 1009 41 10000 3.6 30 20:49 28.07.2019
4541 Clouds 16 1009 41 10000 3.6 30 20:30 28.07.2019
4542 Clouds 16 1008 51 10000 3.1 20 19:57 28.07.2019
4543 Clouds 16 1008 51 10000 3.1 20 19:38 28.07.2019
4544 Clouds 16 1008 51 10000 3.1 20 19:20 28.07.2019
4545 Clouds 15 1008 54 10000 2.1 350 18:44 28.07.2019
4546 Clouds 15 1008 54 10000 2.1 350 18:25 28.07.2019
4547 Clouds 15 1008 58 10000 1 0 17:55 28.07.2019
4548 Clouds 15 1008 58 10000 1 0 17:37 28.07.2019
4549 Clouds 15 1008 58 10000 1 0 17:19 28.07.2019
4550 Clouds 13 1008 66 10000 2.6 190 16:41 28.07.2019
4551 Clouds 13 1008 66 10000 2.6 190 16:22 28.07.2019
4552 Clouds 13 1008 66 10000 2.6 200 15:44 28.07.2019
4553 Clouds 13 1008 66 10000 2.6 200 15:24 28.07.2019
4554 Clouds 14 1008 54 10000 4.6 190 14:39 28.07.2019
4555 Clouds 14 1008 54 10000 4.6 190 14:20 28.07.2019
4556 Clouds 12 1008 62 10000 4.1 190 13:56 28.07.2019
4557 Clouds 12 1008 62 10000 4.1 190 13:56 28.07.2019
4558 Clouds 12 1008 62 10000 4.1 190 13:37 28.07.2019
4559 Clouds 12 1008 62 10000 4.1 190 13:19 28.07.2019
4560 Clouds 11 1007 66 10000 5.1 180 12:42 28.07.2019
4561 Clouds 11 1007 66 10000 5.1 180 12:23 28.07.2019
4562 Clouds 11 1007 66 10000 4.1 180 11:49 28.07.2019
4563 Clouds 11 1007 66 10000 4.1 180 11:28 28.07.2019
4564 Clear 8 1007 87 0 3.6 200 10:43 28.07.2019
4565 Clear 8 1007 87 0 3.6 200 10:23 28.07.2019
4566 Clear 8 1007 87 0 5.1 180 09:59 28.07.2019
4567 Clear 8 1007 87 0 5.1 180 09:39 28.07.2019
4568 Clouds 8 1007 87 0 5.1 180 09:20 28.07.2019
4569 Clouds 7 1007 93 0 2.1 170 08:41 28.07.2019
4570 Clouds 7 1007 93 0 2.1 170 08:21 28.07.2019
4571 Clouds 7 1006 93 0 2.6 360 07:40 28.07.2019
4572 Clouds 9 1006 81 0 1.5 150 06:59 28.07.2019
4573 Clouds 9 1006 81 0 1.5 150 06:32 28.07.2019
4574 Clouds 7 1007 93 0 5.1 190 05:19 28.07.2019
4575 Clouds 10 1007 81 10000 6.2 60 02:37 28.07.2019
4576 Clouds 10 1007 81 10000 6.7 60 01:32 28.07.2019
4577 Clouds 10 1008 81 10000 6.7 60 00:52 28.07.2019
4578 Clouds 10 1008 81 10000 6.7 60 00:25 28.07.2019
4579 Clouds 10 1009 87 10000 6.2 50 23:52 27.07.2019
4580 Clouds 10 1009 87 10000 6.2 50 23:27 27.07.2019
4581 Drizzle 10 1010 87 10000 5.7 40 22:44 27.07.2019
4582 Drizzle 10 1010 87 10000 5.7 40 22:26 27.07.2019
4583 Drizzle 9 1010 93 10000 5.1 30 21:47 27.07.2019
4584 Drizzle 9 1010 93 10000 5.1 30 21:24 27.07.2019
4585 Rain 11 1012 76 0 2.24 220 20:57 27.07.2019
4586 Rain 11 1012 76 0 2.24 220 20:39 27.07.2019
4587 Clouds 11 1012 76 10000 2.6 220 20:19 27.07.2019
4588 Clouds 11 1012 76 10000 2.6 220 19:40 27.07.2019
4589 Clouds 11 1012 76 10000 2.6 220 19:22 27.07.2019
4590 Clouds 11 1012 76 10000 5.1 190 18:47 27.07.2019
4591 Clouds 11 1012 76 10000 5.1 190 18:29 27.07.2019
4592 Rain 10 1012 76 10000 11.3 160 17:51 27.07.2019
4593 Rain 10 1012 76 10000 11.3 160 17:32 27.07.2019
4594 Drizzle 10 1012 76 10000 12.9 160 16:56 27.07.2019
4595 Drizzle 10 1012 76 10000 12.9 160 16:37 27.07.2019
4596 Drizzle 10 1012 76 10000 12.9 160 16:18 27.07.2019
4597 Rain 10 1012 71 10000 10.8 160 15:43 27.07.2019
4598 Rain 10 1012 71 10000 10.8 160 15:19 27.07.2019
4599 Rain 10 1012 76 10000 12.9 160 14:46 27.07.2019
4600 Rain 10 1012 76 10000 12.9 160 14:27 27.07.2019
4601 Rain 10 1012 71 10000 12.3 160 13:51 27.07.2019
4602 Rain 10 1012 71 10000 12.3 160 13:25 27.07.2019
4603 Rain 10 1012 71 10000 11.8 160 12:54 27.07.2019
4604 Rain 10 1012 71 10000 11.8 160 12:36 27.07.2019
4605 Rain 10 1012 71 10000 11.8 160 12:18 27.07.2019
4606 Rain 10 1012 71 0 9.8 160 11:39 27.07.2019
4607 Rain 10 1012 71 0 9.8 160 11:20 27.07.2019
4608 Rain 10 1012 76 0 11.3 160 10:41 27.07.2019
4609 Rain 10 1012 76 0 11.3 160 10:22 27.07.2019
4610 Rain 10 1012 71 0 9.8 170 09:41 27.07.2019
4611 Rain 10 1012 71 0 9.8 170 09:23 27.07.2019
4612 Rain 10 1011 76 0 13.4 160 08:49 27.07.2019
4613 Rain 10 1011 76 0 13.4 160 08:49 27.07.2019
4614 Rain 10 1011 76 0 13.4 160 08:30 27.07.2019
4615 Rain 9 1011 81 0 14.4 160 07:55 27.07.2019
4616 Rain 9 1011 81 0 14.4 160 07:33 27.07.2019
4617 Rain 9 1012 81 10000 12.3 160 06:57 27.07.2019
4618 Rain 9 1012 81 10000 12.3 160 06:32 27.07.2019
4619 Rain 9 1012 87 10000 11.8 160 05:53 27.07.2019
4620 Rain 9 1012 87 10000 11.8 160 05:28 27.07.2019
4621 Rain 8 1012 93 10000 6.7 180 04:33 27.07.2019
4622 Rain 7 1013 100 10000 3.6 190 03:28 27.07.2019
4623 Rain 8 1013 93 10000 3.1 190 02:40 27.07.2019
4624 Drizzle 8 1013 93 10000 1.5 190 01:49 27.07.2019
4625 Drizzle 8 1013 93 10000 1.5 190 01:21 27.07.2019
4626 Rain 9 1013 87 10000 0.5 200 00:33 27.07.2019
4627 Rain 9 1013 87 10000 1 220 23:55 26.07.2019
4628 Rain 9 1013 87 10000 1 220 23:37 26.07.2019
4629 Rain 9 1013 87 10000 1 220 23:18 26.07.2019
4630 Drizzle 9 1013 87 10000 1.5 210 22:41 26.07.2019
4631 Drizzle 9 1013 87 10000 1.5 210 22:23 26.07.2019
4632 Rain 9 1013 87 10000 1 190 21:49 26.07.2019
4633 Rain 9 1013 87 10000 1 190 21:20 26.07.2019
4634 Rain 10 1013 81 10000 2.1 200 20:43 26.07.2019
4635 Rain 10 1013 81 10000 2.1 200 20:25 26.07.2019
4636 Clouds 10 1013 81 10000 2.6 330 19:44 26.07.2019
4637 Clouds 10 1013 81 10000 2.6 330 19:25 26.07.2019
4638 Rain 9 1012 87 10000 2.1 360 18:58 26.07.2019
4639 Rain 9 1012 87 10000 2.1 360 18:38 26.07.2019
4640 Rain 9 1012 87 10000 2.1 360 18:20 26.07.2019
4641 Rain 9 1013 87 10000 4.1 40 17:47 26.07.2019
4642 Rain 9 1013 87 10000 4.1 40 17:19 26.07.2019
4643 Rain 8 1013 93 10000 2.6 20 16:58 26.07.2019
4644 Rain 8 1013 93 10000 2.6 20 16:40 26.07.2019
4645 Rain 8 1013 93 10000 2.6 20 16:20 26.07.2019
4646 Clouds 8 1013 93 10000 0.5 0 15:56 26.07.2019
4647 Clouds 8 1013 93 10000 0.5 0 15:38 26.07.2019
4648 Clouds 8 1013 93 10000 0.5 0 15:19 26.07.2019
4649 Drizzle 8 1013 87 10000 2.6 190 14:43 26.07.2019
4650 Drizzle 8 1013 87 10000 2.6 190 14:23 26.07.2019
4651 Drizzle 7 1013 93 10000 3.1 190 13:47 26.07.2019
4652 Drizzle 7 1013 93 10000 3.1 190 13:27 26.07.2019
4653 Drizzle 7 1013 93 10000 3.1 190 12:49 26.07.2019
4654 Drizzle 7 1013 93 10000 3.1 190 12:23 26.07.2019
4655 Drizzle 7 1013 87 10000 3.6 200 11:56 26.07.2019
4656 Drizzle 7 1013 87 10000 3.6 200 11:36 26.07.2019
4657 Drizzle 7 1013 87 10000 3.6 200 11:18 26.07.2019
4658 Clouds 7 1012 87 0 2.6 180 10:39 26.07.2019
4659 Clouds 7 1012 87 0 2.6 180 10:20 26.07.2019
4660 Clouds 7 1012 87 0 3.6 190 09:50 26.07.2019
4661 Clouds 7 1012 87 0 3.6 190 09:28 26.07.2019
4662 Clouds 8 1012 81 0 2.1 200 08:41 26.07.2019
4663 Clouds 8 1012 81 0 2.1 200 08:21 26.07.2019
4664 Clouds 7 1012 93 0 1.5 190 07:40 26.07.2019
4665 Clouds 7 1012 93 0 1.5 190 07:22 26.07.2019
4666 Clouds 7 1012 93 0 1.5 180 06:30 26.07.2019
4667 Clouds 7 1012 93 0 1.74 104.427 04:30 26.07.2019
4668 Clouds 7 1012 93 0 0.5 0 03:54 26.07.2019
4669 Clouds 7 1012 93 0 2.1 200 01:49 26.07.2019
4670 Clouds 7 1012 93 0 2.1 200 01:24 26.07.2019
4671 Clouds 7 1012 93 0 4.1 190 00:29 26.07.2019
4672 Clouds 7 1012 93 10000 3.1 200 23:46 25.07.2019
4673 Clouds 7 1012 93 10000 3.1 200 23:22 25.07.2019
4674 Drizzle 7 1012 93 10000 4.1 200 22:42 25.07.2019
4675 Drizzle 7 1012 93 10000 4.1 200 22:23 25.07.2019
4676 Drizzle 8 1012 87 10000 3.6 190 21:57 25.07.2019
4677 Drizzle 8 1012 87 10000 3.6 190 21:38 25.07.2019
4678 Drizzle 8 1012 87 10000 3.6 190 21:20 25.07.2019
4679 Drizzle 7 1011 93 10000 3.6 200 20:41 25.07.2019
4680 Drizzle 7 1011 93 10000 3.6 200 20:21 25.07.2019
4681 Rain 7 1011 100 10000 4.6 190 19:41 25.07.2019
4682 Rain 7 1011 100 10000 4.6 190 19:23 25.07.2019
4683 Clouds 8 1011 87 10000 5.1 190 18:43 25.07.2019
4684 Clouds 8 1011 87 10000 5.1 190 18:25 25.07.2019
4685 Clouds 9 1011 87 10000 4.1 190 17:51 25.07.2019
4686 Clouds 9 1011 87 10000 4.1 190 17:33 25.07.2019
4687 Clouds 8 1011 93 10000 5.1 200 16:59 25.07.2019
4688 Clouds 8 1011 93 10000 5.1 200 16:41 25.07.2019
4689 Clouds 8 1011 93 10000 5.1 200 16:22 25.07.2019
4690 Clouds 8 1011 87 10000 4.6 200 15:50 25.07.2019
4691 Clouds 8 1011 87 10000 4.6 200 15:21 25.07.2019
4692 Rain 8 1011 87 10000 4.1 200 14:43 25.07.2019
4693 Rain 8 1011 87 10000 4.1 200 14:24 25.07.2019
4694 Rain 8 1011 87 10000 1.5 230 13:59 25.07.2019
4695 Rain 8 1011 87 10000 1.5 230 13:37 25.07.2019
4696 Rain 8 1011 87 10000 1.5 230 13:19 25.07.2019
4697 Clouds 8 1012 93 10000 1.84 240.069 12:34 25.07.2019
4698 Rain 7 1012 93 10000 1 360 11:58 25.07.2019
4699 Rain 7 1012 93 10000 1 360 11:40 25.07.2019
4700 Rain 7 1012 93 10000 1 360 11:21 25.07.2019
4701 Snow 7 1012 93 0 1.5 360 10:43 25.07.2019
4702 Snow 7 1012 93 0 1.5 360 10:23 25.07.2019
4703 Rain 6 1012 100 0 0.68 151.665 09:45 25.07.2019
4704 Rain 6 1012 100 0 0.68 151.665 09:45 25.07.2019
4705 Rain 6 1012 100 0 0.68 151.665 09:27 25.07.2019
4706 Rain 6 1013 100 0 1 170 08:48 25.07.2019
4707 Rain 6 1013 100 0 1 170 08:26 25.07.2019
4708 Clouds 6 1013 100 0 2.1 190 07:39 25.07.2019
4709 Clouds 7 1013 93 0 2.1 180 06:45 25.07.2019
4710 Clouds 7 1013 93 0 2.1 180 06:19 25.07.2019
4711 Rain 7 1014 93 0 3.1 200 05:34 25.07.2019
4712 Clouds 7 1014 87 0 3.1 180 04:45 25.07.2019
4713 Clouds 7 1015 87 0 2.6 200 02:24 25.07.2019
4714 Clouds 8 1015 81 0 5.1 200 01:21 25.07.2019
4715 Clouds 9 1015 76 10000 6.7 190 00:23 25.07.2019
4716 Clouds 9 1015 76 10000 5.7 200 23:56 24.07.2019
4717 Clouds 9 1015 76 10000 5.7 200 23:37 24.07.2019
4718 Clouds 9 1015 76 10000 5.7 200 23:18 24.07.2019
4719 Clouds 9 1015 76 10000 5.7 190 22:44 24.07.2019
4720 Clouds 9 1015 76 10000 5.7 190 22:22 24.07.2019
4721 Clouds 9 1016 81 10000 5.7 190 21:55 24.07.2019
4722 Clouds 9 1016 81 10000 5.7 190 21:37 24.07.2019
4723 Clouds 9 1016 81 10000 5.7 190 21:18 24.07.2019
4724 Clouds 8 1016 81 10000 5.1 190 20:40 24.07.2019
4725 Clouds 8 1016 81 10000 5.1 190 20:22 24.07.2019
4726 Clouds 8 1016 87 10000 3.1 210 19:56 24.07.2019
4727 Clouds 8 1016 87 10000 3.1 210 19:38 24.07.2019
4728 Clouds 8 1016 87 10000 3.1 210 19:19 24.07.2019
4729 Clouds 9 1016 81 10000 5.7 190 18:42 24.07.2019
4730 Clouds 9 1016 81 10000 5.7 190 18:23 24.07.2019
4731 Clouds 9 1016 81 10000 5.7 190 17:44 24.07.2019
4732 Clouds 9 1016 81 10000 5.7 190 17:20 24.07.2019
4733 Clouds 8 1016 81 10000 6.2 190 16:43 24.07.2019
4734 Clouds 8 1016 81 10000 6.2 190 16:23 24.07.2019
4735 Clouds 8 1016 81 10000 6.2 190 16:23 24.07.2019
4736 Drizzle 7 1016 93 10000 5.7 180 15:58 24.07.2019
4737 Drizzle 7 1016 93 10000 5.7 180 15:36 24.07.2019
4738 Drizzle 7 1016 93 10000 5.7 180 15:18 24.07.2019
4739 Drizzle 7 1016 93 10000 6.7 170 14:43 24.07.2019
4740 Drizzle 7 1016 93 10000 6.7 170 14:19 24.07.2019
4741 Clouds 8 1016 87 10000 4.6 180 13:38 24.07.2019
4742 Clouds 8 1016 87 10000 4.6 180 13:19 24.07.2019
4743 Clouds 7 1016 87 10000 5.7 180 12:51 24.07.2019
4744 Clouds 7 1016 87 10000 5.7 180 12:33 24.07.2019
4745 Clouds 7 1016 93 10000 4.1 190 11:40 24.07.2019
4746 Clouds 7 1016 93 10000 4.1 190 11:21 24.07.2019
4747 Clouds 6 1015 100 0 5.7 190 10:47 24.07.2019
4748 Clouds 6 1015 100 0 5.7 190 10:26 24.07.2019
4749 Clouds 6 1015 93 0 6.7 190 09:52 24.07.2019
4750 Clouds 6 1015 93 0 6.7 190 09:26 24.07.2019
4751 Clouds 6 1014 100 0 6.2 190 08:59 24.07.2019
4752 Clouds 6 1014 100 0 6.2 190 08:35 24.07.2019
4753 Mist 6 1014 93 0 6.2 190 07:52 24.07.2019
4754 Mist 6 1014 93 0 6.2 190 07:31 24.07.2019
4755 Clouds 6 1013 93 0 6.7 200 06:51 24.07.2019
4756 Clouds 6 1013 93 0 6.7 200 06:27 24.07.2019
4757 Clouds 6 1013 93 0 6.2 190 04:45 24.07.2019
4758 Clouds 6 1011 93 10000 8.7 200 01:48 24.07.2019
4759 Clouds 6 1010 93 10000 8.7 200 00:57 24.07.2019
4760 Clouds 6 1010 93 10000 8.7 200 00:30 24.07.2019
4761 Clouds 7 1010 87 10000 8.2 200 23:52 23.07.2019
4762 Clouds 7 1010 87 10000 8.2 200 23:26 23.07.2019
4763 Clouds 7 1009 87 10000 8.7 200 22:58 23.07.2019
4764 Clouds 7 1009 87 10000 8.7 200 22:37 23.07.2019
4765 Clouds 7 1009 87 10000 8.7 200 22:18 23.07.2019
4766 Clouds 7 1009 87 10000 8.7 200 22:18 23.07.2019
4767 Clouds 8 1009 81 10000 8.7 200 21:44 23.07.2019
4768 Clouds 8 1009 81 10000 8.7 200 21:44 23.07.2019
4769 Clouds 8 1009 81 10000 8.7 200 21:25 23.07.2019
4770 Clouds 8 1008 81 10000 9.3 200 20:49 23.07.2019
4771 Clouds 8 1008 81 10000 9.3 200 20:29 23.07.2019
4772 Clouds 8 1008 81 10000 8.7 200 19:44 23.07.2019
4773 Clouds 8 1008 81 10000 8.7 200 19:24 23.07.2019
4774 Clouds 8 1008 81 10000 6.7 210 18:58 23.07.2019
4775 Clouds 8 1008 81 10000 6.7 210 18:39 23.07.2019
4776 Clouds 8 1008 81 10000 6.7 210 18:20 23.07.2019
4777 Clouds 7 1007 87 6000 5.1 200 17:43 23.07.2019
4778 Clouds 7 1007 87 6000 5.1 200 17:22 23.07.2019
4779 Drizzle 6 1007 93 800 4.1 210 16:44 23.07.2019
4780 Drizzle 6 1007 93 800 4.1 210 16:26 23.07.2019
4781 Mist 6 1007 93 1000 4.6 220 15:52 23.07.2019
4782 Mist 6 1007 93 1000 4.6 220 15:34 23.07.2019
4783 Fog 6 1007 93 800 4.1 200 14:59 23.07.2019
4784 Fog 6 1007 93 800 4.1 200 14:37 23.07.2019
4785 Fog 6 1007 93 800 4.1 200 14:18 23.07.2019
4786 Fog 6 1007 93 800 4.1 200 14:18 23.07.2019
4787 Mist 5 1007 93 1000 3.6 200 13:56 23.07.2019
4788 Mist 5 1007 93 1000 3.6 200 13:37 23.07.2019
4789 Mist 5 1007 93 1000 3.6 200 13:19 23.07.2019
4790 Mist 5 1007 100 1500 3.1 210 12:42 23.07.2019
4791 Mist 5 1007 100 1500 3.1 210 12:22 23.07.2019
4792 Fog 5 1006 100 300 2.1 190 11:41 23.07.2019
4793 Fog 5 1006 100 300 2.1 190 11:22 23.07.2019
4794 Fog 5 1006 100 0 2.1 0 10:51 23.07.2019
4795 Fog 5 1006 100 0 2.1 0 10:25 23.07.2019
4796 Fog 5 1006 100 0 2.1 190 09:44 23.07.2019
4797 Fog 5 1006 100 0 2.1 190 09:22 23.07.2019
4798 Fog 5 1007 100 0 1.5 190 08:57 23.07.2019
4799 Fog 5 1007 100 0 1.5 190 08:38 23.07.2019
4800 Fog 5 1007 100 0 1.5 190 08:18 23.07.2019
4801 Fog 5 1007 100 0 2.1 260 07:50 23.07.2019
4802 Fog 5 1007 100 0 2.1 260 07:32 23.07.2019
4803 Fog 6 1007 100 0 2.6 280 06:38 23.07.2019
4804 Fog 6 1007 100 200 2.1 280 05:34 23.07.2019
4805 Clouds 8 1008 93 10000 3.1 350 01:57 23.07.2019
4806 Clouds 8 1008 93 10000 3.1 350 01:20 23.07.2019
4807 Clouds 9 1008 87 10000 4.1 350 00:28 23.07.2019
4808 Clouds 10 1008 81 10000 4.6 340 23:41 22.07.2019
4809 Clouds 10 1008 81 10000 4.6 340 23:21 22.07.2019
4810 Clouds 12 1008 71 10000 4.1 350 22:58 22.07.2019
4811 Clouds 12 1008 71 10000 4.1 350 22:40 22.07.2019
4812 Clouds 12 1008 71 10000 4.1 350 22:20 22.07.2019
4813 Clouds 12 1008 71 10000 4.1 350 22:20 22.07.2019
4814 Clouds 13 1009 66 10000 3.6 330 21:42 22.07.2019
4815 Clouds 13 1009 66 10000 3.6 330 21:21 22.07.2019
4816 Clouds 13 1009 66 10000 4.6 350 20:48 22.07.2019
4817 Clouds 13 1009 66 10000 4.6 350 20:29 22.07.2019
4818 Clouds 13 1009 66 10000 3.6 20 19:54 22.07.2019
4819 Clouds 13 1009 66 10000 3.6 20 19:36 22.07.2019
4820 Clouds 13 1009 66 10000 3.6 20 19:18 22.07.2019
4821 Clouds 13 1010 66 10000 2.6 350 18:40 22.07.2019
4822 Clouds 13 1010 66 10000 2.6 350 18:22 22.07.2019
4823 Clouds 12 1010 71 10000 3.1 350 17:42 22.07.2019
4824 Clouds 12 1010 71 10000 3.1 350 17:23 22.07.2019
4825 Clouds 11 1011 76 10000 3.1 20 16:42 22.07.2019
4826 Clouds 11 1011 76 10000 3.1 20 16:21 22.07.2019
4827 Clouds 9 1011 87 10000 4.1 30 15:59 22.07.2019
4828 Clouds 9 1011 87 10000 4.1 30 15:38 22.07.2019
4829 Clouds 9 1011 87 10000 4.1 30 15:18 22.07.2019
4830 Fog 7 1011 93 800 4.1 10 14:43 22.07.2019
4831 Fog 7 1011 93 800 4.1 10 14:21 22.07.2019
4832 Fog 7 1011 93 800 4.1 10 14:21 22.07.2019
4833 Fog 6 1012 100 800 4.6 20 13:48 22.07.2019
4834 Fog 6 1012 100 800 4.6 20 13:29 22.07.2019
4835 Fog 5 1012 100 500 3.6 360 12:47 22.07.2019
4836 Fog 5 1012 100 500 3.6 360 12:29 22.07.2019
4837 Fog 5 1012 100 400 4.1 10 11:46 22.07.2019
4838 Fog 5 1012 100 400 4.1 10 11:26 22.07.2019
4839 Fog 5 1012 100 1500 3.1 10 10:59 22.07.2019
4840 Mist 5 1012 100 0 3.1 350 10:33 22.07.2019
4841 Mist 5 1012 100 0 3.1 350 10:33 22.07.2019
4842 Fog 5 1013 100 0 3.1 360 09:45 22.07.2019
4843 Fog 5 1013 100 0 3.1 360 09:26 22.07.2019
4844 Fog 5 1012 100 0 4.1 10 08:59 22.07.2019
4845 Fog 5 1012 100 0 4.1 10 08:37 22.07.2019
4846 Fog 5 1012 100 0 4.1 10 08:18 22.07.2019
4847 Mist 5 1013 100 0 3.6 360 07:46 22.07.2019
4848 Mist 5 1013 100 0 3.6 360 07:27 22.07.2019
4849 Mist 6 1013 93 0 1 250 04:56 22.07.2019
4850 Clouds 8 1013 87 0 1.5 280 02:58 22.07.2019
4851 Clouds 11 1013 71 0 2.6 270 00:58 22.07.2019
4852 Clouds 11 1013 71 0 2.6 270 00:39 22.07.2019
4853 Clouds 11 1013 71 0 2.6 270 00:20 22.07.2019
4854 Clouds 11 1013 71 10000 2.1 200 23:45 21.07.2019
4855 Clouds 11 1013 71 10000 2.6 200 22:58 21.07.2019
4856 Clouds 11 1013 71 10000 2.6 200 22:39 21.07.2019
4857 Clouds 11 1013 71 10000 2.6 200 22:20 21.07.2019
4858 Clouds 10 1013 76 10000 2.6 210 21:49 21.07.2019
4859 Clouds 10 1013 76 10000 2.6 210 21:26 21.07.2019
4860 Clouds 10 1012 76 10000 3.6 200 20:59 21.07.2019
4861 Clouds 10 1012 76 10000 3.6 200 20:41 21.07.2019
4862 Clouds 10 1012 76 10000 3.6 200 20:22 21.07.2019
4863 Clouds 10 1012 76 10000 4.1 200 19:49 21.07.2019
4864 Clouds 10 1012 76 10000 4.1 200 19:29 21.07.2019
4865 Fog 10 1012 76 10000 3.6 210 18:53 21.07.2019
4866 Fog 10 1012 81 10000 3.6 210 18:34 21.07.2019
4867 Clouds 9 1012 81 10000 3.6 200 17:58 21.07.2019
4868 Clouds 9 1012 81 10000 3.6 200 17:40 21.07.2019
4869 Clouds 9 1012 81 10000 3.6 200 17:19 21.07.2019
4870 Fog 8 1012 87 10000 3.1 200 16:41 21.07.2019
4871 Fog 7 1012 87 10000 3.1 200 16:22 21.07.2019
4872 Fog 7 1011 87 4000 3.6 200 15:42 21.07.2019
4873 Fog 7 1011 87 4000 3.6 200 15:21 21.07.2019
4874 Fog 7 1011 93 3000 3.1 210 14:53 21.07.2019
4875 Fog 7 1011 93 3000 3.1 210 14:25 21.07.2019
4876 Fog 6 1011 100 900 3.6 200 13:57 21.07.2019
4877 Fog 6 1011 100 900 3.6 200 13:39 21.07.2019
4878 Fog 6 1011 100 900 3.6 200 13:19 21.07.2019
4879 Fog 6 1011 93 2000 3.1 200 12:40 21.07.2019
4880 Fog 6 1011 93 2000 3.1 200 12:40 21.07.2019
4881 Fog 6 1011 93 2000 3.1 200 12:21 21.07.2019
4882 Fog 6 1010 93 1200 3.6 200 11:45 21.07.2019
4883 Fog 6 1010 93 1200 3.6 200 11:26 21.07.2019
4884 Fog 5 1010 100 0 3.6 200 10:47 21.07.2019
4885 Fog 5 1010 100 0 3.6 200 10:25 21.07.2019
4886 Fog 6 1010 100 0 3.6 200 09:55 21.07.2019
4887 Fog 6 1010 100 0 3.6 200 09:36 21.07.2019
4888 Fog 6 1009 100 0 2.1 210 08:49 21.07.2019
4889 Fog 6 1009 100 0 2.1 210 08:30 21.07.2019
4890 Fog 6 1009 100 0 1.5 250 07:56 21.07.2019
4891 Fog 6 1009 100 0 1.5 250 07:19 21.07.2019
4892 Fog 6 1009 100 0 0.5 230 06:34 21.07.2019
4893 Fog 7 1009 100 0 1.64 304.918 04:19 21.07.2019
4894 Fog 9 1009 87 10000 3.1 310 01:53 21.07.2019
4895 Clouds 13 1009 71 10000 2.6 340 00:48 21.07.2019
4896 Clouds 13 1009 71 10000 2.6 340 00:21 21.07.2019
4897 Clouds 14 1009 67 10000 4.1 340 23:48 20.07.2019
4898 Clouds 14 1009 67 10000 4.1 340 23:27 20.07.2019
4899 Clouds 15 1009 62 10000 4.6 350 22:58 20.07.2019
4900 Clouds 15 1009 62 10000 4.6 350 22:40 20.07.2019
4901 Clouds 15 1009 62 10000 4.6 350 22:19 20.07.2019
4902 Clouds 15 1009 62 10000 3.6 10 21:43 20.07.2019
4903 Clouds 15 1009 62 10000 3.6 10 21:24 20.07.2019
4904 Clouds 16 1009 59 10000 3.6 340 20:43 20.07.2019
4905 Clouds 16 1009 59 10000 3.6 340 20:23 20.07.2019
4906 Clouds 16 1010 59 10000 4.6 300 19:52 20.07.2019
4907 Clouds 16 1010 59 10000 4.6 300 19:33 20.07.2019
4908 Clouds 15 1010 62 10000 3.6 300 18:57 20.07.2019
4909 Clouds 15 1010 62 10000 3.6 300 18:38 20.07.2019
4910 Clouds 15 1010 62 10000 3.6 300 18:19 20.07.2019
4911 Clouds 16 1010 59 10000 2.6 50 17:46 20.07.2019
4912 Clouds 16 1010 59 10000 2.6 50 17:20 20.07.2019
4913 Clouds 13 1010 66 10000 2.6 50 16:42 20.07.2019
4914 Clouds 13 1010 66 10000 2.6 50 16:23 20.07.2019
4915 Clouds 12 1011 71 10000 3.1 10 15:55 20.07.2019
4916 Clouds 12 1011 71 10000 3.1 10 15:37 20.07.2019
4917 Clouds 12 1011 71 10000 3.1 10 15:18 20.07.2019
4918 Clouds 11 1011 71 10000 3.1 20 14:42 20.07.2019
4919 Clouds 11 1011 71 10000 3.1 20 14:20 20.07.2019
4920 Clouds 9 1012 81 0 1.79 350 13:38 20.07.2019
4921 Clouds 9 1012 81 10000 2.1 350 13:19 20.07.2019
4922 Clouds 9 1012 81 10000 2.1 350 12:51 20.07.2019
4923 Clouds 9 1012 81 10000 2.1 350 12:20 20.07.2019
4924 Clouds 8 1012 87 0 0.5 0 11:52 20.07.2019
4925 Clouds 8 1012 87 0 0.5 0 11:23 20.07.2019
4926 Clouds 7 1012 93 0 1 210 10:52 20.07.2019
4927 Clouds 7 1012 93 0 1 210 10:26 20.07.2019
4928 Clouds 6 1012 93 0 2.1 319.842 09:55 20.07.2019
4929 Clouds 6 1012 93 0 2.1 319.842 09:37 20.07.2019
4930 Clouds 6 1012 93 0 1.34 316.396 09:18 20.07.2019
4931 Clouds 6 1012 93 0 1.34 316.396 09:18 20.07.2019
4932 Clouds 6 1012 100 0 1.27 305.406 08:38 20.07.2019
4933 Clouds 6 1012 100 0 1.27 305.406 08:19 20.07.2019
4934 Clouds 6 1013 93 0 1.5 100 07:18 20.07.2019
4935 Clouds 6 1013 93 10000 1.27 305.406 06:35 20.07.2019
4936 Clouds 6 1013 93 10000 0.24 211.464 04:31 20.07.2019
4937 Clouds 7 1013 87 10000 2.6 190 02:38 20.07.2019
4938 Clouds 8 1013 87 10000 2.6 190 01:21 20.07.2019
4939 Clouds 9 1013 81 10000 3.1 180 00:46 20.07.2019
4940 Clouds 9 1013 81 10000 3.1 180 00:18 20.07.2019
4941 Clouds 9 1013 81 10000 3.1 180 00:18 20.07.2019
4942 Clouds 10 1013 76 10000 3.1 200 23:43 19.07.2019
4943 Clouds 10 1013 76 10000 3.1 200 23:24 19.07.2019
4944 Clouds 10 1013 76 10000 3.1 210 22:45 19.07.2019
4945 Clouds 10 1013 76 10000 3.1 210 22:26 19.07.2019
4946 Clouds 10 1013 76 10000 3.6 210 21:49 19.07.2019
4947 Clouds 10 1013 76 10000 3.6 210 21:31 19.07.2019
4948 Clouds 9 1012 81 10000 4.1 200 20:58 19.07.2019
4949 Clouds 9 1012 81 10000 4.1 200 20:37 19.07.2019
4950 Clouds 9 1012 81 10000 4.1 200 20:18 19.07.2019
4951 Clouds 10 1012 81 10000 4.1 200 19:35 19.07.2019
4952 Fog 10 1012 81 10000 4.1 200 18:43 19.07.2019
4953 Fog 10 1012 81 10000 4.1 200 18:25 19.07.2019
4954 Fog 11 1013 76 10000 3.1 190 17:56 19.07.2019
4955 Fog 11 1013 76 10000 3.1 190 17:29 19.07.2019
4956 Fog 9 1013 81 10000 2.1 230 16:57 19.07.2019
4957 Fog 9 1013 81 10000 2.1 230 16:39 19.07.2019
4958 Fog 9 1013 81 10000 2.1 230 16:18 19.07.2019
4959 Clouds 8 1013 87 10000 0.5 0 15:44 19.07.2019
4960 Clouds 8 1013 87 10000 0.5 0 15:25 19.07.2019
4961 Clouds 8 1013 93 10000 2.1 200 14:45 19.07.2019
4962 Clouds 8 1013 93 10000 2.1 200 14:45 19.07.2019
4963 Clouds 8 1013 93 10000 2.1 200 14:25 19.07.2019
4964 Clouds 7 1013 93 10000 2.6 200 13:58 19.07.2019
4965 Clouds 7 1013 93 10000 2.6 200 13:39 19.07.2019
4966 Clouds 7 1013 93 10000 2.6 200 13:20 19.07.2019
4967 Mist 7 1012 93 5000 3.1 200 12:45 19.07.2019
4968 Mist 7 1012 93 5000 3.1 200 12:26 19.07.2019
4969 Clouds 7 1012 93 10000 3.1 200 11:46 19.07.2019
4970 Clouds 7 1012 93 10000 3.1 200 11:19 19.07.2019
4971 Snow 6 1012 100 0 4.6 200 10:56 19.07.2019
4972 Snow 6 1012 100 0 4.6 200 10:37 19.07.2019
4973 Snow 6 1012 100 0 4.6 200 10:18 19.07.2019
4974 Snow 6 1012 93 0 4.1 190 09:43 19.07.2019
4975 Snow 6 1012 93 0 4.1 190 09:22 19.07.2019
4976 Snow 6 1012 93 0 4.1 190 09:22 19.07.2019
4977 Snow 5 1012 100 0 5.1 190 08:50 19.07.2019
4978 Snow 5 1012 100 0 5.1 190 08:28 19.07.2019
4979 Fog 5 1011 100 0 3.1 180 07:33 19.07.2019
4980 Clouds 6 1011 100 0 4.1 190 06:37 19.07.2019
4981 Clouds 10 1009 76 0 9.8 180 03:53 19.07.2019
4982 Clouds 10 1009 71 10000 9.8 180 01:44 19.07.2019
4983 Clouds 9 1008 81 10000 11.8 200 00:54 19.07.2019
4984 Clouds 9 1008 81 10000 11.8 200 00:21 19.07.2019
4985 Clouds 11 1008 71 10000 10.3 190 23:41 18.07.2019
4986 Clouds 11 1008 71 10000 10.3 190 23:23 18.07.2019
4987 Rain 10 1007 81 0 11.62 190 22:55 18.07.2019
4988 Rain 10 1007 81 0 11.62 190 22:36 18.07.2019
4989 Clouds 10 1007 81 10000 11.8 190 22:18 18.07.2019
4990 Clouds 10 1007 81 10000 11.8 190 21:39 18.07.2019
4991 Clouds 10 1007 81 10000 11.8 190 21:19 18.07.2019
4992 Clouds 11 1007 76 10000 8.7 190 20:46 18.07.2019
4993 Clouds 11 1007 76 10000 8.7 190 20:25 18.07.2019
4994 Clouds 10 1007 81 10000 9.3 200 19:49 18.07.2019
4995 Clouds 10 1007 81 10000 9.3 200 19:27 18.07.2019
4996 Clouds 10 1007 81 10000 8.2 200 18:52 18.07.2019
4997 Clouds 10 1007 81 10000 8.2 200 18:23 18.07.2019
4998 Clouds 11 1007 76 10000 7.7 200 17:57 18.07.2019
4999 Clouds 11 1007 76 10000 7.7 200 17:37 18.07.2019
5000 Clouds 11 1007 76 10000 7.7 200 17:19 18.07.2019
5001 Clouds 11 1007 76 10000 8.2 200 16:49 18.07.2019
5002 Clouds 11 1007 76 10000 8.2 200 16:25 18.07.2019
5003 Clouds 14 1007 67 10000 10.8 170 15:57 18.07.2019
5004 Clouds 14 1007 67 10000 10.8 170 15:36 18.07.2019
5005 Clouds 13 1007 71 10000 7.7 180 14:56 18.07.2019
5006 Clouds 13 1007 71 10000 7.7 180 14:38 18.07.2019
5007 Clouds 13 1007 71 10000 7.7 180 14:19 18.07.2019
5008 Clouds 13 1006 71 10000 9.8 180 13:42 18.07.2019
5009 Clouds 13 1006 71 10000 9.8 180 13:21 18.07.2019
5010 Clouds 12 1006 76 10000 6.7 180 12:46 18.07.2019
5011 Clouds 12 1006 76 10000 6.7 180 12:21 18.07.2019
5012 Clouds 9 1006 93 10000 0.5 0 11:52 18.07.2019
5013 Clouds 9 1006 93 10000 0.5 0 11:33 18.07.2019
5014 Clouds 9 1006 93 0 2.6 310 10:52 18.07.2019
5015 Clouds 9 1006 93 0 2.6 310 10:52 18.07.2019
5016 Clouds 9 1006 93 0 2.6 310 10:30 18.07.2019
5017 Clouds 9 1007 93 0 3.6 360 09:45 18.07.2019
5018 Rain 9 1007 93 0 3.6 360 09:23 18.07.2019
5019 Rain 9 1007 93 0 6.2 170 08:49 18.07.2019
5020 Rain 9 1007 93 0 6.2 170 08:20 18.07.2019
5021 Rain 9 1007 93 0 5.1 200 07:43 18.07.2019
5022 Rain 9 1007 93 0 5.1 200 07:24 18.07.2019
5023 Rain 10 1007 87 0 4.6 180 06:38 18.07.2019
5024 Drizzle 10 1008 87 0 1.5 0 05:35 18.07.2019
5025 Drizzle 10 1008 87 10000 7.7 180 03:23 18.07.2019
5026 Clouds 10 1008 87 10000 4.6 200 01:52 18.07.2019
5027 Clouds 10 1008 87 10000 4.6 200 01:18 18.07.2019
5028 Clouds 10 1009 81 10000 4.1 180 23:54 17.07.2019
5029 Clouds 10 1009 81 10000 4.1 180 23:20 17.07.2019
5030 Clouds 10 1010 87 10000 3.1 200 22:56 17.07.2019
5031 Clouds 10 1010 87 10000 3.1 200 22:38 17.07.2019
5032 Clouds 10 1010 87 10000 3.1 200 22:19 17.07.2019
5033 Clouds 10 1010 87 10000 3.6 200 21:45 17.07.2019
5034 Clouds 10 1010 87 10000 3.6 200 21:26 17.07.2019
5035 Clouds 10 1010 87 10000 2.6 190 20:58 17.07.2019
5036 Clouds 10 1010 87 10000 2.6 190 20:40 17.07.2019
5037 Clouds 10 1010 87 10000 2.6 190 20:21 17.07.2019
5038 Clouds 10 1011 93 10000 2.6 210 19:56 17.07.2019
5039 Clouds 10 1011 93 10000 2.6 210 19:37 17.07.2019
5040 Clouds 10 1011 93 10000 2.6 210 19:18 17.07.2019
5041 Clouds 10 1011 87 10000 2.1 220 18:40 17.07.2019
5042 Clouds 10 1011 87 10000 2.1 220 18:20 17.07.2019
5043 Clouds 9 1011 93 10000 4.1 210 17:50 17.07.2019
5044 Clouds 9 1011 93 10000 4.1 210 17:27 17.07.2019
5045 Clouds 10 1011 87 10000 4.6 200 16:55 17.07.2019
5046 Clouds 10 1011 87 10000 4.6 200 16:37 17.07.2019
5047 Clouds 10 1011 87 10000 4.6 200 16:18 17.07.2019
5048 Clouds 10 1011 87 10000 6.7 180 15:47 17.07.2019
5049 Clouds 10 1011 87 10000 6.7 180 15:25 17.07.2019
5050 Rain 10 1011 87 10000 8.7 170 14:54 17.07.2019
5051 Rain 10 1011 87 10000 8.7 170 14:36 17.07.2019
5052 Rain 10 1011 87 10000 8.7 170 14:18 17.07.2019
5053 Rain 9 1010 87 4000 12.3 170 13:41 17.07.2019
5054 Rain 9 1010 87 4000 12.3 170 13:20 17.07.2019
5055 Rain 9 1010 87 4000 11.3 170 12:40 17.07.2019
5056 Rain 9 1010 87 4000 11.3 170 12:21 17.07.2019
5057 Snow 8 1010 93 0 7.7 180 11:45 17.07.2019
5058 Snow 8 1010 93 0 7.7 180 11:21 17.07.2019
5059 Rain 9 1010 87 0 10.8 180 10:51 17.07.2019
5060 Rain 9 1010 87 0 10.8 180 10:31 17.07.2019
5061 Rain 9 1010 87 0 10.8 180 10:31 17.07.2019
5062 Rain 8 1010 93 0 12.9 170 09:59 17.07.2019
5063 Rain 8 1010 93 0 12.9 170 09:40 17.07.2019
5064 Rain 8 1010 93 0 12.9 170 09:22 17.07.2019
5065 Rain 8 1009 93 0 11.3 180 08:43 17.07.2019
5066 Rain 8 1009 93 0 11.3 180 08:22 17.07.2019
5067 Rain 8 1009 93 0 12.9 180 07:50 17.07.2019
5068 Rain 8 1009 93 0 12.9 180 07:24 17.07.2019
5069 Rain 7 1009 100 5000 11.8 180 06:56 17.07.2019
5070 Rain 7 1009 100 5000 11.8 180 06:30 17.07.2019
5071 Rain 7 1009 100 5000 13.4 170 05:50 17.07.2019
5072 Rain 7 1009 100 5000 13.4 170 05:30 17.07.2019
5073 Rain 7 1008 100 6000 17 170 04:45 17.07.2019
5074 Rain 7 1006 100 7000 18.5 170 03:32 17.07.2019
5075 Rain 8 1005 93 4000 18 170 02:21 17.07.2019
5076 Rain 8 1005 93 7000 19 170 01:27 17.07.2019
5077 Rain 8 1006 93 7000 18.5 170 00:59 17.07.2019
5078 Rain 9 1006 93 7000 18.5 170 00:37 17.07.2019
5079 Rain 9 1006 93 7000 18.5 170 00:19 17.07.2019
5080 Rain 9 1006 93 7000 18.5 170 00:19 17.07.2019
5081 Rain 9 1006 93 7000 13.9 170 23:40 16.07.2019
5082 Rain 9 1006 93 7000 13.9 170 23:20 16.07.2019
5083 Rain 9 1006 93 6000 11.8 170 22:43 16.07.2019
5084 Rain 9 1007 93 10000 11.3 170 22:24 16.07.2019
5085 Rain 9 1006 93 10000 12.3 170 21:47 16.07.2019
5086 Rain 9 1006 93 10000 12.3 170 21:25 16.07.2019
5087 Rain 9 1006 93 10000 12.3 170 21:25 16.07.2019
5088 Rain 10 1007 87 10000 9.8 180 20:59 16.07.2019
5089 Rain 10 1007 87 10000 9.8 180 20:40 16.07.2019
5090 Rain 10 1007 87 10000 9.8 180 20:21 16.07.2019
5091 Clouds 10 1007 76 10000 7.7 200 19:53 16.07.2019
5092 Clouds 10 1007 76 10000 7.7 200 19:30 16.07.2019
5093 Clouds 10 1007 76 10000 6.7 190 18:58 16.07.2019
5094 Clouds 10 1007 76 10000 6.7 190 18:39 16.07.2019
5095 Clouds 10 1007 76 10000 6.7 190 18:20 16.07.2019
5096 Clouds 12 1008 66 10000 5.7 200 17:44 16.07.2019
5097 Clouds 12 1008 66 10000 5.7 200 17:44 16.07.2019
5098 Clouds 12 1008 66 10000 5.7 200 17:24 16.07.2019
5099 Clouds 12 1008 66 10000 5.1 200 16:49 16.07.2019
5100 Clouds 12 1008 66 10000 5.1 200 16:25 16.07.2019
5101 Clouds 11 1009 71 10000 3.1 200 15:57 16.07.2019
5102 Clouds 11 1009 71 10000 3.1 200 15:38 16.07.2019
5103 Clouds 11 1009 71 10000 3.1 200 15:38 16.07.2019
5104 Clouds 11 1009 71 10000 3.1 200 15:38 16.07.2019
5105 Clouds 11 1009 71 10000 3.1 200 15:19 16.07.2019
5106 Clouds 12 1009 66 10000 2.6 200 14:47 16.07.2019
5107 Clouds 12 1009 66 10000 2.6 200 14:28 16.07.2019
5108 Fog 9 1010 81 10000 2.1 200 13:57 16.07.2019
5109 Fog 9 1010 81 10000 2.1 200 13:37 16.07.2019
5110 Fog 9 1010 81 10000 2.1 200 13:18 16.07.2019
5111 Fog 9 1010 81 10000 2.1 190 12:43 16.07.2019
5112 Fog 9 1010 81 10000 2.1 190 12:20 16.07.2019
5113 Fog 9 1010 81 10000 1.5 200 11:54 16.07.2019
5114 Fog 9 1010 81 10000 1.5 200 11:36 16.07.2019
5115 Fog 9 1010 81 10000 1.5 200 11:18 16.07.2019
5116 Clouds 9 1011 76 10000 1.5 340 10:43 16.07.2019
5117 Clouds 9 1011 76 10000 1.5 340 10:20 16.07.2019
5118 Clouds 9 1011 76 10000 5.1 200 09:44 16.07.2019
5119 Clouds 9 1011 76 10000 5.1 200 09:21 16.07.2019
5120 Clouds 8 1011 81 10000 5.1 180 08:49 16.07.2019
5121 Clouds 8 1011 81 10000 5.1 180 08:28 16.07.2019
5122 Clouds 8 1011 81 10000 6.7 200 07:58 16.07.2019
5123 Clouds 8 1011 81 10000 6.7 200 07:39 16.07.2019
5124 Clouds 7 1011 87 10000 3.6 180 06:59 16.07.2019
5125 Clouds 7 1011 87 10000 3.6 180 06:38 16.07.2019
5126 Clouds 8 1012 81 10000 2.6 170 05:52 16.07.2019
5127 Clouds 8 1012 81 10000 2.6 170 05:30 16.07.2019
5128 Clouds 8 1012 75 10000 5.7 200 04:52 16.07.2019
5129 Clouds 9 1012 70 10000 6.2 190 03:44 16.07.2019
5130 Clouds 10 1012 66 10000 4.6 160 02:53 16.07.2019
5131 Clouds 10 1012 66 10000 4.6 160 02:28 16.07.2019
5132 Clouds 11 1012 62 10000 5.7 200 01:40 16.07.2019
5133 Clouds 10 1012 66 10000 4.6 200 00:39 16.07.2019
5134 Clouds 10 1012 66 10000 4.6 200 00:19 16.07.2019
5135 Clouds 10 1012 76 10000 5.1 190 23:42 15.07.2019
5136 Clouds 10 1012 76 10000 5.1 190 23:23 15.07.2019
5137 Clouds 11 1012 71 10000 5.7 200 22:47 15.07.2019
5138 Clouds 11 1012 71 10000 5.7 200 22:22 15.07.2019
5139 Fog 11 1012 66 10000 5.1 200 21:57 15.07.2019
5140 Fog 11 1012 66 10000 5.1 200 21:39 15.07.2019
5141 Fog 11 1012 66 10000 5.1 200 21:19 15.07.2019
5142 Fog 11 1012 66 10000 5.1 200 20:54 15.07.2019
5143 Fog 11 1012 66 10000 5.1 200 20:36 15.07.2019
5144 Fog 11 1012 66 10000 5.1 200 20:18 15.07.2019
5145 Fog 10 1012 71 10000 5.7 200 19:39 15.07.2019
5146 Fog 10 1012 71 10000 5.7 200 19:19 15.07.2019
5147 Fog 9 1012 76 10000 5.1 200 18:49 15.07.2019
5148 Fog 9 1012 76 10000 5.1 200 18:23 15.07.2019
5149 Fog 9 1012 81 10000 5.1 200 17:59 15.07.2019
5150 Fog 9 1012 81 10000 5.1 200 17:41 15.07.2019
5151 Fog 9 1012 81 10000 5.1 200 17:22 15.07.2019
5152 Clouds 9 1012 81 10000 4.1 200 16:58 15.07.2019
5153 Clouds 9 1012 81 10000 4.1 200 16:38 15.07.2019
5154 Clouds 9 1012 81 10000 4.1 200 16:19 15.07.2019
5155 Fog 8 1012 87 10000 5.1 200 15:43 15.07.2019
5156 Fog 8 1012 87 10000 5.1 200 15:25 15.07.2019
5157 Fog 7 1012 93 400 4.1 200 14:59 15.07.2019
5158 Fog 7 1012 93 400 4.1 200 14:40 15.07.2019
5159 Fog 7 1012 93 400 4.1 200 14:21 15.07.2019
5160 Fog 7 1012 93 600 4.1 190 13:48 15.07.2019
5161 Fog 7 1012 93 600 4.1 190 13:21 15.07.2019
5162 Fog 6 1012 100 800 4.1 200 12:56 15.07.2019
5163 Fog 6 1012 100 800 4.1 200 12:37 15.07.2019
5164 Fog 6 1012 100 800 4.1 200 12:18 15.07.2019
5165 Fog 6 1012 100 200 4.1 200 11:41 15.07.2019
5166 Fog 6 1012 100 200 4.1 200 11:21 15.07.2019
5167 Fog 6 1012 100 200 4.6 190 10:43 15.07.2019
5168 Fog 6 1012 100 200 4.6 190 10:24 15.07.2019
5169 Clouds 9 1011 81 0 6.2 190 09:44 15.07.2019
5170 Clouds 9 1011 81 0 6.2 190 09:25 15.07.2019
5171 Clear 9 1011 81 0 5.7 200 08:49 15.07.2019
5172 Clear 9 1011 81 0 5.7 200 08:27 15.07.2019
5173 Clear 8 1011 87 0 4.6 190 07:57 15.07.2019
5174 Clear 8 1011 87 0 4.6 190 07:36 15.07.2019
5175 Clear 9 1011 81 0 3.6 200 06:50 15.07.2019
5176 Clear 9 1011 81 0 3.6 200 06:30 15.07.2019
5177 Clear 12 1011 54 0 2.1 160 05:44 15.07.2019
5178 Clear 12 1011 54 0 2.1 160 05:19 15.07.2019
5179 Clear 13 1011 50 0 2.1 60 04:41 15.07.2019
5180 Clear 14 1011 50 0 2.6 30 03:33 15.07.2019
5181 Clear 15 1011 47 0 3.1 40 02:30 15.07.2019
5182 Clear 16 1011 48 0 3.1 40 01:39 15.07.2019
5183 Clear 16 1011 48 0 3.1 40 01:20 15.07.2019
5184 Clear 17 1011 42 10000 2.1 320 00:46 15.07.2019
5185 Clear 17 1011 42 10000 2.1 320 00:19 15.07.2019
5186 Clear 18 1011 42 10000 3.1 340 23:41 14.07.2019
5187 Clear 18 1011 42 10000 3.1 340 23:21 14.07.2019
5188 Clouds 18 1011 39 10000 3.1 350 22:58 14.07.2019
5189 Clouds 18 1011 39 10000 3.1 350 22:39 14.07.2019
5190 Clouds 18 1011 39 10000 3.1 350 22:21 14.07.2019
5191 Clouds 19 1011 39 10000 2.6 330 21:54 14.07.2019
5192 Clouds 19 1011 39 10000 2.6 330 21:36 14.07.2019
5193 Clouds 19 1011 39 10000 2.6 330 21:18 14.07.2019
5194 Clouds 19 1011 39 10000 3.1 20 20:39 14.07.2019
5195 Clouds 19 1011 39 10000 3.1 20 20:21 14.07.2019
5196 Clouds 19 1011 39 10000 3.1 20 20:21 14.07.2019
5197 Clouds 18 1011 52 10000 2.1 320 19:57 14.07.2019
5198 Clouds 18 1011 52 10000 2.1 320 19:38 14.07.2019
5199 Clouds 18 1011 52 10000 2.1 320 19:19 14.07.2019
5200 Clear 18 1012 42 10000 2.6 30 18:41 14.07.2019
5201 Clear 18 1012 42 10000 2.6 30 18:22 14.07.2019
5202 Clear 17 1012 48 10000 3.1 30 17:58 14.07.2019
5203 Clear 17 1012 48 10000 3.1 30 17:36 14.07.2019
5204 Clear 17 1012 48 10000 3.1 30 17:18 14.07.2019
5205 Clear 15 1012 58 10000 3.6 30 16:42 14.07.2019
5206 Clear 15 1012 58 10000 3.6 30 16:21 14.07.2019
5207 Clear 13 1013 71 10000 4.6 60 15:43 14.07.2019
5208 Clear 13 1013 71 10000 4.6 60 15:23 14.07.2019
5209 Clear 13 1013 71 10000 2.1 220 14:47 14.07.2019
5210 Clear 13 1013 71 10000 2.1 220 14:20 14.07.2019
5211 Clear 10 1013 87 10000 5.1 60 13:47 14.07.2019
5212 Clear 10 1013 87 10000 5.1 60 13:25 14.07.2019
5213 Clear 10 1013 87 10000 4.6 50 12:57 14.07.2019
5214 Clear 10 1013 87 10000 4.6 50 12:39 14.07.2019
5215 Clear 10 1013 87 10000 4.6 50 12:19 14.07.2019
5216 Clouds 9 1014 93 10000 4.6 50 11:49 14.07.2019
5217 Clouds 9 1014 93 10000 4.6 50 11:49 14.07.2019
5218 Clouds 9 1014 93 10000 4.6 50 11:20 14.07.2019
5219 Clear 8 1015 80 0 2.63 345.139 10:45 14.07.2019
5220 Clear 10 1014 81 0 1 170 10:21 14.07.2019
5221 Clear 10 1014 81 0 1 170 10:21 14.07.2019
5222 Clear 10 1014 81 0 1 170 09:48 14.07.2019
5223 Clear 10 1014 81 0 1 170 09:30 14.07.2019
5224 Clouds 9 1014 87 0 2.03 326.662 08:48 14.07.2019
5225 Clouds 9 1014 87 0 2.03 326.662 08:30 14.07.2019
5226 Clouds 10 1014 81 0 2.6 0 07:43 14.07.2019
5227 Clouds 10 1014 81 0 2.6 0 07:21 14.07.2019
5228 Clouds 10 1015 81 0 4.6 50 05:47 14.07.2019
5229 Clouds 10 1016 81 10000 4.1 50 03:59 14.07.2019
5230 Clouds 10 1016 81 10000 4.1 50 03:41 14.07.2019
5231 Clouds 10 1016 81 10000 4.1 50 03:23 14.07.2019
5232 Clouds 10 1016 81 10000 5.7 60 02:24 14.07.2019
5233 Clouds 10 1016 81 10000 5.7 60 02:24 14.07.2019
5234 Clouds 10 1016 81 10000 6.7 60 01:57 14.07.2019
5235 Clouds 10 1016 81 10000 6.7 60 01:30 14.07.2019
5236 Clouds 10 1017 81 10000 4.6 50 00:42 14.07.2019
5237 Clouds 10 1017 81 10000 4.6 50 00:21 14.07.2019
5238 Clouds 11 1017 76 10000 4.1 40 23:59 13.07.2019
5239 Clouds 11 1017 76 10000 4.1 40 23:41 13.07.2019
5240 Clouds 11 1017 76 10000 4.1 40 23:22 13.07.2019
5241 Clouds 9 1017 87 10000 5.1 30 22:42 13.07.2019
5242 Clouds 9 1017 87 10000 5.1 30 22:22 13.07.2019
5243 Clouds 9 1017 87 10000 5.1 30 21:49 13.07.2019
5244 Clouds 9 1017 87 10000 5.1 30 21:22 13.07.2019
5245 Clouds 9 1017 93 10000 2.6 360 20:53 13.07.2019
5246 Clouds 9 1017 93 10000 2.6 360 20:33 13.07.2019
5247 Rain 8 1017 93 10000 2.6 350 19:53 13.07.2019
5248 Rain 8 1017 93 10000 2.6 350 19:31 13.07.2019
5249 Rain 7 1018 100 10000 4.1 200 18:56 13.07.2019
5250 Rain 7 1018 100 10000 4.1 200 18:38 13.07.2019
5251 Rain 7 1018 100 10000 4.1 200 18:18 13.07.2019
5252 Rain 6 1018 100 10000 4.1 190 17:37 13.07.2019
5253 Rain 6 1018 100 10000 4.1 190 17:19 13.07.2019
5254 Rain 6 1018 100 10000 4.1 190 17:19 13.07.2019
5255 Drizzle 9 1017 81 10000 4.6 190 16:44 13.07.2019
5256 Drizzle 9 1017 81 10000 4.6 190 16:25 13.07.2019
5257 Rain 7 1017 93 10000 5.7 200 15:48 13.07.2019
5258 Rain 7 1017 93 10000 5.7 200 15:24 13.07.2019
5259 Clouds 7 1017 87 10000 5.7 190 14:57 13.07.2019
5260 Clouds 7 1017 87 10000 5.7 190 14:38 13.07.2019
5261 Clouds 7 1017 87 10000 5.7 190 14:19 13.07.2019
5262 Clouds 7 1017 87 10000 3.6 200 13:43 13.07.2019
5263 Clouds 7 1017 87 10000 3.6 200 13:19 13.07.2019
5264 Clouds 7 1016 87 10000 6.7 190 12:41 13.07.2019
5265 Clouds 7 1016 87 10000 6.7 190 12:23 13.07.2019
5266 Clouds 6 1016 93 10000 5.1 200 11:57 13.07.2019
5267 Clouds 6 1016 93 10000 5.1 200 11:36 13.07.2019
5268 Clouds 6 1016 93 10000 5.1 200 11:18 13.07.2019
5269 Clouds 7 1016 87 0 7.2 200 10:39 13.07.2019
5270 Clouds 7 1016 87 0 7.2 200 10:21 13.07.2019
5271 Clouds 7 1016 87 0 8.7 200 09:42 13.07.2019
5272 Clouds 7 1016 87 0 8.7 200 09:24 13.07.2019
5273 Clouds 7 1016 87 0 7.7 180 08:55 13.07.2019
5274 Clouds 7 1016 87 0 7.7 180 08:27 13.07.2019
5275 Clouds 7 1015 87 0 6.2 190 07:50 13.07.2019
5276 Clouds 7 1015 87 0 6.2 190 07:23 13.07.2019
5277 Clouds 7 1015 87 10000 5.7 190 06:29 13.07.2019
5278 Clouds 7 1015 87 10000 5.1 190 05:47 13.07.2019
5279 Clouds 7 1015 81 10000 7.7 200 04:40 13.07.2019
5280 Clouds 7 1015 81 10000 7.7 200 04:20 13.07.2019
5281 Clouds 7 1015 81 10000 6.7 200 03:41 13.07.2019
5282 Clouds 7 1015 81 10000 6.7 200 03:18 13.07.2019
5283 Clouds 6 1015 93 10000 5.7 200 01:53 13.07.2019
5284 Clouds 6 1015 93 10000 5.7 200 01:21 13.07.2019
5285 Fog 7 1015 87 10000 5.1 200 00:58 13.07.2019
5286 Fog 7 1015 87 10000 5.1 200 00:21 13.07.2019
5287 Fog 7 1014 87 10000 5.1 200 23:53 12.07.2019
5288 Fog 7 1014 87 10000 5.1 200 23:33 12.07.2019
5289 Fog 9 1014 76 10000 4.6 210 22:59 12.07.2019
5290 Fog 9 1014 76 10000 4.6 210 22:40 12.07.2019
5291 Fog 9 1014 76 10000 4.6 210 22:21 12.07.2019
5292 Clouds 8 1015 81 10000 4.6 200 21:42 12.07.2019
5293 Clouds 8 1015 81 10000 4.6 200 21:21 12.07.2019
5294 Clouds 7 1014 87 10000 4.6 200 20:52 12.07.2019
5295 Clouds 7 1014 87 10000 4.6 200 20:23 12.07.2019
5296 Clouds 9 1014 76 10000 3.6 220 19:44 12.07.2019
5297 Clouds 9 1014 76 10000 3.6 220 19:26 12.07.2019
5298 Clouds 10 1014 76 10000 3.1 190 18:58 12.07.2019
5299 Clouds 10 1014 76 10000 3.1 190 18:37 12.07.2019
5300 Clouds 10 1014 76 10000 3.1 190 18:19 12.07.2019
5301 Clouds 8 1014 81 10000 3.1 200 17:46 12.07.2019
5302 Clouds 8 1014 81 10000 3.1 200 17:27 12.07.2019
5303 Clouds 7 1014 87 10000 3.1 200 16:40 12.07.2019
5304 Clouds 7 1014 87 10000 3.1 200 16:20 12.07.2019
5305 Fog 6 1014 93 8000 3.1 220 15:41 12.07.2019
5306 Fog 6 1014 93 8000 3.1 220 15:41 12.07.2019
5307 Fog 6 1014 93 8000 3.1 220 15:21 12.07.2019
5308 Drizzle 6 1014 93 1100 3.1 220 14:56 12.07.2019
5309 Drizzle 6 1014 93 1100 3.1 220 14:38 12.07.2019
5310 Drizzle 6 1014 93 1100 3.1 220 14:19 12.07.2019
5311 Drizzle 5 1014 100 1500 2.6 200 13:39 12.07.2019
5312 Drizzle 5 1014 100 2000 2.6 210 12:58 12.07.2019
5313 Drizzle 5 1014 100 2000 2.6 210 12:38 12.07.2019
5314 Drizzle 5 1014 100 2000 2.6 210 12:20 12.07.2019
5315 Fog 5 1014 100 250 3.1 210 11:44 12.07.2019
5316 Fog 5 1014 100 250 3.1 210 11:20 12.07.2019
5317 Fog 5 1014 100 300 4.1 200 10:44 12.07.2019
5318 Fog 5 1014 100 300 4.1 200 10:24 12.07.2019
5319 Fog 5 1013 93 250 3.1 210 09:54 12.07.2019
5320 Fog 5 1013 93 250 3.1 210 09:30 12.07.2019
5321 Snow 5 1013 100 0 2.6 200 08:59 12.07.2019
5322 Snow 5 1013 100 0 2.6 200 08:41 12.07.2019
5323 Snow 5 1013 100 0 2.6 200 08:19 12.07.2019
5324 Snow 5 1013 100 0 2.1 200 07:46 12.07.2019
5325 Snow 5 1013 100 0 2.1 200 07:26 12.07.2019
5326 Snow 5 1013 93 0 2.1 200 06:29 12.07.2019
5327 Rain 5 1014 100 0 3.1 210 05:48 12.07.2019
5328 Clouds 6 1013 93 0 2.6 200 03:23 12.07.2019
5329 Clouds 7 1013 87 10000 3.6 200 01:45 12.07.2019
5330 Clouds 8 1013 81 10000 3.6 200 00:58 12.07.2019
5331 Clouds 8 1013 81 10000 3.6 200 00:30 12.07.2019
5332 Clouds 9 1013 76 10000 3.6 200 23:50 11.07.2019
5333 -273 0 0 0 0 0 23:26 11.07.2019
5334 Clouds 10 1013 71 10000 3.6 210 22:59 11.07.2019
5335 Clouds 10 1013 71 10000 3.6 210 22:39 11.07.2019
5336 Clouds 10 1013 71 10000 3.6 210 22:21 11.07.2019
5337 Clouds 10 1013 71 10000 4.1 200 21:42 11.07.2019
5338 Clouds 10 1013 71 10000 4.1 200 21:42 11.07.2019
5339 Clouds 10 1013 71 10000 4.1 200 21:19 11.07.2019
5340 Clouds 11 1013 66 10000 3.6 200 20:55 11.07.2019
5341 Clouds 11 1013 66 10000 3.6 200 20:37 11.07.2019
5342 Clouds 11 1013 66 10000 3.6 200 20:18 11.07.2019
5343 Clouds 11 1013 66 10000 3.1 190 19:44 11.07.2019
5344 Clouds 11 1013 66 10000 3.1 190 19:24 11.07.2019
5345 Clouds 10 1013 76 10000 2.1 210 18:53 11.07.2019
5346 Clouds 10 1013 76 10000 2.1 210 18:33 11.07.2019
5347 Clouds 9 1013 76 10000 2.6 200 17:58 11.07.2019
5348 Clouds 9 1013 76 10000 2.6 200 17:40 11.07.2019
5349 Clouds 9 1013 76 10000 2.6 200 17:22 11.07.2019
5350 Clouds 8 1014 81 10000 2.1 190 16:45 11.07.2019
5351 Clouds 8 1014 81 10000 2.1 190 16:22 11.07.2019
5352 Clouds 7 1014 87 10000 2.1 200 15:44 11.07.2019
5353 Clouds 7 1014 87 10000 2.1 200 15:25 11.07.2019
5354 Clouds 7 1014 87 10000 2.1 190 14:59 11.07.2019
5355 Clouds 7 1014 87 10000 2.1 190 14:40 11.07.2019
5356 Clouds 7 1014 87 10000 2.1 190 14:20 11.07.2019
5357 Clouds 7 1014 87 10000 0.5 0 13:45 11.07.2019
5358 -273 0 0 0 0 0 13:26 11.07.2019
5359 Mist 6 1014 93 4000 1.5 330 12:42 11.07.2019
5360 Mist 6 1014 93 4000 1.5 330 12:23 11.07.2019
5361 Clouds 6 1014 93 6000 1 260 11:52 11.07.2019
5362 Clouds 6 1014 93 6000 1 260 11:30 11.07.2019
5363 Clouds 6 1014 93 0 1.5 0 10:59 11.07.2019
5364 Clouds 6 1014 93 0 1.5 0 10:41 11.07.2019
5365 Clouds 6 1014 93 0 1.5 0 10:18 11.07.2019
5366 Clouds 5 1014 100 0 2.1 220 09:41 11.07.2019
5367 Clouds 5 1014 100 0 2.1 220 09:23 11.07.2019
5368 Clouds 6 1014 93 0 1.5 220 08:50 11.07.2019
5369 Clouds 6 1014 93 0 1.5 220 08:24 11.07.2019
5370 Clouds 5 1014 100 0 3.1 190 07:52 11.07.2019
5371 Clouds 5 1014 100 0 3.1 190 07:32 11.07.2019
5372 Clouds 6 1014 93 0 4.1 200 06:30 11.07.2019
5373 Clouds 5 1014 93 0 3.1 190 05:48 11.07.2019
5374 Clouds 5 1014 93 0 3.1 190 05:28 11.07.2019
5375 Clouds 5 1014 93 0 4.6 200 04:53 11.07.2019
5376 Clouds 6 1014 87 0 5.1 200 02:38 11.07.2019
5377 Clouds 7 1014 81 10000 6.7 200 00:50 11.07.2019
5378 Clouds 7 1014 81 10000 6.7 200 00:26 11.07.2019
5379 Clouds 7 1014 81 10000 5.7 200 23:37 10.07.2019
5380 Clouds 7 1014 81 10000 5.7 200 23:18 10.07.2019
5381 Clouds 7 1013 87 10000 6.2 200 22:42 10.07.2019
5382 Clouds 7 1013 87 10000 6.2 200 22:19 10.07.2019
5383 Clouds 7 1013 87 10000 6.2 190 21:44 10.07.2019
5384 Clouds 7 1013 87 10000 6.2 190 21:26 10.07.2019
5385 Clouds 7 1013 87 10000 6.2 190 20:56 10.07.2019
5386 Clouds 7 1013 87 10000 6.2 190 20:38 10.07.2019
5387 Clouds 7 1013 87 10000 6.2 190 20:18 10.07.2019
5388 Clouds 7 1013 87 10000 5.7 200 19:45 10.07.2019
5389 Clouds 7 1013 87 10000 5.7 200 19:22 10.07.2019
5390 Clouds 7 1013 87 10000 6.7 200 18:57 10.07.2019
5391 Clouds 7 1013 87 10000 6.7 200 18:38 10.07.2019
5392 Clouds 7 1013 87 10000 6.7 200 18:20 10.07.2019
5393 Clouds 7 1013 93 10000 6.7 200 17:41 10.07.2019
5394 Clouds 7 1013 93 10000 6.7 200 17:20 10.07.2019
5395 Fog 6 1013 100 10000 5.7 210 16:37 10.07.2019
5396 Fog 6 1013 100 10000 5.7 210 16:18 10.07.2019
5397 Fog 6 1013 100 2000 4.6 210 15:45 10.07.2019
5398 Fog 6 1013 100 2000 4.6 210 15:19 10.07.2019
5399 Fog 6 1013 93 1000 5.7 200 14:41 10.07.2019
5400 Fog 6 1013 93 1000 5.7 200 14:22 10.07.2019
5401 Fog 6 1013 100 400 5.1 200 13:46 10.07.2019
5402 Fog 6 1013 100 400 5.1 200 13:19 10.07.2019
5403 Fog 6 1013 100 400 5.1 200 13:19 10.07.2019
5404 Fog 6 1013 100 300 5.1 200 12:58 10.07.2019
5405 Fog 6 1013 100 300 5.1 200 12:37 10.07.2019
5406 Fog 6 1013 100 300 5.1 200 12:18 10.07.2019
5407 Drizzle 6 1013 93 400 5.7 200 11:45 10.07.2019
5408 Drizzle 6 1013 93 400 5.7 200 11:21 10.07.2019
5409 Mist 6 1013 93 1100 4.6 190 10:45 10.07.2019
5410 Mist 6 1013 93 1100 4.6 190 10:21 10.07.2019
5411 Mist 6 1013 93 0 5.1 200 09:44 10.07.2019
5412 Mist 6 1013 93 0 5.1 200 09:21 10.07.2019
5413 Fog 6 1012 93 0 5.1 200 08:52 10.07.2019
5414 Fog 6 1012 93 0 5.1 200 08:52 10.07.2019
5415 Fog 6 1012 93 0 5.1 200 08:30 10.07.2019
5416 Fog 6 1012 93 0 5.1 200 08:30 10.07.2019
5417 Mist 6 1013 100 0 6.2 200 07:56 10.07.2019
5418 Mist 6 1013 100 0 6.2 200 07:33 10.07.2019
5419 Mist 6 1013 100 0 5.7 200 06:57 10.07.2019
5420 Mist 6 1013 93 0 7.7 200 05:59 10.07.2019
5421 Mist 6 1013 93 0 7.7 200 05:39 10.07.2019
5422 Rain 6 1013 100 0 6.7 200 04:28 10.07.2019
5423 Fog 7 1013 93 7000 7.7 200 00:48 10.07.2019
5424 Fog 7 1013 93 7000 7.7 200 00:29 10.07.2019
5425 Clouds 8 1013 87 10000 6.2 220 23:42 09.07.2019
5426 Clouds 8 1013 87 10000 6.2 220 23:22 09.07.2019
5427 Fog 10 1013 76 10000 6.2 190 22:43 09.07.2019
5428 Fog 10 1013 76 10000 6.2 190 22:24 09.07.2019
5429 Fog 10 1012 76 10000 5.1 200 21:59 09.07.2019
5430 Fog 10 1012 76 10000 5.1 200 21:41 09.07.2019
5431 Fog 10 1012 76 10000 5.1 200 21:23 09.07.2019
5432 Fog 10 1012 76 10000 5.7 200 20:43 09.07.2019
5433 Fog 10 1012 76 10000 5.7 200 20:25 09.07.2019
5434 Fog 11 1012 71 10000 6.7 200 19:43 09.07.2019
5435 Fog 11 1012 71 10000 6.7 200 19:24 09.07.2019
5436 Clouds 13 1012 62 10000 7.7 200 18:49 09.07.2019
5437 Clouds 13 1012 62 10000 7.7 200 18:27 09.07.2019
5438 Clouds 14 1013 58 10000 5.1 200 17:57 09.07.2019
5439 Clouds 14 1013 58 10000 5.1 200 17:39 09.07.2019
5440 Clouds 14 1013 58 10000 5.1 200 17:20 09.07.2019
5441 Clouds 14 1013 58 10000 4.1 200 16:50 09.07.2019
5442 Clouds 14 1013 58 10000 4.1 200 16:25 09.07.2019
5443 Clouds 14 1012 58 10000 3.1 190 15:55 09.07.2019
5444 Clouds 14 1012 58 10000 3.1 190 15:36 09.07.2019
5445 Clouds 14 1012 58 10000 3.1 200 14:59 09.07.2019
5446 Clouds 14 1012 58 10000 3.1 200 14:39 09.07.2019
5447 Clouds 14 1012 58 10000 3.1 200 14:20 09.07.2019
5448 Clouds 14 1012 58 10000 3.1 200 14:20 09.07.2019
5449 Clouds 14 1012 58 10000 2.1 190 13:45 09.07.2019
5450 Clouds 14 1012 58 10000 2.1 190 13:27 09.07.2019
5451 Clouds 11 1012 71 10000 3.1 190 12:42 09.07.2019
5452 Clouds 11 1012 71 10000 3.1 190 12:24 09.07.2019
5453 Clouds 10 1012 76 10000 3.6 200 11:59 09.07.2019
5454 Clouds 10 1012 76 10000 3.6 200 11:41 09.07.2019
5455 Clouds 10 1012 76 10000 3.6 200 11:21 09.07.2019
5456 Clear 10 1011 76 0 3.1 180 10:58 09.07.2019
5457 Clear 10 1011 76 0 3.1 180 10:34 09.07.2019
5458 Clear 9 1011 81 0 1.43 203.251 09:56 09.07.2019
5459 Clear 9 1011 81 0 1.43 203.251 09:37 09.07.2019
5460 Clear 9 1011 81 0 3.39 174.908 09:18 09.07.2019
5461 Clear 9 1011 81 0 3.6 180 08:41 09.07.2019
5462 Clouds 9 1023 66 0 0.5 0 04:19 05.07.2019
5463 Clouds 10 1022 61 0 3.6 190 03:39 05.07.2019
5464 Clouds 10 1022 61 0 3.6 190 03:19 05.07.2019
5465 Clouds 9 1022 66 0 5.1 210 02:49 05.07.2019
5466 Clouds 14 1022 44 0 6.2 170 01:55 05.07.2019
5467 Clouds 14 1022 44 0 6.2 170 01:28 05.07.2019
5468 Clouds 12 1022 46 10000 4.6 190 00:51 05.07.2019
5469 Clouds 12 1022 46 10000 4.6 190 00:29 05.07.2019
5470 Clouds 12 1022 54 10000 4.1 200 23:38 04.07.2019
5471 Clouds 12 1022 54 10000 4.1 200 23:18 04.07.2019
5472 Clouds 12 1022 54 10000 6.2 200 22:41 04.07.2019
5473 Clouds 12 1022 54 10000 6.2 200 22:20 04.07.2019
5474 Clouds 11 1022 57 10000 5.7 200 21:44 04.07.2019
5475 Clouds 11 1022 57 10000 5.7 200 21:26 04.07.2019
5476 Clouds 11 1022 57 10000 6.2 200 20:59 04.07.2019
5477 Clouds 11 1022 57 10000 6.2 200 20:38 04.07.2019
5478 Clouds 11 1022 57 10000 6.2 200 20:19 04.07.2019
5479 Clouds 11 1022 57 10000 6.2 200 20:19 04.07.2019
5480 Clouds 11 1022 53 10000 5.7 190 19:41 04.07.2019
5481 Clouds 11 1022 53 10000 5.7 190 19:21 04.07.2019
5482 Clouds 11 1022 57 10000 4.6 190 18:55 04.07.2019
5483 Clouds 11 1022 57 10000 4.6 190 18:36 04.07.2019
5484 Clouds 11 1022 57 10000 4.6 190 18:18 04.07.2019
5485 Clouds 10 1022 57 10000 6.7 190 17:41 04.07.2019
5486 Clouds 10 1022 57 10000 6.7 190 17:18 04.07.2019
5487 Clouds 11 1021 62 10000 4.6 190 15:45 04.07.2019
5488 Clouds 11 1021 62 10000 4.6 190 15:25 04.07.2019
5489 Clouds 9 1020 70 10000 3.6 0 14:59 04.07.2019
5490 Clouds 9 1020 70 10000 3.6 0 14:40 04.07.2019
5491 Clouds 9 1020 70 10000 3.6 0 14:20 04.07.2019
5492 Clouds 9 1020 70 10000 3.6 0 14:20 04.07.2019
5493 Clouds 11 1020 53 10000 5.1 200 13:57 04.07.2019
5494 Clouds 11 1020 53 10000 5.1 200 13:57 04.07.2019
5495 Clouds 11 1020 53 10000 5.1 200 13:39 04.07.2019
5496 Clouds 11 1020 53 10000 5.1 200 13:20 04.07.2019
5497 Clouds 8 1020 65 10000 1 0 12:40 04.07.2019
5498 Clouds 8 1020 65 10000 1 0 12:21 04.07.2019
5499 Clouds 7 1020 81 10000 3.1 180 11:57 04.07.2019
5500 Clouds 7 1020 81 10000 3.1 180 11:37 04.07.2019
5501 Clouds 7 1020 81 10000 3.1 180 11:18 04.07.2019
5502 Clouds 6 1019 81 0 2.1 170 10:39 04.07.2019
5503 Clouds 6 1019 81 0 2.1 170 10:18 04.07.2019
5504 Clouds 7 1019 75 0 4.1 180 09:39 04.07.2019
5505 Clouds 7 1019 75 0 4.1 180 09:20 04.07.2019
5506 Clouds 8 1018 70 0 4.1 190 08:55 04.07.2019
5507 Clouds 8 1018 70 0 4.1 190 08:19 04.07.2019
5508 Clouds 8 1018 75 0 5.1 190 07:43 04.07.2019
5509 Clouds 8 1018 75 0 5.1 190 07:21 04.07.2019
5510 Clouds 9 1017 76 0 2.6 340 06:38 04.07.2019
5511 Clear 9 1017 76 0 3.1 10 05:50 04.07.2019
5512 Clear 9 1017 76 0 3.1 10 05:31 04.07.2019
5513 Clear 12 1017 58 0 4.1 20 02:41 04.07.2019
5514 Clear 12 1017 58 0 3.6 20 01:28 04.07.2019
5515 Clear 13 1018 50 10000 4.1 20 00:57 04.07.2019
5516 Clouds 14 1018 47 10000 4.6 30 23:56 03.07.2019
5517 Clouds 14 1018 47 10000 4.6 30 23:21 03.07.2019
5518 Clouds 14 1018 47 10000 4.6 30 22:59 03.07.2019
5519 Clouds 14 1018 47 10000 4.6 30 22:39 03.07.2019
5520 Clouds 14 1018 47 10000 4.6 30 22:21 03.07.2019
5521 Clouds 13 1018 54 10000 5.1 20 21:56 03.07.2019
5522 Clouds 13 1018 54 10000 5.1 20 21:38 03.07.2019
5523 Clouds 13 1018 54 10000 5.1 20 21:19 03.07.2019
5524 Clouds 13 1019 54 10000 4.1 40 20:42 03.07.2019
5525 Clouds 13 1019 54 10000 4.1 40 20:23 03.07.2019
5526 Clouds 12 1019 58 10000 4.1 20 19:50 03.07.2019
5527 Clouds 12 1019 58 10000 4.1 20 19:32 03.07.2019
5528 Clouds 13 1019 54 10000 2.6 330 18:48 03.07.2019
5529 Clouds 13 1019 54 10000 2.6 330 18:27 03.07.2019
5530 Clouds 11 1019 57 10000 2.6 330 17:55 03.07.2019
5531 Clouds 11 1019 57 10000 2.6 330 17:37 03.07.2019
5532 Clouds 11 1019 57 10000 2.6 330 17:18 03.07.2019
5533 Clouds 10 1019 61 10000 2.6 340 16:43 03.07.2019
5534 Clouds 10 1019 61 10000 2.6 340 16:21 03.07.2019
5535 Clouds 8 1019 70 10000 2.6 340 15:49 03.07.2019
5536 Clouds 8 1019 70 10000 2.6 340 15:31 03.07.2019
5537 Clouds 6 1019 81 10000 1.5 210 14:56 03.07.2019
5538 Clouds 6 1019 81 10000 1.5 210 14:37 03.07.2019
5539 Clouds 6 1019 81 10000 1.5 210 14:18 03.07.2019
5540 Clouds 7 1019 75 10000 3.1 190 13:35 03.07.2019
5541 Clouds 7 1019 75 10000 3.6 190 12:54 03.07.2019
5542 Clouds 7 1019 75 10000 3.6 190 12:21 03.07.2019
5543 Clouds 6 1019 81 10000 4.6 190 11:59 03.07.2019
5544 Clouds 6 1019 81 10000 4.6 190 11:40 03.07.2019
5545 Clouds 6 1019 81 10000 4.6 190 11:21 03.07.2019
5546 Clouds 6 1018 75 10000 4.6 180 10:42 03.07.2019
5547 Clouds 6 1018 75 10000 4.6 180 10:23 03.07.2019
5548 Clouds 5 1018 86 0 5.1 180 09:43 03.07.2019
5549 Clear 5 1018 86 0 5.1 180 09:22 03.07.2019
5550 Clear 5 1018 86 0 5.1 180 08:57 03.07.2019
5551 Clear 5 1018 86 0 5.1 180 08:38 03.07.2019
5552 Clear 5 1018 86 0 5.1 180 08:18 03.07.2019
5553 Clear 4 1017 93 0 5.7 180 07:37 03.07.2019
5554 Clear 5 1017 86 0 6.2 190 06:56 03.07.2019
5555 Clear 5 1017 86 0 6.2 190 05:57 03.07.2019
5556 Clear 5 1017 86 0 6.2 190 05:27 03.07.2019
5557 Clear 5 1016 80 0 6.2 190 04:27 03.07.2019
5558 Clouds 5 1016 80 0 6.7 200 02:58 03.07.2019
5559 Clouds 5 1015 86 0 5.1 200 01:40 03.07.2019
5560 Clouds 5 1015 86 0 5.1 200 01:21 03.07.2019
5561 Clouds 6 1015 75 0 3.6 210 00:40 03.07.2019
5562 Clouds 6 1015 75 10000 4.1 200 23:58 02.07.2019
5563 Clouds 6 1015 75 10000 4.1 200 23:37 02.07.2019
5564 Clouds 6 1015 75 10000 4.1 200 23:19 02.07.2019
5565 Clouds 6 1015 75 10000 3.1 200 22:55 02.07.2019
5566 Clouds 6 1015 75 10000 3.1 200 22:36 02.07.2019
5567 Clouds 6 1015 75 10000 3.1 200 22:18 02.07.2019
5568 Clouds 6 1014 75 10000 4.6 190 21:41 02.07.2019
5569 Clouds 6 1014 75 10000 4.6 190 21:20 02.07.2019
5570 Clouds 9 1014 61 10000 3.6 250 20:57 02.07.2019
5571 Clouds 9 1014 61 10000 3.6 250 20:39 02.07.2019
5572 Clouds 9 1014 61 10000 3.6 250 20:20 02.07.2019
5573 Clouds 9 1013 66 10000 4.6 270 19:42 02.07.2019
5574 Clouds 9 1013 66 10000 4.6 270 19:23 02.07.2019
5575 Clouds 10 1013 61 10000 4.1 280 18:48 02.07.2019
5576 Clouds 10 1013 61 10000 4.1 280 18:18 02.07.2019
5577 Clouds 11 1013 53 10000 1.5 360 17:43 02.07.2019
5578 Clouds 11 1013 53 10000 1.5 360 17:23 02.07.2019
5579 Clouds 9 1013 66 10000 1 0 16:53 02.07.2019
5580 Clouds 9 1013 66 10000 1 0 16:34 02.07.2019
5581 Clouds 9 1012 66 10000 1.5 20 15:48 02.07.2019
5582 Clouds 9 1012 66 10000 1.5 20 15:27 02.07.2019
5583 Clouds 6 1012 75 10000 2.6 50 14:59 02.07.2019
5584 Clouds 6 1012 75 10000 2.6 50 14:40 02.07.2019
5585 Clouds 6 1012 75 10000 2.6 50 14:20 02.07.2019
5586 Clouds 4 1012 86 10000 3.1 350 13:42 02.07.2019
5587 Clouds 4 1012 86 10000 3.1 350 13:18 02.07.2019
5588 Clouds 3 1012 93 10000 2.6 360 12:44 02.07.2019
5589 Clouds 3 1012 93 10000 2.6 360 12:22 02.07.2019
5590 Clouds 3 1012 93 10000 4.1 330 11:44 02.07.2019
5591 Clouds 3 1012 93 10000 4.1 330 11:23 02.07.2019
5592 Clouds 3 1012 93 10000 5.1 350 10:55 02.07.2019
5593 Clouds 3 1012 93 10000 5.1 350 10:29 02.07.2019
5594 Clear 3 1012 93 0 3.6 360 09:57 02.07.2019
5595 Clear 3 1012 93 0 3.6 360 09:22 02.07.2019
5596 Clear 3 1012 93 0 3.1 360 08:58 02.07.2019
5597 Clear 3 1012 93 0 3.1 360 08:38 02.07.2019
5598 Clear 3 1012 93 0 3.1 360 08:19 02.07.2019
5599 Clear 3 1013 93 0 4.1 360 07:43 02.07.2019
5600 Clear 3 1013 93 0 4.1 360 07:20 02.07.2019
5601 Clouds 3 1013 93 10000 3.6 360 06:38 02.07.2019
5602 Clouds 3 1013 93 10000 4.1 360 05:35 02.07.2019
5603 Clouds 6 1015 81 10000 5.1 340 02:43 02.07.2019
5604 Clouds 7 1015 75 10000 4.6 340 00:31 02.07.2019
5605 Clouds 8 1016 65 10000 4.1 340 23:39 01.07.2019
5606 Clouds 8 1016 65 10000 4.1 340 23:19 01.07.2019
5607 Clouds 8 1016 70 10000 3.1 10 22:42 01.07.2019
5608 Clouds 8 1016 70 10000 3.1 10 22:24 01.07.2019
5609 Clouds 9 1016 66 10000 2.6 20 21:45 01.07.2019
5610 Clouds 9 1016 66 10000 2.6 20 21:25 01.07.2019
5611 Clouds 9 1016 66 10000 2.6 10 20:51 01.07.2019
5612 Clouds 9 1016 66 10000 2.6 10 20:21 01.07.2019
5613 Clouds 7 1016 75 10000 3.1 30 19:57 01.07.2019
5614 Clouds 7 1016 75 10000 3.1 30 19:38 01.07.2019
5615 Clouds 7 1016 75 10000 3.1 30 19:20 01.07.2019
5616 Clouds 7 1017 70 10000 3.1 30 18:50 01.07.2019
5617 Clouds 7 1017 70 10000 3.1 30 18:28 01.07.2019
5618 Clouds 7 1017 70 10000 3.6 20 17:55 01.07.2019
5619 Clouds 7 1017 70 10000 3.6 20 17:37 01.07.2019
5620 Clouds 7 1017 70 10000 3.6 20 17:19 01.07.2019
5621 Clouds 6 1017 75 10000 2.1 40 16:44 01.07.2019
5622 Clouds 6 1017 75 10000 2.1 40 16:24 01.07.2019
5623 Clouds 6 1017 75 10000 2.6 10 15:46 01.07.2019
5624 Clouds 6 1017 75 10000 2.6 10 15:26 01.07.2019
5625 Clouds 5 1017 80 10000 2.6 50 14:45 01.07.2019
5626 Clouds 5 1017 80 10000 2.6 50 14:45 01.07.2019
5627 Clouds 4 1017 80 10000 2.6 50 14:24 01.07.2019
5628 Clouds 4 1017 86 10000 2.1 360 13:55 01.07.2019
5629 Clouds 4 1017 86 10000 2.1 360 13:37 01.07.2019
5630 Clouds 4 1017 86 10000 2.1 360 13:18 01.07.2019
5631 Clouds 4 1017 86 10000 1 0 12:38 01.07.2019
5632 Clouds 4 1017 86 10000 1 0 12:20 01.07.2019
5633 Clouds 4 1017 86 10000 1 0 12:20 01.07.2019
5634 Clouds 4 1017 86 10000 2.6 40 11:48 01.07.2019
5635 Clouds 4 1017 86 10000 2.6 40 11:28 01.07.2019
5636 Clear 3 1017 93 0 2.6 360 10:59 01.07.2019
5637 Clear 3 1017 93 0 2.6 360 10:41 01.07.2019
5638 Clear 3 1017 93 0 2.6 360 10:20 01.07.2019
5639 Clear 3 1017 93 0 3.1 10 09:41 01.07.2019
5640 Clear 3 1017 93 0 3.1 10 09:23 01.07.2019
5641 Clouds 3 1017 93 0 2.6 10 08:42 01.07.2019
5642 Clouds 3 1017 93 0 2.6 10 08:21 01.07.2019
5643 Clouds 3 1017 93 0 3.1 360 07:34 01.07.2019
5644 Clouds 3 1017 93 0 1 350 06:48 01.07.2019
5645 Clouds 4 1017 86 0 3.1 340 04:44 01.07.2019
5646 Clouds 6 1017 81 0 5.1 330 01:20 01.07.2019
5647 Clouds 8 1017 70 10000 4.6 330 00:41 01.07.2019
5648 Clouds 8 1017 70 10000 4.6 330 00:20 01.07.2019
5649 Clouds 7 1017 75 10000 3.1 330 23:25 30.06.2019
5650 Clouds 7 1017 70 10000 2.6 350 22:58 30.06.2019
5651 Clouds 7 1017 70 10000 2.6 350 22:37 30.06.2019
5652 Clouds 7 1017 70 10000 2.6 350 22:18 30.06.2019
5653 Rain 4 1017 86 10000 4.1 60 21:41 30.06.2019
5654 Rain 4 1017 86 10000 4.1 60 21:18 30.06.2019
5655 Rain 7 1017 65 10000 3.6 250 20:42 30.06.2019
5656 Rain 7 1017 65 10000 3.6 250 20:23 30.06.2019
5657 Clouds 7 1017 70 10000 2.1 250 19:55 30.06.2019
5658 Clouds 7 1017 70 10000 2.1 250 19:37 30.06.2019
5659 Clouds 7 1017 70 10000 2.1 250 19:18 30.06.2019
5660 Rain 6 1017 75 10000 2.6 360 18:25 30.06.2019
5661 Clouds 7 1017 65 10000 3.6 20 17:56 30.06.2019
5662 Clouds 7 1017 65 10000 3.6 20 17:37 30.06.2019
5663 Clouds 7 1017 65 10000 3.6 20 17:18 30.06.2019
5664 Clouds 8 1017 61 10000 2.1 30 16:44 30.06.2019
5665 Clouds 8 1017 61 10000 2.1 30 16:25 30.06.2019
5666 Clouds 6 1017 74 10000 2.6 40 15:37 30.06.2019
5667 Clouds 6 1017 72 10000 2.6 40 15:18 30.06.2019
5668 Clouds 7 1018 65 10000 2.6 20 14:50 30.06.2019
5669 Clouds 7 1018 65 10000 2.6 20 14:29 30.06.2019
5670 Clouds 6 1018 70 10000 1 0 13:47 30.06.2019
5671 Clouds 6 1018 70 10000 1 0 13:28 30.06.2019
5672 Clouds 3 1018 86 10000 3.39 296.459 12:52 30.06.2019
5673 Clouds 3 1018 86 10000 3.39 296.459 12:28 30.06.2019
5674 Clouds 4 1018 86 10000 2.6 190 11:58 30.06.2019
5675 Clouds 4 1018 86 10000 2.6 190 11:38 30.06.2019
5676 Clouds 4 1018 86 10000 2.6 190 11:38 30.06.2019
5677 Clouds 4 1018 86 10000 2.6 190 11:19 30.06.2019
5678 Clear 3 1019 76 0 1.81 321.671 10:45 30.06.2019
5679 Clear 3 1019 76 0 1.81 321.671 10:20 30.06.2019
5680 Clear 3 1019 76 0 1.81 321.671 09:59 30.06.2019
5681 Clear 3 1019 76 0 1.81 321.671 09:41 30.06.2019
5682 Clouds 2 1018 93 0 2.1 350 09:19 30.06.2019
5683 Clouds 2 1018 93 0 2.1 350 08:40 30.06.2019
5684 Clouds 2 1018 93 0 2.1 350 08:21 30.06.2019
5685 Clouds 2 1018 93 0 0.84 348.115 07:42 30.06.2019
5686 Clouds 2 1018 93 0 0.84 348.115 07:22 30.06.2019
5687 Clouds 2 1018 93 0 1.5 250 06:37 30.06.2019
5688 Clouds 5 1018 75 0 2.6 280 03:32 30.06.2019
5689 Clouds 5 1018 75 0 2.6 280 03:32 30.06.2019
5690 Rain 5 1018 80 10000 2.1 340 01:53 30.06.2019
5691 Rain 5 1018 86 10000 2.1 20 00:47 30.06.2019
5692 Rain 5 1018 86 10000 2.1 20 00:24 30.06.2019
5693 Clouds 6 1018 75 10000 3.1 30 23:48 29.06.2019
5694 Clouds 6 1018 75 10000 3.1 30 23:23 29.06.2019
5695 Drizzle 6 1018 75 10000 3.1 10 22:48 29.06.2019
5696 Drizzle 6 1018 75 10000 3.1 10 22:24 29.06.2019
5697 Clouds 6 1018 70 10000 3.1 10 21:55 29.06.2019
5698 Clouds 6 1018 70 10000 3.1 10 21:25 29.06.2019
5699 Clouds 6 1018 70 10000 3.1 10 21:25 29.06.2019
5700 Rain 6 1017 75 10000 4.1 360 20:57 29.06.2019
5701 Rain 6 1017 75 10000 4.1 360 20:36 29.06.2019
5702 Rain 6 1017 75 10000 4.1 360 20:18 29.06.2019
5703 Rain 7 1017 70 10000 4.1 360 19:42 29.06.2019
5704 Rain 7 1017 70 10000 4.1 360 19:21 29.06.2019
5705 Rain 7 1017 65 10000 2.6 10 18:47 29.06.2019
5706 Rain 7 1017 65 10000 2.6 10 18:25 29.06.2019
5707 Rain 8 1017 74 10000 3.1 280 17:40 29.06.2019
5708 Rain 8 1017 74 10000 3.1 280 17:21 29.06.2019
5709 Clouds 7 1017 74 10000 2.1 280 16:45 29.06.2019
5710 Clouds 7 1017 74 10000 2.1 280 16:25 29.06.2019
5711 Clouds 7 1017 56 10000 2.1 290 15:37 29.06.2019
5712 Clouds 7 1017 56 10000 2.1 290 15:19 29.06.2019
5713 Clouds 6 1017 75 10000 3.1 300 14:41 29.06.2019
5714 Clouds 6 1017 75 10000 3.1 300 14:23 29.06.2019
5715 Clouds 6 1017 75 10000 1.5 300 13:44 29.06.2019
5716 Clouds 6 1017 75 10000 1.5 300 13:26 29.06.2019
5717 Clouds 5 1017 86 10000 0.5 260 12:45 29.06.2019
5718 Clouds 5 1017 86 10000 0.5 260 12:26 29.06.2019
5719 Clouds 4 1017 93 0 3.18 322.363 11:51 29.06.2019
5720 Clouds 4 1017 93 0 3.18 322.363 11:29 29.06.2019
5721 Clouds 4 1017 86 0 3.18 322.363 10:52 29.06.2019
5722 Clouds 4 1017 86 0 3.18 322.363 10:29 29.06.2019
5723 Clouds 4 1016 86 0 2.1 300 09:58 29.06.2019
5724 Clouds 4 1016 86 0 2.1 300 09:31 29.06.2019
5725 Clouds 4 1016 80 0 2.1 350 08:41 29.06.2019
5726 Clouds 4 1015 86 10000 1.5 300 07:46 29.06.2019
5727 Clouds 4 1015 86 10000 1.5 300 07:21 29.06.2019
5728 Clouds 4 1015 86 10000 2.6 300 06:43 29.06.2019
5729 Clouds 4 1015 86 10000 2.6 300 06:21 29.06.2019
5730 Rain 5 1016 80 10000 3.1 280 02:37 29.06.2019
5731 Clouds 6 1017 70 10000 3.6 290 00:57 29.06.2019
5732 Clouds 6 1017 70 10000 3.6 290 00:23 29.06.2019
5733 Clouds 7 1017 70 10000 2.6 330 23:27 28.06.2019
5734 Clouds 7 1017 65 10000 3.6 300 22:57 28.06.2019
5735 Clouds 7 1017 65 10000 3.6 300 22:36 28.06.2019
5736 Clouds 7 1018 65 10000 3.1 340 21:48 28.06.2019
5737 Clouds 8 1018 65 10000 3.1 340 21:24 28.06.2019
5738 Clouds 7 1018 70 10000 4.6 320 20:48 28.06.2019
5739 Clouds 7 1018 70 10000 4.6 320 20:27 28.06.2019
5740 Clouds 8 1018 61 10000 4.6 340 19:53 28.06.2019
5741 Clouds 8 1018 61 10000 4.6 340 19:28 28.06.2019
5742 Clouds 10 1018 53 10000 3.1 10 18:57 28.06.2019
5743 Clouds 10 1018 53 10000 3.1 10 18:38 28.06.2019
5744 Clouds 10 1018 53 10000 3.1 10 18:20 28.06.2019
5745 Clouds 10 1018 53 10000 3.6 20 17:30 28.06.2019
5746 Clouds 9 1018 57 10000 3.1 30 16:51 28.06.2019
5747 Clouds 9 1018 57 10000 3.1 30 16:27 28.06.2019
5748 Clouds 8 1018 61 10000 4.1 60 15:48 28.06.2019
5749 Clouds 8 1018 61 10000 4.1 60 15:26 28.06.2019
5750 Clouds 6 1018 70 10000 2.6 10 14:56 28.06.2019
5751 Clouds 6 1018 70 10000 2.6 10 14:37 28.06.2019
5752 Clouds 5 1018 70 10000 2.6 10 14:18 28.06.2019
5753 Clouds 5 1018 80 10000 2.6 360 13:44 28.06.2019
5754 Clouds 5 1018 80 10000 2.6 360 13:21 28.06.2019
5755 Clouds 5 1018 80 10000 4.6 330 12:48 28.06.2019
5756 Clouds 5 1018 80 10000 3.1 300 11:56 28.06.2019
5757 Clouds 5 1018 80 10000 3.1 300 11:27 28.06.2019
5758 Clouds 4 1018 86 10000 6.13 317.122 10:46 28.06.2019
5759 Clouds 4 1018 86 10000 6.13 317.122 10:23 28.06.2019
5760 Clouds 4 1018 86 10000 6.13 317.122 10:23 28.06.2019
5761 Clouds 4 1018 86 0 6.13 317.122 09:49 28.06.2019
5762 Clouds 4 1018 86 0 6.13 317.122 09:30 28.06.2019
5763 Clouds 4 1018 86 0 6.19 312.084 08:49 28.06.2019
5764 Clouds 4 1018 86 0 7.18 317.614 08:27 28.06.2019
5765 Clouds 4 1018 86 0 0.5 0 07:53 28.06.2019
5766 Clouds 4 1018 86 0 0.5 0 07:35 28.06.2019
5767 Clouds 4 1018 86 0 7.18 317.614 06:33 28.06.2019
5768 Clear 7 1019 81 0 2.6 290 02:26 28.06.2019
5769 Clouds 9 1019 76 10000 4.1 280 00:44 28.06.2019
5770 Clouds 10 1019 76 10000 4.1 270 23:57 27.06.2019
5771 Clouds 10 1019 76 10000 4.1 270 23:57 27.06.2019
5772 Clouds 10 1019 76 10000 4.1 270 23:39 27.06.2019
5773 Clouds 10 1019 76 10000 4.1 270 23:20 27.06.2019
5774 Clouds 11 1019 71 10000 4.1 270 22:41 27.06.2019
5775 Clouds 11 1019 71 10000 4.1 270 22:23 27.06.2019
5776 Clouds 12 1019 71 10000 3.6 260 21:56 27.06.2019
5777 Clouds 12 1019 71 10000 3.6 260 21:37 27.06.2019
5778 Clouds 12 1019 71 10000 3.6 260 21:19 27.06.2019
5779 Clouds 12 1019 76 10000 3.6 270 20:45 27.06.2019
5780 Clouds 12 1019 76 10000 3.6 270 20:26 27.06.2019
5781 Clouds 12 1019 81 10000 2.1 200 19:46 27.06.2019
5782 Clouds 12 1019 81 10000 2.1 200 19:27 27.06.2019
5783 Fog 11 1019 87 10000 3.88 287.529 18:44 27.06.2019
5784 Fog 11 1019 87 10000 4.44 296.126 18:26 27.06.2019
5785 Fog 10 1019 93 600 0.5 290 17:47 27.06.2019
5786 Fog 10 1019 93 600 0.5 290 17:24 27.06.2019
5787 Fog 9 1019 100 200 1.5 280 16:55 27.06.2019
5788 Fog 9 1019 100 200 1.5 280 16:36 27.06.2019
5789 Fog 9 1019 100 200 1.5 280 16:18 27.06.2019
5790 Clouds 10 1019 87 10000 2.1 200 15:44 27.06.2019
5791 Clouds 10 1019 87 10000 2.1 200 15:21 27.06.2019
5792 Clouds 10 1018 93 10000 2.1 210 14:43 27.06.2019
5793 Clouds 9 1018 93 10000 2.1 210 14:24 27.06.2019
5794 Fog 9 1018 93 700 0.5 0 13:48 27.06.2019
5795 Fog 9 1018 93 700 0.5 0 13:30 27.06.2019
5796 Fog 8 1018 100 700 4.31 315.47 12:53 27.06.2019
5797 Fog 8 1018 100 700 4.31 315.47 12:35 27.06.2019
5798 Fog 8 1018 100 300 1 340 11:57 27.06.2019
5799 Fog 8 1018 100 300 1 340 11:39 27.06.2019
5800 Fog 8 1018 100 300 1 340 11:20 27.06.2019
5801 Drizzle 8 1017 100 800 1.5 180 10:44 27.06.2019
5802 Drizzle 8 1017 100 800 1.5 180 10:21 27.06.2019
5803 Snow 8 1017 100 0 1.5 190 09:54 27.06.2019
5804 Snow 8 1017 100 0 1.5 190 09:22 27.06.2019
5805 Snow 8 1017 93 0 2.1 190 08:52 27.06.2019
5806 Snow 8 1017 93 0 2.1 190 08:31 27.06.2019
5807 Rain 8 1017 100 0 3.1 200 07:57 27.06.2019
5808 Rain 8 1017 100 0 3.1 200 07:30 27.06.2019
5809 Fog 9 1017 93 0 3.1 200 06:51 27.06.2019
5810 Drizzle 10 1017 93 0 5.7 200 04:27 27.06.2019
5811 Clouds 9 1017 93 0 6.7 190 02:44 27.06.2019
5812 Clouds 9 1017 93 0 6.2 190 01:50 27.06.2019
5813 Fog 9 1017 93 3500 6.2 190 00:58 27.06.2019
5814 Fog 9 1017 93 3500 6.2 190 00:39 27.06.2019
5815 Fog 9 1017 93 3500 6.2 190 00:18 27.06.2019
5816 Clouds 10 1016 93 10000 6.7 200 23:40 26.06.2019
5817 Clouds 10 1016 93 10000 6.7 200 23:21 26.06.2019
5818 Clouds 10 1016 93 10000 7.2 190 22:45 26.06.2019
5819 Clouds 10 1016 93 10000 7.2 190 22:26 26.06.2019
5820 Clouds 12 1016 81 10000 5.1 190 21:59 26.06.2019
5821 Clouds 12 1016 81 10000 5.1 190 21:38 26.06.2019
5822 Clouds 12 1016 81 10000 5.1 190 21:19 26.06.2019
5823 Clouds 14 1016 71 10000 4.1 190 20:44 26.06.2019
5824 Clouds 14 1016 71 10000 4.1 190 20:26 26.06.2019
5825 Clouds 17 1015 59 10000 3.6 190 19:50 26.06.2019
5826 Clouds 17 1015 59 10000 3.6 190 19:31 26.06.2019
5827 Clouds 17 1015 67 10000 2.1 190 18:57 26.06.2019
5828 Clouds 17 1015 67 10000 2.1 190 18:57 26.06.2019
5829 Clouds 17 1015 67 10000 2.1 190 18:39 26.06.2019
5830 Clouds 17 1015 67 10000 2.1 190 18:19 26.06.2019
5831 Clouds 16 1015 67 10000 2.1 230 17:46 26.06.2019
5832 Clouds 16 1015 67 10000 2.1 230 17:27 26.06.2019
5833 Clouds 16 1015 67 10000 2.1 230 17:27 26.06.2019
5834 Clouds 15 1016 67 10000 0.5 0 16:51 26.06.2019
5835 Clouds 15 1016 67 10000 0.5 0 16:29 26.06.2019
5836 Clouds 14 1016 71 10000 1.5 350 15:52 26.06.2019
5837 Clouds 14 1016 71 10000 1.5 350 15:28 26.06.2019
5838 Clouds 14 1016 76 10000 0.5 0 14:43 26.06.2019
5839 Clouds 14 1016 76 10000 0.5 0 14:23 26.06.2019
5840 Clouds 10 1017 93 10000 1.5 0 13:46 26.06.2019
5841 Clouds 10 1017 93 10000 1.5 0 13:21 26.06.2019
5842 Clouds 10 1017 93 10000 3.6 80 12:57 26.06.2019
5843 Clouds 10 1017 93 10000 3.6 80 12:57 26.06.2019
5844 Clouds 9 1017 93 10000 3.6 80 12:39 26.06.2019
5845 Clouds 9 1017 93 10000 3.6 80 12:19 26.06.2019
5846 Clouds 9 1017 93 10000 6.2 50 11:25 26.06.2019
5847 Drizzle 10 1018 87 0 7.7 80 10:56 26.06.2019
5848 Drizzle 10 1018 87 0 7.7 80 10:38 26.06.2019
5849 Drizzle 10 1018 87 0 7.7 80 10:19 26.06.2019
5850 Rain 9 1018 93 0 4.6 60 09:30 26.06.2019
5851 Rain 10 1019 87 0 6.7 60 08:57 26.06.2019
5852 Rain 10 1019 87 0 6.7 60 08:23 26.06.2019
5853 Rain 9 1019 93 0 2.1 0 07:59 26.06.2019
5854 Rain 9 1019 93 0 2.1 0 07:40 26.06.2019
5855 Rain 11 1019 81 0 5.1 80 06:33 26.06.2019
5856 Rain 9 1021 93 0 7.2 60 03:33 26.06.2019
5857 Drizzle 10 1022 87 10000 2.6 30 00:41 26.06.2019
5858 Rain 9 1022 93 10000 2.6 20 23:58 25.06.2019
5859 Rain 9 1022 93 10000 2.6 20 23:39 25.06.2019
5860 Rain 9 1022 93 10000 2.6 20 23:20 25.06.2019
5861 Clouds 10 1022 87 10000 5.7 50 22:42 25.06.2019
5862 Clouds 10 1022 87 10000 5.7 50 22:23 25.06.2019
5863 Clouds 10 1022 87 10000 6.7 40 21:47 25.06.2019
5864 Clouds 10 1022 87 10000 6.7 40 21:27 25.06.2019
5865 Clouds 9 1022 100 10000 6.7 50 20:59 25.06.2019
5866 Clouds 9 1022 100 10000 6.7 50 20:37 25.06.2019
5867 Clouds 9 1022 100 10000 6.7 50 20:18 25.06.2019
5868 Clouds 8 1022 100 10000 5.7 30 19:44 25.06.2019
5869 Clouds 8 1022 100 10000 5.7 30 19:22 25.06.2019
5870 Drizzle 8 1023 93 10000 3.1 10 18:43 25.06.2019
5871 Drizzle 8 1023 93 10000 3.1 10 18:24 25.06.2019
5872 -273 0 0 0 0 0 17:46 25.06.2019
5873 -273 0 0 0 0 0 17:28 25.06.2019
5874 -273 0 0 0 0 0 17:28 25.06.2019
5875 -273 0 0 0 0 0 17:28 25.06.2019
5876 Drizzle 7 1023 100 10000 3.6 190 16:55 25.06.2019
5877 Drizzle 7 1023 100 10000 3.6 190 16:55 25.06.2019
5878 Drizzle 7 1023 100 10000 3.6 190 16:37 25.06.2019
5879 Drizzle 7 1023 100 10000 3.6 190 16:18 25.06.2019
5880 Rain 7 1023 100 10000 3.6 180 15:39 25.06.2019
5881 Rain 7 1023 100 10000 3.6 180 15:20 25.06.2019
5882 Rain 7 1023 100 5000 3.1 180 14:51 25.06.2019
5883 Rain 7 1023 100 5000 3.1 180 14:32 25.06.2019
5884 Rain 7 1022 100 10000 4.1 190 13:43 25.06.2019
5885 Rain 7 1022 100 10000 4.1 190 13:24 25.06.2019
5886 Rain 7 1021 100 10000 2.6 200 12:43 25.06.2019
5887 Rain 7 1021 100 10000 2.6 200 12:24 25.06.2019
5888 Rain 7 1020 100 10000 2.6 190 11:47 25.06.2019
5889 Rain 7 1020 100 10000 2.6 190 11:26 25.06.2019
5890 Snow 7 1019 100 0 4.1 190 10:59 25.06.2019
5891 Snow 7 1019 100 0 4.1 190 10:38 25.06.2019
5892 Snow 7 1019 100 0 4.1 190 10:19 25.06.2019
5893 Snow 7 1018 100 0 3.6 190 09:40 25.06.2019
5894 Snow 7 1018 100 0 3.6 190 09:22 25.06.2019
5895 Snow 7 1017 100 0 5.1 190 08:59 25.06.2019
5896 Snow 7 1017 100 0 5.1 190 08:31 25.06.2019
5897 Snow 7 1016 100 0 5.7 190 07:52 25.06.2019
5898 Snow 7 1016 100 0 5.7 190 07:31 25.06.2019
5899 Rain 8 1016 93 0 7.7 190 06:51 25.06.2019
5900 Rain 8 1016 93 0 7.7 190 06:25 25.06.2019
5901 Rain 10 1012 87 10000 5.7 50 02:45 25.06.2019
5902 Rain 13 1012 71 10000 7.2 60 01:26 25.06.2019
5903 Clouds 13 1012 71 10000 6.2 60 00:28 25.06.2019
5904 Clouds 10 1012 87 10000 7.2 50 23:53 24.06.2019
5905 Clouds 10 1012 87 10000 7.2 50 23:33 24.06.2019
5906 Clouds 9 1012 93 10000 6.7 40 22:59 24.06.2019
5907 Clouds 9 1012 93 10000 6.7 40 22:38 24.06.2019
5908 Clouds 9 1012 93 10000 6.7 40 22:18 24.06.2019
5909 Clouds 9 1012 93 10000 6.7 50 21:38 24.06.2019
5910 Clouds 9 1012 93 10000 6.7 50 21:18 24.06.2019
5911 Clouds 9 1012 93 10000 5.1 50 20:54 24.06.2019
5912 Clouds 9 1012 93 10000 5.1 50 20:36 24.06.2019
5913 Clouds 9 1012 93 10000 5.1 50 20:18 24.06.2019
5914 Fog 9 1012 93 10000 4.1 50 19:41 24.06.2019
5915 Fog 9 1012 93 10000 4.1 50 19:21 24.06.2019
5916 Rain 9 1011 93 10000 4.6 50 18:43 24.06.2019
5917 Rain 9 1011 93 10000 4.6 50 18:24 24.06.2019
5918 Rain 9 1011 93 10000 3.6 40 17:42 24.06.2019
5919 Rain 9 1011 93 10000 3.6 40 17:24 24.06.2019
5920 Rain 9 1011 93 10000 1 20 16:45 24.06.2019
5921 Rain 8 1011 93 10000 1 20 16:20 24.06.2019
5922 Rain 8 1010 93 10000 1 240 15:46 24.06.2019
5923 Rain 8 1010 93 10000 1 240 15:27 24.06.2019
5924 Rain 9 1010 93 10000 0.5 300 14:42 24.06.2019
5925 Rain 9 1010 93 10000 0.5 300 14:24 24.06.2019
5926 Rain 8 1010 93 10000 2.74 68.92 13:45 24.06.2019
5927 Rain 8 1010 93 10000 3.33 75.622 13:23 24.06.2019
5928 Rain 8 1010 93 10000 1.5 180 12:42 24.06.2019
5929 Rain 8 1010 93 10000 1.5 180 12:21 24.06.2019
5930 Rain 7 1009 93 10000 3.6 60 11:46 24.06.2019
5931 Rain 7 1009 93 10000 3.6 60 11:27 24.06.2019
5932 Rain 7 1009 93 10000 4.1 40 10:55 24.06.2019
5933 Rain 7 1009 93 10000 4.1 40 10:36 24.06.2019
5934 Rain 7 1009 93 10000 4.1 40 10:18 24.06.2019
5935 Rain 7 1009 93 10000 3.1 30 09:43 24.06.2019
5936 Snow 7 1010 93 0 3.1 40 09:19 24.06.2019
5937 Snow 7 1010 93 0 3.6 40 08:50 24.06.2019
5938 Snow 7 1010 93 0 3.6 40 08:20 24.06.2019
5939 Snow 8 1010 81 0 2.6 40 07:41 24.06.2019
5940 Snow 8 1010 81 0 2.6 40 07:23 24.06.2019
5941 Snow 8 1011 87 0 2.6 40 06:24 24.06.2019
5942 Rain 8 1011 81 0 0.5 320 05:52 24.06.2019
5943 Clouds 7 1012 81 0 1.88 338.976 04:58 24.06.2019
5944 Clouds 8 1012 75 0 2.1 190 03:54 24.06.2019
5945 Clouds 8 1012 75 0 0.5 200 02:52 24.06.2019
5946 Clouds 8 1012 75 10000 2.1 200 01:55 24.06.2019
5947 Clouds 8 1012 75 10000 2.1 200 01:36 24.06.2019
5948 Clouds 9 1013 70 10000 1.5 220 00:55 24.06.2019
5949 Clouds 9 1013 70 10000 1.5 220 00:37 24.06.2019
5950 Clouds 9 1013 70 10000 1.5 220 00:18 24.06.2019
5951 Clouds 10 1012 66 10000 2.1 200 23:41 23.06.2019
5952 Clouds 10 1012 66 10000 2.1 200 23:20 23.06.2019
5953 Clouds 11 1012 66 10000 2.1 250 22:42 23.06.2019
5954 Clouds 11 1012 66 10000 2.1 250 22:20 23.06.2019
5955 Clouds 10 1012 66 10000 2.1 250 21:43 23.06.2019
5956 Clouds 10 1012 66 10000 2.1 250 21:23 23.06.2019
5957 Clouds 11 1012 62 10000 2.1 210 20:52 23.06.2019
5958 Clouds 11 1012 62 10000 2.1 210 20:32 23.06.2019
5959 Clouds 9 1012 70 10000 2.6 190 19:57 23.06.2019
5960 Clouds 9 1012 70 10000 2.6 190 19:39 23.06.2019
5961 Clouds 9 1012 70 10000 2.6 190 19:19 23.06.2019
5962 Clouds 9 1013 76 10000 2.6 200 18:44 23.06.2019
5963 Clouds 9 1013 76 10000 2.6 200 18:20 23.06.2019
5964 Clouds 9 1013 76 10000 2.1 210 17:44 23.06.2019
5965 Clouds 9 1013 76 10000 2.1 210 17:24 23.06.2019
5966 Clouds 8 1013 81 10000 3.1 200 16:46 23.06.2019
5967 Clouds 8 1013 81 10000 3.1 200 16:25 23.06.2019
5968 Fog 7 1013 87 1500 2.6 230 15:58 23.06.2019
5969 Fog 7 1013 87 1500 2.6 230 15:37 23.06.2019
5970 Fog 7 1013 87 1500 2.6 230 15:18 23.06.2019
5971 Clouds 7 1013 87 10000 2.1 200 14:39 23.06.2019
5972 Clouds 7 1013 87 10000 2.1 200 14:21 23.06.2019
5973 Clouds 7 1013 81 10000 1.5 240 13:46 23.06.2019
5974 Clouds 7 1013 81 10000 1.5 240 13:21 23.06.2019
5975 Clouds 6 1013 87 10000 1 220 12:59 23.06.2019
5976 Clouds 6 1013 87 10000 1 220 12:41 23.06.2019
5977 Clouds 6 1013 87 10000 1 220 12:19 23.06.2019
5978 Clouds 6 1013 87 10000 1 220 12:19 23.06.2019
5979 Clouds 6 1012 87 10000 1 330 11:47 23.06.2019
5980 Clouds 6 1012 87 10000 1 330 11:27 23.06.2019
5981 Clouds 5 1012 93 0 3.95 190.78 10:50 23.06.2019
5982 Clouds 5 1012 93 0 3.95 190.78 10:21 23.06.2019
5983 Clouds 5 1012 93 0 1.5 180 09:58 23.06.2019
5984 Rain 5 1012 93 0 1.5 180 09:24 23.06.2019
5985 Rain 4 1012 100 0 1.5 170 08:54 23.06.2019
5986 Rain 4 1012 100 0 1.5 170 08:54 23.06.2019
5987 Rain 4 1012 100 0 1.5 170 08:36 23.06.2019
5988 Clouds 4 1012 100 0 1.5 170 08:18 23.06.2019
5989 Fog 4 1012 100 0 1.5 190 07:44 23.06.2019
5990 Fog 4 1012 100 0 1.5 190 07:18 23.06.2019
5991 Haze 4 1012 100 0 2.1 210 06:52 23.06.2019
5992 Haze 5 1012 93 0 3.6 200 05:53 23.06.2019
5993 Fog 5 1012 93 1700 4.1 200 02:52 23.06.2019
5994 Fog 5 1012 93 10000 5.1 200 01:39 23.06.2019
5995 Fog 5 1012 93 10000 5.1 200 01:20 23.06.2019
5996 Fog 6 1012 87 10000 4.1 200 00:31 23.06.2019
5997 Fog 6 1012 87 10000 4.6 210 23:47 22.06.2019
5998 Fog 6 1012 87 10000 4.6 210 23:26 22.06.2019
5999 Clouds 7 1011 81 10000 5.1 190 22:47 22.06.2019
6000 Clouds 7 1011 81 10000 5.1 190 22:27 22.06.2019
6001 Clouds 7 1011 75 10000 4.6 220 21:59 22.06.2019
6002 Clouds 7 1011 75 10000 4.6 220 21:36 22.06.2019
6003 Clouds 7 1011 75 10000 4.6 220 21:18 22.06.2019
6004 Clouds 7 1011 75 10000 5.1 220 20:45 22.06.2019
6005 Clouds 7 1011 75 10000 5.1 220 20:24 22.06.2019
6006 Fog 6 1011 81 10000 5.1 220 19:42 22.06.2019
6007 Fog 6 1011 81 10000 5.1 220 19:21 22.06.2019
6008 Fog 6 1011 87 1700 5.7 210 18:43 22.06.2019
6009 Fog 6 1011 87 1700 5.7 210 18:23 22.06.2019
6010 Fog 7 1011 81 10000 6.7 200 17:46 22.06.2019
6011 Fog 7 1011 81 10000 6.7 200 17:28 22.06.2019
6012 Fog 6 1011 81 10000 4.6 190 16:46 22.06.2019
6013 Fog 6 1011 81 10000 4.6 190 16:24 22.06.2019
6014 Fog 5 1011 86 10000 4.6 200 15:49 22.06.2019
6015 Fog 5 1011 86 10000 4.6 200 15:29 22.06.2019
6016 Fog 5 1010 86 400 4.6 200 14:52 22.06.2019
6017 Fog 5 1010 86 400 4.6 200 14:33 22.06.2019
6018 Mist 3 1010 93 1000 4.1 200 13:58 22.06.2019
6019 Mist 3 1010 93 1000 4.1 200 13:40 22.06.2019
6020 Mist 3 1010 93 1000 4.1 200 13:19 22.06.2019
6021 Fog 3 1010 93 500 3.1 200 12:47 22.06.2019
6022 Fog 3 1010 93 500 3.1 200 12:29 22.06.2019
6023 Mist 3 1010 93 0 4.1 180 11:53 22.06.2019
6024 Mist 3 1010 93 0 4.1 180 11:29 22.06.2019
6025 Rain 2 1010 100 0 5.7 200 10:47 22.06.2019
6026 Rain 2 1010 100 0 5.7 200 10:19 22.06.2019
6027 Snow 2 1010 100 0 8.2 200 09:46 22.06.2019
6028 Clouds 2 1009 100 0 6.7 200 08:58 22.06.2019
6029 Clouds 2 1009 100 0 6.7 200 08:40 22.06.2019
6030 Clouds 2 1009 100 0 6.7 200 08:19 22.06.2019
6031 Clouds 2 1009 100 0 6.2 190 07:30 22.06.2019
6032 Snow 2 1009 100 0 7.7 200 06:46 22.06.2019
6033 Snow 2 1010 100 0 7.2 200 04:38 22.06.2019
6034 Snow 4 1009 86 0 6.7 200 02:32 22.06.2019
6035 Fog 4 1010 86 4000 5.1 200 00:59 22.06.2019
6036 Fog 4 1010 86 4000 5.1 200 00:35 22.06.2019
6037 Fog 5 1010 80 10000 5.1 210 23:59 21.06.2019
6038 Fog 5 1010 80 10000 5.1 210 23:37 21.06.2019
6039 Fog 5 1010 80 10000 5.1 210 23:19 21.06.2019
6040 Clouds 5 1010 80 10000 4.6 200 22:41 21.06.2019
6041 Clouds 5 1010 80 10000 4.6 200 22:22 21.06.2019
6042 Clouds 6 1010 75 10000 4.6 200 21:40 21.06.2019
6043 Clouds 6 1010 75 10000 4.6 200 21:22 21.06.2019
6044 Clouds 7 1009 70 10000 4.1 200 20:53 21.06.2019
6045 Clouds 7 1009 70 10000 4.1 200 20:53 21.06.2019
6046 Clouds 7 1009 70 10000 4.1 200 20:27 21.06.2019
6047 Clouds 7 1009 75 10000 4.1 200 19:58 21.06.2019
6048 Clouds 7 1009 75 10000 4.1 200 19:30 21.06.2019
6049 Clouds 8 1010 70 10000 3.1 200 18:46 21.06.2019
6050 Clouds 8 1010 70 10000 3.1 200 18:28 21.06.2019
6051 Clouds 7 1010 75 10000 2.6 190 17:46 21.06.2019
6052 Clouds 7 1010 75 10000 2.6 190 17:27 21.06.2019
6053 Clouds 7 1010 75 10000 2.6 220 16:40 21.06.2019
6054 Clouds 7 1010 75 10000 2.6 220 16:21 21.06.2019
6055 Clouds 5 1010 86 10000 2.1 270 15:39 21.06.2019
6056 Clouds 5 1010 86 10000 2.1 270 15:20 21.06.2019
6057 Clouds 5 1010 86 10000 1 320 14:47 21.06.2019
6058 Clouds 5 1010 86 10000 1 320 14:28 21.06.2019
6059 Fog 4 1010 86 6000 2.6 290 13:46 21.06.2019
6060 Fog 4 1010 86 6000 2.6 290 13:27 21.06.2019
6061 Fog 3 1010 100 400 2.6 310 12:54 21.06.2019
6062 Fog 3 1010 100 400 2.6 310 12:24 21.06.2019
6063 Fog 3 1010 93 400 1.5 350 11:59 21.06.2019
6064 Fog 3 1010 93 400 1.5 350 11:40 21.06.2019
6065 Fog 3 1010 93 400 1.5 350 11:22 21.06.2019
6066 Snow 3 1010 93 0 1.5 360 10:48 21.06.2019
6067 Snow 3 1010 93 0 1.5 360 10:21 21.06.2019
6068 Fog 3 1010 93 0 2.1 330 09:55 21.06.2019
6069 Fog 3 1010 93 0 2.1 330 09:37 21.06.2019
6070 Fog 3 1010 93 0 2.1 330 09:18 21.06.2019
6071 Clear 3 1010 93 0 2.6 330 08:42 21.06.2019
6072 Clear 3 1010 93 0 2.6 330 08:21 21.06.2019
6073 Clear 3 1010 93 0 1.5 30 07:46 21.06.2019
6074 Clear 3 1010 93 0 1.5 30 07:23 21.06.2019
6075 Clear 4 1010 86 0 1.5 240 06:42 21.06.2019
6076 Clear 4 1010 86 0 1.5 240 06:18 21.06.2019
6077 Clear 4 1011 86 0 2.6 280 04:57 21.06.2019
6078 Clear 5 1011 80 0 3.1 270 03:58 21.06.2019
6079 Clear 5 1011 80 0 3.1 270 03:32 21.06.2019
6080 Clear 5 1011 80 0 3.1 280 02:44 21.06.2019
6081 Clear 6 1011 81 0 3.1 280 01:38 21.06.2019
6082 Clouds 7 1011 75 10000 3.6 280 00:52 21.06.2019
6083 Clouds 7 1011 75 10000 3.6 280 00:18 21.06.2019
6084 Clouds 7 1011 75 10000 4.1 270 23:42 20.06.2019
6085 Clouds 7 1011 75 10000 4.1 270 23:42 20.06.2019
6086 Clouds 7 1011 75 10000 4.1 270 23:21 20.06.2019
6087 Clouds 8 1011 70 10000 3.6 270 22:46 20.06.2019
6088 -273 0 0 0 0 0 22:27 20.06.2019
6089 Clouds 9 1011 66 10000 2.6 250 21:57 20.06.2019
6090 Clouds 9 1011 66 10000 2.6 250 21:39 20.06.2019
6091 Clouds 9 1011 66 10000 2.6 250 21:19 20.06.2019
6092 Clouds 9 1011 66 10000 3.1 200 20:47 20.06.2019
6093 Clouds 9 1011 66 10000 3.1 200 20:26 20.06.2019
6094 Clouds 9 1011 66 10000 3.1 190 19:58 20.06.2019
6095 Clouds 9 1011 66 10000 3.1 190 19:39 20.06.2019
6096 Clouds 9 1011 66 10000 3.1 190 19:18 20.06.2019
6097 Clouds 8 1011 70 10000 3.6 190 18:43 20.06.2019
6098 Clouds 8 1011 70 10000 3.6 190 18:23 20.06.2019
6099 Clouds 9 1011 66 10000 2.6 200 17:53 20.06.2019
6100 Clouds 9 1011 66 10000 2.6 200 17:35 20.06.2019
6101 Clouds 8 1011 70 10000 1.5 0 16:55 20.06.2019
6102 Clouds 8 1011 70 10000 1.5 0 16:36 20.06.2019
6103 Clouds 8 1011 70 10000 1.5 0 16:18 20.06.2019
6104 Fog 6 1011 75 10000 1 0 15:41 20.06.2019
6105 Fog 6 1011 75 10000 1 0 15:22 20.06.2019
6106 Fog 4 1012 86 10000 2.1 290 14:46 20.06.2019
6107 Fog 2 1012 86 10000 2.1 290 14:23 20.06.2019
6108 Fog 2 1012 93 1500 2.1 330 13:41 20.06.2019
6109 Fog 2 1012 93 1500 2.1 330 13:21 20.06.2019
6110 Fog 2 1012 100 400 1 250 12:50 20.06.2019
6111 Fog 2 1012 100 400 1 250 12:25 20.06.2019
6112 Fog 2 1012 100 400 1.5 220 11:55 20.06.2019
6113 Fog 2 1012 100 400 1.5 220 11:37 20.06.2019
6114 Fog 2 1012 100 400 1.5 220 11:18 20.06.2019
6115 Fog 2 1012 100 0 1.08 243.695 10:41 20.06.2019
6116 Fog 2 1012 100 0 1.08 243.695 10:21 20.06.2019
6117 Fog 2 1012 100 0 1.5 260 09:40 20.06.2019
6118 Fog 2 1012 100 0 1.5 260 09:22 20.06.2019
6119 Fog 2 1012 100 0 1 330 08:47 20.06.2019
6120 Fog 2 1012 100 0 1 330 08:27 20.06.2019
6121 Fog 2 1012 100 0 1.5 180 07:54 20.06.2019
6122 Fog 2 1012 100 0 1.5 180 07:30 20.06.2019
6123 Fog 3 1012 93 0 1.5 210 06:38 20.06.2019
6124 Fog 3 1012 93 0 1.5 210 06:18 20.06.2019
6125 Mist 3 1012 93 0 1.5 200 03:37 20.06.2019
6126 Fog 5 1012 80 10000 4.1 200 00:34 20.06.2019
6127 Fog 5 1012 86 10000 3.6 190 23:59 19.06.2019
6128 Fog 5 1012 86 10000 3.6 190 23:41 19.06.2019
6129 Fog 5 1012 86 10000 3.6 190 23:23 19.06.2019
6130 Fog 6 1012 75 10000 4.1 210 22:48 19.06.2019
6131 Fog 6 1012 75 10000 4.1 210 22:20 19.06.2019
6132 Fog 6 1012 81 10000 4.6 200 21:54 19.06.2019
6133 Fog 6 1012 81 10000 4.6 200 21:36 19.06.2019
6134 Fog 6 1012 81 10000 4.6 200 21:18 19.06.2019
6135 Fog 6 1012 81 10000 4.6 200 20:39 19.06.2019
6136 Fog 6 1012 81 10000 4.6 200 20:20 19.06.2019
6137 Clouds 6 1012 81 10000 5.1 200 19:42 19.06.2019
6138 Clouds 6 1012 81 10000 5.1 200 19:21 19.06.2019
6139 Fog 5 1012 86 10000 4.6 200 18:51 19.06.2019
6140 Fog 5 1012 86 10000 4.6 200 18:21 19.06.2019
6141 Fog 5 1012 86 7000 5.1 200 17:41 19.06.2019
6142 Fog 5 1012 86 7000 5.1 200 17:23 19.06.2019
6143 Fog 5 1012 86 4000 4.6 200 16:43 19.06.2019
6144 Fog 5 1012 86 4000 4.6 200 16:22 19.06.2019
6145 Fog 5 1012 86 500 5.1 200 15:58 19.06.2019
6146 Fog 5 1012 86 500 5.1 200 15:31 19.06.2019
6147 Fog 4 1012 93 600 5.7 200 14:59 19.06.2019
6148 Fog 4 1012 93 600 5.7 200 14:41 19.06.2019
6149 Fog 4 1012 93 600 5.7 200 14:21 19.06.2019
6150 Fog 4 1013 93 400 4.6 200 13:43 19.06.2019
6151 Fog 4 1013 93 400 4.6 200 13:25 19.06.2019
6152 Fog 3 1013 100 250 5.1 200 12:47 19.06.2019
6153 Fog 3 1013 100 250 5.1 200 12:22 19.06.2019
6154 -273 0 0 0 0 0 11:58 19.06.2019
6155 Fog 3 1013 100 250 4.1 200 11:38 19.06.2019
6156 Fog 3 1013 100 250 4.1 200 11:20 19.06.2019
6157 Snow 3 1013 100 0 4.1 200 10:45 19.06.2019
6158 Snow 3 1013 100 0 4.1 200 10:27 19.06.2019
6159 Rain 3 1013 100 0 3.1 200 09:50 19.06.2019
6160 Rain 3 1013 100 0 3.1 200 09:23 19.06.2019
6161 Snow 3 1013 100 0 4.1 200 08:58 19.06.2019
6162 Snow 3 1013 100 0 4.1 200 08:38 19.06.2019
6163 Snow 3 1013 100 0 4.1 200 08:19 19.06.2019
6164 Snow 3 1013 100 0 3.6 200 07:43 19.06.2019
6165 Snow 3 1013 100 0 3.6 200 07:21 19.06.2019
6166 Snow 3 1013 100 0 4.6 190 06:36 19.06.2019
6167 Snow 3 1013 100 0 5.1 200 05:58 19.06.2019
6168 Snow 3 1013 100 0 5.1 200 05:24 19.06.2019
6169 Snow 4 1013 93 0 8.2 190 03:53 19.06.2019
6170 Rain 5 1013 86 0 8.7 200 02:40 19.06.2019
6171 Clouds 7 1013 81 0 7.2 210 01:39 19.06.2019
6172 Clouds 7 1013 81 0 5.7 190 00:54 19.06.2019
6173 Clouds 7 1013 81 0 5.7 190 00:36 19.06.2019
6174 Clouds 7 1013 81 0 5.7 190 00:18 19.06.2019
6175 Clouds 8 1013 75 10000 7.7 200 23:42 18.06.2019
6176 Clouds 8 1013 75 10000 7.7 200 23:23 18.06.2019
6177 Clouds 10 1012 66 10000 7.2 200 22:41 18.06.2019
6178 Clouds 10 1012 66 10000 7.2 200 22:22 18.06.2019
6179 Clouds 12 1012 58 10000 7.2 190 21:44 18.06.2019
6180 Clouds 12 1012 58 10000 7.2 190 21:22 18.06.2019
6181 Clouds 11 1013 62 10000 5.7 200 20:59 18.06.2019
6182 Clouds 11 1013 62 10000 5.7 200 20:40 18.06.2019
6183 Clouds 11 1013 62 10000 5.7 200 20:21 18.06.2019
6184 Clouds 12 1012 62 10000 7.2 190 19:40 18.06.2019
6185 Clouds 12 1012 62 10000 7.2 190 19:22 18.06.2019
6186 Clouds 13 1012 58 10000 5.7 200 18:55 18.06.2019
6187 Clouds 13 1012 58 10000 5.7 200 18:25 18.06.2019
6188 Clouds 11 1013 66 10000 5.1 190 17:55 18.06.2019
6189 Clouds 11 1013 66 10000 5.1 190 17:36 18.06.2019
6190 Clouds 11 1013 66 10000 5.1 190 17:18 18.06.2019
6191 Clouds 10 1013 71 10000 5.1 200 16:42 18.06.2019
6192 Clouds 10 1013 71 10000 5.1 200 16:22 18.06.2019
6193 Clouds 11 1013 66 10000 5.1 190 15:42 18.06.2019
6194 Clouds 11 1013 66 10000 5.1 190 15:23 18.06.2019
6195 Clouds 11 1013 66 10000 5.7 200 14:56 18.06.2019
6196 Clouds 11 1013 66 10000 5.7 200 14:38 18.06.2019
6197 Clouds 11 1013 66 10000 5.7 200 14:19 18.06.2019
6198 Clouds 9 1013 76 10000 5.1 200 13:50 18.06.2019
6199 Clouds 9 1013 76 10000 5.1 200 13:31 18.06.2019
6200 Clouds 8 1013 81 10000 4.1 190 12:46 18.06.2019
6201 Clouds 8 1013 81 10000 4.1 190 12:28 18.06.2019
6202 Clouds 8 1013 75 10000 4.6 190 11:56 18.06.2019
6203 Clouds 8 1013 75 10000 4.6 190 11:38 18.06.2019
6204 Clouds 8 1013 75 10000 4.6 190 11:18 18.06.2019
6205 Clouds 8 1012 75 10000 3.6 190 10:43 18.06.2019
6206 Clouds 8 1012 75 10000 3.6 190 10:22 18.06.2019
6207 Clouds 9 1012 70 10000 3.1 190 09:52 18.06.2019
6208 Clouds 9 1012 70 0 3.6 180 09:25 18.06.2019
6209 Clouds 8 1012 81 0 2.6 190 08:58 18.06.2019
6210 Clouds 8 1012 81 0 2.6 190 08:39 18.06.2019
6211 Clouds 8 1012 81 0 2.6 190 08:20 18.06.2019
6212 Clouds 8 1012 81 0 1.5 170 07:27 18.06.2019
6213 Clouds 8 1012 81 0 2.6 190 06:57 18.06.2019
6214 Clear 8 1013 81 0 3.1 190 05:28 18.06.2019
6215 Clear 9 1013 76 0 4.1 190 04:22 18.06.2019
6216 Clear 12 1013 66 0 2.1 200 02:50 18.06.2019
6217 Clear 14 1013 58 0 2.1 250 01:29 18.06.2019
6218 Clear 16 1013 51 0 2.1 250 00:58 18.06.2019
6219 Clear 16 1013 51 0 2.1 250 00:40 18.06.2019
6220 Clear 16 1013 51 0 2.1 250 00:22 18.06.2019
6221 Clear 18 1013 42 0 2.1 260 23:38 17.06.2019
6222 Clear 18 1013 42 0 2.1 260 23:19 17.06.2019
6223 Clouds 18 1014 45 10000 3.1 260 22:41 17.06.2019
6224 Clouds 18 1014 45 10000 3.1 260 22:21 17.06.2019
6225 Clouds 18 1014 45 10000 3.1 260 22:21 17.06.2019
6226 Clouds 19 1014 39 10000 4.1 280 21:56 17.06.2019
6227 Clouds 19 1014 39 10000 4.1 280 21:38 17.06.2019
6228 Clouds 19 1014 39 10000 4.1 280 21:18 17.06.2019
6229 Clouds 20 1013 34 10000 2.1 330 20:36 17.06.2019
6230 Clouds 20 1013 34 10000 2.1 330 20:18 17.06.2019
6231 Clouds 20 1014 37 10000 2.6 320 19:41 17.06.2019
6232 Clouds 20 1014 37 10000 2.6 320 19:22 17.06.2019
6233 Clear 19 1014 37 10000 2.1 320 18:57 17.06.2019
6234 Clear 19 1014 37 10000 2.1 320 18:37 17.06.2019
6235 Clear 19 1014 37 10000 2.1 320 18:18 17.06.2019
6236 Clear 11 1015 51 0 4.48 315.723 17:42 17.06.2019
6237 Clear 16 1015 38 10000 2.6 20 17:24 17.06.2019
6238 Clear 16 1015 38 10000 2.6 20 16:46 17.06.2019
6239 Clear 16 1015 38 10000 2.6 20 16:28 17.06.2019
6240 Clear 13 1015 58 10000 4.1 360 15:56 17.06.2019
6241 Clear 13 1015 58 10000 4.1 360 15:38 17.06.2019
6242 Clear 13 1015 58 10000 4.1 360 15:18 17.06.2019
6243 Clear 11 1015 66 10000 4.1 10 14:48 17.06.2019
6244 Clear 11 1015 66 10000 4.1 10 14:30 17.06.2019
6245 Clear 10 1015 71 10000 3.1 350 13:50 17.06.2019
6246 Clear 10 1015 71 10000 3.1 350 13:24 17.06.2019
6247 Clear 8 1015 81 10000 4.6 350 12:52 17.06.2019
6248 Clear 8 1015 81 10000 4.6 350 12:32 17.06.2019
6249 Fog 7 1016 81 10000 3.6 360 11:51 17.06.2019
6250 Fog 7 1016 81 10000 3.6 360 11:27 17.06.2019
6251 Fog 6 1016 87 10000 4.6 360 10:59 17.06.2019
6252 Fog 6 1016 87 10000 4.6 360 10:41 17.06.2019
6253 Fog 6 1016 87 10000 4.6 360 10:22 17.06.2019
6254 Clear 8 1016 70 0 3.1 360 09:55 17.06.2019
6255 Clear 8 1016 70 0 3.1 360 09:55 17.06.2019
6256 Clear 8 1016 70 0 3.1 360 09:30 17.06.2019
6257 Clear 6 1016 87 0 4.1 30 08:43 17.06.2019
6258 Clear 6 1016 87 0 4.1 30 08:23 17.06.2019
6259 Clear 5 1016 93 0 5.7 30 07:51 17.06.2019
6260 Clear 5 1016 93 0 5.7 30 07:32 17.06.2019
6261 Clear 6 1017 87 0 5.1 30 06:48 17.06.2019
6262 Clear 7 1017 81 0 4.1 30 05:55 17.06.2019
6263 Clear 7 1017 81 0 3.6 10 04:59 17.06.2019
6264 Clear 10 1018 71 0 1.5 20 03:52 17.06.2019
6265 Clear 10 1018 71 0 1.5 20 03:30 17.06.2019
6266 Clear 10 1018 71 0 1.5 270 02:43 17.06.2019
6267 Clear 10 1018 71 0 1.5 270 02:24 17.06.2019
6268 Clear 10 1018 71 0 2.1 280 01:35 17.06.2019
6269 Clear 11 1019 66 0 2.6 260 00:57 17.06.2019
6270 Clear 11 1019 66 0 2.6 260 00:36 17.06.2019
6271 Clear 11 1019 66 0 2.6 260 00:18 17.06.2019
6272 Clear 16 1018 44 10000 2.1 330 23:39 16.06.2019
6273 Clear 16 1018 44 10000 2.1 330 23:19 16.06.2019
6274 Clear 15 1019 47 10000 1 0 22:44 16.06.2019
6275 Clear 15 1019 47 10000 1 0 22:20 16.06.2019
6276 Clouds 14 1019 50 10000 2.6 250 21:57 16.06.2019
6277 Clouds 14 1019 50 10000 2.6 250 21:39 16.06.2019
6278 Clouds 14 1019 50 10000 2.6 250 21:20 16.06.2019
6279 Clouds 13 1019 54 10000 2.1 280 20:40 16.06.2019
6280 Clouds 13 1019 54 10000 2.1 280 20:19 16.06.2019
6281 Clouds 12 1019 58 10000 3.1 250 19:58 16.06.2019
6282 Clouds 12 1019 58 10000 3.1 250 19:39 16.06.2019
6283 Clouds 12 1019 58 10000 3.1 250 19:21 16.06.2019
6284 Clouds 12 1019 58 10000 3.1 200 18:42 16.06.2019
6285 Clouds 12 1019 58 10000 3.1 200 18:21 16.06.2019
6286 Clouds 13 1019 54 10000 2.1 220 17:58 16.06.2019
6287 Clouds 13 1019 54 10000 2.1 220 17:40 16.06.2019
6288 Clouds 13 1019 54 10000 2.1 220 17:21 16.06.2019
6289 Clouds 13 1019 58 10000 3.1 210 16:55 16.06.2019
6290 Clouds 13 1019 58 10000 3.1 210 16:37 16.06.2019
6291 Clouds 13 1019 58 10000 3.1 210 16:18 16.06.2019
6292 Clouds 12 1019 62 10000 2.6 200 15:41 16.06.2019
6293 Clouds 12 1019 62 10000 2.6 200 15:41 16.06.2019
6294 Clouds 12 1019 62 10000 2.6 200 15:23 16.06.2019
6295 Clouds 11 1020 66 10000 3.1 200 14:42 16.06.2019
6296 Clouds 11 1020 66 10000 3.1 200 14:23 16.06.2019
6297 Clouds 11 1020 66 10000 3.1 200 14:23 16.06.2019
6298 Clouds 11 1020 66 10000 2.6 190 13:51 16.06.2019
6299 Clouds 11 1020 66 10000 2.6 190 13:26 16.06.2019
6300 Clouds 9 1020 76 10000 2.1 200 12:57 16.06.2019
6301 Clouds 9 1020 76 10000 2.1 200 12:57 16.06.2019
6302 Clouds 9 1020 76 10000 2.1 200 12:38 16.06.2019
6303 Clouds 9 1020 76 10000 2.1 200 12:18 16.06.2019
6304 Clouds 9 1020 70 10000 2.6 190 11:44 16.06.2019
6305 Clouds 9 1020 70 10000 2.6 190 11:19 16.06.2019
6306 Clouds 8 1020 81 0 3.1 180 10:45 16.06.2019
6307 Clouds 8 1020 81 0 3.1 180 10:21 16.06.2019
6308 Clouds 6 1020 87 0 3.1 180 09:48 16.06.2019
6309 Clouds 6 1020 87 0 3.1 180 09:26 16.06.2019
6310 Clouds 5 1020 93 0 3.1 190 08:59 16.06.2019
6311 Clouds 5 1020 93 0 3.1 190 08:38 16.06.2019
6312 Clouds 5 1020 93 0 3.1 190 08:18 16.06.2019
6313 Clouds 5 1020 93 0 3.6 190 07:44 16.06.2019
6314 Clouds 7 1020 81 0 4.1 180 06:59 16.06.2019
6315 Clouds 7 1020 81 0 4.1 180 06:37 16.06.2019
6316 Clouds 6 1020 87 0 4.1 190 05:50 16.06.2019
6317 Clouds 7 1021 81 0 3.1 190 04:54 16.06.2019
6318 Clouds 9 1021 76 0 3.6 200 03:57 16.06.2019
6319 Clouds 9 1021 76 0 3.6 200 03:32 16.06.2019
6320 Clouds 9 1021 76 10000 3.6 190 02:33 16.06.2019
6321 Clouds 10 1021 71 10000 4.1 200 01:47 16.06.2019
6322 Clouds 10 1021 71 10000 4.1 200 01:27 16.06.2019
6323 Clouds 13 1021 58 10000 2.6 200 00:40 16.06.2019
6324 Clouds 13 1021 58 10000 2.6 200 00:21 16.06.2019
6325 Clouds 13 1021 62 10000 4.1 190 23:45 15.06.2019
6326 Clouds 13 1021 62 10000 4.1 190 23:25 15.06.2019
6327 Clouds 14 1021 58 10000 4.1 190 22:50 15.06.2019
6328 Clouds 14 1021 58 10000 4.1 190 22:27 15.06.2019
6329 Clouds 16 1021 51 10000 3.1 190 21:57 15.06.2019
6330 Clouds 16 1021 51 10000 3.1 190 21:39 15.06.2019
6331 Clouds 16 1021 51 10000 3.1 190 21:18 15.06.2019
6332 Clouds 13 1021 66 10000 4.6 190 20:42 15.06.2019
6333 Clouds 13 1021 66 10000 4.6 190 20:22 15.06.2019
6334 Clouds 12 1021 71 10000 4.6 200 19:43 15.06.2019
6335 Clouds 12 1021 71 10000 4.6 200 19:24 15.06.2019
6336 Clouds 16 1021 59 10000 3.1 200 18:41 15.06.2019
6337 Clouds 16 1021 59 10000 3.1 200 18:21 15.06.2019
6338 Clouds 16 1022 55 10000 3.6 0 17:43 15.06.2019
6339 Clouds 16 1022 55 10000 3.6 0 17:25 15.06.2019
6340 Clear 15 1022 58 10000 2.6 30 16:48 15.06.2019
6341 Clear 15 1022 58 10000 2.6 30 16:20 15.06.2019
6342 Clouds 14 1022 58 10000 3.1 50 15:44 15.06.2019
6343 Clouds 14 1022 58 10000 3.1 50 15:44 15.06.2019
6344 Clouds 14 1022 58 10000 3.1 50 15:24 15.06.2019
6345 Clouds 11 1022 71 10000 3.6 40 14:44 15.06.2019
6346 Clouds 11 1022 71 10000 3.6 40 14:19 15.06.2019
6347 Clouds 8 1022 87 10000 6.2 40 13:58 15.06.2019
6348 Clouds 8 1022 87 10000 6.2 40 13:40 15.06.2019
6349 Clouds 8 1022 87 10000 6.2 40 13:19 15.06.2019
6350 Clear 9 1022 81 10000 5.7 60 12:52 15.06.2019
6351 Clear 9 1022 81 10000 5.7 60 12:26 15.06.2019
6352 Clouds 6 1023 93 10000 5.7 40 11:53 15.06.2019
6353 Clouds 6 1023 93 10000 5.7 40 11:34 15.06.2019
6354 Clouds 6 1023 87 0 4.1 30 10:55 15.06.2019
6355 Clouds 6 1023 87 0 4.1 30 10:37 15.06.2019
6356 Clouds 6 1023 87 0 4.1 30 10:18 15.06.2019
6357 Clouds 5 1024 93 0 4.1 10 09:43 15.06.2019
6358 Clouds 5 1024 93 0 4.1 10 09:21 15.06.2019
6359 Clouds 5 1024 93 0 3.6 10 08:48 15.06.2019
6360 Clouds 5 1024 93 0 3.6 10 08:29 15.06.2019
6361 Clouds 5 1024 93 0 4.1 20 07:49 15.06.2019
6362 Clouds 5 1024 93 0 4.1 20 07:22 15.06.2019
6363 Clouds 5 1024 93 0 4.1 30 06:39 15.06.2019
6364 Clouds 5 1024 93 0 4.1 30 06:39 15.06.2019
6365 Clouds 5 1025 93 0 3.6 10 05:56 15.06.2019
6366 Clouds 5 1025 93 0 3.6 10 05:23 15.06.2019
6367 Clouds 6 1026 87 0 4.6 30 04:41 15.06.2019
6368 Clouds 6 1026 87 0 4.6 30 04:41 15.06.2019
6369 Clouds 8 1026 81 0 3.6 20 03:42 15.06.2019
6370 Clouds 9 1026 76 0 3.6 20 02:49 15.06.2019
6371 Clouds 9 1026 76 0 3.6 20 02:21 15.06.2019
6372 Clouds 9 1027 81 0 3.1 350 01:42 15.06.2019
6373 Clouds 10 1027 76 0 3.1 350 00:47 15.06.2019
6374 Clouds 10 1027 76 0 3.1 350 00:29 15.06.2019
6375 Clouds 12 1027 66 10000 2.1 250 23:54 14.06.2019
6376 Clouds 12 1027 66 10000 2.1 250 23:25 14.06.2019
6377 Clouds 10 1028 76 10000 2.1 270 22:45 14.06.2019
6378 Clouds 10 1028 76 10000 2.1 270 22:23 14.06.2019
6379 Clouds 12 1028 66 10000 1 0 21:59 14.06.2019
6380 Clouds 12 1028 66 10000 1 0 21:40 14.06.2019
6381 Clouds 12 1028 66 10000 1 0 21:21 14.06.2019
6382 Fog 8 1028 75 10000 2.6 180 20:42 14.06.2019
6383 Fog 8 1028 75 10000 2.6 180 20:18 14.06.2019
6384 Fog 8 1028 75 10000 3.1 200 19:54 14.06.2019
6385 Fog 8 1028 75 10000 3.1 200 19:24 14.06.2019
6386 Clouds 7 1028 81 10000 4.1 210 18:59 14.06.2019
6387 Clouds 7 1028 81 10000 4.1 210 18:41 14.06.2019
6388 Clouds 7 1028 81 10000 4.1 210 18:41 14.06.2019
6389 Clouds 7 1028 81 10000 4.1 210 18:22 14.06.2019
6390 Clouds 7 1028 75 10000 4.1 190 17:55 14.06.2019
6391 Clouds 7 1028 75 10000 4.1 190 17:36 14.06.2019
6392 Clouds 7 1028 75 10000 4.1 190 17:18 14.06.2019
6393 Clouds 5 1028 93 10000 5.1 200 16:44 14.06.2019
6394 Clouds 5 1028 93 10000 5.1 200 16:20 14.06.2019
6395 Clouds 5 1028 93 10000 5.1 200 16:20 14.06.2019
6396 Clouds 5 1028 93 10000 5.1 200 16:20 14.06.2019
6397 Clouds 5 1028 93 10000 5.1 200 16:19 14.06.2019
6398 Clouds 6 1028 87 10000 6.2 190 15:42 14.06.2019
6399 Clouds 6 1028 87 10000 6.2 190 15:42 14.06.2019
6400 Clouds 6 1028 87 10000 6.2 190 15:24 14.06.2019
6401 Clouds 5 1029 86 10000 5.7 220 14:59 14.06.2019
6402 Clouds 5 1029 86 10000 5.7 220 14:59 14.06.2019
6403 Clouds 5 1029 86 10000 5.7 220 14:59 14.06.2019
6404 Clouds 5 1029 86 10000 5.7 220 14:59 14.06.2019
6405 Clouds 5 1029 86 10000 5.7 220 14:39 14.06.2019
6406 Clouds 5 1029 86 10000 5.7 220 14:20 14.06.2019
6407 Clouds 4 1028 93 10000 5.7 210 13:42 14.06.2019
6408 Clouds 4 1028 93 10000 5.7 210 13:24 14.06.2019
6409 Clouds 5 1028 86 10000 5.7 200 12:43 14.06.2019
6410 -273 0 0 0 0 0 12:25 14.06.2019
6411 Clouds 5 1028 86 10000 5.7 200 12:25 14.06.2019
6412 Clouds 5 1028 86 10000 6.7 210 11:58 14.06.2019
6413 Clouds 5 1028 86 10000 6.7 210 11:39 14.06.2019
6414 Clouds 5 1028 86 10000 6.7 210 11:20 14.06.2019
6415 Clouds 5 1028 93 10000 6.2 210 10:43 14.06.2019
6416 Clouds 5 1028 93 10000 6.2 210 10:20 14.06.2019
6417 Clouds 4 1028 100 0 5.7 200 09:46 14.06.2019
6418 Rain 4 1028 100 0 5.7 200 09:24 14.06.2019
6419 Rain 6 1028 87 0 6.2 200 08:47 14.06.2019
6420 Rain 6 1028 87 0 6.2 200 08:19 14.06.2019
6421 Rain 7 1028 87 0 5.7 200 07:51 14.06.2019
6422 Rain 7 1028 87 0 5.7 200 07:22 14.06.2019
6423 Rain 9 1027 70 0 5.7 190 06:39 14.06.2019
6424 -273 0 0 0 0 0 05:58 14.06.2019
6425 Clouds 11 1027 57 0 7.7 160 05:33 14.06.2019
6426 Clouds 11 1027 62 0 12.3 160 04:48 14.06.2019
6427 Clouds 11 1027 57 0 12.9 160 03:56 14.06.2019
6428 Rain 11 1027 57 0 12.9 160 03:26 14.06.2019
6429 Rain 10 1027 66 0 14.9 160 02:56 14.06.2019
6430 Rain 9 1027 66 0 14.9 160 02:27 14.06.2019
6431 Drizzle 9 1027 87 0 15.9 160 01:26 14.06.2019
6432 Rain 8 1026 81 10000 18.5 160 00:36 14.06.2019
6433 Rain 8 1026 81 10000 18.5 160 00:18 14.06.2019
6434 Rain 9 1026 70 10000 19 160 23:47 13.06.2019
6435 Rain 9 1026 70 10000 19 160 23:22 13.06.2019
6436 Rain 8 1027 87 10000 12.9 160 22:40 13.06.2019
6437 Rain 8 1027 87 10000 12.9 160 22:22 13.06.2019
6438 Rain 7 1027 93 9000 5.7 190 21:56 13.06.2019
6439 Rain 7 1027 93 9000 5.7 190 21:36 13.06.2019
6440 Rain 7 1027 93 9000 5.7 190 21:18 13.06.2019
6441 Rain 7 1026 93 6000 5.7 200 20:42 13.06.2019
6442 Rain 7 1026 93 6000 5.7 200 20:19 13.06.2019
6443 Rain 8 1026 87 10000 2.6 200 19:43 13.06.2019
6444 Rain 8 1026 87 10000 2.6 200 19:24 13.06.2019
6445 Rain 7 1026 93 10000 2.1 340 18:58 13.06.2019
6446 Rain 7 1026 93 10000 2.1 340 18:40 13.06.2019
6447 Rain 7 1026 93 10000 2.1 340 18:22 13.06.2019
6448 Rain 8 1026 87 10000 1.5 0 17:44 13.06.2019
6449 Rain 8 1026 87 10000 1.5 0 17:21 13.06.2019
6450 Rain 8 1026 81 10000 3.1 210 16:58 13.06.2019
6451 Rain 8 1026 81 10000 3.1 210 16:38 13.06.2019
6452 Rain 8 1026 81 10000 3.1 210 16:18 13.06.2019
6453 Rain 8 1027 87 10000 2.6 200 15:40 13.06.2019
6454 Rain 8 1027 87 10000 2.6 200 15:22 13.06.2019
6455 Clouds 9 1026 81 10000 2.1 0 14:49 13.06.2019
6456 Clouds 9 1026 81 10000 2.1 0 14:31 13.06.2019
6457 Clouds 9 1026 81 10000 2.1 0 14:31 13.06.2019
6458 Drizzle 8 1026 87 10000 2.1 360 13:55 13.06.2019
6459 Drizzle 8 1026 87 10000 2.1 360 13:37 13.06.2019
6460 Drizzle 8 1026 87 10000 2.1 360 13:19 13.06.2019
6461 Clouds 9 1025 81 10000 1 0 12:40 13.06.2019
6462 Clouds 9 1025 81 10000 1 0 12:21 13.06.2019
6463 Rain 7 1025 87 0 3.1 30 11:45 13.06.2019
6464 Rain 7 1025 87 0 3.1 30 11:26 13.06.2019
6465 Snow 7 1025 87 0 1 10 10:49 13.06.2019
6466 Snow 7 1025 87 0 1 10 10:30 13.06.2019
6467 Rain 7 1025 87 0 0.5 0 09:55 13.06.2019
6468 Rain 7 1025 87 0 0.5 0 09:55 13.06.2019
6469 Rain 7 1025 87 0 0.5 0 09:55 13.06.2019
6470 Rain 7 1025 87 0 0.5 0 09:36 13.06.2019
6471 Rain 7 1025 87 0 0.5 0 09:18 13.06.2019
6472 Snow 7 1025 87 0 3.1 60 08:43 13.06.2019
6473 Snow 7 1025 87 0 3.1 60 08:22 13.06.2019
6474 Rain 7 1025 87 0 2.1 360 07:41 13.06.2019
6475 Rain 7 1025 87 0 2.1 360 07:22 13.06.2019
6476 Snow 6 1024 93 0 2.1 30 06:45 13.06.2019
6477 Snow 6 1024 93 0 2.1 30 06:22 13.06.2019
6478 Clouds 7 1024 87 10000 2.1 200 05:52 13.06.2019
6479 Clouds 7 1024 87 10000 2.1 200 05:34 13.06.2019
6480 Clouds 8 1023 81 10000 3.1 190 03:57 13.06.2019
6481 Rain 9 1022 76 0 5.1 170 02:23 13.06.2019
6482 Rain 8 1022 81 10000 3.6 180 00:46 13.06.2019
6483 Drizzle 9 1021 70 10000 4.6 170 23:47 12.06.2019
6484 Drizzle 9 1021 70 10000 4.6 170 23:21 12.06.2019
6485 Clouds 9 1021 66 10000 5.7 220 22:42 12.06.2019
6486 Clouds 9 1021 66 10000 5.7 220 22:24 12.06.2019
6487 Clouds 11 1020 57 10000 6.2 190 21:56 12.06.2019
6488 Clouds 11 1020 57 10000 6.2 190 21:36 12.06.2019
6489 Clouds 11 1020 57 10000 6.2 190 21:18 12.06.2019
6490 Clouds 14 1020 41 10000 5.7 190 20:37 12.06.2019
6491 Clouds 14 1020 41 10000 5.7 190 20:19 12.06.2019
6492 Clouds 17 1019 29 10000 1 0 19:42 12.06.2019
6493 Clouds 17 1019 29 10000 1 0 19:23 12.06.2019
6494 Clouds 17 1019 39 10000 1.5 0 18:55 12.06.2019
6495 Clouds 17 1019 39 10000 1.5 0 18:37 12.06.2019
6496 Clouds 17 1019 39 10000 1.5 0 18:18 12.06.2019
6497 Clouds 17 1019 36 10000 5.1 50 17:43 12.06.2019
6498 Clouds 17 1019 36 10000 5.1 50 17:20 12.06.2019
6499 Clouds 15 1019 44 10000 5.1 50 16:42 12.06.2019
6500 Clouds 15 1019 44 10000 5.1 50 16:23 12.06.2019
6501 Clouds 13 1020 50 10000 6.2 50 15:52 12.06.2019
6502 Clouds 13 1020 50 10000 6.2 50 15:32 12.06.2019
6503 Clouds 14 1020 44 10000 6.7 60 14:46 12.06.2019
6504 Clouds 14 1020 44 10000 6.7 60 14:27 12.06.2019
6505 Clouds 12 1021 58 10000 6.7 50 13:43 12.06.2019
6506 Clouds 12 1021 58 10000 6.7 50 13:20 12.06.2019
6507 Clouds 11 1021 57 10000 5.1 40 12:59 12.06.2019
6508 Clouds 11 1021 57 10000 5.1 40 12:38 12.06.2019
6509 Clouds 11 1021 57 10000 5.1 40 12:38 12.06.2019
6510 Clouds 11 1021 57 10000 5.1 40 12:38 12.06.2019
6511 Clouds 11 1021 57 10000 5.1 40 12:19 12.06.2019
6512 Clouds 11 1021 57 10000 5.1 40 12:19 12.06.2019
6513 Clouds 11 1021 57 10000 5.1 40 12:19 12.06.2019
6514 Clouds 9 1022 70 10000 3.6 30 11:46 12.06.2019
6515 Clouds 9 1022 70 10000 3.6 30 11:28 12.06.2019
6516 Clouds 9 1023 68 0 2.44 49.5 10:51 12.06.2019
6517 Clouds 9 1021 66 0 2.44 49.5 10:31 12.06.2019
6518 Clouds 9 1021 66 0 2.44 49.5 09:45 12.06.2019
6519 Clouds 9 1021 66 0 6.87 188.47 09:23 12.06.2019
6520 Clouds 8 1020 75 0 3.1 180 08:58 12.06.2019
6521 Clouds 8 1020 75 0 3.1 180 08:24 12.06.2019
6522 Clouds 8 1020 75 0 4.6 180 07:52 12.06.2019
6523 Clouds 8 1019 75 0 5.1 190 06:55 12.06.2019
6524 Clouds 10 1019 61 0 6.7 190 05:52 12.06.2019
6525 Clouds 10 1019 61 0 6.7 190 05:23 12.06.2019
6526 Clouds 15 1015 41 0 7.7 170 02:19 12.06.2019
6527 Clouds 14 1013 44 10000 7.2 190 00:41 12.06.2019
6528 Clouds 18 1011 31 10000 9.3 130 23:53 11.06.2019
6529 Clouds 18 1011 31 10000 9.3 130 23:34 11.06.2019
6530 Clouds 19 1010 29 10000 7.2 60 22:45 11.06.2019
6531 Clouds 19 1010 29 10000 7.2 60 22:24 11.06.2019
6532 Clouds 19 1010 29 10000 7.2 60 22:24 11.06.2019
6533 Clouds 19 1011 24 10000 3.6 40 21:59 11.06.2019
6534 Clouds 19 1011 24 10000 3.6 40 21:40 11.06.2019
6535 Clouds 19 1011 24 10000 3.6 40 21:22 11.06.2019
6536 Clouds 19 1012 24 10000 3.6 30 20:57 11.06.2019
6537 Clouds 19 1012 24 10000 3.6 30 20:39 11.06.2019
6538 Clouds 19 1012 24 10000 3.6 30 20:21 11.06.2019
6539 Clouds 18 1012 25 10000 3.1 360 19:45 11.06.2019
6540 Clouds 18 1012 25 10000 3.1 360 19:27 11.06.2019
6541 Clear 18 1013 25 10000 1.5 320 18:48 11.06.2019
6542 Clear 18 1013 25 10000 1.5 320 18:20 11.06.2019
6543 Clear 18 1013 27 10000 2.6 360 17:41 11.06.2019
6544 Clear 18 1013 27 10000 2.6 360 17:20 11.06.2019
6545 Clear 15 1014 27 10000 4.1 30 16:43 11.06.2019
6546 Clear 15 1014 27 10000 4.1 30 16:24 11.06.2019
6547 Clear 15 1014 27 10000 3.1 50 15:44 11.06.2019
6548 Clear 15 1014 31 10000 3.1 50 15:25 11.06.2019
6549 Clear 16 1015 31 10000 1 340 14:58 11.06.2019
6550 Clear 16 1015 31 10000 1 340 14:39 11.06.2019
6551 Clear 16 1015 31 10000 1 340 14:19 11.06.2019
6552 Clouds 15 1015 38 10000 3.1 180 13:43 11.06.2019
6553 Clouds 15 1015 38 10000 3.1 180 13:21 11.06.2019
6554 Clouds 14 1014 35 10000 2.1 180 12:42 11.06.2019
6555 Clouds 14 1014 35 10000 2.1 180 12:22 11.06.2019
6556 Clouds 13 1014 47 10000 2.6 0 11:56 11.06.2019
6557 Clouds 13 1014 47 10000 2.6 0 11:33 11.06.2019
6558 Clear 11 1014 50 0 2.1 360 10:57 11.06.2019
6559 Clear 11 1014 50 0 2.1 360 10:39 11.06.2019
6560 Clear 11 1014 50 0 2.1 360 10:19 11.06.2019
6561 Clear 10 1014 53 0 1 120 09:43 11.06.2019
6562 Clear 10 1014 53 0 1 120 09:23 11.06.2019
6563 Clear 9 1014 66 0 0.5 0 08:41 11.06.2019
6564 Clear 9 1014 66 0 0.5 0 08:22 11.06.2019
6565 Clear 12 1014 46 0 2.6 60 07:34 11.06.2019
6566 Clear 7 1014 81 0 1.33 136.254 06:54 11.06.2019
6567 Clear 8 1014 81 0 2.1 310 05:56 11.06.2019
6568 Clear 9 1014 76 0 1.35 146.839 04:48 11.06.2019
6569 Clouds 9 1015 76 0 2.1 210 02:27 11.06.2019
6570 Clear 13 1014 58 10000 2.1 260 00:54 11.06.2019
6571 Clear 13 1014 58 10000 2.1 260 00:31 11.06.2019
6572 Clouds 15 1015 47 10000 3.1 360 23:46 10.06.2019
6573 Clouds 15 1015 47 10000 3.1 360 23:21 10.06.2019
6574 Clouds 16 1015 44 10000 3.1 360 22:47 10.06.2019
6575 Clouds 16 1015 44 10000 3.1 360 22:29 10.06.2019
6576 Clouds 17 1015 45 10000 3.1 300 21:58 10.06.2019
6577 Clouds 17 1015 45 10000 3.1 300 21:39 10.06.2019
6578 Clouds 17 1015 45 10000 3.1 300 21:21 10.06.2019
6579 Clouds 17 1015 45 10000 2.1 330 20:44 10.06.2019
6580 Clouds 17 1015 45 10000 2.1 330 20:23 10.06.2019
6581 Clouds 16 1015 38 10000 2.6 310 19:51 10.06.2019
6582 Clouds 16 1015 38 10000 2.6 310 19:26 10.06.2019
6583 Clouds 14 1016 54 10000 3.1 300 18:59 10.06.2019
6584 Clouds 14 1016 54 10000 3.1 300 18:40 10.06.2019
6585 Clouds 14 1016 54 10000 3.1 300 18:20 10.06.2019
6586 Clouds 15 1016 47 10000 3.6 340 17:44 10.06.2019
6587 Clouds 15 1016 47 10000 3.6 340 17:24 10.06.2019
6588 Clouds 13 1017 50 10000 4.1 20 16:56 10.06.2019
6589 Clouds 13 1017 50 10000 4.1 20 16:38 10.06.2019
6590 Clouds 13 1017 50 10000 4.1 20 16:18 10.06.2019
6591 Clouds 10 1018 71 10000 5.1 10 15:41 10.06.2019
6592 Clouds 10 1018 71 10000 5.1 10 15:23 10.06.2019
6593 Clouds 9 1018 76 10000 4.6 360 14:49 10.06.2019
6594 Clouds 9 1018 76 10000 4.6 360 14:30 10.06.2019
6595 Fog 9 1019 76 10000 3.6 20 13:58 10.06.2019
6596 Fog 9 1019 76 10000 3.6 20 13:39 10.06.2019
6597 Fog 9 1019 76 10000 3.6 20 13:20 10.06.2019
6598 Fog 6 1019 87 10000 3.1 20 12:40 10.06.2019
6599 Fog 6 1019 87 10000 3.1 20 12:22 10.06.2019
6600 Fog 7 1019 81 10000 2.6 0 11:43 10.06.2019
6601 Fog 7 1019 81 10000 2.6 0 11:20 10.06.2019
6602 Fog 5 1019 93 10000 4.1 10 10:42 10.06.2019
6603 Fog 5 1019 93 10000 4.1 10 10:20 10.06.2019
6604 Clouds 4 1020 100 0 5.1 10 09:57 10.06.2019
6605 Clouds 4 1020 100 0 5.1 10 09:38 10.06.2019
6606 Clear 4 1020 100 0 5.1 10 09:19 10.06.2019
6607 Clear 5 1020 86 0 4.6 10 08:43 10.06.2019
6608 Clear 5 1020 86 0 4.6 10 08:18 10.06.2019
6609 Clear 6 1021 87 0 3.1 30 06:34 10.06.2019
6610 Clear 7 1022 81 0 4.6 30 04:27 10.06.2019
6611 Clear 11 1022 62 0 3.6 30 01:57 10.06.2019
6612 Clear 11 1022 62 0 3.6 30 01:23 10.06.2019
6613 Clear 12 1023 58 0 4.1 20 00:55 10.06.2019
6614 Clear 12 1023 58 0 4.1 20 00:19 10.06.2019
6615 Clear 13 1023 54 0 4.1 360 23:42 09.06.2019
6616 Clear 13 1023 54 0 4.1 360 23:19 09.06.2019
6617 Clear 13 1023 54 0 3.1 330 22:43 09.06.2019
6618 Clear 13 1023 54 0 3.1 330 22:25 09.06.2019
6619 Clouds 14 1023 50 10000 4.6 330 21:45 09.06.2019
6620 Clouds 14 1022 54 10000 5.1 330 21:23 09.06.2019
6621 Clouds 14 1022 58 10000 3.1 330 20:43 09.06.2019
6622 Clouds 14 1022 58 10000 3.1 330 20:23 09.06.2019
6623 Clouds 14 1022 54 10000 3.1 340 19:48 09.06.2019
6624 Clouds 14 1022 54 10000 3.1 340 19:19 09.06.2019
6625 Clouds 14 1022 58 10000 3.1 20 18:59 09.06.2019
6626 Clouds 14 1022 58 10000 3.1 20 18:41 09.06.2019
6627 Clouds 14 1022 58 10000 3.1 20 18:23 09.06.2019
6628 Clouds 13 1022 62 10000 3.6 20 17:47 09.06.2019
6629 Clouds 13 1022 62 10000 3.6 20 17:27 09.06.2019
6630 Clouds 12 1022 66 10000 3.6 30 16:55 09.06.2019
6631 Clouds 12 1022 66 10000 3.6 30 16:36 09.06.2019
6632 Clouds 12 1022 66 10000 3.6 30 16:18 09.06.2019
6633 Clouds 11 1023 66 10000 4.1 30 15:44 09.06.2019
6634 Clouds 11 1023 66 10000 4.1 30 15:26 09.06.2019
6635 Clouds 10 1022 66 10000 2.6 340 14:46 09.06.2019
6636 Clouds 10 1022 66 10000 2.6 340 14:25 09.06.2019
6637 Clouds 9 1022 76 0 1 340 13:52 09.06.2019
6638 Clouds 9 1022 76 0 1 340 13:27 09.06.2019
6639 Clouds 8 1022 75 0 1.5 200 12:43 09.06.2019
6640 Clouds 8 1022 75 0 1.5 200 12:25 09.06.2019
6641 Clouds 8 1021 75 0 4.1 180 11:47 09.06.2019
6642 Clouds 8 1021 75 0 4.1 180 11:28 09.06.2019
6643 Clouds 8 1021 75 0 1.5 0 10:46 09.06.2019
6644 Clouds 8 1021 75 0 1.5 0 10:46 09.06.2019
6645 Clouds 8 1021 75 0 1.5 0 10:24 09.06.2019
6646 Clouds 8 1020 75 0 5.7 200 09:41 09.06.2019
6647 Clouds 8 1020 75 0 5.7 200 09:23 09.06.2019
6648 Clouds 9 1019 66 0 6.7 180 08:55 09.06.2019
6649 Clouds 9 1019 66 0 6.7 180 08:36 09.06.2019
6650 Clouds 10 1018 61 0 8.7 170 07:50 09.06.2019
6651 Rain 9 1018 76 0 9.3 160 06:30 09.06.2019
6652 Drizzle 9 1017 76 0 9.8 160 05:34 09.06.2019
6653 Clouds 9 1014 76 10000 4.6 190 01:58 09.06.2019
6654 Clouds 9 1014 76 10000 4.6 190 01:36 09.06.2019
6655 Clouds 9 1014 76 10000 4.6 190 01:36 09.06.2019
6656 Clouds 9 1014 76 10000 4.6 190 01:18 09.06.2019
6657 Clouds 12 1014 58 10000 2.1 290 00:22 09.06.2019
6658 Clouds 14 1013 54 10000 1.5 10 23:40 08.06.2019
6659 Clouds 14 1013 54 10000 1.5 10 23:21 08.06.2019
6660 Clouds 15 1013 51 10000 3.6 310 22:44 08.06.2019
6661 Clouds 15 1013 51 10000 3.6 310 22:25 08.06.2019
6662 Clouds 17 1013 45 10000 2.6 330 21:54 08.06.2019
6663 Clouds 17 1013 45 10000 2.6 330 21:35 08.06.2019
6664 Clouds 17 1013 45 10000 2.6 330 21:35 08.06.2019
6665 Clouds 17 1013 45 10000 2.6 330 21:35 08.06.2019
6666 Clouds 16 1013 48 10000 2.1 10 20:59 08.06.2019
6667 Clouds 16 1013 48 10000 2.1 10 20:40 08.06.2019
6668 Clouds 16 1013 48 10000 2.1 10 20:21 08.06.2019
6669 Clouds 16 1013 44 10000 3.1 40 19:42 08.06.2019
6670 Clouds 16 1013 44 10000 3.1 40 19:23 08.06.2019
6671 Clouds 16 1013 48 10000 3.6 40 18:58 08.06.2019
6672 Clouds 16 1013 48 10000 3.6 40 18:39 08.06.2019
6673 Clouds 16 1013 48 10000 3.6 40 18:18 08.06.2019
6674 Clouds 14 1014 58 10000 4.1 50 17:42 08.06.2019
6675 Clouds 14 1014 58 10000 4.1 50 17:19 08.06.2019
6676 Clouds 12 1014 66 10000 4.6 40 16:45 08.06.2019
6677 Clouds 12 1014 66 10000 4.6 40 16:26 08.06.2019
6678 Clouds 11 1014 71 10000 4.1 40 15:42 08.06.2019
6679 Clouds 11 1014 71 10000 4.1 40 15:22 08.06.2019
6680 Clouds 9 1015 81 10000 4.1 40 14:47 08.06.2019
6681 Clouds 9 1015 81 10000 4.1 40 14:27 08.06.2019
6682 Clouds 9 1015 81 10000 4.6 40 13:40 08.06.2019
6683 Clouds 7 1015 87 10000 2.1 20 12:52 08.06.2019
6684 Clouds 7 1015 87 10000 2.1 20 12:32 08.06.2019
6685 Clouds 6 1016 93 0 3.1 10 11:44 08.06.2019
6686 Clouds 6 1016 93 0 3.1 10 11:44 08.06.2019
6687 Clouds 6 1016 93 0 3.1 10 11:25 08.06.2019
6688 Clouds 7 1016 81 0 3.85 8.841 10:46 08.06.2019
6689 Clouds 7 1016 81 0 3.85 8.841 10:24 08.06.2019
6690 Clouds 7 1016 87 0 1.5 200 09:52 08.06.2019
6691 Clouds 7 1016 87 0 1.5 200 09:28 08.06.2019
6692 Clouds 6 1016 87 0 4.1 60 08:39 08.06.2019
6693 Clouds 6 1016 87 0 4.1 60 08:18 08.06.2019
6694 Clouds 6 1016 87 0 3.1 30 06:51 08.06.2019
6695 Clouds 6 1016 81 0 4.6 30 05:56 08.06.2019
6696 Clouds 7 1017 75 10000 3.1 20 03:34 08.06.2019
6697 Clouds 9 1018 76 10000 3.1 40 01:59 08.06.2019
6698 Clouds 10 1018 71 10000 2.6 350 00:29 08.06.2019
6699 Clouds 10 1018 66 10000 1.5 350 23:53 07.06.2019
6700 Clouds 10 1018 66 10000 1.5 350 23:21 07.06.2019
6701 Clouds 10 1018 71 10000 2.1 330 22:50 07.06.2019
6702 Clouds 10 1018 71 10000 2.1 330 22:32 07.06.2019
6703 Clouds 9 1018 66 10000 2.6 330 21:54 07.06.2019
6704 Clouds 9 1018 66 10000 2.6 330 21:31 07.06.2019
6705 Clouds 9 1018 76 10000 2.1 10 20:59 07.06.2019
6706 Clouds 9 1018 76 10000 2.1 10 20:41 07.06.2019
6707 Clouds 9 1018 76 10000 2.1 10 20:22 07.06.2019
6708 Clouds 10 1018 71 10000 2.6 350 19:38 07.06.2019
6709 Clouds 10 1018 71 10000 2.6 350 19:19 07.06.2019
6710 Clouds 10 1018 71 10000 2.1 230 18:41 07.06.2019
6711 Clouds 10 1018 71 10000 2.1 230 18:41 07.06.2019
6712 Clouds 10 1018 71 10000 2.1 230 18:22 07.06.2019
6713 Clouds 8 1018 75 10000 1.5 200 17:43 07.06.2019
6714 Clouds 8 1018 75 10000 1.5 200 17:20 07.06.2019
6715 Rain 7 1018 87 10000 2.1 200 16:41 07.06.2019
6716 Rain 7 1018 87 10000 2.1 200 16:20 07.06.2019
6717 Clouds 7 1018 87 10000 2.1 190 15:47 07.06.2019
6718 Clouds 7 1018 87 10000 2.1 190 15:20 07.06.2019
6719 Rain 6 1017 93 10000 2.6 190 14:42 07.06.2019
6720 Rain 6 1017 93 10000 2.6 190 14:21 07.06.2019
6721 Clouds 6 1017 93 10000 3.06 86.741 13:28 07.06.2019
6722 Clouds 6 1017 93 10000 1 200 12:54 07.06.2019
6723 Clouds 6 1017 93 10000 1 200 12:30 07.06.2019
6724 Clouds 6 1017 93 10000 1.5 220 11:58 07.06.2019
6725 Clouds 6 1017 93 10000 1.5 220 11:39 07.06.2019
6726 Clouds 6 1017 93 10000 1.5 220 11:21 07.06.2019
6727 Rain 5 1016 93 10000 3.6 80 10:43 07.06.2019
6728 Rain 5 1016 93 10000 3.6 80 10:21 07.06.2019
6729 Rain 5 1016 93 0 5.1 50 09:49 07.06.2019
6730 Rain 5 1016 93 0 5.1 50 09:27 07.06.2019
6731 Rain 5 1016 93 0 5.7 50 08:49 07.06.2019
6732 Rain 5 1016 93 0 5.7 50 08:28 07.06.2019
6733 Snow 5 1017 93 0 4.6 50 07:52 07.06.2019
6734 Snow 5 1017 93 0 4.6 50 07:22 07.06.2019
6735 Snow 5 1017 93 0 2.6 190 06:48 07.06.2019
6736 Snow 5 1017 93 0 2.6 190 06:27 07.06.2019
6737 Snow 5 1017 100 0 2.1 190 05:45 07.06.2019
6738 Snow 6 1017 93 0 1 350 02:46 07.06.2019
6739 Rain 6 1016 100 10000 1.5 340 01:39 07.06.2019
6740 Rain 6 1016 100 4600 1 230 00:48 07.06.2019
6741 Rain 6 1016 100 4600 1 230 00:20 07.06.2019
6742 Rain 7 1015 93 10000 0.5 290 23:41 06.06.2019
6743 Rain 7 1015 93 10000 0.5 290 23:19 06.06.2019
6744 Drizzle 7 1015 87 10000 2.1 350 22:38 06.06.2019
6745 Drizzle 7 1015 87 10000 2.1 350 22:19 06.06.2019
6746 Clouds 8 1015 81 10000 2.1 20 21:55 06.06.2019
6747 Clouds 8 1015 81 10000 2.1 20 21:37 06.06.2019
6748 Clouds 8 1015 81 10000 2.1 20 21:18 06.06.2019
6749 Clouds 8 1015 87 10000 3.1 30 20:41 06.06.2019
6750 Clouds 7 1015 87 10000 3.1 30 20:21 06.06.2019
6751 Clouds 7 1015 93 10000 1 0 19:39 06.06.2019
6752 Clouds 7 1015 93 10000 1 0 19:19 06.06.2019
6753 Rain 7 1015 93 10000 2.1 340 18:52 06.06.2019
6754 Rain 7 1015 93 10000 2.1 340 18:32 06.06.2019
6755 Rain 6 1015 93 10000 1.5 330 17:57 06.06.2019
6756 Rain 6 1015 93 10000 1.5 330 17:38 06.06.2019
6757 Rain 6 1015 93 10000 1.5 330 17:20 06.06.2019
6758 Rain 6 1015 93 10000 1.5 330 17:20 06.06.2019
6759 Drizzle 5 1014 93 10000 2.6 10 16:43 06.06.2019
6760 Drizzle 5 1014 93 10000 2.6 10 16:22 06.06.2019
6761 Drizzle 5 1013 93 10000 4.6 20 15:47 06.06.2019
6762 Drizzle 5 1013 93 10000 4.6 20 15:26 06.06.2019
6763 Drizzle 4 1013 100 10000 2.6 40 14:46 06.06.2019
6764 Drizzle 4 1013 100 10000 2.6 40 14:20 06.06.2019
6765 Drizzle 4 1013 93 10000 1.5 350 13:55 06.06.2019
6766 Drizzle 4 1013 93 10000 1.5 350 13:37 06.06.2019
6767 Drizzle 4 1013 93 10000 1.5 350 13:18 06.06.2019
6768 Fog 3 1013 100 10000 1 170 12:43 06.06.2019
6769 Fog 3 1013 100 10000 1 170 12:21 06.06.2019
6770 Fog 3 1013 100 500</